<?xml version="1.0" encoding="UTF-8" standalone="no" ?>
<gpx xmlns="http://www.topografix.com/GPX/1/1" xmlns:xsi="http://www.w3.org/2001/XMLSchema-instance" xsi:schemaLocation="http://www.topografix.com/GPX/1/1 http://www.topografix.com/GPX/1/1/gpx.xsd" version="1.1" creator="VisuGPX - https://www.visugpx.com">
  <metadata>
    <name>Tour ile Oléron 2e partie</name>
  </metadata>
  <trk>
    <name><![CDATA[Tour ile Oléron 2e partie_1]]></name>
    <trkseg>
      <trkpt lat="46.03733" lon="-1.37209">
        <ele>12.6</ele>
        <time>2022-03-26T12:36:17Z</time>
      </trkpt>
      <trkpt lat="46.03738" lon="-1.37209">
        <ele>7.4</ele>
        <time>2022-03-26T12:36:32Z</time>
      </trkpt>
      <trkpt lat="46.03736" lon="-1.3721">
        <ele>5</ele>
        <time>2022-03-26T12:36:37Z</time>
      </trkpt>
      <trkpt lat="46.03737" lon="-1.3721">
        <ele>3.8</ele>
        <time>2022-03-26T12:36:42Z</time>
      </trkpt>
      <trkpt lat="46.03735" lon="-1.37208">
        <ele>2.2</ele>
        <time>2022-03-26T12:36:48Z</time>
      </trkpt>
      <trkpt lat="46.03735" lon="-1.37205">
        <ele>2.2</ele>
        <time>2022-03-26T12:36:50Z</time>
      </trkpt>
      <trkpt lat="46.03734" lon="-1.372">
        <ele>1.6</ele>
        <time>2022-03-26T12:36:52Z</time>
      </trkpt>
      <trkpt lat="46.03729" lon="-1.37205">
        <ele>1.2</ele>
        <time>2022-03-26T12:36:53Z</time>
      </trkpt>
      <trkpt lat="46.03729" lon="-1.37205">
        <ele>0.80000000000001</ele>
        <time>2022-03-26T12:36:55Z</time>
      </trkpt>
      <trkpt lat="46.03726" lon="-1.3719">
        <ele>0.39999999999998</ele>
        <time>2022-03-26T12:36:59Z</time>
      </trkpt>
      <trkpt lat="46.0373" lon="-1.37208">
        <ele>0.39999999999998</ele>
        <time>2022-03-26T12:37:02Z</time>
      </trkpt>
      <trkpt lat="46.0373" lon="-1.37208">
        <ele>0.39999999999998</ele>
        <time>2022-03-26T12:37:03Z</time>
      </trkpt>
      <trkpt lat="46.03721" lon="-1.37212">
        <ele>-0.60000000000002</ele>
        <time>2022-03-26T12:37:06Z</time>
      </trkpt>
      <trkpt lat="46.0372" lon="-1.37211">
        <ele>-1</ele>
        <time>2022-03-26T12:37:07Z</time>
      </trkpt>
      <trkpt lat="46.03714" lon="-1.37215">
        <ele>-1</ele>
        <time>2022-03-26T12:37:09Z</time>
      </trkpt>
      <trkpt lat="46.03697" lon="-1.37225">
        <ele>-1</ele>
        <time>2022-03-26T12:37:15Z</time>
      </trkpt>
      <trkpt lat="46.0368" lon="-1.37237">
        <ele>-1</ele>
        <time>2022-03-26T12:37:20Z</time>
      </trkpt>
      <trkpt lat="46.03679" lon="-1.37249">
        <ele>-0.80000000000001</ele>
        <time>2022-03-26T12:37:23Z</time>
      </trkpt>
      <trkpt lat="46.03678" lon="-1.37253">
        <ele>-0.60000000000002</ele>
        <time>2022-03-26T12:37:24Z</time>
      </trkpt>
      <trkpt lat="46.03674" lon="-1.37265">
        <ele>-0.60000000000002</ele>
        <time>2022-03-26T12:37:28Z</time>
      </trkpt>
      <trkpt lat="46.03678" lon="-1.37257">
        <ele>-0.60000000000002</ele>
        <time>2022-03-26T12:37:29Z</time>
      </trkpt>
      <trkpt lat="46.03676" lon="-1.37288">
        <ele>-1.2</ele>
        <time>2022-03-26T12:37:32Z</time>
      </trkpt>
      <trkpt lat="46.03672" lon="-1.37284">
        <ele>-1.6</ele>
        <time>2022-03-26T12:37:35Z</time>
      </trkpt>
      <trkpt lat="46.03665" lon="-1.37278">
        <ele>-1.4</ele>
        <time>2022-03-26T12:37:37Z</time>
      </trkpt>
      <trkpt lat="46.03666" lon="-1.37279">
        <ele>-1.2</ele>
        <time>2022-03-26T12:37:39Z</time>
      </trkpt>
      <trkpt lat="46.03644" lon="-1.37277">
        <ele>-1.4</ele>
        <time>2022-03-26T12:37:45Z</time>
      </trkpt>
      <trkpt lat="46.0363" lon="-1.37288">
        <ele>-1.6</ele>
        <time>2022-03-26T12:37:49Z</time>
      </trkpt>
      <trkpt lat="46.03614" lon="-1.37309">
        <ele>-1</ele>
        <time>2022-03-26T12:37:55Z</time>
      </trkpt>
      <trkpt lat="46.03599" lon="-1.37329">
        <ele>-0.60000000000002</ele>
        <time>2022-03-26T12:38:01Z</time>
      </trkpt>
      <trkpt lat="46.03584" lon="-1.3735">
        <ele>-1</ele>
        <time>2022-03-26T12:38:07Z</time>
      </trkpt>
      <trkpt lat="46.03582" lon="-1.37352">
        <ele>-1</ele>
        <time>2022-03-26T12:38:08Z</time>
      </trkpt>
      <trkpt lat="46.03572" lon="-1.37367">
        <ele>-0.60000000000002</ele>
        <time>2022-03-26T12:38:13Z</time>
      </trkpt>
      <trkpt lat="46.03562" lon="-1.3738">
        <ele>-0.39999999999998</ele>
        <time>2022-03-26T12:38:17Z</time>
      </trkpt>
      <trkpt lat="46.03554" lon="-1.37391">
        <ele>-0.39999999999998</ele>
        <time>2022-03-26T12:38:20Z</time>
      </trkpt>
      <trkpt lat="46.03545" lon="-1.37403">
        <ele>-0.39999999999998</ele>
        <time>2022-03-26T12:38:23Z</time>
      </trkpt>
      <trkpt lat="46.03539" lon="-1.37411">
        <ele>-0.19999999999999</ele>
        <time>2022-03-26T12:38:25Z</time>
      </trkpt>
      <trkpt lat="46.03526" lon="-1.37428">
        <ele>-0.19999999999999</ele>
        <time>2022-03-26T12:38:30Z</time>
      </trkpt>
      <trkpt lat="46.03514" lon="-1.37443">
        <ele>-0.19999999999999</ele>
        <time>2022-03-26T12:38:34Z</time>
      </trkpt>
      <trkpt lat="46.03511" lon="-1.37447">
        <ele>-0.19999999999999</ele>
        <time>2022-03-26T12:38:35Z</time>
      </trkpt>
      <trkpt lat="46.035" lon="-1.37461">
        <ele>-0.19999999999999</ele>
        <time>2022-03-26T12:38:39Z</time>
      </trkpt>
      <trkpt lat="46.03487" lon="-1.37478">
        <ele>0.19999999999999</ele>
        <time>2022-03-26T12:38:44Z</time>
      </trkpt>
      <trkpt lat="46.03474" lon="-1.37495">
        <ele>0.19999999999999</ele>
        <time>2022-03-26T12:38:48Z</time>
      </trkpt>
      <trkpt lat="46.03471" lon="-1.37499">
        <ele>0.19999999999999</ele>
        <time>2022-03-26T12:38:49Z</time>
      </trkpt>
      <trkpt lat="46.03456" lon="-1.37518">
        <ele>0.19999999999999</ele>
        <time>2022-03-26T12:38:54Z</time>
      </trkpt>
      <trkpt lat="46.03444" lon="-1.37533">
        <ele>0.39999999999998</ele>
        <time>2022-03-26T12:38:58Z</time>
      </trkpt>
      <trkpt lat="46.0343" lon="-1.37551">
        <ele>0.39999999999998</ele>
        <time>2022-03-26T12:39:03Z</time>
      </trkpt>
      <trkpt lat="46.03415" lon="-1.37568">
        <ele>0.60000000000002</ele>
        <time>2022-03-26T12:39:08Z</time>
      </trkpt>
      <trkpt lat="46.03398" lon="-1.37587">
        <ele>0.60000000000002</ele>
        <time>2022-03-26T12:39:14Z</time>
      </trkpt>
      <trkpt lat="46.03387" lon="-1.37599">
        <ele>0.80000000000001</ele>
        <time>2022-03-26T12:39:18Z</time>
      </trkpt>
      <trkpt lat="46.03372" lon="-1.37615">
        <ele>0.80000000000001</ele>
        <time>2022-03-26T12:39:22Z</time>
      </trkpt>
      <trkpt lat="46.03366" lon="-1.37622">
        <ele>1</ele>
        <time>2022-03-26T12:39:24Z</time>
      </trkpt>
      <trkpt lat="46.03345" lon="-1.37645">
        <ele>1.2</ele>
        <time>2022-03-26T12:39:31Z</time>
      </trkpt>
      <trkpt lat="46.03326" lon="-1.37667">
        <ele>1.4</ele>
        <time>2022-03-26T12:39:37Z</time>
      </trkpt>
      <trkpt lat="46.0331" lon="-1.37692">
        <ele>1.6</ele>
        <time>2022-03-26T12:39:43Z</time>
      </trkpt>
      <trkpt lat="46.03296" lon="-1.37713">
        <ele>1.8</ele>
        <time>2022-03-26T12:39:49Z</time>
      </trkpt>
      <trkpt lat="46.03278" lon="-1.37741">
        <ele>2</ele>
        <time>2022-03-26T12:39:56Z</time>
      </trkpt>
      <trkpt lat="46.0327" lon="-1.37764">
        <ele>2.2</ele>
        <time>2022-03-26T12:40:01Z</time>
      </trkpt>
      <trkpt lat="46.03265" lon="-1.37781">
        <ele>2.2</ele>
        <time>2022-03-26T12:40:06Z</time>
      </trkpt>
      <trkpt lat="46.03274" lon="-1.37794">
        <ele>2.2</ele>
        <time>2022-03-26T12:40:09Z</time>
      </trkpt>
      <trkpt lat="46.03286" lon="-1.37792">
        <ele>2.2</ele>
        <time>2022-03-26T12:40:13Z</time>
      </trkpt>
      <trkpt lat="46.03298" lon="-1.3779">
        <ele>2.2</ele>
        <time>2022-03-26T12:40:18Z</time>
      </trkpt>
      <trkpt lat="46.03303" lon="-1.37789">
        <ele>2</ele>
        <time>2022-03-26T12:40:21Z</time>
      </trkpt>
      <trkpt lat="46.03305" lon="-1.37788">
        <ele>2</ele>
        <time>2022-03-26T12:40:23Z</time>
      </trkpt>
      <trkpt lat="46.03316" lon="-1.37814">
        <ele>1.8</ele>
        <time>2022-03-26T12:40:27Z</time>
      </trkpt>
      <trkpt lat="46.03317" lon="-1.37832">
        <ele>1.6</ele>
        <time>2022-03-26T12:40:30Z</time>
      </trkpt>
      <trkpt lat="46.03317" lon="-1.37844">
        <ele>1.4</ele>
        <time>2022-03-26T12:40:32Z</time>
      </trkpt>
      <trkpt lat="46.03322" lon="-1.37867">
        <ele>1.2</ele>
        <time>2022-03-26T12:40:37Z</time>
      </trkpt>
      <trkpt lat="46.03336" lon="-1.37889">
        <ele>1</ele>
        <time>2022-03-26T12:40:43Z</time>
      </trkpt>
      <trkpt lat="46.03341" lon="-1.37895">
        <ele>1</ele>
        <time>2022-03-26T12:40:46Z</time>
      </trkpt>
      <trkpt lat="46.03342" lon="-1.37897">
        <ele>0.80000000000001</ele>
        <time>2022-03-26T12:40:48Z</time>
      </trkpt>
      <trkpt lat="46.0334" lon="-1.37966">
        <ele>0.60000000000002</ele>
        <time>2022-03-26T12:40:55Z</time>
      </trkpt>
      <trkpt lat="46.03334" lon="-1.37984">
        <ele>0.60000000000002</ele>
        <time>2022-03-26T12:40:57Z</time>
      </trkpt>
      <trkpt lat="46.03333" lon="-1.37993">
        <ele>0.39999999999998</ele>
        <time>2022-03-26T12:41:00Z</time>
      </trkpt>
      <trkpt lat="46.03333" lon="-1.37998">
        <ele>0.60000000000002</ele>
        <time>2022-03-26T12:41:01Z</time>
      </trkpt>
      <trkpt lat="46.03332" lon="-1.38009">
        <ele>0.39999999999998</ele>
        <time>2022-03-26T12:41:03Z</time>
      </trkpt>
      <trkpt lat="46.03332" lon="-1.38015">
        <ele>0.39999999999998</ele>
        <time>2022-03-26T12:41:04Z</time>
      </trkpt>
      <trkpt lat="46.03331" lon="-1.38022">
        <ele>0.60000000000002</ele>
        <time>2022-03-26T12:41:06Z</time>
      </trkpt>
      <trkpt lat="46.0333" lon="-1.38043">
        <ele>0.39999999999998</ele>
        <time>2022-03-26T12:41:08Z</time>
      </trkpt>
      <trkpt lat="46.03328" lon="-1.38057">
        <ele>0.60000000000002</ele>
        <time>2022-03-26T12:41:10Z</time>
      </trkpt>
      <trkpt lat="46.03327" lon="-1.38069">
        <ele>0.60000000000002</ele>
        <time>2022-03-26T12:41:13Z</time>
      </trkpt>
      <trkpt lat="46.03322" lon="-1.38111">
        <ele>0.80000000000001</ele>
        <time>2022-03-26T12:41:19Z</time>
      </trkpt>
      <trkpt lat="46.03323" lon="-1.38155">
        <ele>0.80000000000001</ele>
        <time>2022-03-26T12:41:25Z</time>
      </trkpt>
      <trkpt lat="46.03323" lon="-1.38162">
        <ele>0.80000000000001</ele>
        <time>2022-03-26T12:41:26Z</time>
      </trkpt>
      <trkpt lat="46.03325" lon="-1.38182">
        <ele>0.80000000000001</ele>
        <time>2022-03-26T12:41:29Z</time>
      </trkpt>
      <trkpt lat="46.03326" lon="-1.38187">
        <ele>0.80000000000001</ele>
        <time>2022-03-26T12:41:31Z</time>
      </trkpt>
      <trkpt lat="46.03337" lon="-1.38205">
        <ele>0.80000000000001</ele>
        <time>2022-03-26T12:41:34Z</time>
      </trkpt>
      <trkpt lat="46.03346" lon="-1.3822">
        <ele>1</ele>
        <time>2022-03-26T12:41:37Z</time>
      </trkpt>
      <trkpt lat="46.03356" lon="-1.38236">
        <ele>1</ele>
        <time>2022-03-26T12:41:42Z</time>
      </trkpt>
      <trkpt lat="46.03366" lon="-1.38263">
        <ele>1</ele>
        <time>2022-03-26T12:41:47Z</time>
      </trkpt>
      <trkpt lat="46.03366" lon="-1.38269">
        <ele>1</ele>
        <time>2022-03-26T12:41:48Z</time>
      </trkpt>
      <trkpt lat="46.03367" lon="-1.38298">
        <ele>1</ele>
        <time>2022-03-26T12:41:52Z</time>
      </trkpt>
      <trkpt lat="46.03371" lon="-1.38345">
        <ele>1.2</ele>
        <time>2022-03-26T12:41:59Z</time>
      </trkpt>
      <trkpt lat="46.03371" lon="-1.38345">
        <ele>1.2</ele>
        <time>2022-03-26T12:42:00Z</time>
      </trkpt>
      <trkpt lat="46.03376" lon="-1.38373">
        <ele>1.2</ele>
        <time>2022-03-26T12:42:04Z</time>
      </trkpt>
      <trkpt lat="46.03385" lon="-1.38422">
        <ele>1.6</ele>
        <time>2022-03-26T12:42:11Z</time>
      </trkpt>
      <trkpt lat="46.03388" lon="-1.38441">
        <ele>1.6</ele>
        <time>2022-03-26T12:42:13Z</time>
      </trkpt>
      <trkpt lat="46.03396" lon="-1.38466">
        <ele>1.6</ele>
        <time>2022-03-26T12:42:17Z</time>
      </trkpt>
      <trkpt lat="46.03415" lon="-1.38514">
        <ele>1.8</ele>
        <time>2022-03-26T12:42:24Z</time>
      </trkpt>
      <trkpt lat="46.0343" lon="-1.38553">
        <ele>1.8</ele>
        <time>2022-03-26T12:42:30Z</time>
      </trkpt>
      <trkpt lat="46.03442" lon="-1.38585">
        <ele>2</ele>
        <time>2022-03-26T12:42:36Z</time>
      </trkpt>
      <trkpt lat="46.03455" lon="-1.38615">
        <ele>2.4</ele>
        <time>2022-03-26T12:42:42Z</time>
      </trkpt>
      <trkpt lat="46.03472" lon="-1.38656">
        <ele>2.6</ele>
        <time>2022-03-26T12:42:48Z</time>
      </trkpt>
      <trkpt lat="46.03492" lon="-1.38692">
        <ele>2.8</ele>
        <time>2022-03-26T12:42:55Z</time>
      </trkpt>
      <trkpt lat="46.03515" lon="-1.38727">
        <ele>2.8</ele>
        <time>2022-03-26T12:43:01Z</time>
      </trkpt>
      <trkpt lat="46.03533" lon="-1.38754">
        <ele>3</ele>
        <time>2022-03-26T12:43:07Z</time>
      </trkpt>
      <trkpt lat="46.03539" lon="-1.38764">
        <ele>3</ele>
        <time>2022-03-26T12:43:08Z</time>
      </trkpt>
      <trkpt lat="46.03554" lon="-1.38786">
        <ele>3.2</ele>
        <time>2022-03-26T12:43:14Z</time>
      </trkpt>
      <trkpt lat="46.0357" lon="-1.3881">
        <ele>3.4</ele>
        <time>2022-03-26T12:43:18Z</time>
      </trkpt>
      <trkpt lat="46.03572" lon="-1.38824">
        <ele>3.4</ele>
        <time>2022-03-26T12:43:20Z</time>
      </trkpt>
      <trkpt lat="46.03578" lon="-1.38849">
        <ele>3.4</ele>
        <time>2022-03-26T12:43:25Z</time>
      </trkpt>
      <trkpt lat="46.0358" lon="-1.38866">
        <ele>3.4</ele>
        <time>2022-03-26T12:43:31Z</time>
      </trkpt>
      <trkpt lat="46.03581" lon="-1.38877">
        <ele>3.4</ele>
        <time>2022-03-26T12:43:37Z</time>
      </trkpt>
      <trkpt lat="46.03581" lon="-1.38877">
        <ele>3</ele>
        <time>2022-03-26T12:43:42Z</time>
      </trkpt>
      <trkpt lat="46.03581" lon="-1.38877">
        <ele>3</ele>
        <time>2022-03-26T12:44:01Z</time>
      </trkpt>
      <trkpt lat="46.03581" lon="-1.38877">
        <ele>3</ele>
        <time>2022-03-26T12:44:23Z</time>
      </trkpt>
      <trkpt lat="46.03581" lon="-1.38877">
        <ele>2.8</ele>
        <time>2022-03-26T12:44:44Z</time>
      </trkpt>
      <trkpt lat="46.03581" lon="-1.38877">
        <ele>2.6</ele>
        <time>2022-03-26T12:45:01Z</time>
      </trkpt>
      <trkpt lat="46.03581" lon="-1.38879">
        <ele>2.6</ele>
        <time>2022-03-26T12:45:05Z</time>
      </trkpt>
      <trkpt lat="46.03582" lon="-1.38885">
        <ele>2.4</ele>
        <time>2022-03-26T12:45:07Z</time>
      </trkpt>
      <trkpt lat="46.03583" lon="-1.38905">
        <ele>2.2</ele>
        <time>2022-03-26T12:45:12Z</time>
      </trkpt>
      <trkpt lat="46.03586" lon="-1.38947">
        <ele>1.8</ele>
        <time>2022-03-26T12:45:18Z</time>
      </trkpt>
      <trkpt lat="46.03592" lon="-1.39009">
        <ele>1.8</ele>
        <time>2022-03-26T12:45:26Z</time>
      </trkpt>
      <trkpt lat="46.03597" lon="-1.39043">
        <ele>1.4</ele>
        <time>2022-03-26T12:45:33Z</time>
      </trkpt>
      <trkpt lat="46.03607" lon="-1.39096">
        <ele>2</ele>
        <time>2022-03-26T12:45:41Z</time>
      </trkpt>
      <trkpt lat="46.03617" lon="-1.39147">
        <ele>2</ele>
        <time>2022-03-26T12:45:49Z</time>
      </trkpt>
      <trkpt lat="46.03627" lon="-1.39193">
        <ele>2.2</ele>
        <time>2022-03-26T12:45:57Z</time>
      </trkpt>
      <trkpt lat="46.03639" lon="-1.3925">
        <ele>2.4</ele>
        <time>2022-03-26T12:46:04Z</time>
      </trkpt>
      <trkpt lat="46.0365" lon="-1.39298">
        <ele>2.4</ele>
        <time>2022-03-26T12:46:12Z</time>
      </trkpt>
      <trkpt lat="46.03667" lon="-1.39344">
        <ele>2.6</ele>
        <time>2022-03-26T12:46:18Z</time>
      </trkpt>
      <trkpt lat="46.03689" lon="-1.39388">
        <ele>2.6</ele>
        <time>2022-03-26T12:46:25Z</time>
      </trkpt>
      <trkpt lat="46.03707" lon="-1.39423">
        <ele>2.6</ele>
        <time>2022-03-26T12:46:32Z</time>
      </trkpt>
      <trkpt lat="46.03733" lon="-1.39486">
        <ele>2.8</ele>
        <time>2022-03-26T12:46:40Z</time>
      </trkpt>
      <trkpt lat="46.0375" lon="-1.39542">
        <ele>2.8</ele>
        <time>2022-03-26T12:46:47Z</time>
      </trkpt>
      <trkpt lat="46.03761" lon="-1.39593">
        <ele>2.6</ele>
        <time>2022-03-26T12:46:53Z</time>
      </trkpt>
      <trkpt lat="46.0378" lon="-1.39649">
        <ele>3</ele>
        <time>2022-03-26T12:47:00Z</time>
      </trkpt>
      <trkpt lat="46.03793" lon="-1.39669">
        <ele>3</ele>
        <time>2022-03-26T12:47:03Z</time>
      </trkpt>
      <trkpt lat="46.03801" lon="-1.39681">
        <ele>3</ele>
        <time>2022-03-26T12:47:05Z</time>
      </trkpt>
      <trkpt lat="46.03831" lon="-1.39722">
        <ele>3</ele>
        <time>2022-03-26T12:47:12Z</time>
      </trkpt>
      <trkpt lat="46.03863" lon="-1.3977">
        <ele>3</ele>
        <time>2022-03-26T12:47:20Z</time>
      </trkpt>
      <trkpt lat="46.03889" lon="-1.39815">
        <ele>3.2</ele>
        <time>2022-03-26T12:47:27Z</time>
      </trkpt>
      <trkpt lat="46.03911" lon="-1.3986">
        <ele>3.2</ele>
        <time>2022-03-26T12:47:34Z</time>
      </trkpt>
      <trkpt lat="46.03925" lon="-1.399">
        <ele>3.2</ele>
        <time>2022-03-26T12:47:39Z</time>
      </trkpt>
      <trkpt lat="46.03937" lon="-1.39955">
        <ele>3</ele>
        <time>2022-03-26T12:47:46Z</time>
      </trkpt>
      <trkpt lat="46.03951" lon="-1.40016">
        <ele>3</ele>
        <time>2022-03-26T12:47:55Z</time>
      </trkpt>
      <trkpt lat="46.03951" lon="-1.40049">
        <ele>2.8</ele>
        <time>2022-03-26T12:47:59Z</time>
      </trkpt>
      <trkpt lat="46.0395" lon="-1.40058">
        <ele>2.8</ele>
        <time>2022-03-26T12:48:00Z</time>
      </trkpt>
      <trkpt lat="46.03943" lon="-1.40106">
        <ele>2.8</ele>
        <time>2022-03-26T12:48:06Z</time>
      </trkpt>
      <trkpt lat="46.0394" lon="-1.40128">
        <ele>2.6</ele>
        <time>2022-03-26T12:48:09Z</time>
      </trkpt>
      <trkpt lat="46.03934" lon="-1.40148">
        <ele>2.8</ele>
        <time>2022-03-26T12:48:12Z</time>
      </trkpt>
      <trkpt lat="46.0392" lon="-1.40193">
        <ele>2.8</ele>
        <time>2022-03-26T12:48:19Z</time>
      </trkpt>
      <trkpt lat="46.03917" lon="-1.40205">
        <ele>2.8</ele>
        <time>2022-03-26T12:48:21Z</time>
      </trkpt>
      <trkpt lat="46.03915" lon="-1.40216">
        <ele>2.6</ele>
        <time>2022-03-26T12:48:23Z</time>
      </trkpt>
      <trkpt lat="46.03919" lon="-1.40219">
        <ele>2.6</ele>
        <time>2022-03-26T12:48:25Z</time>
      </trkpt>
      <trkpt lat="46.03926" lon="-1.40228">
        <ele>2.6</ele>
        <time>2022-03-26T12:48:26Z</time>
      </trkpt>
      <trkpt lat="46.0393" lon="-1.40231">
        <ele>2.6</ele>
        <time>2022-03-26T12:48:27Z</time>
      </trkpt>
      <trkpt lat="46.03945" lon="-1.40238">
        <ele>2.4</ele>
        <time>2022-03-26T12:48:30Z</time>
      </trkpt>
      <trkpt lat="46.0395" lon="-1.4024">
        <ele>2.4</ele>
        <time>2022-03-26T12:48:31Z</time>
      </trkpt>
      <trkpt lat="46.03983" lon="-1.40246">
        <ele>2.8</ele>
        <time>2022-03-26T12:48:37Z</time>
      </trkpt>
      <trkpt lat="46.04025" lon="-1.40253">
        <ele>2.8</ele>
        <time>2022-03-26T12:48:44Z</time>
      </trkpt>
      <trkpt lat="46.04031" lon="-1.40255">
        <ele>3</ele>
        <time>2022-03-26T12:48:45Z</time>
      </trkpt>
      <trkpt lat="46.04054" lon="-1.40266">
        <ele>3</ele>
        <time>2022-03-26T12:48:49Z</time>
      </trkpt>
      <trkpt lat="46.04088" lon="-1.40301">
        <ele>3.2</ele>
        <time>2022-03-26T12:48:56Z</time>
      </trkpt>
      <trkpt lat="46.04105" lon="-1.40308">
        <ele>3.2</ele>
        <time>2022-03-26T12:48:59Z</time>
      </trkpt>
      <trkpt lat="46.0411" lon="-1.40311">
        <ele>3.2</ele>
        <time>2022-03-26T12:49:00Z</time>
      </trkpt>
      <trkpt lat="46.0413" lon="-1.40327">
        <ele>3.4</ele>
        <time>2022-03-26T12:49:04Z</time>
      </trkpt>
      <trkpt lat="46.04134" lon="-1.40331">
        <ele>3.4</ele>
        <time>2022-03-26T12:49:05Z</time>
      </trkpt>
      <trkpt lat="46.04144" lon="-1.40337">
        <ele>3.4</ele>
        <time>2022-03-26T12:49:08Z</time>
      </trkpt>
      <trkpt lat="46.0416" lon="-1.4034">
        <ele>3.4</ele>
        <time>2022-03-26T12:49:10Z</time>
      </trkpt>
      <trkpt lat="46.0417" lon="-1.4034">
        <ele>3.6</ele>
        <time>2022-03-26T12:49:12Z</time>
      </trkpt>
      <trkpt lat="46.04174" lon="-1.40342">
        <ele>3.6</ele>
        <time>2022-03-26T12:49:13Z</time>
      </trkpt>
      <trkpt lat="46.04177" lon="-1.40347">
        <ele>3.6</ele>
        <time>2022-03-26T12:49:14Z</time>
      </trkpt>
      <trkpt lat="46.04186" lon="-1.40366">
        <ele>3.6</ele>
        <time>2022-03-26T12:49:17Z</time>
      </trkpt>
      <trkpt lat="46.04206" lon="-1.40412">
        <ele>3.8</ele>
        <time>2022-03-26T12:49:24Z</time>
      </trkpt>
      <trkpt lat="46.04226" lon="-1.40458">
        <ele>3.8</ele>
        <time>2022-03-26T12:49:31Z</time>
      </trkpt>
      <trkpt lat="46.04242" lon="-1.40488">
        <ele>3.8</ele>
        <time>2022-03-26T12:49:36Z</time>
      </trkpt>
      <trkpt lat="46.04256" lon="-1.40502">
        <ele>4</ele>
        <time>2022-03-26T12:49:39Z</time>
      </trkpt>
      <trkpt lat="46.04265" lon="-1.40512">
        <ele>4</ele>
        <time>2022-03-26T12:49:41Z</time>
      </trkpt>
      <trkpt lat="46.04302" lon="-1.40551">
        <ele>4</ele>
        <time>2022-03-26T12:49:49Z</time>
      </trkpt>
      <trkpt lat="46.04316" lon="-1.40574">
        <ele>4.2</ele>
        <time>2022-03-26T12:49:53Z</time>
      </trkpt>
      <trkpt lat="46.04323" lon="-1.40588">
        <ele>4.2</ele>
        <time>2022-03-26T12:49:55Z</time>
      </trkpt>
      <trkpt lat="46.04349" lon="-1.40652">
        <ele>4.2</ele>
        <time>2022-03-26T12:50:04Z</time>
      </trkpt>
      <trkpt lat="46.04362" lon="-1.40697">
        <ele>4.2</ele>
        <time>2022-03-26T12:50:11Z</time>
      </trkpt>
      <trkpt lat="46.04365" lon="-1.40708">
        <ele>4.2</ele>
        <time>2022-03-26T12:50:13Z</time>
      </trkpt>
      <trkpt lat="46.04376" lon="-1.4074">
        <ele>4.2</ele>
        <time>2022-03-26T12:50:18Z</time>
      </trkpt>
      <trkpt lat="46.04394" lon="-1.40782">
        <ele>4.2</ele>
        <time>2022-03-26T12:50:25Z</time>
      </trkpt>
      <trkpt lat="46.04403" lon="-1.40801">
        <ele>4.2</ele>
        <time>2022-03-26T12:50:29Z</time>
      </trkpt>
      <trkpt lat="46.04403" lon="-1.40801">
        <ele>4.2</ele>
        <time>2022-03-26T12:50:30Z</time>
      </trkpt>
      <trkpt lat="46.04407" lon="-1.40812">
        <ele>4.2</ele>
        <time>2022-03-26T12:50:31Z</time>
      </trkpt>
      <trkpt lat="46.04411" lon="-1.40823">
        <ele>4.2</ele>
        <time>2022-03-26T12:50:34Z</time>
      </trkpt>
      <trkpt lat="46.04421" lon="-1.40847">
        <ele>4</ele>
        <time>2022-03-26T12:50:39Z</time>
      </trkpt>
      <trkpt lat="46.04432" lon="-1.40882">
        <ele>4</ele>
        <time>2022-03-26T12:50:44Z</time>
      </trkpt>
      <trkpt lat="46.04447" lon="-1.40931">
        <ele>4</ele>
        <time>2022-03-26T12:50:52Z</time>
      </trkpt>
      <trkpt lat="46.04458" lon="-1.40969">
        <ele>4</ele>
        <time>2022-03-26T12:50:58Z</time>
      </trkpt>
      <trkpt lat="46.04476" lon="-1.4103">
        <ele>3.8</ele>
        <time>2022-03-26T12:51:06Z</time>
      </trkpt>
      <trkpt lat="46.04488" lon="-1.4107">
        <ele>3.6</ele>
        <time>2022-03-26T12:51:13Z</time>
      </trkpt>
      <trkpt lat="46.04492" lon="-1.41081">
        <ele>3.8</ele>
        <time>2022-03-26T12:51:15Z</time>
      </trkpt>
      <trkpt lat="46.04497" lon="-1.41093">
        <ele>3.8</ele>
        <time>2022-03-26T12:51:17Z</time>
      </trkpt>
      <trkpt lat="46.04502" lon="-1.41097">
        <ele>3.6</ele>
        <time>2022-03-26T12:51:18Z</time>
      </trkpt>
      <trkpt lat="46.04506" lon="-1.41098">
        <ele>3.6</ele>
        <time>2022-03-26T12:51:19Z</time>
      </trkpt>
      <trkpt lat="46.0451" lon="-1.41097">
        <ele>3.6</ele>
        <time>2022-03-26T12:51:21Z</time>
      </trkpt>
      <trkpt lat="46.04539" lon="-1.41077">
        <ele>3.6</ele>
        <time>2022-03-26T12:51:27Z</time>
      </trkpt>
      <trkpt lat="46.04553" lon="-1.41065">
        <ele>3.6</ele>
        <time>2022-03-26T12:51:32Z</time>
      </trkpt>
      <trkpt lat="46.04563" lon="-1.41056">
        <ele>3.8</ele>
        <time>2022-03-26T12:51:36Z</time>
      </trkpt>
      <trkpt lat="46.04566" lon="-1.41053">
        <ele>3.6</ele>
        <time>2022-03-26T12:51:37Z</time>
      </trkpt>
      <trkpt lat="46.04574" lon="-1.41048">
        <ele>3.6</ele>
        <time>2022-03-26T12:51:39Z</time>
      </trkpt>
      <trkpt lat="46.04579" lon="-1.41045">
        <ele>3.8</ele>
        <time>2022-03-26T12:51:40Z</time>
      </trkpt>
      <trkpt lat="46.04591" lon="-1.41036">
        <ele>3.6</ele>
        <time>2022-03-26T12:51:43Z</time>
      </trkpt>
      <trkpt lat="46.04603" lon="-1.41027">
        <ele>3.6</ele>
        <time>2022-03-26T12:51:47Z</time>
      </trkpt>
      <trkpt lat="46.04611" lon="-1.41018">
        <ele>3.6</ele>
        <time>2022-03-26T12:51:48Z</time>
      </trkpt>
      <trkpt lat="46.04618" lon="-1.41006">
        <ele>3.6</ele>
        <time>2022-03-26T12:51:50Z</time>
      </trkpt>
      <trkpt lat="46.04618" lon="-1.41006">
        <ele>3.6</ele>
        <time>2022-03-26T12:51:51Z</time>
      </trkpt>
      <trkpt lat="46.0463" lon="-1.40982">
        <ele>3.4</ele>
        <time>2022-03-26T12:51:55Z</time>
      </trkpt>
      <trkpt lat="46.04639" lon="-1.40968">
        <ele>3.4</ele>
        <time>2022-03-26T12:51:57Z</time>
      </trkpt>
      <trkpt lat="46.04642" lon="-1.4095">
        <ele>3.6</ele>
        <time>2022-03-26T12:52:01Z</time>
      </trkpt>
      <trkpt lat="46.04638" lon="-1.40926">
        <ele>3.4</ele>
        <time>2022-03-26T12:52:07Z</time>
      </trkpt>
      <trkpt lat="46.04636" lon="-1.40915">
        <ele>3.4</ele>
        <time>2022-03-26T12:52:09Z</time>
      </trkpt>
      <trkpt lat="46.04633" lon="-1.40896">
        <ele>3.4</ele>
        <time>2022-03-26T12:52:12Z</time>
      </trkpt>
      <trkpt lat="46.04629" lon="-1.40869">
        <ele>3.2</ele>
        <time>2022-03-26T12:52:17Z</time>
      </trkpt>
      <trkpt lat="46.04623" lon="-1.40836">
        <ele>3.2</ele>
        <time>2022-03-26T12:52:22Z</time>
      </trkpt>
      <trkpt lat="46.04622" lon="-1.4083">
        <ele>3.2</ele>
        <time>2022-03-26T12:52:23Z</time>
      </trkpt>
      <trkpt lat="46.04621" lon="-1.40824">
        <ele>3.2</ele>
        <time>2022-03-26T12:52:24Z</time>
      </trkpt>
      <trkpt lat="46.04616" lon="-1.40806">
        <ele>3</ele>
        <time>2022-03-26T12:52:27Z</time>
      </trkpt>
      <trkpt lat="46.04613" lon="-1.40795">
        <ele>2.8</ele>
        <time>2022-03-26T12:52:30Z</time>
      </trkpt>
      <trkpt lat="46.04606" lon="-1.40772">
        <ele>2.8</ele>
        <time>2022-03-26T12:52:33Z</time>
      </trkpt>
      <trkpt lat="46.04602" lon="-1.4076">
        <ele>2.8</ele>
        <time>2022-03-26T12:52:36Z</time>
      </trkpt>
      <trkpt lat="46.04602" lon="-1.4076">
        <ele>2.8</ele>
        <time>2022-03-26T12:52:37Z</time>
      </trkpt>
      <trkpt lat="46.04602" lon="-1.40758">
        <ele>2.8</ele>
        <time>2022-03-26T12:52:39Z</time>
      </trkpt>
      <trkpt lat="46.046" lon="-1.40754">
        <ele>2.8</ele>
        <time>2022-03-26T12:52:41Z</time>
      </trkpt>
      <trkpt lat="46.046" lon="-1.40752">
        <ele>2.8</ele>
        <time>2022-03-26T12:52:43Z</time>
      </trkpt>
      <trkpt lat="46.04619" lon="-1.4074">
        <ele>2.8</ele>
        <time>2022-03-26T12:52:45Z</time>
      </trkpt>
      <trkpt lat="46.04619" lon="-1.40742">
        <ele>2.8</ele>
        <time>2022-03-26T12:52:47Z</time>
      </trkpt>
      <trkpt lat="46.0462" lon="-1.40744">
        <ele>2.6</ele>
        <time>2022-03-26T12:52:48Z</time>
      </trkpt>
      <trkpt lat="46.04624" lon="-1.40765">
        <ele>2.8</ele>
        <time>2022-03-26T12:52:54Z</time>
      </trkpt>
      <trkpt lat="46.04627" lon="-1.40776">
        <ele>2.6</ele>
        <time>2022-03-26T12:52:59Z</time>
      </trkpt>
      <trkpt lat="46.04633" lon="-1.40824">
        <ele>2.6</ele>
        <time>2022-03-26T12:53:06Z</time>
      </trkpt>
      <trkpt lat="46.04627" lon="-1.40857">
        <ele>2.6</ele>
        <time>2022-03-26T12:53:13Z</time>
      </trkpt>
      <trkpt lat="46.04628" lon="-1.40868">
        <ele>2.6</ele>
        <time>2022-03-26T12:53:18Z</time>
      </trkpt>
      <trkpt lat="46.04629" lon="-1.40869">
        <ele>2.6</ele>
        <time>2022-03-26T12:53:25Z</time>
      </trkpt>
      <trkpt lat="46.04629" lon="-1.40868">
        <ele>2.6</ele>
        <time>2022-03-26T12:53:31Z</time>
      </trkpt>
      <trkpt lat="46.04629" lon="-1.40868">
        <ele>2.8</ele>
        <time>2022-03-26T12:53:39Z</time>
      </trkpt>
      <trkpt lat="46.04629" lon="-1.40868">
        <ele>2.8</ele>
        <time>2022-03-26T12:53:49Z</time>
      </trkpt>
      <trkpt lat="46.04629" lon="-1.40868">
        <ele>2.8</ele>
        <time>2022-03-26T12:53:58Z</time>
      </trkpt>
      <trkpt lat="46.04629" lon="-1.40868">
        <ele>3</ele>
        <time>2022-03-26T12:54:09Z</time>
      </trkpt>
      <trkpt lat="46.04629" lon="-1.40868">
        <ele>3</ele>
        <time>2022-03-26T12:54:19Z</time>
      </trkpt>
      <trkpt lat="46.04628" lon="-1.40868">
        <ele>3</ele>
        <time>2022-03-26T12:54:26Z</time>
      </trkpt>
      <trkpt lat="46.04629" lon="-1.40868">
        <ele>3.2</ele>
        <time>2022-03-26T12:54:30Z</time>
      </trkpt>
      <trkpt lat="46.04629" lon="-1.40868">
        <ele>3.2</ele>
        <time>2022-03-26T12:54:44Z</time>
      </trkpt>
      <trkpt lat="46.04629" lon="-1.40868">
        <ele>3.4</ele>
        <time>2022-03-26T12:55:01Z</time>
      </trkpt>
      <trkpt lat="46.04629" lon="-1.40868">
        <ele>3.4</ele>
        <time>2022-03-26T12:55:14Z</time>
      </trkpt>
      <trkpt lat="46.04629" lon="-1.40868">
        <ele>3.6</ele>
        <time>2022-03-26T12:55:35Z</time>
      </trkpt>
      <trkpt lat="46.04629" lon="-1.40868">
        <ele>3.6</ele>
        <time>2022-03-26T12:55:52Z</time>
      </trkpt>
      <trkpt lat="46.04629" lon="-1.40868">
        <ele>3.8</ele>
        <time>2022-03-26T12:56:13Z</time>
      </trkpt>
      <trkpt lat="46.04629" lon="-1.40868">
        <ele>3.8</ele>
        <time>2022-03-26T12:56:39Z</time>
      </trkpt>
      <trkpt lat="46.04629" lon="-1.40868">
        <ele>3.8</ele>
        <time>2022-03-26T12:56:55Z</time>
      </trkpt>
      <trkpt lat="46.04629" lon="-1.40872">
        <ele>3.8</ele>
        <time>2022-03-26T12:57:00Z</time>
      </trkpt>
      <trkpt lat="46.04629" lon="-1.40872">
        <ele>3.8</ele>
        <time>2022-03-26T12:57:01Z</time>
      </trkpt>
      <trkpt lat="46.04633" lon="-1.40895">
        <ele>4</ele>
        <time>2022-03-26T12:57:05Z</time>
      </trkpt>
      <trkpt lat="46.0464" lon="-1.40935">
        <ele>4</ele>
        <time>2022-03-26T12:57:11Z</time>
      </trkpt>
      <trkpt lat="46.04643" lon="-1.40952">
        <ele>4</ele>
        <time>2022-03-26T12:57:16Z</time>
      </trkpt>
      <trkpt lat="46.04643" lon="-1.40952">
        <ele>4</ele>
        <time>2022-03-26T12:57:17Z</time>
      </trkpt>
      <trkpt lat="46.04639" lon="-1.40967">
        <ele>4</ele>
        <time>2022-03-26T12:57:23Z</time>
      </trkpt>
      <trkpt lat="46.04667" lon="-1.41006">
        <ele>4</ele>
        <time>2022-03-26T12:57:24Z</time>
      </trkpt>
      <trkpt lat="46.04673" lon="-1.41001">
        <ele>4</ele>
        <time>2022-03-26T12:57:26Z</time>
      </trkpt>
      <trkpt lat="46.04682" lon="-1.41026">
        <ele>3.8</ele>
        <time>2022-03-26T12:57:31Z</time>
      </trkpt>
      <trkpt lat="46.04684" lon="-1.41029">
        <ele>3.8</ele>
        <time>2022-03-26T12:57:32Z</time>
      </trkpt>
      <trkpt lat="46.04682" lon="-1.41028">
        <ele>3.8</ele>
        <time>2022-03-26T12:57:34Z</time>
      </trkpt>
      <trkpt lat="46.04688" lon="-1.41037">
        <ele>3.6</ele>
        <time>2022-03-26T12:57:35Z</time>
      </trkpt>
      <trkpt lat="46.04688" lon="-1.41039">
        <ele>3.4</ele>
        <time>2022-03-26T12:57:37Z</time>
      </trkpt>
      <trkpt lat="46.0469" lon="-1.41041">
        <ele>3.4</ele>
        <time>2022-03-26T12:57:38Z</time>
      </trkpt>
      <trkpt lat="46.04692" lon="-1.4105">
        <ele>3.4</ele>
        <time>2022-03-26T12:57:40Z</time>
      </trkpt>
      <trkpt lat="46.04689" lon="-1.41057">
        <ele>3.2</ele>
        <time>2022-03-26T12:57:43Z</time>
      </trkpt>
      <trkpt lat="46.0469" lon="-1.41059">
        <ele>3.2</ele>
        <time>2022-03-26T12:57:44Z</time>
      </trkpt>
      <trkpt lat="46.04692" lon="-1.4107">
        <ele>2.8</ele>
        <time>2022-03-26T12:57:48Z</time>
      </trkpt>
      <trkpt lat="46.04692" lon="-1.41072">
        <ele>2.8</ele>
        <time>2022-03-26T12:57:49Z</time>
      </trkpt>
      <trkpt lat="46.04691" lon="-1.41073">
        <ele>2.4</ele>
        <time>2022-03-26T12:57:53Z</time>
      </trkpt>
      <trkpt lat="46.0469" lon="-1.41074">
        <ele>1.8</ele>
        <time>2022-03-26T12:58:05Z</time>
      </trkpt>
      <trkpt lat="46.04687" lon="-1.41076">
        <ele>1.6</ele>
        <time>2022-03-26T12:58:07Z</time>
      </trkpt>
      <trkpt lat="46.04678" lon="-1.41077">
        <ele>1.4</ele>
        <time>2022-03-26T12:58:08Z</time>
      </trkpt>
      <trkpt lat="46.04678" lon="-1.41074">
        <ele>1.4</ele>
        <time>2022-03-26T12:58:09Z</time>
      </trkpt>
      <trkpt lat="46.04682" lon="-1.41063">
        <ele>1.2</ele>
        <time>2022-03-26T12:58:11Z</time>
      </trkpt>
      <trkpt lat="46.04682" lon="-1.41063">
        <ele>1.2</ele>
        <time>2022-03-26T12:58:15Z</time>
      </trkpt>
      <trkpt lat="46.04682" lon="-1.41063">
        <ele>0.60000000000002</ele>
        <time>2022-03-26T12:58:26Z</time>
      </trkpt>
      <trkpt lat="46.04684" lon="-1.4106">
        <ele>0.60000000000002</ele>
        <time>2022-03-26T12:58:28Z</time>
      </trkpt>
      <trkpt lat="46.04689" lon="-1.41061">
        <ele>0.60000000000002</ele>
        <time>2022-03-26T12:58:30Z</time>
      </trkpt>
      <trkpt lat="46.04692" lon="-1.41064">
        <ele>0.60000000000002</ele>
        <time>2022-03-26T12:58:31Z</time>
      </trkpt>
      <trkpt lat="46.04692" lon="-1.41069">
        <ele>0.80000000000001</ele>
        <time>2022-03-26T12:58:33Z</time>
      </trkpt>
      <trkpt lat="46.0469" lon="-1.41074">
        <ele>0.80000000000001</ele>
        <time>2022-03-26T12:58:37Z</time>
      </trkpt>
      <trkpt lat="46.0469" lon="-1.41074">
        <ele>0.60000000000002</ele>
        <time>2022-03-26T12:58:50Z</time>
      </trkpt>
      <trkpt lat="46.0469" lon="-1.41074">
        <ele>0.39999999999998</ele>
        <time>2022-03-26T12:59:06Z</time>
      </trkpt>
      <trkpt lat="46.0469" lon="-1.41074">
        <ele>0.39999999999998</ele>
        <time>2022-03-26T12:59:21Z</time>
      </trkpt>
      <trkpt lat="46.04689" lon="-1.41075">
        <ele>0.39999999999998</ele>
        <time>2022-03-26T12:59:25Z</time>
      </trkpt>
      <trkpt lat="46.0468" lon="-1.41082">
        <ele>0.60000000000002</ele>
        <time>2022-03-26T12:59:30Z</time>
      </trkpt>
      <trkpt lat="46.04681" lon="-1.41091">
        <ele>0.39999999999998</ele>
        <time>2022-03-26T12:59:35Z</time>
      </trkpt>
      <trkpt lat="46.04684" lon="-1.41114">
        <ele>0.39999999999998</ele>
        <time>2022-03-26T12:59:41Z</time>
      </trkpt>
      <trkpt lat="46.04687" lon="-1.41131">
        <ele>0.39999999999998</ele>
        <time>2022-03-26T12:59:46Z</time>
      </trkpt>
      <trkpt lat="46.04689" lon="-1.41143">
        <ele>0.80000000000001</ele>
        <time>2022-03-26T12:59:50Z</time>
      </trkpt>
      <trkpt lat="46.04682" lon="-1.4116">
        <ele>1</ele>
        <time>2022-03-26T12:59:55Z</time>
      </trkpt>
      <trkpt lat="46.04675" lon="-1.41182">
        <ele>1</ele>
        <time>2022-03-26T13:00:01Z</time>
      </trkpt>
      <trkpt lat="46.04667" lon="-1.4121">
        <ele>1.2</ele>
        <time>2022-03-26T13:00:07Z</time>
      </trkpt>
      <trkpt lat="46.04663" lon="-1.41218">
        <ele>1.2</ele>
        <time>2022-03-26T13:00:11Z</time>
      </trkpt>
      <trkpt lat="46.04661" lon="-1.4122">
        <ele>1</ele>
        <time>2022-03-26T13:00:14Z</time>
      </trkpt>
      <trkpt lat="46.04661" lon="-1.4122">
        <ele>1</ele>
        <time>2022-03-26T13:00:15Z</time>
      </trkpt>
      <trkpt lat="46.04663" lon="-1.41218">
        <ele>1.2</ele>
        <time>2022-03-26T13:00:20Z</time>
      </trkpt>
      <trkpt lat="46.04663" lon="-1.41218">
        <ele>1.4</ele>
        <time>2022-03-26T13:00:21Z</time>
      </trkpt>
      <trkpt lat="46.04666" lon="-1.41213">
        <ele>1.4</ele>
        <time>2022-03-26T13:00:24Z</time>
      </trkpt>
      <trkpt lat="46.04666" lon="-1.41213">
        <ele>1.4</ele>
        <time>2022-03-26T13:00:28Z</time>
      </trkpt>
      <trkpt lat="46.04666" lon="-1.41213">
        <ele>1.4</ele>
        <time>2022-03-26T13:00:29Z</time>
      </trkpt>
      <trkpt lat="46.04678" lon="-1.41241">
        <ele>1.6</ele>
        <time>2022-03-26T13:00:32Z</time>
      </trkpt>
      <trkpt lat="46.04677" lon="-1.41245">
        <ele>1.6</ele>
        <time>2022-03-26T13:00:33Z</time>
      </trkpt>
      <trkpt lat="46.04671" lon="-1.41253">
        <ele>1.8</ele>
        <time>2022-03-26T13:00:37Z</time>
      </trkpt>
      <trkpt lat="46.04669" lon="-1.41257">
        <ele>2</ele>
        <time>2022-03-26T13:00:41Z</time>
      </trkpt>
      <trkpt lat="46.04669" lon="-1.41257">
        <ele>2.2</ele>
        <time>2022-03-26T13:00:51Z</time>
      </trkpt>
      <trkpt lat="46.04669" lon="-1.41257">
        <ele>2.6</ele>
        <time>2022-03-26T13:01:14Z</time>
      </trkpt>
      <trkpt lat="46.04668" lon="-1.41257">
        <ele>3</ele>
        <time>2022-03-26T13:01:36Z</time>
      </trkpt>
      <trkpt lat="46.04668" lon="-1.41257">
        <ele>3.4</ele>
        <time>2022-03-26T13:01:58Z</time>
      </trkpt>
      <trkpt lat="46.04668" lon="-1.41257">
        <ele>3.6</ele>
        <time>2022-03-26T13:02:07Z</time>
      </trkpt>
      <trkpt lat="46.04666" lon="-1.41259">
        <ele>3.8</ele>
        <time>2022-03-26T13:02:09Z</time>
      </trkpt>
      <trkpt lat="46.04672" lon="-1.41271">
        <ele>3.8</ele>
        <time>2022-03-26T13:02:11Z</time>
      </trkpt>
      <trkpt lat="46.04657" lon="-1.41247">
        <ele>3.8</ele>
        <time>2022-03-26T13:02:16Z</time>
      </trkpt>
      <trkpt lat="46.04646" lon="-1.41223">
        <ele>3.8</ele>
        <time>2022-03-26T13:02:19Z</time>
      </trkpt>
      <trkpt lat="46.04632" lon="-1.41252">
        <ele>3.8</ele>
        <time>2022-03-26T13:02:23Z</time>
      </trkpt>
      <trkpt lat="46.04624" lon="-1.41236">
        <ele>3.6</ele>
        <time>2022-03-26T13:02:27Z</time>
      </trkpt>
      <trkpt lat="46.04614" lon="-1.41217">
        <ele>3.4</ele>
        <time>2022-03-26T13:02:32Z</time>
      </trkpt>
      <trkpt lat="46.04603" lon="-1.41201">
        <ele>3.2</ele>
        <time>2022-03-26T13:02:37Z</time>
      </trkpt>
      <trkpt lat="46.04598" lon="-1.41196">
        <ele>3</ele>
        <time>2022-03-26T13:02:39Z</time>
      </trkpt>
      <trkpt lat="46.04597" lon="-1.41185">
        <ele>3</ele>
        <time>2022-03-26T13:02:41Z</time>
      </trkpt>
      <trkpt lat="46.04588" lon="-1.41155">
        <ele>3</ele>
        <time>2022-03-26T13:02:47Z</time>
      </trkpt>
      <trkpt lat="46.04575" lon="-1.41133">
        <ele>2.8</ele>
        <time>2022-03-26T13:02:53Z</time>
      </trkpt>
      <trkpt lat="46.04562" lon="-1.4111">
        <ele>2.4</ele>
        <time>2022-03-26T13:03:00Z</time>
      </trkpt>
      <trkpt lat="46.04554" lon="-1.41092">
        <ele>2.4</ele>
        <time>2022-03-26T13:03:05Z</time>
      </trkpt>
      <trkpt lat="46.04546" lon="-1.41072">
        <ele>2.2</ele>
        <time>2022-03-26T13:03:10Z</time>
      </trkpt>
      <trkpt lat="46.04542" lon="-1.41075">
        <ele>2.2</ele>
        <time>2022-03-26T13:03:13Z</time>
      </trkpt>
      <trkpt lat="46.04529" lon="-1.41086">
        <ele>2.8</ele>
        <time>2022-03-26T13:03:20Z</time>
      </trkpt>
      <trkpt lat="46.04526" lon="-1.41088">
        <ele>2.6</ele>
        <time>2022-03-26T13:03:22Z</time>
      </trkpt>
      <trkpt lat="46.04517" lon="-1.41095">
        <ele>2.6</ele>
        <time>2022-03-26T13:03:26Z</time>
      </trkpt>
      <trkpt lat="46.04516" lon="-1.41095">
        <ele>2.6</ele>
        <time>2022-03-26T13:03:30Z</time>
      </trkpt>
      <trkpt lat="46.04516" lon="-1.41095">
        <ele>2.8</ele>
        <time>2022-03-26T13:03:41Z</time>
      </trkpt>
      <trkpt lat="46.04516" lon="-1.41095">
        <ele>2.8</ele>
        <time>2022-03-26T13:03:42Z</time>
      </trkpt>
      <trkpt lat="46.04514" lon="-1.41096">
        <ele>2.6</ele>
        <time>2022-03-26T13:03:44Z</time>
      </trkpt>
      <trkpt lat="46.0451" lon="-1.41097">
        <ele>2.6</ele>
        <time>2022-03-26T13:03:45Z</time>
      </trkpt>
      <trkpt lat="46.04499" lon="-1.41095">
        <ele>2.8</ele>
        <time>2022-03-26T13:03:49Z</time>
      </trkpt>
      <trkpt lat="46.04495" lon="-1.4109">
        <ele>2.8</ele>
        <time>2022-03-26T13:03:52Z</time>
      </trkpt>
      <trkpt lat="46.04495" lon="-1.4109">
        <ele>2.8</ele>
        <time>2022-03-26T13:03:54Z</time>
      </trkpt>
      <trkpt lat="46.04495" lon="-1.4109">
        <ele>2.8</ele>
        <time>2022-03-26T13:04:05Z</time>
      </trkpt>
      <trkpt lat="46.04492" lon="-1.41091">
        <ele>2.8</ele>
        <time>2022-03-26T13:04:07Z</time>
      </trkpt>
      <trkpt lat="46.04487" lon="-1.4109">
        <ele>2.8</ele>
        <time>2022-03-26T13:04:09Z</time>
      </trkpt>
      <trkpt lat="46.04483" lon="-1.41088">
        <ele>2.6</ele>
        <time>2022-03-26T13:04:11Z</time>
      </trkpt>
      <trkpt lat="46.04478" lon="-1.41082">
        <ele>2.6</ele>
        <time>2022-03-26T13:04:13Z</time>
      </trkpt>
      <trkpt lat="46.04473" lon="-1.41075">
        <ele>2.4</ele>
        <time>2022-03-26T13:04:15Z</time>
      </trkpt>
      <trkpt lat="46.04465" lon="-1.41074">
        <ele>2.2</ele>
        <time>2022-03-26T13:04:17Z</time>
      </trkpt>
      <trkpt lat="46.04451" lon="-1.41082">
        <ele>2.2</ele>
        <time>2022-03-26T13:04:21Z</time>
      </trkpt>
      <trkpt lat="46.04449" lon="-1.41083">
        <ele>2.2</ele>
        <time>2022-03-26T13:04:22Z</time>
      </trkpt>
      <trkpt lat="46.04438" lon="-1.41091">
        <ele>2</ele>
        <time>2022-03-26T13:04:26Z</time>
      </trkpt>
      <trkpt lat="46.04433" lon="-1.4109">
        <ele>2</ele>
        <time>2022-03-26T13:04:27Z</time>
      </trkpt>
      <trkpt lat="46.04437" lon="-1.41089">
        <ele>2</ele>
        <time>2022-03-26T13:04:28Z</time>
      </trkpt>
      <trkpt lat="46.04434" lon="-1.41091">
        <ele>2</ele>
        <time>2022-03-26T13:04:30Z</time>
      </trkpt>
      <trkpt lat="46.0442" lon="-1.41085">
        <ele>2</ele>
        <time>2022-03-26T13:04:32Z</time>
      </trkpt>
      <trkpt lat="46.04414" lon="-1.41082">
        <ele>2</ele>
        <time>2022-03-26T13:04:34Z</time>
      </trkpt>
      <trkpt lat="46.04392" lon="-1.41078">
        <ele>2</ele>
        <time>2022-03-26T13:04:40Z</time>
      </trkpt>
      <trkpt lat="46.04377" lon="-1.41078">
        <ele>2</ele>
        <time>2022-03-26T13:04:44Z</time>
      </trkpt>
      <trkpt lat="46.04368" lon="-1.41079">
        <ele>1.8</ele>
        <time>2022-03-26T13:04:46Z</time>
      </trkpt>
      <trkpt lat="46.04364" lon="-1.4108">
        <ele>1.8</ele>
        <time>2022-03-26T13:04:47Z</time>
      </trkpt>
      <trkpt lat="46.04348" lon="-1.41082">
        <ele>1.8</ele>
        <time>2022-03-26T13:04:51Z</time>
      </trkpt>
      <trkpt lat="46.04344" lon="-1.41082">
        <ele>1.8</ele>
        <time>2022-03-26T13:04:52Z</time>
      </trkpt>
      <trkpt lat="46.04342" lon="-1.41082">
        <ele>1.6</ele>
        <time>2022-03-26T13:04:55Z</time>
      </trkpt>
      <trkpt lat="46.04327" lon="-1.41086">
        <ele>1.6</ele>
        <time>2022-03-26T13:04:58Z</time>
      </trkpt>
      <trkpt lat="46.0432" lon="-1.41085">
        <ele>1.8</ele>
        <time>2022-03-26T13:05:00Z</time>
      </trkpt>
      <trkpt lat="46.04306" lon="-1.41084">
        <ele>1.6</ele>
        <time>2022-03-26T13:05:05Z</time>
      </trkpt>
      <trkpt lat="46.0429" lon="-1.41083">
        <ele>1.6</ele>
        <time>2022-03-26T13:05:10Z</time>
      </trkpt>
      <trkpt lat="46.04274" lon="-1.41079">
        <ele>1.4</ele>
        <time>2022-03-26T13:05:14Z</time>
      </trkpt>
      <trkpt lat="46.04266" lon="-1.41078">
        <ele>1.6</ele>
        <time>2022-03-26T13:05:16Z</time>
      </trkpt>
      <trkpt lat="46.04245" lon="-1.41073">
        <ele>1.4</ele>
        <time>2022-03-26T13:05:22Z</time>
      </trkpt>
      <trkpt lat="46.04237" lon="-1.41071">
        <ele>1.4</ele>
        <time>2022-03-26T13:05:24Z</time>
      </trkpt>
      <trkpt lat="46.04223" lon="-1.41069">
        <ele>1.4</ele>
        <time>2022-03-26T13:05:27Z</time>
      </trkpt>
      <trkpt lat="46.04215" lon="-1.41068">
        <ele>1.4</ele>
        <time>2022-03-26T13:05:29Z</time>
      </trkpt>
      <trkpt lat="46.04205" lon="-1.41068">
        <ele>1.4</ele>
        <time>2022-03-26T13:05:32Z</time>
      </trkpt>
      <trkpt lat="46.04186" lon="-1.41067">
        <ele>1.2</ele>
        <time>2022-03-26T13:05:37Z</time>
      </trkpt>
      <trkpt lat="46.0417" lon="-1.41065">
        <ele>1.4</ele>
        <time>2022-03-26T13:05:41Z</time>
      </trkpt>
      <trkpt lat="46.04166" lon="-1.41065">
        <ele>1.4</ele>
        <time>2022-03-26T13:05:42Z</time>
      </trkpt>
      <trkpt lat="46.04139" lon="-1.4106">
        <ele>1.4</ele>
        <time>2022-03-26T13:05:48Z</time>
      </trkpt>
      <trkpt lat="46.04125" lon="-1.41057">
        <ele>1.4</ele>
        <time>2022-03-26T13:05:51Z</time>
      </trkpt>
      <trkpt lat="46.04114" lon="-1.41054">
        <ele>1.2</ele>
        <time>2022-03-26T13:05:54Z</time>
      </trkpt>
      <trkpt lat="46.04088" lon="-1.41042">
        <ele>1.2</ele>
        <time>2022-03-26T13:06:00Z</time>
      </trkpt>
      <trkpt lat="46.04079" lon="-1.41033">
        <ele>1.2</ele>
        <time>2022-03-26T13:06:03Z</time>
      </trkpt>
      <trkpt lat="46.04073" lon="-1.41023">
        <ele>1.2</ele>
        <time>2022-03-26T13:06:05Z</time>
      </trkpt>
      <trkpt lat="46.0407" lon="-1.41018">
        <ele>1.2</ele>
        <time>2022-03-26T13:06:06Z</time>
      </trkpt>
      <trkpt lat="46.04067" lon="-1.41005">
        <ele>1</ele>
        <time>2022-03-26T13:06:08Z</time>
      </trkpt>
      <trkpt lat="46.04065" lon="-1.40998">
        <ele>1</ele>
        <time>2022-03-26T13:06:09Z</time>
      </trkpt>
      <trkpt lat="46.04061" lon="-1.40978">
        <ele>1</ele>
        <time>2022-03-26T13:06:12Z</time>
      </trkpt>
      <trkpt lat="46.04054" lon="-1.40959">
        <ele>0.80000000000001</ele>
        <time>2022-03-26T13:06:15Z</time>
      </trkpt>
      <trkpt lat="46.0405" lon="-1.40955">
        <ele>0.80000000000001</ele>
        <time>2022-03-26T13:06:16Z</time>
      </trkpt>
      <trkpt lat="46.04044" lon="-1.40953">
        <ele>0.80000000000001</ele>
        <time>2022-03-26T13:06:18Z</time>
      </trkpt>
      <trkpt lat="46.04037" lon="-1.40953">
        <ele>0.80000000000001</ele>
        <time>2022-03-26T13:06:20Z</time>
      </trkpt>
      <trkpt lat="46.04024" lon="-1.4095">
        <ele>0.80000000000001</ele>
        <time>2022-03-26T13:06:23Z</time>
      </trkpt>
      <trkpt lat="46.0402" lon="-1.40948">
        <ele>0.80000000000001</ele>
        <time>2022-03-26T13:06:24Z</time>
      </trkpt>
      <trkpt lat="46.04009" lon="-1.40942">
        <ele>0.80000000000001</ele>
        <time>2022-03-26T13:06:27Z</time>
      </trkpt>
      <trkpt lat="46.03991" lon="-1.40929">
        <ele>0.80000000000001</ele>
        <time>2022-03-26T13:06:32Z</time>
      </trkpt>
      <trkpt lat="46.03982" lon="-1.40924">
        <ele>0.60000000000002</ele>
        <time>2022-03-26T13:06:34Z</time>
      </trkpt>
      <trkpt lat="46.03975" lon="-1.40919">
        <ele>0.60000000000002</ele>
        <time>2022-03-26T13:06:36Z</time>
      </trkpt>
      <trkpt lat="46.03968" lon="-1.40915">
        <ele>0.60000000000002</ele>
        <time>2022-03-26T13:06:38Z</time>
      </trkpt>
      <trkpt lat="46.0396" lon="-1.40914">
        <ele>0.60000000000002</ele>
        <time>2022-03-26T13:06:40Z</time>
      </trkpt>
      <trkpt lat="46.03951" lon="-1.40913">
        <ele>0.60000000000002</ele>
        <time>2022-03-26T13:06:42Z</time>
      </trkpt>
      <trkpt lat="46.03943" lon="-1.40913">
        <ele>0.60000000000002</ele>
        <time>2022-03-26T13:06:44Z</time>
      </trkpt>
      <trkpt lat="46.0393" lon="-1.40916">
        <ele>0.60000000000002</ele>
        <time>2022-03-26T13:06:47Z</time>
      </trkpt>
      <trkpt lat="46.03926" lon="-1.40917">
        <ele>0.60000000000002</ele>
        <time>2022-03-26T13:06:48Z</time>
      </trkpt>
      <trkpt lat="46.03908" lon="-1.40914">
        <ele>0.60000000000002</ele>
        <time>2022-03-26T13:06:52Z</time>
      </trkpt>
      <trkpt lat="46.03904" lon="-1.40912">
        <ele>0.39999999999998</ele>
        <time>2022-03-26T13:06:53Z</time>
      </trkpt>
      <trkpt lat="46.039" lon="-1.40911">
        <ele>0.39999999999998</ele>
        <time>2022-03-26T13:06:54Z</time>
      </trkpt>
      <trkpt lat="46.03883" lon="-1.4091">
        <ele>0.39999999999998</ele>
        <time>2022-03-26T13:06:58Z</time>
      </trkpt>
      <trkpt lat="46.03856" lon="-1.40903">
        <ele>0.60000000000002</ele>
        <time>2022-03-26T13:07:04Z</time>
      </trkpt>
      <trkpt lat="46.03826" lon="-1.40895">
        <ele>0.39999999999998</ele>
        <time>2022-03-26T13:07:11Z</time>
      </trkpt>
      <trkpt lat="46.03806" lon="-1.40889">
        <ele>0.39999999999998</ele>
        <time>2022-03-26T13:07:16Z</time>
      </trkpt>
      <trkpt lat="46.03775" lon="-1.40879">
        <ele>0.60000000000002</ele>
        <time>2022-03-26T13:07:23Z</time>
      </trkpt>
      <trkpt lat="46.03747" lon="-1.40862">
        <ele>0.60000000000002</ele>
        <time>2022-03-26T13:07:29Z</time>
      </trkpt>
      <trkpt lat="46.03726" lon="-1.40849">
        <ele>0.80000000000001</ele>
        <time>2022-03-26T13:07:34Z</time>
      </trkpt>
      <trkpt lat="46.03718" lon="-1.40844">
        <ele>0.60000000000002</ele>
        <time>2022-03-26T13:07:36Z</time>
      </trkpt>
      <trkpt lat="46.03689" lon="-1.4083">
        <ele>0.60000000000002</ele>
        <time>2022-03-26T13:07:42Z</time>
      </trkpt>
      <trkpt lat="46.03667" lon="-1.4082">
        <ele>0.60000000000002</ele>
        <time>2022-03-26T13:07:47Z</time>
      </trkpt>
      <trkpt lat="46.03659" lon="-1.40817">
        <ele>0.39999999999998</ele>
        <time>2022-03-26T13:07:49Z</time>
      </trkpt>
      <trkpt lat="46.03643" lon="-1.40812">
        <ele>0.39999999999998</ele>
        <time>2022-03-26T13:07:53Z</time>
      </trkpt>
      <trkpt lat="46.03634" lon="-1.40809">
        <ele>0.39999999999998</ele>
        <time>2022-03-26T13:07:55Z</time>
      </trkpt>
      <trkpt lat="46.03607" lon="-1.40794">
        <ele>0.39999999999998</ele>
        <time>2022-03-26T13:08:01Z</time>
      </trkpt>
      <trkpt lat="46.03599" lon="-1.4079">
        <ele>0.19999999999999</ele>
        <time>2022-03-26T13:08:03Z</time>
      </trkpt>
      <trkpt lat="46.03572" lon="-1.40782">
        <ele>0.19999999999999</ele>
        <time>2022-03-26T13:08:10Z</time>
      </trkpt>
      <trkpt lat="46.03564" lon="-1.4078">
        <ele>0.19999999999999</ele>
        <time>2022-03-26T13:08:13Z</time>
      </trkpt>
      <trkpt lat="46.0356" lon="-1.40779">
        <ele>0.19999999999999</ele>
        <time>2022-03-26T13:08:14Z</time>
      </trkpt>
      <trkpt lat="46.03542" lon="-1.40769">
        <ele>0.19999999999999</ele>
        <time>2022-03-26T13:08:20Z</time>
      </trkpt>
      <trkpt lat="46.03529" lon="-1.40762">
        <ele>-0.19999999999999</ele>
        <time>2022-03-26T13:08:24Z</time>
      </trkpt>
      <trkpt lat="46.03525" lon="-1.40759">
        <ele>-0.39999999999998</ele>
        <time>2022-03-26T13:08:25Z</time>
      </trkpt>
      <trkpt lat="46.03516" lon="-1.4075">
        <ele>-0.39999999999998</ele>
        <time>2022-03-26T13:08:28Z</time>
      </trkpt>
      <trkpt lat="46.03512" lon="-1.4075">
        <ele>-0.19999999999999</ele>
        <time>2022-03-26T13:08:29Z</time>
      </trkpt>
      <trkpt lat="46.03496" lon="-1.40743">
        <ele>-0.39999999999998</ele>
        <time>2022-03-26T13:08:33Z</time>
      </trkpt>
      <trkpt lat="46.03492" lon="-1.40741">
        <ele>-0.39999999999998</ele>
        <time>2022-03-26T13:08:34Z</time>
      </trkpt>
      <trkpt lat="46.03484" lon="-1.4074">
        <ele>-0.60000000000002</ele>
        <time>2022-03-26T13:08:36Z</time>
      </trkpt>
      <trkpt lat="46.03482" lon="-1.40742">
        <ele>-0.60000000000002</ele>
        <time>2022-03-26T13:08:37Z</time>
      </trkpt>
      <trkpt lat="46.03475" lon="-1.40753">
        <ele>-0.39999999999998</ele>
        <time>2022-03-26T13:08:40Z</time>
      </trkpt>
      <trkpt lat="46.03472" lon="-1.40754">
        <ele>-0.39999999999998</ele>
        <time>2022-03-26T13:08:41Z</time>
      </trkpt>
      <trkpt lat="46.03468" lon="-1.40753">
        <ele>-0.39999999999998</ele>
        <time>2022-03-26T13:08:42Z</time>
      </trkpt>
      <trkpt lat="46.03461" lon="-1.4075">
        <ele>-0.39999999999998</ele>
        <time>2022-03-26T13:08:44Z</time>
      </trkpt>
      <trkpt lat="46.03457" lon="-1.40748">
        <ele>-0.39999999999998</ele>
        <time>2022-03-26T13:08:45Z</time>
      </trkpt>
      <trkpt lat="46.03445" lon="-1.40743">
        <ele>-0.60000000000002</ele>
        <time>2022-03-26T13:08:48Z</time>
      </trkpt>
      <trkpt lat="46.03441" lon="-1.40742">
        <ele>-0.39999999999998</ele>
        <time>2022-03-26T13:08:49Z</time>
      </trkpt>
      <trkpt lat="46.03429" lon="-1.40738">
        <ele>-0.39999999999998</ele>
        <time>2022-03-26T13:08:52Z</time>
      </trkpt>
      <trkpt lat="46.03424" lon="-1.40737">
        <ele>-0.19999999999999</ele>
        <time>2022-03-26T13:08:53Z</time>
      </trkpt>
      <trkpt lat="46.03415" lon="-1.40737">
        <ele>-0.19999999999999</ele>
        <time>2022-03-26T13:08:55Z</time>
      </trkpt>
      <trkpt lat="46.03397" lon="-1.40733">
        <ele>-0.19999999999999</ele>
        <time>2022-03-26T13:08:59Z</time>
      </trkpt>
      <trkpt lat="46.03393" lon="-1.40731">
        <ele>-0.19999999999999</ele>
        <time>2022-03-26T13:09:00Z</time>
      </trkpt>
      <trkpt lat="46.03385" lon="-1.40726">
        <ele>-0.39999999999998</ele>
        <time>2022-03-26T13:09:02Z</time>
      </trkpt>
      <trkpt lat="46.03381" lon="-1.40724">
        <ele>-0.39999999999998</ele>
        <time>2022-03-26T13:09:03Z</time>
      </trkpt>
      <trkpt lat="46.03369" lon="-1.40722">
        <ele>-0.19999999999999</ele>
        <time>2022-03-26T13:09:06Z</time>
      </trkpt>
      <trkpt lat="46.03365" lon="-1.40722">
        <ele>-0.19999999999999</ele>
        <time>2022-03-26T13:09:07Z</time>
      </trkpt>
      <trkpt lat="46.03357" lon="-1.40722">
        <ele>-0.19999999999999</ele>
        <time>2022-03-26T13:09:09Z</time>
      </trkpt>
      <trkpt lat="46.03348" lon="-1.40723">
        <ele>-0.19999999999999</ele>
        <time>2022-03-26T13:09:11Z</time>
      </trkpt>
      <trkpt lat="46.03343" lon="-1.40722">
        <ele>-0.19999999999999</ele>
        <time>2022-03-26T13:09:12Z</time>
      </trkpt>
      <trkpt lat="46.03325" lon="-1.40718">
        <ele>0.19999999999999</ele>
        <time>2022-03-26T13:09:17Z</time>
      </trkpt>
      <trkpt lat="46.03318" lon="-1.40722">
        <ele>0.19999999999999</ele>
        <time>2022-03-26T13:09:19Z</time>
      </trkpt>
      <trkpt lat="46.03308" lon="-1.40723">
        <ele>0.19999999999999</ele>
        <time>2022-03-26T13:09:21Z</time>
      </trkpt>
      <trkpt lat="46.03304" lon="-1.40722">
        <ele>0.19999999999999</ele>
        <time>2022-03-26T13:09:22Z</time>
      </trkpt>
      <trkpt lat="46.03281" lon="-1.40715">
        <ele>0.39999999999998</ele>
        <time>2022-03-26T13:09:28Z</time>
      </trkpt>
      <trkpt lat="46.03256" lon="-1.40708">
        <ele>0.39999999999998</ele>
        <time>2022-03-26T13:09:34Z</time>
      </trkpt>
      <trkpt lat="46.03232" lon="-1.40696">
        <ele>0.60000000000002</ele>
        <time>2022-03-26T13:09:40Z</time>
      </trkpt>
      <trkpt lat="46.03213" lon="-1.40691">
        <ele>0.80000000000001</ele>
        <time>2022-03-26T13:09:44Z</time>
      </trkpt>
      <trkpt lat="46.03209" lon="-1.4069">
        <ele>0.80000000000001</ele>
        <time>2022-03-26T13:09:45Z</time>
      </trkpt>
      <trkpt lat="46.03205" lon="-1.40689">
        <ele>0.80000000000001</ele>
        <time>2022-03-26T13:09:46Z</time>
      </trkpt>
      <trkpt lat="46.03194" lon="-1.40685">
        <ele>0.80000000000001</ele>
        <time>2022-03-26T13:09:49Z</time>
      </trkpt>
      <trkpt lat="46.03182" lon="-1.4068">
        <ele>0.80000000000001</ele>
        <time>2022-03-26T13:09:52Z</time>
      </trkpt>
      <trkpt lat="46.03169" lon="-1.40675">
        <ele>1</ele>
        <time>2022-03-26T13:09:55Z</time>
      </trkpt>
      <trkpt lat="46.0315" lon="-1.40669">
        <ele>1</ele>
        <time>2022-03-26T13:10:00Z</time>
      </trkpt>
      <trkpt lat="46.03131" lon="-1.40662">
        <ele>1</ele>
        <time>2022-03-26T13:10:05Z</time>
      </trkpt>
      <trkpt lat="46.03128" lon="-1.40662">
        <ele>1</ele>
        <time>2022-03-26T13:10:06Z</time>
      </trkpt>
      <trkpt lat="46.03122" lon="-1.40661">
        <ele>1</ele>
        <time>2022-03-26T13:10:08Z</time>
      </trkpt>
      <trkpt lat="46.03114" lon="-1.40651">
        <ele>1</ele>
        <time>2022-03-26T13:10:11Z</time>
      </trkpt>
      <trkpt lat="46.03111" lon="-1.4065">
        <ele>1</ele>
        <time>2022-03-26T13:10:12Z</time>
      </trkpt>
      <trkpt lat="46.031" lon="-1.40644">
        <ele>1</ele>
        <time>2022-03-26T13:10:15Z</time>
      </trkpt>
      <trkpt lat="46.03091" lon="-1.4064">
        <ele>1</ele>
        <time>2022-03-26T13:10:17Z</time>
      </trkpt>
      <trkpt lat="46.03073" lon="-1.40632">
        <ele>1.2</ele>
        <time>2022-03-26T13:10:22Z</time>
      </trkpt>
      <trkpt lat="46.03061" lon="-1.40626">
        <ele>1.2</ele>
        <time>2022-03-26T13:10:25Z</time>
      </trkpt>
      <trkpt lat="46.03053" lon="-1.40624">
        <ele>1.2</ele>
        <time>2022-03-26T13:10:27Z</time>
      </trkpt>
      <trkpt lat="46.03039" lon="-1.40615">
        <ele>1.2</ele>
        <time>2022-03-26T13:10:31Z</time>
      </trkpt>
      <trkpt lat="46.03037" lon="-1.4061">
        <ele>1.2</ele>
        <time>2022-03-26T13:10:32Z</time>
      </trkpt>
      <trkpt lat="46.03032" lon="-1.40601">
        <ele>1.2</ele>
        <time>2022-03-26T13:10:34Z</time>
      </trkpt>
      <trkpt lat="46.03029" lon="-1.40596">
        <ele>1.2</ele>
        <time>2022-03-26T13:10:35Z</time>
      </trkpt>
      <trkpt lat="46.03026" lon="-1.40595">
        <ele>1.2</ele>
        <time>2022-03-26T13:10:36Z</time>
      </trkpt>
      <trkpt lat="46.03018" lon="-1.40592">
        <ele>1.2</ele>
        <time>2022-03-26T13:10:38Z</time>
      </trkpt>
      <trkpt lat="46.03014" lon="-1.4059">
        <ele>1.2</ele>
        <time>2022-03-26T13:10:39Z</time>
      </trkpt>
      <trkpt lat="46.03006" lon="-1.40588">
        <ele>1.2</ele>
        <time>2022-03-26T13:10:41Z</time>
      </trkpt>
      <trkpt lat="46.03002" lon="-1.40586">
        <ele>1.2</ele>
        <time>2022-03-26T13:10:42Z</time>
      </trkpt>
      <trkpt lat="46.02983" lon="-1.4058">
        <ele>1.2</ele>
        <time>2022-03-26T13:10:46Z</time>
      </trkpt>
      <trkpt lat="46.02979" lon="-1.40579">
        <ele>1.2</ele>
        <time>2022-03-26T13:10:47Z</time>
      </trkpt>
      <trkpt lat="46.02971" lon="-1.40577">
        <ele>1.2</ele>
        <time>2022-03-26T13:10:49Z</time>
      </trkpt>
      <trkpt lat="46.02962" lon="-1.40576">
        <ele>1.2</ele>
        <time>2022-03-26T13:10:51Z</time>
      </trkpt>
      <trkpt lat="46.02953" lon="-1.40578">
        <ele>1.2</ele>
        <time>2022-03-26T13:10:53Z</time>
      </trkpt>
      <trkpt lat="46.02943" lon="-1.40579">
        <ele>1.2</ele>
        <time>2022-03-26T13:10:55Z</time>
      </trkpt>
      <trkpt lat="46.02938" lon="-1.40578">
        <ele>1.2</ele>
        <time>2022-03-26T13:10:56Z</time>
      </trkpt>
      <trkpt lat="46.02915" lon="-1.40563">
        <ele>1.2</ele>
        <time>2022-03-26T13:11:01Z</time>
      </trkpt>
      <trkpt lat="46.02911" lon="-1.4056">
        <ele>1.2</ele>
        <time>2022-03-26T13:11:02Z</time>
      </trkpt>
      <trkpt lat="46.02907" lon="-1.40558">
        <ele>1.2</ele>
        <time>2022-03-26T13:11:03Z</time>
      </trkpt>
      <trkpt lat="46.02899" lon="-1.40552">
        <ele>1.2</ele>
        <time>2022-03-26T13:11:05Z</time>
      </trkpt>
      <trkpt lat="46.02894" lon="-1.40552">
        <ele>1.2</ele>
        <time>2022-03-26T13:11:06Z</time>
      </trkpt>
      <trkpt lat="46.02884" lon="-1.40552">
        <ele>1.2</ele>
        <time>2022-03-26T13:11:08Z</time>
      </trkpt>
      <trkpt lat="46.02875" lon="-1.40548">
        <ele>1.2</ele>
        <time>2022-03-26T13:11:10Z</time>
      </trkpt>
      <trkpt lat="46.02866" lon="-1.40541">
        <ele>1.2</ele>
        <time>2022-03-26T13:11:12Z</time>
      </trkpt>
      <trkpt lat="46.0286" lon="-1.40533">
        <ele>1.2</ele>
        <time>2022-03-26T13:11:14Z</time>
      </trkpt>
      <trkpt lat="46.02856" lon="-1.40528">
        <ele>1.2</ele>
        <time>2022-03-26T13:11:15Z</time>
      </trkpt>
      <trkpt lat="46.02847" lon="-1.4052">
        <ele>1.2</ele>
        <time>2022-03-26T13:11:18Z</time>
      </trkpt>
      <trkpt lat="46.0284" lon="-1.40504">
        <ele>1.2</ele>
        <time>2022-03-26T13:11:21Z</time>
      </trkpt>
      <trkpt lat="46.02837" lon="-1.40491">
        <ele>1.4</ele>
        <time>2022-03-26T13:11:23Z</time>
      </trkpt>
      <trkpt lat="46.0283" lon="-1.40482">
        <ele>1.2</ele>
        <time>2022-03-26T13:11:25Z</time>
      </trkpt>
      <trkpt lat="46.02826" lon="-1.40479">
        <ele>1.2</ele>
        <time>2022-03-26T13:11:26Z</time>
      </trkpt>
      <trkpt lat="46.02822" lon="-1.40476">
        <ele>1.2</ele>
        <time>2022-03-26T13:11:27Z</time>
      </trkpt>
      <trkpt lat="46.02815" lon="-1.40471">
        <ele>1.4</ele>
        <time>2022-03-26T13:11:29Z</time>
      </trkpt>
      <trkpt lat="46.02811" lon="-1.40466">
        <ele>1.4</ele>
        <time>2022-03-26T13:11:30Z</time>
      </trkpt>
      <trkpt lat="46.02808" lon="-1.40462">
        <ele>1.4</ele>
        <time>2022-03-26T13:11:31Z</time>
      </trkpt>
      <trkpt lat="46.028" lon="-1.40452">
        <ele>1.4</ele>
        <time>2022-03-26T13:11:34Z</time>
      </trkpt>
      <trkpt lat="46.02789" lon="-1.40441">
        <ele>1.4</ele>
        <time>2022-03-26T13:11:39Z</time>
      </trkpt>
      <trkpt lat="46.02786" lon="-1.40441">
        <ele>1.4</ele>
        <time>2022-03-26T13:11:40Z</time>
      </trkpt>
      <trkpt lat="46.0278" lon="-1.40441">
        <ele>1.4</ele>
        <time>2022-03-26T13:11:42Z</time>
      </trkpt>
      <trkpt lat="46.02766" lon="-1.40443">
        <ele>1.4</ele>
        <time>2022-03-26T13:11:46Z</time>
      </trkpt>
      <trkpt lat="46.02754" lon="-1.40444">
        <ele>1.4</ele>
        <time>2022-03-26T13:11:50Z</time>
      </trkpt>
      <trkpt lat="46.0274" lon="-1.40439">
        <ele>1.2</ele>
        <time>2022-03-26T13:11:54Z</time>
      </trkpt>
      <trkpt lat="46.02722" lon="-1.40432">
        <ele>1.2</ele>
        <time>2022-03-26T13:12:00Z</time>
      </trkpt>
      <trkpt lat="46.02715" lon="-1.4043">
        <ele>1.2</ele>
        <time>2022-03-26T13:12:04Z</time>
      </trkpt>
      <trkpt lat="46.02715" lon="-1.4043">
        <ele>1.2</ele>
        <time>2022-03-26T13:12:05Z</time>
      </trkpt>
      <trkpt lat="46.02715" lon="-1.4043">
        <ele>1.2</ele>
        <time>2022-03-26T13:12:13Z</time>
      </trkpt>
      <trkpt lat="46.02713" lon="-1.40429">
        <ele>1</ele>
        <time>2022-03-26T13:12:21Z</time>
      </trkpt>
      <trkpt lat="46.02701" lon="-1.40424">
        <ele>1</ele>
        <time>2022-03-26T13:12:25Z</time>
      </trkpt>
      <trkpt lat="46.02686" lon="-1.40418">
        <ele>0.80000000000001</ele>
        <time>2022-03-26T13:12:29Z</time>
      </trkpt>
      <trkpt lat="46.02682" lon="-1.40417">
        <ele>1</ele>
        <time>2022-03-26T13:12:32Z</time>
      </trkpt>
      <trkpt lat="46.0268" lon="-1.40416">
        <ele>0.80000000000001</ele>
        <time>2022-03-26T13:12:36Z</time>
      </trkpt>
      <trkpt lat="46.02678" lon="-1.40416">
        <ele>0.80000000000001</ele>
        <time>2022-03-26T13:12:37Z</time>
      </trkpt>
      <trkpt lat="46.02668" lon="-1.4041">
        <ele>0.80000000000001</ele>
        <time>2022-03-26T13:12:42Z</time>
      </trkpt>
      <trkpt lat="46.02658" lon="-1.40403">
        <ele>0.80000000000001</ele>
        <time>2022-03-26T13:12:45Z</time>
      </trkpt>
      <trkpt lat="46.02651" lon="-1.40398">
        <ele>0.80000000000001</ele>
        <time>2022-03-26T13:12:47Z</time>
      </trkpt>
      <trkpt lat="46.02634" lon="-1.40387">
        <ele>1</ele>
        <time>2022-03-26T13:12:52Z</time>
      </trkpt>
      <trkpt lat="46.02623" lon="-1.4038">
        <ele>0.80000000000001</ele>
        <time>2022-03-26T13:12:55Z</time>
      </trkpt>
      <trkpt lat="46.02611" lon="-1.40371">
        <ele>0.80000000000001</ele>
        <time>2022-03-26T13:12:58Z</time>
      </trkpt>
      <trkpt lat="46.02596" lon="-1.40357">
        <ele>0.80000000000001</ele>
        <time>2022-03-26T13:13:03Z</time>
      </trkpt>
      <trkpt lat="46.02595" lon="-1.40355">
        <ele>0.80000000000001</ele>
        <time>2022-03-26T13:13:04Z</time>
      </trkpt>
      <trkpt lat="46.02591" lon="-1.40349">
        <ele>0.80000000000001</ele>
        <time>2022-03-26T13:13:06Z</time>
      </trkpt>
      <trkpt lat="46.02579" lon="-1.40348">
        <ele>0.60000000000002</ele>
        <time>2022-03-26T13:13:09Z</time>
      </trkpt>
      <trkpt lat="46.02575" lon="-1.40339">
        <ele>0.60000000000002</ele>
        <time>2022-03-26T13:13:11Z</time>
      </trkpt>
      <trkpt lat="46.02571" lon="-1.40329">
        <ele>0.60000000000002</ele>
        <time>2022-03-26T13:13:13Z</time>
      </trkpt>
      <trkpt lat="46.02565" lon="-1.4032">
        <ele>0.60000000000002</ele>
        <time>2022-03-26T13:13:15Z</time>
      </trkpt>
      <trkpt lat="46.02562" lon="-1.40315">
        <ele>0.60000000000002</ele>
        <time>2022-03-26T13:13:16Z</time>
      </trkpt>
      <trkpt lat="46.0255" lon="-1.40296">
        <ele>0.60000000000002</ele>
        <time>2022-03-26T13:13:20Z</time>
      </trkpt>
      <trkpt lat="46.02543" lon="-1.40274">
        <ele>0.60000000000002</ele>
        <time>2022-03-26T13:13:24Z</time>
      </trkpt>
      <trkpt lat="46.02541" lon="-1.40268">
        <ele>0.60000000000002</ele>
        <time>2022-03-26T13:13:25Z</time>
      </trkpt>
      <trkpt lat="46.02537" lon="-1.40259">
        <ele>0.60000000000002</ele>
        <time>2022-03-26T13:13:26Z</time>
      </trkpt>
      <trkpt lat="46.0253" lon="-1.40247">
        <ele>0.60000000000002</ele>
        <time>2022-03-26T13:13:29Z</time>
      </trkpt>
      <trkpt lat="46.02529" lon="-1.40246">
        <ele>0.60000000000002</ele>
        <time>2022-03-26T13:13:32Z</time>
      </trkpt>
      <trkpt lat="46.02525" lon="-1.40241">
        <ele>0.60000000000002</ele>
        <time>2022-03-26T13:13:35Z</time>
      </trkpt>
      <trkpt lat="46.02525" lon="-1.40241">
        <ele>0.60000000000002</ele>
        <time>2022-03-26T13:13:46Z</time>
      </trkpt>
      <trkpt lat="46.02525" lon="-1.40241">
        <ele>0.60000000000002</ele>
        <time>2022-03-26T13:13:56Z</time>
      </trkpt>
      <trkpt lat="46.02525" lon="-1.40241">
        <ele>0.60000000000002</ele>
        <time>2022-03-26T13:14:07Z</time>
      </trkpt>
      <trkpt lat="46.02525" lon="-1.40241">
        <ele>0.60000000000002</ele>
        <time>2022-03-26T13:14:17Z</time>
      </trkpt>
      <trkpt lat="46.02525" lon="-1.40241">
        <ele>0.80000000000001</ele>
        <time>2022-03-26T13:14:32Z</time>
      </trkpt>
      <trkpt lat="46.02525" lon="-1.40241">
        <ele>0.80000000000001</ele>
        <time>2022-03-26T13:14:47Z</time>
      </trkpt>
      <trkpt lat="46.02523" lon="-1.4024">
        <ele>0.80000000000001</ele>
        <time>2022-03-26T13:14:54Z</time>
      </trkpt>
      <trkpt lat="46.02523" lon="-1.40239">
        <ele>0.80000000000001</ele>
        <time>2022-03-26T13:15:02Z</time>
      </trkpt>
      <trkpt lat="46.02521" lon="-1.40238">
        <ele>0.80000000000001</ele>
        <time>2022-03-26T13:15:03Z</time>
      </trkpt>
      <trkpt lat="46.02512" lon="-1.40229">
        <ele>0.60000000000002</ele>
        <time>2022-03-26T13:15:07Z</time>
      </trkpt>
      <trkpt lat="46.02498" lon="-1.40212">
        <ele>0.60000000000002</ele>
        <time>2022-03-26T13:15:12Z</time>
      </trkpt>
      <trkpt lat="46.02486" lon="-1.40195">
        <ele>-0.60000000000002</ele>
        <time>2022-03-26T13:15:16Z</time>
      </trkpt>
      <trkpt lat="46.02481" lon="-1.40186">
        <ele>-0.80000000000001</ele>
        <time>2022-03-26T13:15:18Z</time>
      </trkpt>
      <trkpt lat="46.02474" lon="-1.40178">
        <ele>-1.2</ele>
        <time>2022-03-26T13:15:20Z</time>
      </trkpt>
      <trkpt lat="46.02462" lon="-1.4016">
        <ele>-1.4</ele>
        <time>2022-03-26T13:15:24Z</time>
      </trkpt>
      <trkpt lat="46.02458" lon="-1.40154">
        <ele>-1.4</ele>
        <time>2022-03-26T13:15:26Z</time>
      </trkpt>
      <trkpt lat="46.02449" lon="-1.40127">
        <ele>-1.8</ele>
        <time>2022-03-26T13:15:30Z</time>
      </trkpt>
      <trkpt lat="46.0243" lon="-1.40097">
        <ele>-2</ele>
        <time>2022-03-26T13:15:37Z</time>
      </trkpt>
      <trkpt lat="46.02412" lon="-1.40069">
        <ele>-2</ele>
        <time>2022-03-26T13:15:43Z</time>
      </trkpt>
      <trkpt lat="46.0241" lon="-1.40065">
        <ele>-2.2</ele>
        <time>2022-03-26T13:15:44Z</time>
      </trkpt>
      <trkpt lat="46.02403" lon="-1.40055">
        <ele>-2.2</ele>
        <time>2022-03-26T13:15:47Z</time>
      </trkpt>
      <trkpt lat="46.02399" lon="-1.40049">
        <ele>-2.2</ele>
        <time>2022-03-26T13:15:49Z</time>
      </trkpt>
      <trkpt lat="46.02396" lon="-1.40044">
        <ele>-2.4</ele>
        <time>2022-03-26T13:15:50Z</time>
      </trkpt>
      <trkpt lat="46.02393" lon="-1.40039">
        <ele>-2.4</ele>
        <time>2022-03-26T13:15:51Z</time>
      </trkpt>
      <trkpt lat="46.02392" lon="-1.40013">
        <ele>-2.2</ele>
        <time>2022-03-26T13:15:54Z</time>
      </trkpt>
      <trkpt lat="46.0239" lon="-1.4001">
        <ele>-2.2</ele>
        <time>2022-03-26T13:15:56Z</time>
      </trkpt>
      <trkpt lat="46.02388" lon="-1.39992">
        <ele>-2.2</ele>
        <time>2022-03-26T13:15:58Z</time>
      </trkpt>
      <trkpt lat="46.02397" lon="-1.39976">
        <ele>-1.8</ele>
        <time>2022-03-26T13:16:01Z</time>
      </trkpt>
      <trkpt lat="46.02419" lon="-1.39948">
        <ele>-1.8</ele>
        <time>2022-03-26T13:16:08Z</time>
      </trkpt>
      <trkpt lat="46.02434" lon="-1.39924">
        <ele>-1.6</ele>
        <time>2022-03-26T13:16:12Z</time>
      </trkpt>
      <trkpt lat="46.02435" lon="-1.39917">
        <ele>-1.6</ele>
        <time>2022-03-26T13:16:13Z</time>
      </trkpt>
      <trkpt lat="46.02435" lon="-1.39917">
        <ele>-1.6</ele>
        <time>2022-03-26T13:16:14Z</time>
      </trkpt>
      <trkpt lat="46.02429" lon="-1.39899">
        <ele>-1.4</ele>
        <time>2022-03-26T13:16:16Z</time>
      </trkpt>
      <trkpt lat="46.02422" lon="-1.39888">
        <ele>-1.4</ele>
        <time>2022-03-26T13:16:18Z</time>
      </trkpt>
      <trkpt lat="46.02412" lon="-1.39872">
        <ele>-1.2</ele>
        <time>2022-03-26T13:16:21Z</time>
      </trkpt>
      <trkpt lat="46.02398" lon="-1.3985">
        <ele>-1.2</ele>
        <time>2022-03-26T13:16:26Z</time>
      </trkpt>
      <trkpt lat="46.02392" lon="-1.39841">
        <ele>-1.2</ele>
        <time>2022-03-26T13:16:28Z</time>
      </trkpt>
      <trkpt lat="46.02388" lon="-1.39836">
        <ele>-1.2</ele>
        <time>2022-03-26T13:16:29Z</time>
      </trkpt>
      <trkpt lat="46.02369" lon="-1.39814">
        <ele>-1.2</ele>
        <time>2022-03-26T13:16:34Z</time>
      </trkpt>
      <trkpt lat="46.02348" lon="-1.3979">
        <ele>-1.2</ele>
        <time>2022-03-26T13:16:40Z</time>
      </trkpt>
      <trkpt lat="46.02334" lon="-1.39772">
        <ele>-1.2</ele>
        <time>2022-03-26T13:16:44Z</time>
      </trkpt>
      <trkpt lat="46.02324" lon="-1.39768">
        <ele>-1</ele>
        <time>2022-03-26T13:16:46Z</time>
      </trkpt>
      <trkpt lat="46.02305" lon="-1.39771">
        <ele>-1</ele>
        <time>2022-03-26T13:16:50Z</time>
      </trkpt>
      <trkpt lat="46.02299" lon="-1.39772">
        <ele>-1.2</ele>
        <time>2022-03-26T13:16:51Z</time>
      </trkpt>
      <trkpt lat="46.02294" lon="-1.3977">
        <ele>-1.2</ele>
        <time>2022-03-26T13:16:52Z</time>
      </trkpt>
      <trkpt lat="46.02285" lon="-1.39759">
        <ele>-1</ele>
        <time>2022-03-26T13:16:54Z</time>
      </trkpt>
      <trkpt lat="46.02263" lon="-1.39729">
        <ele>-1.2</ele>
        <time>2022-03-26T13:17:00Z</time>
      </trkpt>
      <trkpt lat="46.02247" lon="-1.39711">
        <ele>-1.2</ele>
        <time>2022-03-26T13:17:04Z</time>
      </trkpt>
      <trkpt lat="46.02244" lon="-1.39707">
        <ele>-1.2</ele>
        <time>2022-03-26T13:17:05Z</time>
      </trkpt>
      <trkpt lat="46.02223" lon="-1.39681">
        <ele>-1</ele>
        <time>2022-03-26T13:17:11Z</time>
      </trkpt>
      <trkpt lat="46.0222" lon="-1.39677">
        <ele>-1</ele>
        <time>2022-03-26T13:17:12Z</time>
      </trkpt>
      <trkpt lat="46.02209" lon="-1.39661">
        <ele>-1</ele>
        <time>2022-03-26T13:17:16Z</time>
      </trkpt>
      <trkpt lat="46.02205" lon="-1.39654">
        <ele>-1.2</ele>
        <time>2022-03-26T13:17:18Z</time>
      </trkpt>
      <trkpt lat="46.02202" lon="-1.3965">
        <ele>-1.2</ele>
        <time>2022-03-26T13:17:20Z</time>
      </trkpt>
      <trkpt lat="46.022" lon="-1.39646">
        <ele>-1.2</ele>
        <time>2022-03-26T13:17:23Z</time>
      </trkpt>
      <trkpt lat="46.02197" lon="-1.39643">
        <ele>-1.4</ele>
        <time>2022-03-26T13:17:25Z</time>
      </trkpt>
      <trkpt lat="46.022" lon="-1.39635">
        <ele>-1.4</ele>
        <time>2022-03-26T13:17:28Z</time>
      </trkpt>
      <trkpt lat="46.0221" lon="-1.39624">
        <ele>-1.6</ele>
        <time>2022-03-26T13:17:32Z</time>
      </trkpt>
      <trkpt lat="46.02226" lon="-1.39608">
        <ele>-1.6</ele>
        <time>2022-03-26T13:17:37Z</time>
      </trkpt>
      <trkpt lat="46.02229" lon="-1.39604">
        <ele>-1.6</ele>
        <time>2022-03-26T13:17:38Z</time>
      </trkpt>
      <trkpt lat="46.02243" lon="-1.39584">
        <ele>-1.4</ele>
        <time>2022-03-26T13:17:43Z</time>
      </trkpt>
      <trkpt lat="46.02243" lon="-1.39577">
        <ele>-1.4</ele>
        <time>2022-03-26T13:17:44Z</time>
      </trkpt>
      <trkpt lat="46.0224" lon="-1.39577">
        <ele>-1.4</ele>
        <time>2022-03-26T13:17:45Z</time>
      </trkpt>
      <trkpt lat="46.02236" lon="-1.39576">
        <ele>-1.6</ele>
        <time>2022-03-26T13:17:47Z</time>
      </trkpt>
      <trkpt lat="46.02219" lon="-1.39556">
        <ele>-1.6</ele>
        <time>2022-03-26T13:17:52Z</time>
      </trkpt>
      <trkpt lat="46.02216" lon="-1.39551">
        <ele>-1.6</ele>
        <time>2022-03-26T13:17:53Z</time>
      </trkpt>
      <trkpt lat="46.02211" lon="-1.39542">
        <ele>-1.8</ele>
        <time>2022-03-26T13:17:55Z</time>
      </trkpt>
      <trkpt lat="46.02205" lon="-1.39532">
        <ele>-2</ele>
        <time>2022-03-26T13:17:57Z</time>
      </trkpt>
      <trkpt lat="46.02193" lon="-1.39511">
        <ele>-2.4</ele>
        <time>2022-03-26T13:18:02Z</time>
      </trkpt>
      <trkpt lat="46.0219" lon="-1.39507">
        <ele>-2.4</ele>
        <time>2022-03-26T13:18:03Z</time>
      </trkpt>
      <trkpt lat="46.02183" lon="-1.39495">
        <ele>-2.4</ele>
        <time>2022-03-26T13:18:06Z</time>
      </trkpt>
      <trkpt lat="46.02177" lon="-1.39487">
        <ele>-2.4</ele>
        <time>2022-03-26T13:18:09Z</time>
      </trkpt>
      <trkpt lat="46.02171" lon="-1.39479">
        <ele>-2.4</ele>
        <time>2022-03-26T13:18:10Z</time>
      </trkpt>
      <trkpt lat="46.02159" lon="-1.39465">
        <ele>-2.6</ele>
        <time>2022-03-26T13:18:14Z</time>
      </trkpt>
      <trkpt lat="46.02138" lon="-1.39443">
        <ele>-2.4</ele>
        <time>2022-03-26T13:18:20Z</time>
      </trkpt>
      <trkpt lat="46.02122" lon="-1.3942">
        <ele>-2.4</ele>
        <time>2022-03-26T13:18:25Z</time>
      </trkpt>
      <trkpt lat="46.02122" lon="-1.3942">
        <ele>-2.6</ele>
        <time>2022-03-26T13:18:26Z</time>
      </trkpt>
      <trkpt lat="46.02118" lon="-1.39408">
        <ele>-2.6</ele>
        <time>2022-03-26T13:18:27Z</time>
      </trkpt>
      <trkpt lat="46.02119" lon="-1.39395">
        <ele>-2.6</ele>
        <time>2022-03-26T13:18:29Z</time>
      </trkpt>
      <trkpt lat="46.0212" lon="-1.39389">
        <ele>-2.6</ele>
        <time>2022-03-26T13:18:30Z</time>
      </trkpt>
      <trkpt lat="46.02123" lon="-1.39384">
        <ele>-2.4</ele>
        <time>2022-03-26T13:18:31Z</time>
      </trkpt>
      <trkpt lat="46.02136" lon="-1.39358">
        <ele>-2.2</ele>
        <time>2022-03-26T13:18:36Z</time>
      </trkpt>
      <trkpt lat="46.02155" lon="-1.39322">
        <ele>-1.8</ele>
        <time>2022-03-26T13:18:43Z</time>
      </trkpt>
      <trkpt lat="46.0217" lon="-1.3929">
        <ele>-1.8</ele>
        <time>2022-03-26T13:18:49Z</time>
      </trkpt>
      <trkpt lat="46.0217" lon="-1.39283">
        <ele>-1.6</ele>
        <time>2022-03-26T13:18:50Z</time>
      </trkpt>
      <trkpt lat="46.02169" lon="-1.39277">
        <ele>-1.6</ele>
        <time>2022-03-26T13:18:51Z</time>
      </trkpt>
      <trkpt lat="46.02165" lon="-1.39266">
        <ele>-1.4</ele>
        <time>2022-03-26T13:18:53Z</time>
      </trkpt>
      <trkpt lat="46.0214" lon="-1.39231">
        <ele>-1.2</ele>
        <time>2022-03-26T13:19:01Z</time>
      </trkpt>
      <trkpt lat="46.02131" lon="-1.39218">
        <ele>-1.2</ele>
        <time>2022-03-26T13:19:03Z</time>
      </trkpt>
      <trkpt lat="46.02119" lon="-1.39199">
        <ele>-1</ele>
        <time>2022-03-26T13:19:07Z</time>
      </trkpt>
      <trkpt lat="46.02102" lon="-1.39166">
        <ele>-1</ele>
        <time>2022-03-26T13:19:14Z</time>
      </trkpt>
      <trkpt lat="46.02087" lon="-1.39138">
        <ele>-0.80000000000001</ele>
        <time>2022-03-26T13:19:19Z</time>
      </trkpt>
      <trkpt lat="46.02075" lon="-1.39108">
        <ele>-0.60000000000002</ele>
        <time>2022-03-26T13:19:25Z</time>
      </trkpt>
      <trkpt lat="46.02064" lon="-1.39079">
        <ele>-0.60000000000002</ele>
        <time>2022-03-26T13:19:30Z</time>
      </trkpt>
      <trkpt lat="46.02063" lon="-1.39065">
        <ele>-0.39999999999998</ele>
        <time>2022-03-26T13:19:32Z</time>
      </trkpt>
      <trkpt lat="46.02062" lon="-1.39045">
        <ele>-0.39999999999998</ele>
        <time>2022-03-26T13:19:35Z</time>
      </trkpt>
      <trkpt lat="46.02058" lon="-1.39033">
        <ele>-0.39999999999998</ele>
        <time>2022-03-26T13:19:37Z</time>
      </trkpt>
      <trkpt lat="46.02053" lon="-1.39028">
        <ele>-0.39999999999998</ele>
        <time>2022-03-26T13:19:40Z</time>
      </trkpt>
      <trkpt lat="46.02044" lon="-1.39023">
        <ele>-0.19999999999999</ele>
        <time>2022-03-26T13:19:43Z</time>
      </trkpt>
      <trkpt lat="46.02042" lon="-1.39018">
        <ele>-0.19999999999999</ele>
        <time>2022-03-26T13:19:45Z</time>
      </trkpt>
      <trkpt lat="46.02034" lon="-1.39">
        <ele>-0.19999999999999</ele>
        <time>2022-03-26T13:19:51Z</time>
      </trkpt>
      <trkpt lat="46.02027" lon="-1.38984">
        <ele>-0.19999999999999</ele>
        <time>2022-03-26T13:19:57Z</time>
      </trkpt>
      <trkpt lat="46.02022" lon="-1.38973">
        <ele>0.19999999999999</ele>
        <time>2022-03-26T13:20:03Z</time>
      </trkpt>
      <trkpt lat="46.02022" lon="-1.38973">
        <ele>0.39999999999998</ele>
        <time>2022-03-26T13:20:19Z</time>
      </trkpt>
      <trkpt lat="46.02022" lon="-1.38973">
        <ele>0.60000000000002</ele>
        <time>2022-03-26T13:20:32Z</time>
      </trkpt>
      <trkpt lat="46.02022" lon="-1.38973">
        <ele>0.80000000000001</ele>
        <time>2022-03-26T13:20:52Z</time>
      </trkpt>
      <trkpt lat="46.02022" lon="-1.38973">
        <ele>1</ele>
        <time>2022-03-26T13:21:14Z</time>
      </trkpt>
      <trkpt lat="46.02021" lon="-1.38971">
        <ele>1.2</ele>
        <time>2022-03-26T13:21:27Z</time>
      </trkpt>
      <trkpt lat="46.02016" lon="-1.38955">
        <ele>1.4</ele>
        <time>2022-03-26T13:21:32Z</time>
      </trkpt>
      <trkpt lat="46.02006" lon="-1.38924">
        <ele>1.4</ele>
        <time>2022-03-26T13:21:38Z</time>
      </trkpt>
      <trkpt lat="46.01997" lon="-1.38894">
        <ele>1.6</ele>
        <time>2022-03-26T13:21:43Z</time>
      </trkpt>
      <trkpt lat="46.01996" lon="-1.38888">
        <ele>1.6</ele>
        <time>2022-03-26T13:21:44Z</time>
      </trkpt>
      <trkpt lat="46.0199" lon="-1.38854">
        <ele>1.6</ele>
        <time>2022-03-26T13:21:50Z</time>
      </trkpt>
      <trkpt lat="46.01983" lon="-1.38815">
        <ele>1.8</ele>
        <time>2022-03-26T13:21:56Z</time>
      </trkpt>
      <trkpt lat="46.01978" lon="-1.38794">
        <ele>1.8</ele>
        <time>2022-03-26T13:21:59Z</time>
      </trkpt>
      <trkpt lat="46.01975" lon="-1.38775">
        <ele>1.8</ele>
        <time>2022-03-26T13:22:03Z</time>
      </trkpt>
      <trkpt lat="46.01965" lon="-1.38726">
        <ele>2</ele>
        <time>2022-03-26T13:22:10Z</time>
      </trkpt>
      <trkpt lat="46.01958" lon="-1.38689">
        <ele>2</ele>
        <time>2022-03-26T13:22:16Z</time>
      </trkpt>
      <trkpt lat="46.01956" lon="-1.38683">
        <ele>2</ele>
        <time>2022-03-26T13:22:17Z</time>
      </trkpt>
      <trkpt lat="46.01948" lon="-1.38636">
        <ele>2</ele>
        <time>2022-03-26T13:22:24Z</time>
      </trkpt>
      <trkpt lat="46.01938" lon="-1.38595">
        <ele>2</ele>
        <time>2022-03-26T13:22:30Z</time>
      </trkpt>
      <trkpt lat="46.01929" lon="-1.38559">
        <ele>2</ele>
        <time>2022-03-26T13:22:36Z</time>
      </trkpt>
      <trkpt lat="46.01918" lon="-1.38511">
        <ele>2.2</ele>
        <time>2022-03-26T13:22:43Z</time>
      </trkpt>
      <trkpt lat="46.01908" lon="-1.38459">
        <ele>2.2</ele>
        <time>2022-03-26T13:22:51Z</time>
      </trkpt>
      <trkpt lat="46.019" lon="-1.38411">
        <ele>2.2</ele>
        <time>2022-03-26T13:22:58Z</time>
      </trkpt>
      <trkpt lat="46.01897" lon="-1.3837">
        <ele>2.2</ele>
        <time>2022-03-26T13:23:04Z</time>
      </trkpt>
      <trkpt lat="46.01894" lon="-1.3832">
        <ele>2.2</ele>
        <time>2022-03-26T13:23:11Z</time>
      </trkpt>
      <trkpt lat="46.01893" lon="-1.38275">
        <ele>2.2</ele>
        <time>2022-03-26T13:23:17Z</time>
      </trkpt>
      <trkpt lat="46.01894" lon="-1.38262">
        <ele>2.2</ele>
        <time>2022-03-26T13:23:19Z</time>
      </trkpt>
      <trkpt lat="46.01898" lon="-1.38249">
        <ele>2.4</ele>
        <time>2022-03-26T13:23:21Z</time>
      </trkpt>
      <trkpt lat="46.01907" lon="-1.38221">
        <ele>2.2</ele>
        <time>2022-03-26T13:23:25Z</time>
      </trkpt>
      <trkpt lat="46.01908" lon="-1.38206">
        <ele>2.2</ele>
        <time>2022-03-26T13:23:27Z</time>
      </trkpt>
      <trkpt lat="46.01907" lon="-1.38164">
        <ele>2.4</ele>
        <time>2022-03-26T13:23:33Z</time>
      </trkpt>
      <trkpt lat="46.01898" lon="-1.38117">
        <ele>2.4</ele>
        <time>2022-03-26T13:23:40Z</time>
      </trkpt>
      <trkpt lat="46.01887" lon="-1.38073">
        <ele>2.4</ele>
        <time>2022-03-26T13:23:47Z</time>
      </trkpt>
      <trkpt lat="46.01878" lon="-1.38039">
        <ele>2.6</ele>
        <time>2022-03-26T13:23:54Z</time>
      </trkpt>
      <trkpt lat="46.0187" lon="-1.38011">
        <ele>2.6</ele>
        <time>2022-03-26T13:24:00Z</time>
      </trkpt>
      <trkpt lat="46.01867" lon="-1.37986">
        <ele>2.6</ele>
        <time>2022-03-26T13:24:05Z</time>
      </trkpt>
      <trkpt lat="46.01861" lon="-1.37961">
        <ele>2.4</ele>
        <time>2022-03-26T13:24:10Z</time>
      </trkpt>
      <trkpt lat="46.01856" lon="-1.37938">
        <ele>2</ele>
        <time>2022-03-26T13:24:14Z</time>
      </trkpt>
      <trkpt lat="46.01847" lon="-1.37904">
        <ele>1.2</ele>
        <time>2022-03-26T13:24:19Z</time>
      </trkpt>
      <trkpt lat="46.01845" lon="-1.37897">
        <ele>1</ele>
        <time>2022-03-26T13:24:20Z</time>
      </trkpt>
      <trkpt lat="46.01833" lon="-1.37859">
        <ele>0.39999999999998</ele>
        <time>2022-03-26T13:24:25Z</time>
      </trkpt>
      <trkpt lat="46.01818" lon="-1.37809">
        <ele>-0.19999999999999</ele>
        <time>2022-03-26T13:24:32Z</time>
      </trkpt>
      <trkpt lat="46.0181" lon="-1.37783">
        <ele>-0.39999999999998</ele>
        <time>2022-03-26T13:24:36Z</time>
      </trkpt>
      <trkpt lat="46.01804" lon="-1.37765">
        <ele>-0.60000000000002</ele>
        <time>2022-03-26T13:24:39Z</time>
      </trkpt>
      <trkpt lat="46.01797" lon="-1.37742">
        <ele>-0.80000000000001</ele>
        <time>2022-03-26T13:24:44Z</time>
      </trkpt>
      <trkpt lat="46.01801" lon="-1.3773">
        <ele>-0.80000000000001</ele>
        <time>2022-03-26T13:24:46Z</time>
      </trkpt>
      <trkpt lat="46.01799" lon="-1.37725">
        <ele>-0.80000000000001</ele>
        <time>2022-03-26T13:24:47Z</time>
      </trkpt>
      <trkpt lat="46.01788" lon="-1.37696">
        <ele>-1</ele>
        <time>2022-03-26T13:24:53Z</time>
      </trkpt>
      <trkpt lat="46.01783" lon="-1.37685">
        <ele>-1.2</ele>
        <time>2022-03-26T13:24:55Z</time>
      </trkpt>
      <trkpt lat="46.01777" lon="-1.37668">
        <ele>-1.2</ele>
        <time>2022-03-26T13:24:58Z</time>
      </trkpt>
      <trkpt lat="46.01772" lon="-1.37657">
        <ele>-1.2</ele>
        <time>2022-03-26T13:25:00Z</time>
      </trkpt>
      <trkpt lat="46.01771" lon="-1.37644">
        <ele>-1.4</ele>
        <time>2022-03-26T13:25:02Z</time>
      </trkpt>
      <trkpt lat="46.01778" lon="-1.37634">
        <ele>-1.2</ele>
        <time>2022-03-26T13:25:04Z</time>
      </trkpt>
      <trkpt lat="46.01777" lon="-1.37628">
        <ele>-1.2</ele>
        <time>2022-03-26T13:25:05Z</time>
      </trkpt>
      <trkpt lat="46.01775" lon="-1.37615">
        <ele>-1.2</ele>
        <time>2022-03-26T13:25:07Z</time>
      </trkpt>
      <trkpt lat="46.01772" lon="-1.37596">
        <ele>-1.2</ele>
        <time>2022-03-26T13:25:10Z</time>
      </trkpt>
      <trkpt lat="46.01767" lon="-1.37564">
        <ele>-1.4</ele>
        <time>2022-03-26T13:25:15Z</time>
      </trkpt>
      <trkpt lat="46.01769" lon="-1.37548">
        <ele>-1.6</ele>
        <time>2022-03-26T13:25:18Z</time>
      </trkpt>
      <trkpt lat="46.01767" lon="-1.37543">
        <ele>-1.6</ele>
        <time>2022-03-26T13:25:19Z</time>
      </trkpt>
      <trkpt lat="46.01763" lon="-1.37541">
        <ele>-1.8</ele>
        <time>2022-03-26T13:25:20Z</time>
      </trkpt>
      <trkpt lat="46.01755" lon="-1.37539">
        <ele>-1.8</ele>
        <time>2022-03-26T13:25:22Z</time>
      </trkpt>
      <trkpt lat="46.0175" lon="-1.37538">
        <ele>-1.8</ele>
        <time>2022-03-26T13:25:23Z</time>
      </trkpt>
      <trkpt lat="46.01741" lon="-1.37537">
        <ele>-2.2</ele>
        <time>2022-03-26T13:25:25Z</time>
      </trkpt>
      <trkpt lat="46.01731" lon="-1.37535">
        <ele>-2.6</ele>
        <time>2022-03-26T13:25:27Z</time>
      </trkpt>
      <trkpt lat="46.01722" lon="-1.37531">
        <ele>-2.8</ele>
        <time>2022-03-26T13:25:29Z</time>
      </trkpt>
      <trkpt lat="46.0171" lon="-1.37525">
        <ele>-3.2</ele>
        <time>2022-03-26T13:25:32Z</time>
      </trkpt>
      <trkpt lat="46.01702" lon="-1.37522">
        <ele>-3.4</ele>
        <time>2022-03-26T13:25:34Z</time>
      </trkpt>
      <trkpt lat="46.01693" lon="-1.37516">
        <ele>-3.6</ele>
        <time>2022-03-26T13:25:36Z</time>
      </trkpt>
      <trkpt lat="46.01689" lon="-1.37512">
        <ele>-3.6</ele>
        <time>2022-03-26T13:25:37Z</time>
      </trkpt>
      <trkpt lat="46.01684" lon="-1.37508">
        <ele>-3.6</ele>
        <time>2022-03-26T13:25:38Z</time>
      </trkpt>
      <trkpt lat="46.01669" lon="-1.37484">
        <ele>-3.8</ele>
        <time>2022-03-26T13:25:43Z</time>
      </trkpt>
      <trkpt lat="46.01656" lon="-1.37467">
        <ele>-4.2</ele>
        <time>2022-03-26T13:25:47Z</time>
      </trkpt>
      <trkpt lat="46.01656" lon="-1.37467">
        <ele>-4.4</ele>
        <time>2022-03-26T13:25:48Z</time>
      </trkpt>
      <trkpt lat="46.01649" lon="-1.37459">
        <ele>-4.6</ele>
        <time>2022-03-26T13:25:49Z</time>
      </trkpt>
      <trkpt lat="46.01634" lon="-1.37442">
        <ele>-5.2</ele>
        <time>2022-03-26T13:25:53Z</time>
      </trkpt>
      <trkpt lat="46.01627" lon="-1.37434">
        <ele>-5.4</ele>
        <time>2022-03-26T13:25:55Z</time>
      </trkpt>
      <trkpt lat="46.01619" lon="-1.37428">
        <ele>-5.6</ele>
        <time>2022-03-26T13:25:57Z</time>
      </trkpt>
      <trkpt lat="46.01604" lon="-1.37423">
        <ele>-5.8</ele>
        <time>2022-03-26T13:26:00Z</time>
      </trkpt>
      <trkpt lat="46.01593" lon="-1.37422">
        <ele>-6</ele>
        <time>2022-03-26T13:26:02Z</time>
      </trkpt>
      <trkpt lat="46.01576" lon="-1.3742">
        <ele>-6</ele>
        <time>2022-03-26T13:26:05Z</time>
      </trkpt>
      <trkpt lat="46.01567" lon="-1.37417">
        <ele>-6</ele>
        <time>2022-03-26T13:26:07Z</time>
      </trkpt>
      <trkpt lat="46.01553" lon="-1.37408">
        <ele>-6</ele>
        <time>2022-03-26T13:26:10Z</time>
      </trkpt>
      <trkpt lat="46.01539" lon="-1.37399">
        <ele>-6</ele>
        <time>2022-03-26T13:26:13Z</time>
      </trkpt>
      <trkpt lat="46.01526" lon="-1.37389">
        <ele>-6</ele>
        <time>2022-03-26T13:26:16Z</time>
      </trkpt>
      <trkpt lat="46.01517" lon="-1.37383">
        <ele>-6</ele>
        <time>2022-03-26T13:26:18Z</time>
      </trkpt>
      <trkpt lat="46.01507" lon="-1.37381">
        <ele>-6.2</ele>
        <time>2022-03-26T13:26:20Z</time>
      </trkpt>
      <trkpt lat="46.01481" lon="-1.37375">
        <ele>-6.8</ele>
        <time>2022-03-26T13:26:25Z</time>
      </trkpt>
      <trkpt lat="46.01476" lon="-1.37374">
        <ele>-6.8</ele>
        <time>2022-03-26T13:26:26Z</time>
      </trkpt>
      <trkpt lat="46.01466" lon="-1.37369">
        <ele>-6.8</ele>
        <time>2022-03-26T13:26:28Z</time>
      </trkpt>
      <trkpt lat="46.01452" lon="-1.37356">
        <ele>-6.8</ele>
        <time>2022-03-26T13:26:31Z</time>
      </trkpt>
      <trkpt lat="46.01448" lon="-1.37351">
        <ele>-6.8</ele>
        <time>2022-03-26T13:26:32Z</time>
      </trkpt>
      <trkpt lat="46.01435" lon="-1.37335">
        <ele>-6.8</ele>
        <time>2022-03-26T13:26:35Z</time>
      </trkpt>
      <trkpt lat="46.01431" lon="-1.37329">
        <ele>-6.8</ele>
        <time>2022-03-26T13:26:36Z</time>
      </trkpt>
      <trkpt lat="46.01411" lon="-1.3731">
        <ele>-6.8</ele>
        <time>2022-03-26T13:26:41Z</time>
      </trkpt>
      <trkpt lat="46.01407" lon="-1.37306">
        <ele>-6.8</ele>
        <time>2022-03-26T13:26:42Z</time>
      </trkpt>
      <trkpt lat="46.01403" lon="-1.37303">
        <ele>-6.6</ele>
        <time>2022-03-26T13:26:43Z</time>
      </trkpt>
      <trkpt lat="46.01393" lon="-1.37298">
        <ele>-6.8</ele>
        <time>2022-03-26T13:26:45Z</time>
      </trkpt>
      <trkpt lat="46.01387" lon="-1.37299">
        <ele>-6.8</ele>
        <time>2022-03-26T13:26:47Z</time>
      </trkpt>
      <trkpt lat="46.01376" lon="-1.37295">
        <ele>-7</ele>
        <time>2022-03-26T13:26:48Z</time>
      </trkpt>
      <trkpt lat="46.01372" lon="-1.3729">
        <ele>-7</ele>
        <time>2022-03-26T13:26:49Z</time>
      </trkpt>
      <trkpt lat="46.01364" lon="-1.37279">
        <ele>-7</ele>
        <time>2022-03-26T13:26:51Z</time>
      </trkpt>
      <trkpt lat="46.01354" lon="-1.37263">
        <ele>-7</ele>
        <time>2022-03-26T13:26:54Z</time>
      </trkpt>
      <trkpt lat="46.01346" lon="-1.37255">
        <ele>-7</ele>
        <time>2022-03-26T13:26:56Z</time>
      </trkpt>
      <trkpt lat="46.01329" lon="-1.37242">
        <ele>-7</ele>
        <time>2022-03-26T13:27:00Z</time>
      </trkpt>
      <trkpt lat="46.01325" lon="-1.37241">
        <ele>-7.2</ele>
        <time>2022-03-26T13:27:01Z</time>
      </trkpt>
      <trkpt lat="46.01317" lon="-1.37256">
        <ele>-7</ele>
        <time>2022-03-26T13:27:04Z</time>
      </trkpt>
      <trkpt lat="46.0131" lon="-1.37273">
        <ele>-6.8</ele>
        <time>2022-03-26T13:27:07Z</time>
      </trkpt>
      <trkpt lat="46.01305" lon="-1.37285">
        <ele>-6.8</ele>
        <time>2022-03-26T13:27:09Z</time>
      </trkpt>
      <trkpt lat="46.01285" lon="-1.37309">
        <ele>-6.6</ele>
        <time>2022-03-26T13:27:14Z</time>
      </trkpt>
      <trkpt lat="46.01281" lon="-1.37313">
        <ele>-6.6</ele>
        <time>2022-03-26T13:27:15Z</time>
      </trkpt>
      <trkpt lat="46.01272" lon="-1.37321">
        <ele>-6.4</ele>
        <time>2022-03-26T13:27:17Z</time>
      </trkpt>
      <trkpt lat="46.01257" lon="-1.37331">
        <ele>-6.4</ele>
        <time>2022-03-26T13:27:20Z</time>
      </trkpt>
      <trkpt lat="46.01252" lon="-1.37333">
        <ele>-6.4</ele>
        <time>2022-03-26T13:27:21Z</time>
      </trkpt>
      <trkpt lat="46.01235" lon="-1.37337">
        <ele>-6.2</ele>
        <time>2022-03-26T13:27:24Z</time>
      </trkpt>
      <trkpt lat="46.01224" lon="-1.37333">
        <ele>-6</ele>
        <time>2022-03-26T13:27:26Z</time>
      </trkpt>
      <trkpt lat="46.01206" lon="-1.37314">
        <ele>-6</ele>
        <time>2022-03-26T13:27:30Z</time>
      </trkpt>
      <trkpt lat="46.01185" lon="-1.37291">
        <ele>-5.6</ele>
        <time>2022-03-26T13:27:35Z</time>
      </trkpt>
      <trkpt lat="46.01163" lon="-1.3728">
        <ele>-5.4</ele>
        <time>2022-03-26T13:27:39Z</time>
      </trkpt>
      <trkpt lat="46.01157" lon="-1.37278">
        <ele>-5.4</ele>
        <time>2022-03-26T13:27:40Z</time>
      </trkpt>
      <trkpt lat="46.0113" lon="-1.37274">
        <ele>-5.4</ele>
        <time>2022-03-26T13:27:45Z</time>
      </trkpt>
      <trkpt lat="46.01119" lon="-1.37273">
        <ele>-5.4</ele>
        <time>2022-03-26T13:27:47Z</time>
      </trkpt>
      <trkpt lat="46.01108" lon="-1.37271">
        <ele>-5.4</ele>
        <time>2022-03-26T13:27:49Z</time>
      </trkpt>
      <trkpt lat="46.01103" lon="-1.3727">
        <ele>-5.4</ele>
        <time>2022-03-26T13:27:50Z</time>
      </trkpt>
      <trkpt lat="46.01098" lon="-1.37269">
        <ele>-5.4</ele>
        <time>2022-03-26T13:27:51Z</time>
      </trkpt>
      <trkpt lat="46.01088" lon="-1.37266">
        <ele>-5.2</ele>
        <time>2022-03-26T13:27:53Z</time>
      </trkpt>
      <trkpt lat="46.01078" lon="-1.37263">
        <ele>-5.2</ele>
        <time>2022-03-26T13:27:55Z</time>
      </trkpt>
      <trkpt lat="46.01046" lon="-1.37254">
        <ele>-5</ele>
        <time>2022-03-26T13:28:01Z</time>
      </trkpt>
      <trkpt lat="46.01041" lon="-1.37253">
        <ele>-5</ele>
        <time>2022-03-26T13:28:03Z</time>
      </trkpt>
      <trkpt lat="46.01008" lon="-1.37233">
        <ele>-4.8</ele>
        <time>2022-03-26T13:28:09Z</time>
      </trkpt>
      <trkpt lat="46.01004" lon="-1.37231">
        <ele>-4.8</ele>
        <time>2022-03-26T13:28:10Z</time>
      </trkpt>
      <trkpt lat="46.00992" lon="-1.37221">
        <ele>-4.8</ele>
        <time>2022-03-26T13:28:13Z</time>
      </trkpt>
      <trkpt lat="46.0098" lon="-1.37207">
        <ele>-4.8</ele>
        <time>2022-03-26T13:28:16Z</time>
      </trkpt>
      <trkpt lat="46.00957" lon="-1.37181">
        <ele>-4.8</ele>
        <time>2022-03-26T13:28:21Z</time>
      </trkpt>
      <trkpt lat="46.00946" lon="-1.37174">
        <ele>-4.8</ele>
        <time>2022-03-26T13:28:23Z</time>
      </trkpt>
      <trkpt lat="46.00941" lon="-1.3717">
        <ele>-4.8</ele>
        <time>2022-03-26T13:28:24Z</time>
      </trkpt>
      <trkpt lat="46.00918" lon="-1.37161">
        <ele>-4.8</ele>
        <time>2022-03-26T13:28:28Z</time>
      </trkpt>
      <trkpt lat="46.00901" lon="-1.37157">
        <ele>-4.8</ele>
        <time>2022-03-26T13:28:31Z</time>
      </trkpt>
      <trkpt lat="46.00884" lon="-1.37156">
        <ele>-4.8</ele>
        <time>2022-03-26T13:28:34Z</time>
      </trkpt>
      <trkpt lat="46.0086" lon="-1.37154">
        <ele>-4.8</ele>
        <time>2022-03-26T13:28:38Z</time>
      </trkpt>
      <trkpt lat="46.00849" lon="-1.37152">
        <ele>-4.8</ele>
        <time>2022-03-26T13:28:40Z</time>
      </trkpt>
      <trkpt lat="46.00834" lon="-1.37145">
        <ele>-4.6</ele>
        <time>2022-03-26T13:28:43Z</time>
      </trkpt>
      <trkpt lat="46.00826" lon="-1.3714">
        <ele>-4.6</ele>
        <time>2022-03-26T13:28:45Z</time>
      </trkpt>
      <trkpt lat="46.00803" lon="-1.37126">
        <ele>-4.6</ele>
        <time>2022-03-26T13:28:50Z</time>
      </trkpt>
      <trkpt lat="46.00771" lon="-1.37109">
        <ele>-4.6</ele>
        <time>2022-03-26T13:28:56Z</time>
      </trkpt>
      <trkpt lat="46.00766" lon="-1.37107">
        <ele>-4.4</ele>
        <time>2022-03-26T13:28:57Z</time>
      </trkpt>
      <trkpt lat="46.00753" lon="-1.371">
        <ele>-4.8</ele>
        <time>2022-03-26T13:29:00Z</time>
      </trkpt>
      <trkpt lat="46.00749" lon="-1.37098">
        <ele>-5</ele>
        <time>2022-03-26T13:29:01Z</time>
      </trkpt>
      <trkpt lat="46.00736" lon="-1.37091">
        <ele>-5</ele>
        <time>2022-03-26T13:29:04Z</time>
      </trkpt>
      <trkpt lat="46.00726" lon="-1.37087">
        <ele>-5.2</ele>
        <time>2022-03-26T13:29:06Z</time>
      </trkpt>
      <trkpt lat="46.00721" lon="-1.37084">
        <ele>-5.2</ele>
        <time>2022-03-26T13:29:07Z</time>
      </trkpt>
      <trkpt lat="46.00707" lon="-1.37077">
        <ele>-5.2</ele>
        <time>2022-03-26T13:29:10Z</time>
      </trkpt>
      <trkpt lat="46.00697" lon="-1.37071">
        <ele>-5.2</ele>
        <time>2022-03-26T13:29:12Z</time>
      </trkpt>
      <trkpt lat="46.00692" lon="-1.37066">
        <ele>-5.2</ele>
        <time>2022-03-26T13:29:13Z</time>
      </trkpt>
      <trkpt lat="46.00681" lon="-1.37042">
        <ele>-5.2</ele>
        <time>2022-03-26T13:29:17Z</time>
      </trkpt>
      <trkpt lat="46.0067" lon="-1.37035">
        <ele>-5</ele>
        <time>2022-03-26T13:29:19Z</time>
      </trkpt>
      <trkpt lat="46.00642" lon="-1.37024">
        <ele>-5.2</ele>
        <time>2022-03-26T13:29:24Z</time>
      </trkpt>
      <trkpt lat="46.00637" lon="-1.37023">
        <ele>-4.8</ele>
        <time>2022-03-26T13:29:25Z</time>
      </trkpt>
      <trkpt lat="46.00632" lon="-1.37023">
        <ele>-4.8</ele>
        <time>2022-03-26T13:29:26Z</time>
      </trkpt>
      <trkpt lat="46.00612" lon="-1.3703">
        <ele>-4.8</ele>
        <time>2022-03-26T13:29:30Z</time>
      </trkpt>
      <trkpt lat="46.00585" lon="-1.37046">
        <ele>-5</ele>
        <time>2022-03-26T13:29:36Z</time>
      </trkpt>
      <trkpt lat="46.00573" lon="-1.37058">
        <ele>-5</ele>
        <time>2022-03-26T13:29:39Z</time>
      </trkpt>
      <trkpt lat="46.00565" lon="-1.37067">
        <ele>-4.8</ele>
        <time>2022-03-26T13:29:41Z</time>
      </trkpt>
      <trkpt lat="46.00529" lon="-1.37109">
        <ele>-4.6</ele>
        <time>2022-03-26T13:29:49Z</time>
      </trkpt>
      <trkpt lat="46.00507" lon="-1.37132">
        <ele>-4.6</ele>
        <time>2022-03-26T13:29:54Z</time>
      </trkpt>
      <trkpt lat="46.00502" lon="-1.37134">
        <ele>-4.4</ele>
        <time>2022-03-26T13:29:55Z</time>
      </trkpt>
      <trkpt lat="46.00493" lon="-1.37139">
        <ele>-4.4</ele>
        <time>2022-03-26T13:29:57Z</time>
      </trkpt>
      <trkpt lat="46.00483" lon="-1.3714">
        <ele>-4.2</ele>
        <time>2022-03-26T13:29:59Z</time>
      </trkpt>
      <trkpt lat="46.00472" lon="-1.37138">
        <ele>-4.2</ele>
        <time>2022-03-26T13:30:01Z</time>
      </trkpt>
      <trkpt lat="46.00456" lon="-1.3713">
        <ele>-4</ele>
        <time>2022-03-26T13:30:04Z</time>
      </trkpt>
      <trkpt lat="46.00436" lon="-1.37118">
        <ele>-4</ele>
        <time>2022-03-26T13:30:08Z</time>
      </trkpt>
      <trkpt lat="46.00433" lon="-1.37113">
        <ele>-4</ele>
        <time>2022-03-26T13:30:09Z</time>
      </trkpt>
      <trkpt lat="46.0043" lon="-1.37107">
        <ele>-4</ele>
        <time>2022-03-26T13:30:10Z</time>
      </trkpt>
      <trkpt lat="46.00426" lon="-1.37094">
        <ele>-3.8</ele>
        <time>2022-03-26T13:30:12Z</time>
      </trkpt>
      <trkpt lat="46.00424" lon="-1.37088">
        <ele>-3.8</ele>
        <time>2022-03-26T13:30:13Z</time>
      </trkpt>
      <trkpt lat="46.00417" lon="-1.37042">
        <ele>-3.8</ele>
        <time>2022-03-26T13:30:19Z</time>
      </trkpt>
      <trkpt lat="46.00416" lon="-1.37034">
        <ele>-3.8</ele>
        <time>2022-03-26T13:30:20Z</time>
      </trkpt>
      <trkpt lat="46.00413" lon="-1.37002">
        <ele>-3.8</ele>
        <time>2022-03-26T13:30:24Z</time>
      </trkpt>
      <trkpt lat="46.00411" lon="-1.36988">
        <ele>-3.8</ele>
        <time>2022-03-26T13:30:26Z</time>
      </trkpt>
      <trkpt lat="46.00411" lon="-1.36981">
        <ele>-3.6</ele>
        <time>2022-03-26T13:30:27Z</time>
      </trkpt>
      <trkpt lat="46.0041" lon="-1.3694">
        <ele>-3.6</ele>
        <time>2022-03-26T13:30:33Z</time>
      </trkpt>
      <trkpt lat="46.0041" lon="-1.36933">
        <ele>-3.6</ele>
        <time>2022-03-26T13:30:34Z</time>
      </trkpt>
      <trkpt lat="46.00411" lon="-1.36903">
        <ele>-3.4</ele>
        <time>2022-03-26T13:30:38Z</time>
      </trkpt>
      <trkpt lat="46.00411" lon="-1.36895">
        <ele>-3.4</ele>
        <time>2022-03-26T13:30:39Z</time>
      </trkpt>
      <trkpt lat="46.00412" lon="-1.36871">
        <ele>-3.2</ele>
        <time>2022-03-26T13:30:42Z</time>
      </trkpt>
      <trkpt lat="46.00413" lon="-1.36863">
        <ele>-3.2</ele>
        <time>2022-03-26T13:30:43Z</time>
      </trkpt>
      <trkpt lat="46.00417" lon="-1.36836">
        <ele>-3.2</ele>
        <time>2022-03-26T13:30:47Z</time>
      </trkpt>
      <trkpt lat="46.00419" lon="-1.36823">
        <ele>-3.2</ele>
        <time>2022-03-26T13:30:49Z</time>
      </trkpt>
      <trkpt lat="46.00421" lon="-1.36812">
        <ele>-3</ele>
        <time>2022-03-26T13:30:51Z</time>
      </trkpt>
      <trkpt lat="46.00426" lon="-1.36797">
        <ele>-3</ele>
        <time>2022-03-26T13:30:54Z</time>
      </trkpt>
      <trkpt lat="46.00436" lon="-1.3678">
        <ele>-3</ele>
        <time>2022-03-26T13:30:59Z</time>
      </trkpt>
      <trkpt lat="46.00437" lon="-1.36766">
        <ele>-3</ele>
        <time>2022-03-26T13:31:01Z</time>
      </trkpt>
      <trkpt lat="46.0043" lon="-1.36767">
        <ele>-3</ele>
        <time>2022-03-26T13:31:02Z</time>
      </trkpt>
      <trkpt lat="46.00417" lon="-1.3676">
        <ele>-3.2</ele>
        <time>2022-03-26T13:31:06Z</time>
      </trkpt>
      <trkpt lat="46.00391" lon="-1.36747">
        <ele>-3.4</ele>
        <time>2022-03-26T13:31:11Z</time>
      </trkpt>
      <trkpt lat="46.00361" lon="-1.36732">
        <ele>-3.8</ele>
        <time>2022-03-26T13:31:18Z</time>
      </trkpt>
      <trkpt lat="46.0034" lon="-1.36721">
        <ele>-4.2</ele>
        <time>2022-03-26T13:31:25Z</time>
      </trkpt>
      <trkpt lat="46.0033" lon="-1.36719">
        <ele>-4.4</ele>
        <time>2022-03-26T13:31:27Z</time>
      </trkpt>
      <trkpt lat="46.00329" lon="-1.36723">
        <ele>-4.4</ele>
        <time>2022-03-26T13:31:28Z</time>
      </trkpt>
      <trkpt lat="46.00327" lon="-1.36729">
        <ele>-4.4</ele>
        <time>2022-03-26T13:31:29Z</time>
      </trkpt>
      <trkpt lat="46.00321" lon="-1.36746">
        <ele>-4.6</ele>
        <time>2022-03-26T13:31:32Z</time>
      </trkpt>
      <trkpt lat="46.00319" lon="-1.36752">
        <ele>-4.8</ele>
        <time>2022-03-26T13:31:33Z</time>
      </trkpt>
      <trkpt lat="46.00314" lon="-1.36769">
        <ele>-4.6</ele>
        <time>2022-03-26T13:31:36Z</time>
      </trkpt>
      <trkpt lat="46.00314" lon="-1.36769">
        <ele>-4.6</ele>
        <time>2022-03-26T13:31:37Z</time>
      </trkpt>
      <trkpt lat="46.00302" lon="-1.36806">
        <ele>-4.8</ele>
        <time>2022-03-26T13:31:42Z</time>
      </trkpt>
      <trkpt lat="46.00295" lon="-1.36827">
        <ele>-4.8</ele>
        <time>2022-03-26T13:31:45Z</time>
      </trkpt>
      <trkpt lat="46.00288" lon="-1.36847">
        <ele>-4.8</ele>
        <time>2022-03-26T13:31:49Z</time>
      </trkpt>
      <trkpt lat="46.00282" lon="-1.36866">
        <ele>-5</ele>
        <time>2022-03-26T13:31:51Z</time>
      </trkpt>
      <trkpt lat="46.00277" lon="-1.36883">
        <ele>-5</ele>
        <time>2022-03-26T13:31:55Z</time>
      </trkpt>
      <trkpt lat="46.00267" lon="-1.36913">
        <ele>-4.8</ele>
        <time>2022-03-26T13:32:01Z</time>
      </trkpt>
      <trkpt lat="46.00263" lon="-1.36926">
        <ele>-4.8</ele>
        <time>2022-03-26T13:32:02Z</time>
      </trkpt>
      <trkpt lat="46.00259" lon="-1.36939">
        <ele>-5</ele>
        <time>2022-03-26T13:32:04Z</time>
      </trkpt>
      <trkpt lat="46.00254" lon="-1.36953">
        <ele>-4.8</ele>
        <time>2022-03-26T13:32:06Z</time>
      </trkpt>
      <trkpt lat="46.00254" lon="-1.36953">
        <ele>-4.6</ele>
        <time>2022-03-26T13:32:07Z</time>
      </trkpt>
      <trkpt lat="46.00246" lon="-1.36979">
        <ele>-4.6</ele>
        <time>2022-03-26T13:32:10Z</time>
      </trkpt>
      <trkpt lat="46.00244" lon="-1.36985">
        <ele>-4.6</ele>
        <time>2022-03-26T13:32:11Z</time>
      </trkpt>
      <trkpt lat="46.00242" lon="-1.36991">
        <ele>-4.6</ele>
        <time>2022-03-26T13:32:13Z</time>
      </trkpt>
      <trkpt lat="46.00231" lon="-1.37024">
        <ele>-4.4</ele>
        <time>2022-03-26T13:32:17Z</time>
      </trkpt>
      <trkpt lat="46.00219" lon="-1.37061">
        <ele>-4.4</ele>
        <time>2022-03-26T13:32:22Z</time>
      </trkpt>
      <trkpt lat="46.00207" lon="-1.37099">
        <ele>-4.2</ele>
        <time>2022-03-26T13:32:27Z</time>
      </trkpt>
      <trkpt lat="46.00205" lon="-1.37106">
        <ele>-4.2</ele>
        <time>2022-03-26T13:32:28Z</time>
      </trkpt>
      <trkpt lat="46.00193" lon="-1.37142">
        <ele>-4</ele>
        <time>2022-03-26T13:32:33Z</time>
      </trkpt>
      <trkpt lat="46.00176" lon="-1.37193">
        <ele>-3.8</ele>
        <time>2022-03-26T13:32:41Z</time>
      </trkpt>
      <trkpt lat="46.00164" lon="-1.37231">
        <ele>-3.6</ele>
        <time>2022-03-26T13:32:46Z</time>
      </trkpt>
      <trkpt lat="46.00159" lon="-1.37246">
        <ele>-3.6</ele>
        <time>2022-03-26T13:32:49Z</time>
      </trkpt>
      <trkpt lat="46.00152" lon="-1.37267">
        <ele>-3.6</ele>
        <time>2022-03-26T13:32:51Z</time>
      </trkpt>
      <trkpt lat="46.00138" lon="-1.37313">
        <ele>-3.4</ele>
        <time>2022-03-26T13:32:57Z</time>
      </trkpt>
      <trkpt lat="46.00119" lon="-1.3737">
        <ele>-3.2</ele>
        <time>2022-03-26T13:33:04Z</time>
      </trkpt>
      <trkpt lat="46.00105" lon="-1.37416">
        <ele>-3.2</ele>
        <time>2022-03-26T13:33:10Z</time>
      </trkpt>
      <trkpt lat="46.001" lon="-1.37431">
        <ele>-3.2</ele>
        <time>2022-03-26T13:33:12Z</time>
      </trkpt>
      <trkpt lat="46.00095" lon="-1.37445">
        <ele>-3.2</ele>
        <time>2022-03-26T13:33:14Z</time>
      </trkpt>
      <trkpt lat="46.00091" lon="-1.37447">
        <ele>-3.2</ele>
        <time>2022-03-26T13:33:15Z</time>
      </trkpt>
      <trkpt lat="46.00086" lon="-1.37439">
        <ele>-3.2</ele>
        <time>2022-03-26T13:33:17Z</time>
      </trkpt>
      <trkpt lat="46.00071" lon="-1.37418">
        <ele>-3</ele>
        <time>2022-03-26T13:33:22Z</time>
      </trkpt>
      <trkpt lat="46.00049" lon="-1.37386">
        <ele>-3</ele>
        <time>2022-03-26T13:33:28Z</time>
      </trkpt>
      <trkpt lat="46.00031" lon="-1.37362">
        <ele>-3</ele>
        <time>2022-03-26T13:33:33Z</time>
      </trkpt>
      <trkpt lat="46.00026" lon="-1.37359">
        <ele>-3</ele>
        <time>2022-03-26T13:33:34Z</time>
      </trkpt>
      <trkpt lat="46.00026" lon="-1.37359">
        <ele>-3</ele>
        <time>2022-03-26T13:33:35Z</time>
      </trkpt>
      <trkpt lat="46.00014" lon="-1.37357">
        <ele>-3</ele>
        <time>2022-03-26T13:33:37Z</time>
      </trkpt>
      <trkpt lat="46.00001" lon="-1.37364">
        <ele>-3</ele>
        <time>2022-03-26T13:33:40Z</time>
      </trkpt>
      <trkpt lat="45.99997" lon="-1.37368">
        <ele>-3</ele>
        <time>2022-03-26T13:33:41Z</time>
      </trkpt>
      <trkpt lat="45.99968" lon="-1.37392">
        <ele>-2.8</ele>
        <time>2022-03-26T13:33:47Z</time>
      </trkpt>
      <trkpt lat="45.99944" lon="-1.37412">
        <ele>-2.6</ele>
        <time>2022-03-26T13:33:53Z</time>
      </trkpt>
      <trkpt lat="45.9993" lon="-1.37423">
        <ele>-2.6</ele>
        <time>2022-03-26T13:33:56Z</time>
      </trkpt>
      <trkpt lat="45.99919" lon="-1.37427">
        <ele>-2.6</ele>
        <time>2022-03-26T13:33:58Z</time>
      </trkpt>
      <trkpt lat="45.99887" lon="-1.37439">
        <ele>-2.4</ele>
        <time>2022-03-26T13:34:05Z</time>
      </trkpt>
      <trkpt lat="45.99866" lon="-1.37447">
        <ele>-2.4</ele>
        <time>2022-03-26T13:34:10Z</time>
      </trkpt>
      <trkpt lat="45.99819" lon="-1.37463">
        <ele>-2.4</ele>
        <time>2022-03-26T13:34:17Z</time>
      </trkpt>
      <trkpt lat="45.99796" lon="-1.37472">
        <ele>-2.4</ele>
        <time>2022-03-26T13:34:23Z</time>
      </trkpt>
      <trkpt lat="45.99764" lon="-1.37487">
        <ele>-2.2</ele>
        <time>2022-03-26T13:34:28Z</time>
      </trkpt>
      <trkpt lat="45.99737" lon="-1.375">
        <ele>-2.4</ele>
        <time>2022-03-26T13:34:33Z</time>
      </trkpt>
      <trkpt lat="45.99732" lon="-1.37502">
        <ele>-2.2</ele>
        <time>2022-03-26T13:34:34Z</time>
      </trkpt>
      <trkpt lat="45.99718" lon="-1.37509">
        <ele>-2.2</ele>
        <time>2022-03-26T13:34:37Z</time>
      </trkpt>
      <trkpt lat="45.99713" lon="-1.37511">
        <ele>-2.4</ele>
        <time>2022-03-26T13:34:38Z</time>
      </trkpt>
      <trkpt lat="45.99694" lon="-1.3752">
        <ele>-2.2</ele>
        <time>2022-03-26T13:34:42Z</time>
      </trkpt>
      <trkpt lat="45.99652" lon="-1.3754">
        <ele>-2.2</ele>
        <time>2022-03-26T13:34:50Z</time>
      </trkpt>
      <trkpt lat="45.99618" lon="-1.37556">
        <ele>-2.4</ele>
        <time>2022-03-26T13:34:57Z</time>
      </trkpt>
      <trkpt lat="45.99596" lon="-1.37566">
        <ele>-2.4</ele>
        <time>2022-03-26T13:35:02Z</time>
      </trkpt>
      <trkpt lat="45.99576" lon="-1.37576">
        <ele>-2.4</ele>
        <time>2022-03-26T13:35:06Z</time>
      </trkpt>
      <trkpt lat="45.99563" lon="-1.37582">
        <ele>-2.4</ele>
        <time>2022-03-26T13:35:08Z</time>
      </trkpt>
      <trkpt lat="45.99538" lon="-1.37594">
        <ele>-2.4</ele>
        <time>2022-03-26T13:35:13Z</time>
      </trkpt>
      <trkpt lat="45.99507" lon="-1.37609">
        <ele>-2.6</ele>
        <time>2022-03-26T13:35:20Z</time>
      </trkpt>
      <trkpt lat="45.99488" lon="-1.37618">
        <ele>-2.6</ele>
        <time>2022-03-26T13:35:24Z</time>
      </trkpt>
      <trkpt lat="45.99482" lon="-1.3762">
        <ele>-2.6</ele>
        <time>2022-03-26T13:35:25Z</time>
      </trkpt>
      <trkpt lat="45.9946" lon="-1.37631">
        <ele>-2.4</ele>
        <time>2022-03-26T13:35:29Z</time>
      </trkpt>
      <trkpt lat="45.99455" lon="-1.37633">
        <ele>-2.4</ele>
        <time>2022-03-26T13:35:30Z</time>
      </trkpt>
      <trkpt lat="45.99427" lon="-1.37647">
        <ele>-2.4</ele>
        <time>2022-03-26T13:35:36Z</time>
      </trkpt>
      <trkpt lat="45.99406" lon="-1.37657">
        <ele>-2.4</ele>
        <time>2022-03-26T13:35:41Z</time>
      </trkpt>
      <trkpt lat="45.99388" lon="-1.37666">
        <ele>-2.4</ele>
        <time>2022-03-26T13:35:45Z</time>
      </trkpt>
      <trkpt lat="45.99374" lon="-1.37672">
        <ele>-2.4</ele>
        <time>2022-03-26T13:35:47Z</time>
      </trkpt>
      <trkpt lat="45.99369" lon="-1.37674">
        <ele>-2.4</ele>
        <time>2022-03-26T13:35:48Z</time>
      </trkpt>
      <trkpt lat="45.9936" lon="-1.37673">
        <ele>-2.4</ele>
        <time>2022-03-26T13:35:50Z</time>
      </trkpt>
      <trkpt lat="45.99357" lon="-1.37671">
        <ele>-2.4</ele>
        <time>2022-03-26T13:35:51Z</time>
      </trkpt>
      <trkpt lat="45.99353" lon="-1.37665">
        <ele>-2.4</ele>
        <time>2022-03-26T13:35:52Z</time>
      </trkpt>
      <trkpt lat="45.99348" lon="-1.37654">
        <ele>-2.6</ele>
        <time>2022-03-26T13:35:54Z</time>
      </trkpt>
      <trkpt lat="45.99343" lon="-1.37643">
        <ele>-2.6</ele>
        <time>2022-03-26T13:35:56Z</time>
      </trkpt>
      <trkpt lat="45.9934" lon="-1.37637">
        <ele>-2.6</ele>
        <time>2022-03-26T13:35:57Z</time>
      </trkpt>
      <trkpt lat="45.99329" lon="-1.37614">
        <ele>-2.6</ele>
        <time>2022-03-26T13:36:01Z</time>
      </trkpt>
      <trkpt lat="45.99317" lon="-1.37588">
        <ele>-2.8</ele>
        <time>2022-03-26T13:36:06Z</time>
      </trkpt>
      <trkpt lat="45.99302" lon="-1.37556">
        <ele>-3</ele>
        <time>2022-03-26T13:36:12Z</time>
      </trkpt>
      <trkpt lat="45.99292" lon="-1.37539">
        <ele>-2.8</ele>
        <time>2022-03-26T13:36:17Z</time>
      </trkpt>
      <trkpt lat="45.99292" lon="-1.37539">
        <ele>-2.8</ele>
        <time>2022-03-26T13:36:18Z</time>
      </trkpt>
      <trkpt lat="45.99279" lon="-1.37505">
        <ele>-3</ele>
        <time>2022-03-26T13:36:23Z</time>
      </trkpt>
      <trkpt lat="45.99267" lon="-1.37473">
        <ele>-3.8</ele>
        <time>2022-03-26T13:36:29Z</time>
      </trkpt>
      <trkpt lat="45.99257" lon="-1.3744">
        <ele>-4.6</ele>
        <time>2022-03-26T13:36:35Z</time>
      </trkpt>
      <trkpt lat="45.99248" lon="-1.37411">
        <ele>-5.4</ele>
        <time>2022-03-26T13:36:40Z</time>
      </trkpt>
      <trkpt lat="45.99242" lon="-1.3739">
        <ele>-6</ele>
        <time>2022-03-26T13:36:44Z</time>
      </trkpt>
      <trkpt lat="45.99233" lon="-1.37362">
        <ele>-6.8</ele>
        <time>2022-03-26T13:36:49Z</time>
      </trkpt>
      <trkpt lat="45.99224" lon="-1.37332">
        <ele>-7.6</ele>
        <time>2022-03-26T13:36:54Z</time>
      </trkpt>
      <trkpt lat="45.99215" lon="-1.37306">
        <ele>-8</ele>
        <time>2022-03-26T13:37:00Z</time>
      </trkpt>
      <trkpt lat="45.99205" lon="-1.37276">
        <ele>-8.2</ele>
        <time>2022-03-26T13:37:05Z</time>
      </trkpt>
      <trkpt lat="45.99203" lon="-1.37266">
        <ele>-8.6</ele>
        <time>2022-03-26T13:37:07Z</time>
      </trkpt>
      <trkpt lat="45.99195" lon="-1.37257">
        <ele>-9</ele>
        <time>2022-03-26T13:37:08Z</time>
      </trkpt>
      <trkpt lat="45.99192" lon="-1.37258">
        <ele>-9.2</ele>
        <time>2022-03-26T13:37:09Z</time>
      </trkpt>
      <trkpt lat="45.99183" lon="-1.37261">
        <ele>-9.8</ele>
        <time>2022-03-26T13:37:11Z</time>
      </trkpt>
      <trkpt lat="45.99179" lon="-1.37263">
        <ele>-10</ele>
        <time>2022-03-26T13:37:12Z</time>
      </trkpt>
      <trkpt lat="45.99173" lon="-1.37266">
        <ele>-10.6</ele>
        <time>2022-03-26T13:37:14Z</time>
      </trkpt>
      <trkpt lat="45.99176" lon="-1.37264">
        <ele>-11.6</ele>
        <time>2022-03-26T13:37:18Z</time>
      </trkpt>
      <trkpt lat="45.99157" lon="-1.37227">
        <ele>-13</ele>
        <time>2022-03-26T13:37:23Z</time>
      </trkpt>
      <trkpt lat="45.99144" lon="-1.37202">
        <ele>-12.6</ele>
        <time>2022-03-26T13:37:28Z</time>
      </trkpt>
      <trkpt lat="45.99133" lon="-1.37174">
        <ele>-12.6</ele>
        <time>2022-03-26T13:37:34Z</time>
      </trkpt>
      <trkpt lat="45.99122" lon="-1.37157">
        <ele>-12.2</ele>
        <time>2022-03-26T13:37:39Z</time>
      </trkpt>
      <trkpt lat="45.99115" lon="-1.37148">
        <ele>-12.2</ele>
        <time>2022-03-26T13:37:40Z</time>
      </trkpt>
      <trkpt lat="45.99112" lon="-1.37152">
        <ele>-11.2</ele>
        <time>2022-03-26T13:37:42Z</time>
      </trkpt>
      <trkpt lat="45.99105" lon="-1.37159">
        <ele>-11.2</ele>
        <time>2022-03-26T13:37:44Z</time>
      </trkpt>
      <trkpt lat="45.99097" lon="-1.37167">
        <ele>-11</ele>
        <time>2022-03-26T13:37:46Z</time>
      </trkpt>
      <trkpt lat="45.99071" lon="-1.3719">
        <ele>-10.6</ele>
        <time>2022-03-26T13:37:52Z</time>
      </trkpt>
      <trkpt lat="45.99063" lon="-1.37197">
        <ele>-10.6</ele>
        <time>2022-03-26T13:37:54Z</time>
      </trkpt>
      <trkpt lat="45.99051" lon="-1.37207">
        <ele>-10.4</ele>
        <time>2022-03-26T13:37:57Z</time>
      </trkpt>
      <trkpt lat="45.99044" lon="-1.37214">
        <ele>-10.2</ele>
        <time>2022-03-26T13:37:59Z</time>
      </trkpt>
      <trkpt lat="45.99033" lon="-1.37223">
        <ele>-10</ele>
        <time>2022-03-26T13:38:02Z</time>
      </trkpt>
      <trkpt lat="45.99029" lon="-1.37226">
        <ele>-9.8</ele>
        <time>2022-03-26T13:38:03Z</time>
      </trkpt>
      <trkpt lat="45.99022" lon="-1.37233">
        <ele>-9.8</ele>
        <time>2022-03-26T13:38:05Z</time>
      </trkpt>
      <trkpt lat="45.99015" lon="-1.37238">
        <ele>-9.6</ele>
        <time>2022-03-26T13:38:07Z</time>
      </trkpt>
      <trkpt lat="45.99008" lon="-1.37242">
        <ele>-9.6</ele>
        <time>2022-03-26T13:38:09Z</time>
      </trkpt>
      <trkpt lat="45.99006" lon="-1.37239">
        <ele>-9.4</ele>
        <time>2022-03-26T13:38:10Z</time>
      </trkpt>
      <trkpt lat="45.99004" lon="-1.37235">
        <ele>-9.4</ele>
        <time>2022-03-26T13:38:11Z</time>
      </trkpt>
      <trkpt lat="45.99003" lon="-1.3723">
        <ele>-9.4</ele>
        <time>2022-03-26T13:38:13Z</time>
      </trkpt>
      <trkpt lat="45.98989" lon="-1.37185">
        <ele>-9</ele>
        <time>2022-03-26T13:38:20Z</time>
      </trkpt>
      <trkpt lat="45.98984" lon="-1.37169">
        <ele>-8.8</ele>
        <time>2022-03-26T13:38:23Z</time>
      </trkpt>
      <trkpt lat="45.98981" lon="-1.37157">
        <ele>-8.6</ele>
        <time>2022-03-26T13:38:26Z</time>
      </trkpt>
      <trkpt lat="45.98969" lon="-1.37116">
        <ele>-8.2</ele>
        <time>2022-03-26T13:38:32Z</time>
      </trkpt>
      <trkpt lat="45.98962" lon="-1.37094">
        <ele>-7.8</ele>
        <time>2022-03-26T13:38:36Z</time>
      </trkpt>
      <trkpt lat="45.98958" lon="-1.37082">
        <ele>-7.8</ele>
        <time>2022-03-26T13:38:39Z</time>
      </trkpt>
      <trkpt lat="45.98955" lon="-1.3707">
        <ele>-7.6</ele>
        <time>2022-03-26T13:38:40Z</time>
      </trkpt>
      <trkpt lat="45.98951" lon="-1.37058">
        <ele>-7.6</ele>
        <time>2022-03-26T13:38:42Z</time>
      </trkpt>
      <trkpt lat="45.98948" lon="-1.37047">
        <ele>-7.4</ele>
        <time>2022-03-26T13:38:44Z</time>
      </trkpt>
      <trkpt lat="45.98942" lon="-1.3702">
        <ele>-7</ele>
        <time>2022-03-26T13:38:49Z</time>
      </trkpt>
      <trkpt lat="45.98934" lon="-1.36983">
        <ele>-6.6</ele>
        <time>2022-03-26T13:38:55Z</time>
      </trkpt>
      <trkpt lat="45.98934" lon="-1.36983">
        <ele>-6.4</ele>
        <time>2022-03-26T13:38:56Z</time>
      </trkpt>
      <trkpt lat="45.98925" lon="-1.36946">
        <ele>-6</ele>
        <time>2022-03-26T13:39:01Z</time>
      </trkpt>
      <trkpt lat="45.98921" lon="-1.3693">
        <ele>-5.6</ele>
        <time>2022-03-26T13:39:04Z</time>
      </trkpt>
      <trkpt lat="45.98917" lon="-1.36918">
        <ele>-5.4</ele>
        <time>2022-03-26T13:39:06Z</time>
      </trkpt>
      <trkpt lat="45.98915" lon="-1.36912">
        <ele>-5.2</ele>
        <time>2022-03-26T13:39:07Z</time>
      </trkpt>
      <trkpt lat="45.98907" lon="-1.36882">
        <ele>-4.8</ele>
        <time>2022-03-26T13:39:12Z</time>
      </trkpt>
      <trkpt lat="45.98901" lon="-1.36861">
        <ele>-4.4</ele>
        <time>2022-03-26T13:39:16Z</time>
      </trkpt>
      <trkpt lat="45.98899" lon="-1.36856">
        <ele>-4.4</ele>
        <time>2022-03-26T13:39:18Z</time>
      </trkpt>
      <trkpt lat="45.98895" lon="-1.36844">
        <ele>-4.2</ele>
        <time>2022-03-26T13:39:19Z</time>
      </trkpt>
      <trkpt lat="45.98887" lon="-1.36819">
        <ele>-4</ele>
        <time>2022-03-26T13:39:23Z</time>
      </trkpt>
      <trkpt lat="45.98884" lon="-1.36811">
        <ele>-3.8</ele>
        <time>2022-03-26T13:39:25Z</time>
      </trkpt>
      <trkpt lat="45.98874" lon="-1.3682">
        <ele>-3.6</ele>
        <time>2022-03-26T13:39:28Z</time>
      </trkpt>
      <trkpt lat="45.98853" lon="-1.36842">
        <ele>-3.4</ele>
        <time>2022-03-26T13:39:35Z</time>
      </trkpt>
      <trkpt lat="45.98846" lon="-1.36849">
        <ele>-3.2</ele>
        <time>2022-03-26T13:39:37Z</time>
      </trkpt>
      <trkpt lat="45.98835" lon="-1.36861">
        <ele>-3</ele>
        <time>2022-03-26T13:39:40Z</time>
      </trkpt>
      <trkpt lat="45.98812" lon="-1.36882">
        <ele>-2.8</ele>
        <time>2022-03-26T13:39:47Z</time>
      </trkpt>
      <trkpt lat="45.98799" lon="-1.36893">
        <ele>-2.6</ele>
        <time>2022-03-26T13:39:51Z</time>
      </trkpt>
      <trkpt lat="45.98797" lon="-1.36895">
        <ele>-2.6</ele>
        <time>2022-03-26T13:39:52Z</time>
      </trkpt>
      <trkpt lat="45.98793" lon="-1.3689">
        <ele>-2.6</ele>
        <time>2022-03-26T13:39:53Z</time>
      </trkpt>
      <trkpt lat="45.98794" lon="-1.36881">
        <ele>-2.4</ele>
        <time>2022-03-26T13:39:55Z</time>
      </trkpt>
      <trkpt lat="45.98797" lon="-1.36864">
        <ele>-2.4</ele>
        <time>2022-03-26T13:39:58Z</time>
      </trkpt>
      <trkpt lat="45.988" lon="-1.36852">
        <ele>-2.4</ele>
        <time>2022-03-26T13:40:00Z</time>
      </trkpt>
      <trkpt lat="45.98802" lon="-1.36846">
        <ele>-2.4</ele>
        <time>2022-03-26T13:40:01Z</time>
      </trkpt>
      <trkpt lat="45.98805" lon="-1.36833">
        <ele>-2.2</ele>
        <time>2022-03-26T13:40:03Z</time>
      </trkpt>
      <trkpt lat="45.98809" lon="-1.36813">
        <ele>-2.2</ele>
        <time>2022-03-26T13:40:06Z</time>
      </trkpt>
      <trkpt lat="45.9881" lon="-1.36799">
        <ele>-2.2</ele>
        <time>2022-03-26T13:40:08Z</time>
      </trkpt>
      <trkpt lat="45.9881" lon="-1.36781">
        <ele>-2</ele>
        <time>2022-03-26T13:40:11Z</time>
      </trkpt>
      <trkpt lat="45.98809" lon="-1.36768">
        <ele>-2</ele>
        <time>2022-03-26T13:40:13Z</time>
      </trkpt>
      <trkpt lat="45.98805" lon="-1.36749">
        <ele>-2</ele>
        <time>2022-03-26T13:40:16Z</time>
      </trkpt>
      <trkpt lat="45.98798" lon="-1.36734">
        <ele>-1.8</ele>
        <time>2022-03-26T13:40:19Z</time>
      </trkpt>
      <trkpt lat="45.98791" lon="-1.36719">
        <ele>-1.8</ele>
        <time>2022-03-26T13:40:22Z</time>
      </trkpt>
      <trkpt lat="45.98775" lon="-1.36682">
        <ele>-1.6</ele>
        <time>2022-03-26T13:40:29Z</time>
      </trkpt>
      <trkpt lat="45.98768" lon="-1.36661">
        <ele>-1.6</ele>
        <time>2022-03-26T13:40:33Z</time>
      </trkpt>
      <trkpt lat="45.98766" lon="-1.36655">
        <ele>-1.6</ele>
        <time>2022-03-26T13:40:34Z</time>
      </trkpt>
      <trkpt lat="45.98757" lon="-1.3662">
        <ele>-1.6</ele>
        <time>2022-03-26T13:40:40Z</time>
      </trkpt>
      <trkpt lat="45.98751" lon="-1.36586">
        <ele>-1.6</ele>
        <time>2022-03-26T13:40:46Z</time>
      </trkpt>
      <trkpt lat="45.98747" lon="-1.36567">
        <ele>-1.6</ele>
        <time>2022-03-26T13:40:49Z</time>
      </trkpt>
      <trkpt lat="45.98744" lon="-1.36554">
        <ele>-1.4</ele>
        <time>2022-03-26T13:40:51Z</time>
      </trkpt>
      <trkpt lat="45.98738" lon="-1.36522">
        <ele>-1.4</ele>
        <time>2022-03-26T13:40:57Z</time>
      </trkpt>
      <trkpt lat="45.98723" lon="-1.36473">
        <ele>-1.2</ele>
        <time>2022-03-26T13:41:05Z</time>
      </trkpt>
      <trkpt lat="45.98706" lon="-1.36419">
        <ele>-1</ele>
        <time>2022-03-26T13:41:13Z</time>
      </trkpt>
      <trkpt lat="45.98704" lon="-1.36412">
        <ele>-1</ele>
        <time>2022-03-26T13:41:14Z</time>
      </trkpt>
      <trkpt lat="45.98691" lon="-1.36375">
        <ele>-1</ele>
        <time>2022-03-26T13:41:20Z</time>
      </trkpt>
      <trkpt lat="45.9868" lon="-1.36341">
        <ele>-0.80000000000001</ele>
        <time>2022-03-26T13:41:26Z</time>
      </trkpt>
      <trkpt lat="45.98668" lon="-1.36303">
        <ele>-0.60000000000002</ele>
        <time>2022-03-26T13:41:32Z</time>
      </trkpt>
      <trkpt lat="45.98652" lon="-1.3627">
        <ele>-0.60000000000002</ele>
        <time>2022-03-26T13:41:38Z</time>
      </trkpt>
      <trkpt lat="45.98632" lon="-1.3624">
        <ele>-0.39999999999998</ele>
        <time>2022-03-26T13:41:44Z</time>
      </trkpt>
      <trkpt lat="45.9861" lon="-1.3621">
        <ele>-0.39999999999998</ele>
        <time>2022-03-26T13:41:50Z</time>
      </trkpt>
      <trkpt lat="45.98587" lon="-1.3618">
        <ele>-0.19999999999999</ele>
        <time>2022-03-26T13:41:57Z</time>
      </trkpt>
      <trkpt lat="45.9858" lon="-1.36181">
        <ele>-0.19999999999999</ele>
        <time>2022-03-26T13:41:59Z</time>
      </trkpt>
      <trkpt lat="45.98577" lon="-1.36185">
        <ele>-0.19999999999999</ele>
        <time>2022-03-26T13:42:00Z</time>
      </trkpt>
      <trkpt lat="45.98561" lon="-1.36213">
        <ele>-0.19999999999999</ele>
        <time>2022-03-26T13:42:05Z</time>
      </trkpt>
      <trkpt lat="45.98541" lon="-1.3625">
        <ele>-0.19999999999999</ele>
        <time>2022-03-26T13:42:11Z</time>
      </trkpt>
      <trkpt lat="45.98523" lon="-1.36281">
        <ele>0.19999999999999</ele>
        <time>2022-03-26T13:42:17Z</time>
      </trkpt>
      <trkpt lat="45.98511" lon="-1.36302">
        <ele>0.19999999999999</ele>
        <time>2022-03-26T13:42:22Z</time>
      </trkpt>
      <trkpt lat="45.98508" lon="-1.36308">
        <ele>0.19999999999999</ele>
        <time>2022-03-26T13:42:23Z</time>
      </trkpt>
      <trkpt lat="45.98499" lon="-1.36324">
        <ele>0.19999999999999</ele>
        <time>2022-03-26T13:42:26Z</time>
      </trkpt>
      <trkpt lat="45.98496" lon="-1.36328">
        <ele>0.19999999999999</ele>
        <time>2022-03-26T13:42:27Z</time>
      </trkpt>
      <trkpt lat="45.98494" lon="-1.36333">
        <ele>0.19999999999999</ele>
        <time>2022-03-26T13:42:28Z</time>
      </trkpt>
      <trkpt lat="45.98483" lon="-1.36351">
        <ele>0.19999999999999</ele>
        <time>2022-03-26T13:42:32Z</time>
      </trkpt>
      <trkpt lat="45.98478" lon="-1.3636">
        <ele>0.39999999999998</ele>
        <time>2022-03-26T13:42:35Z</time>
      </trkpt>
      <trkpt lat="45.98469" lon="-1.36376">
        <ele>0.19999999999999</ele>
        <time>2022-03-26T13:42:37Z</time>
      </trkpt>
      <trkpt lat="45.98449" lon="-1.36412">
        <ele>0.39999999999998</ele>
        <time>2022-03-26T13:42:43Z</time>
      </trkpt>
      <trkpt lat="45.98443" lon="-1.36423">
        <ele>0.39999999999998</ele>
        <time>2022-03-26T13:42:45Z</time>
      </trkpt>
      <trkpt lat="45.98435" lon="-1.36437">
        <ele>0.39999999999998</ele>
        <time>2022-03-26T13:42:48Z</time>
      </trkpt>
      <trkpt lat="45.98416" lon="-1.36471">
        <ele>0.60000000000002</ele>
        <time>2022-03-26T13:42:54Z</time>
      </trkpt>
      <trkpt lat="45.98403" lon="-1.36493">
        <ele>0.60000000000002</ele>
        <time>2022-03-26T13:42:59Z</time>
      </trkpt>
      <trkpt lat="45.98393" lon="-1.36513">
        <ele>0.80000000000001</ele>
        <time>2022-03-26T13:43:04Z</time>
      </trkpt>
      <trkpt lat="45.98393" lon="-1.36512">
        <ele>1</ele>
        <time>2022-03-26T13:43:05Z</time>
      </trkpt>
      <trkpt lat="45.98392" lon="-1.36521">
        <ele>1</ele>
        <time>2022-03-26T13:43:07Z</time>
      </trkpt>
      <trkpt lat="45.98392" lon="-1.36521">
        <ele>1.2</ele>
        <time>2022-03-26T13:43:12Z</time>
      </trkpt>
      <trkpt lat="45.98367" lon="-1.36469">
        <ele>1.4</ele>
        <time>2022-03-26T13:43:17Z</time>
      </trkpt>
      <trkpt lat="45.98353" lon="-1.36446">
        <ele>1.6</ele>
        <time>2022-03-26T13:43:23Z</time>
      </trkpt>
      <trkpt lat="45.98339" lon="-1.3643">
        <ele>1.8</ele>
        <time>2022-03-26T13:43:28Z</time>
      </trkpt>
      <trkpt lat="45.98324" lon="-1.36419">
        <ele>1.8</ele>
        <time>2022-03-26T13:43:33Z</time>
      </trkpt>
      <trkpt lat="45.98315" lon="-1.36403">
        <ele>2</ele>
        <time>2022-03-26T13:43:37Z</time>
      </trkpt>
      <trkpt lat="45.983" lon="-1.36379">
        <ele>2</ele>
        <time>2022-03-26T13:43:43Z</time>
      </trkpt>
      <trkpt lat="45.98286" lon="-1.36358">
        <ele>2.2</ele>
        <time>2022-03-26T13:43:49Z</time>
      </trkpt>
      <trkpt lat="45.98269" lon="-1.36329">
        <ele>2.2</ele>
        <time>2022-03-26T13:43:56Z</time>
      </trkpt>
      <trkpt lat="45.98258" lon="-1.36311">
        <ele>2.4</ele>
        <time>2022-03-26T13:44:01Z</time>
      </trkpt>
      <trkpt lat="45.98249" lon="-1.36297">
        <ele>2.4</ele>
        <time>2022-03-26T13:44:05Z</time>
      </trkpt>
      <trkpt lat="45.98248" lon="-1.36298">
        <ele>2.4</ele>
        <time>2022-03-26T13:44:06Z</time>
      </trkpt>
      <trkpt lat="45.98241" lon="-1.3631">
        <ele>2.6</ele>
        <time>2022-03-26T13:44:09Z</time>
      </trkpt>
      <trkpt lat="45.98227" lon="-1.36333">
        <ele>2.6</ele>
        <time>2022-03-26T13:44:15Z</time>
      </trkpt>
      <trkpt lat="45.9822" lon="-1.36345">
        <ele>2.8</ele>
        <time>2022-03-26T13:44:18Z</time>
      </trkpt>
      <trkpt lat="45.98215" lon="-1.36354">
        <ele>2.8</ele>
        <time>2022-03-26T13:44:20Z</time>
      </trkpt>
      <trkpt lat="45.982" lon="-1.36378">
        <ele>2.8</ele>
        <time>2022-03-26T13:44:26Z</time>
      </trkpt>
      <trkpt lat="45.98194" lon="-1.36384">
        <ele>2.8</ele>
        <time>2022-03-26T13:44:28Z</time>
      </trkpt>
      <trkpt lat="45.98184" lon="-1.36393">
        <ele>2.8</ele>
        <time>2022-03-26T13:44:31Z</time>
      </trkpt>
      <trkpt lat="45.9816" lon="-1.36416">
        <ele>3</ele>
        <time>2022-03-26T13:44:38Z</time>
      </trkpt>
      <trkpt lat="45.98134" lon="-1.36441">
        <ele>3.2</ele>
        <time>2022-03-26T13:44:45Z</time>
      </trkpt>
      <trkpt lat="45.98115" lon="-1.3646">
        <ele>3.2</ele>
        <time>2022-03-26T13:44:51Z</time>
      </trkpt>
      <trkpt lat="45.98101" lon="-1.36473">
        <ele>3.4</ele>
        <time>2022-03-26T13:44:57Z</time>
      </trkpt>
      <trkpt lat="45.98092" lon="-1.3647">
        <ele>3.4</ele>
        <time>2022-03-26T13:45:00Z</time>
      </trkpt>
      <trkpt lat="45.98091" lon="-1.36467">
        <ele>3.4</ele>
        <time>2022-03-26T13:45:01Z</time>
      </trkpt>
      <trkpt lat="45.98085" lon="-1.36454">
        <ele>3.6</ele>
        <time>2022-03-26T13:45:05Z</time>
      </trkpt>
      <trkpt lat="45.98084" lon="-1.36453">
        <ele>3.6</ele>
        <time>2022-03-26T13:45:06Z</time>
      </trkpt>
      <trkpt lat="45.98084" lon="-1.36453">
        <ele>3.6</ele>
        <time>2022-03-26T13:45:09Z</time>
      </trkpt>
      <trkpt lat="45.98084" lon="-1.36453">
        <ele>3.8</ele>
        <time>2022-03-26T13:45:28Z</time>
      </trkpt>
      <trkpt lat="45.98084" lon="-1.36453">
        <ele>4</ele>
        <time>2022-03-26T13:45:50Z</time>
      </trkpt>
      <trkpt lat="45.98084" lon="-1.36453">
        <ele>4</ele>
        <time>2022-03-26T13:46:14Z</time>
      </trkpt>
      <trkpt lat="45.98084" lon="-1.36453">
        <ele>4.2</ele>
        <time>2022-03-26T13:46:34Z</time>
      </trkpt>
      <trkpt lat="45.98084" lon="-1.36453">
        <ele>4.2</ele>
        <time>2022-03-26T13:46:45Z</time>
      </trkpt>
      <trkpt lat="45.98084" lon="-1.36453">
        <ele>4.2</ele>
        <time>2022-03-26T13:47:01Z</time>
      </trkpt>
      <trkpt lat="45.98084" lon="-1.36453">
        <ele>4</ele>
        <time>2022-03-26T13:47:23Z</time>
      </trkpt>
      <trkpt lat="45.98084" lon="-1.36453">
        <ele>4</ele>
        <time>2022-03-26T13:47:43Z</time>
      </trkpt>
      <trkpt lat="45.98084" lon="-1.36453">
        <ele>4</ele>
        <time>2022-03-26T13:48:06Z</time>
      </trkpt>
      <trkpt lat="45.98084" lon="-1.36453">
        <ele>4</ele>
        <time>2022-03-26T13:48:24Z</time>
      </trkpt>
      <trkpt lat="45.98084" lon="-1.36453">
        <ele>3.8</ele>
        <time>2022-03-26T13:48:48Z</time>
      </trkpt>
      <trkpt lat="45.98084" lon="-1.36453">
        <ele>3.8</ele>
        <time>2022-03-26T13:49:08Z</time>
      </trkpt>
      <trkpt lat="45.98084" lon="-1.36453">
        <ele>3.8</ele>
        <time>2022-03-26T13:49:29Z</time>
      </trkpt>
      <trkpt lat="45.98084" lon="-1.36453">
        <ele>3.8</ele>
        <time>2022-03-26T13:49:53Z</time>
      </trkpt>
      <trkpt lat="45.98084" lon="-1.36453">
        <ele>3.6</ele>
        <time>2022-03-26T13:50:05Z</time>
      </trkpt>
      <trkpt lat="45.98084" lon="-1.36453">
        <ele>3.4</ele>
        <time>2022-03-26T13:50:12Z</time>
      </trkpt>
      <trkpt lat="45.98084" lon="-1.36452">
        <ele>3.4</ele>
        <time>2022-03-26T13:50:21Z</time>
      </trkpt>
      <trkpt lat="45.98083" lon="-1.3645">
        <ele>3.4</ele>
        <time>2022-03-26T13:50:23Z</time>
      </trkpt>
      <trkpt lat="45.98083" lon="-1.3645">
        <ele>3.6</ele>
        <time>2022-03-26T13:50:29Z</time>
      </trkpt>
      <trkpt lat="45.9808" lon="-1.36444">
        <ele>3.4</ele>
        <time>2022-03-26T13:50:34Z</time>
      </trkpt>
      <trkpt lat="45.98074" lon="-1.3643">
        <ele>3.4</ele>
        <time>2022-03-26T13:50:38Z</time>
      </trkpt>
      <trkpt lat="45.98062" lon="-1.36404">
        <ele>3.4</ele>
        <time>2022-03-26T13:50:44Z</time>
      </trkpt>
      <trkpt lat="45.9805" lon="-1.36381">
        <ele>3.2</ele>
        <time>2022-03-26T13:50:49Z</time>
      </trkpt>
      <trkpt lat="45.98025" lon="-1.36338">
        <ele>3</ele>
        <time>2022-03-26T13:50:57Z</time>
      </trkpt>
      <trkpt lat="45.98001" lon="-1.36298">
        <ele>2.8</ele>
        <time>2022-03-26T13:51:04Z</time>
      </trkpt>
      <trkpt lat="45.97983" lon="-1.3626">
        <ele>2.6</ele>
        <time>2022-03-26T13:51:11Z</time>
      </trkpt>
      <trkpt lat="45.97973" lon="-1.36237">
        <ele>2.4</ele>
        <time>2022-03-26T13:51:15Z</time>
      </trkpt>
      <trkpt lat="45.97969" lon="-1.36228">
        <ele>2.4</ele>
        <time>2022-03-26T13:51:17Z</time>
      </trkpt>
      <trkpt lat="45.97959" lon="-1.36235">
        <ele>2.4</ele>
        <time>2022-03-26T13:51:19Z</time>
      </trkpt>
      <trkpt lat="45.97955" lon="-1.36239">
        <ele>2.2</ele>
        <time>2022-03-26T13:51:20Z</time>
      </trkpt>
      <trkpt lat="45.97932" lon="-1.36264">
        <ele>2.2</ele>
        <time>2022-03-26T13:51:25Z</time>
      </trkpt>
      <trkpt lat="45.97923" lon="-1.36274">
        <ele>2.2</ele>
        <time>2022-03-26T13:51:27Z</time>
      </trkpt>
      <trkpt lat="45.97906" lon="-1.36291">
        <ele>2</ele>
        <time>2022-03-26T13:51:31Z</time>
      </trkpt>
      <trkpt lat="45.97888" lon="-1.36311">
        <ele>2</ele>
        <time>2022-03-26T13:51:36Z</time>
      </trkpt>
      <trkpt lat="45.97885" lon="-1.36314">
        <ele>1.8</ele>
        <time>2022-03-26T13:51:37Z</time>
      </trkpt>
      <trkpt lat="45.97877" lon="-1.36319">
        <ele>1.8</ele>
        <time>2022-03-26T13:51:39Z</time>
      </trkpt>
      <trkpt lat="45.97868" lon="-1.36325">
        <ele>1.8</ele>
        <time>2022-03-26T13:51:41Z</time>
      </trkpt>
      <trkpt lat="45.97864" lon="-1.36328">
        <ele>1.8</ele>
        <time>2022-03-26T13:51:42Z</time>
      </trkpt>
      <trkpt lat="45.97841" lon="-1.36343">
        <ele>1.6</ele>
        <time>2022-03-26T13:51:48Z</time>
      </trkpt>
      <trkpt lat="45.97834" lon="-1.3635">
        <ele>1.6</ele>
        <time>2022-03-26T13:51:50Z</time>
      </trkpt>
      <trkpt lat="45.97828" lon="-1.3636">
        <ele>1.6</ele>
        <time>2022-03-26T13:51:52Z</time>
      </trkpt>
      <trkpt lat="45.97826" lon="-1.36365">
        <ele>1.6</ele>
        <time>2022-03-26T13:51:53Z</time>
      </trkpt>
      <trkpt lat="45.97814" lon="-1.3638">
        <ele>1.6</ele>
        <time>2022-03-26T13:51:57Z</time>
      </trkpt>
      <trkpt lat="45.97799" lon="-1.36377">
        <ele>1.6</ele>
        <time>2022-03-26T13:52:01Z</time>
      </trkpt>
      <trkpt lat="45.97795" lon="-1.36377">
        <ele>1.6</ele>
        <time>2022-03-26T13:52:02Z</time>
      </trkpt>
      <trkpt lat="45.97782" lon="-1.36374">
        <ele>1.6</ele>
        <time>2022-03-26T13:52:05Z</time>
      </trkpt>
      <trkpt lat="45.97778" lon="-1.36372">
        <ele>1.6</ele>
        <time>2022-03-26T13:52:06Z</time>
      </trkpt>
      <trkpt lat="45.97763" lon="-1.3636">
        <ele>1.4</ele>
        <time>2022-03-26T13:52:11Z</time>
      </trkpt>
      <trkpt lat="45.97744" lon="-1.36333">
        <ele>1.6</ele>
        <time>2022-03-26T13:52:17Z</time>
      </trkpt>
      <trkpt lat="45.97729" lon="-1.36313">
        <ele>1.6</ele>
        <time>2022-03-26T13:52:22Z</time>
      </trkpt>
      <trkpt lat="45.97712" lon="-1.36283">
        <ele>1.6</ele>
        <time>2022-03-26T13:52:28Z</time>
      </trkpt>
      <trkpt lat="45.97694" lon="-1.36254">
        <ele>1.6</ele>
        <time>2022-03-26T13:52:35Z</time>
      </trkpt>
      <trkpt lat="45.97672" lon="-1.36219">
        <ele>1.6</ele>
        <time>2022-03-26T13:52:42Z</time>
      </trkpt>
      <trkpt lat="45.97648" lon="-1.36183">
        <ele>1.6</ele>
        <time>2022-03-26T13:52:49Z</time>
      </trkpt>
      <trkpt lat="45.97631" lon="-1.36157">
        <ele>1.6</ele>
        <time>2022-03-26T13:52:55Z</time>
      </trkpt>
      <trkpt lat="45.97608" lon="-1.36118">
        <ele>1.6</ele>
        <time>2022-03-26T13:53:02Z</time>
      </trkpt>
      <trkpt lat="45.97597" lon="-1.36096">
        <ele>1.4</ele>
        <time>2022-03-26T13:53:06Z</time>
      </trkpt>
      <trkpt lat="45.97587" lon="-1.36073">
        <ele>1.4</ele>
        <time>2022-03-26T13:53:11Z</time>
      </trkpt>
      <trkpt lat="45.97577" lon="-1.36041">
        <ele>1.4</ele>
        <time>2022-03-26T13:53:16Z</time>
      </trkpt>
      <trkpt lat="45.97568" lon="-1.3601">
        <ele>1.4</ele>
        <time>2022-03-26T13:53:21Z</time>
      </trkpt>
      <trkpt lat="45.97556" lon="-1.35982">
        <ele>1</ele>
        <time>2022-03-26T13:53:26Z</time>
      </trkpt>
      <trkpt lat="45.97552" lon="-1.35971">
        <ele>1</ele>
        <time>2022-03-26T13:53:28Z</time>
      </trkpt>
      <trkpt lat="45.97542" lon="-1.35951">
        <ele>0.80000000000001</ele>
        <time>2022-03-26T13:53:32Z</time>
      </trkpt>
      <trkpt lat="45.97529" lon="-1.35924">
        <ele>0.60000000000002</ele>
        <time>2022-03-26T13:53:38Z</time>
      </trkpt>
      <trkpt lat="45.97517" lon="-1.35895">
        <ele>0.60000000000002</ele>
        <time>2022-03-26T13:53:44Z</time>
      </trkpt>
      <trkpt lat="45.97508" lon="-1.3587">
        <ele>0.60000000000002</ele>
        <time>2022-03-26T13:53:50Z</time>
      </trkpt>
      <trkpt lat="45.97502" lon="-1.35865">
        <ele>0.60000000000002</ele>
        <time>2022-03-26T13:53:52Z</time>
      </trkpt>
      <trkpt lat="45.97501" lon="-1.35869">
        <ele>0.60000000000002</ele>
        <time>2022-03-26T13:53:53Z</time>
      </trkpt>
      <trkpt lat="45.97488" lon="-1.35879">
        <ele>0.39999999999998</ele>
        <time>2022-03-26T13:53:57Z</time>
      </trkpt>
      <trkpt lat="45.97481" lon="-1.35884">
        <ele>0.80000000000001</ele>
        <time>2022-03-26T13:53:59Z</time>
      </trkpt>
      <trkpt lat="45.9747" lon="-1.35892">
        <ele>0.80000000000001</ele>
        <time>2022-03-26T13:54:02Z</time>
      </trkpt>
      <trkpt lat="45.97451" lon="-1.35904">
        <ele>0.80000000000001</ele>
        <time>2022-03-26T13:54:08Z</time>
      </trkpt>
      <trkpt lat="45.97431" lon="-1.35915">
        <ele>0.80000000000001</ele>
        <time>2022-03-26T13:54:15Z</time>
      </trkpt>
      <trkpt lat="45.97413" lon="-1.35927">
        <ele>1</ele>
        <time>2022-03-26T13:54:21Z</time>
      </trkpt>
      <trkpt lat="45.97398" lon="-1.35939">
        <ele>1</ele>
        <time>2022-03-26T13:54:26Z</time>
      </trkpt>
      <trkpt lat="45.97379" lon="-1.35957">
        <ele>1.2</ele>
        <time>2022-03-26T13:54:32Z</time>
      </trkpt>
      <trkpt lat="45.97372" lon="-1.35966">
        <ele>1.2</ele>
        <time>2022-03-26T13:54:34Z</time>
      </trkpt>
      <trkpt lat="45.97357" lon="-1.35983">
        <ele>1.2</ele>
        <time>2022-03-26T13:54:38Z</time>
      </trkpt>
      <trkpt lat="45.97341" lon="-1.36001">
        <ele>1.2</ele>
        <time>2022-03-26T13:54:42Z</time>
      </trkpt>
      <trkpt lat="45.97334" lon="-1.36009">
        <ele>1.2</ele>
        <time>2022-03-26T13:54:44Z</time>
      </trkpt>
      <trkpt lat="45.97307" lon="-1.36036">
        <ele>1</ele>
        <time>2022-03-26T13:54:51Z</time>
      </trkpt>
      <trkpt lat="45.97303" lon="-1.36039">
        <ele>1</ele>
        <time>2022-03-26T13:54:52Z</time>
      </trkpt>
      <trkpt lat="45.97296" lon="-1.36046">
        <ele>0.80000000000001</ele>
        <time>2022-03-26T13:54:54Z</time>
      </trkpt>
      <trkpt lat="45.97287" lon="-1.36058">
        <ele>0.80000000000001</ele>
        <time>2022-03-26T13:54:57Z</time>
      </trkpt>
      <trkpt lat="45.97278" lon="-1.36071">
        <ele>0.80000000000001</ele>
        <time>2022-03-26T13:55:00Z</time>
      </trkpt>
      <trkpt lat="45.97273" lon="-1.36077">
        <ele>0.80000000000001</ele>
        <time>2022-03-26T13:55:01Z</time>
      </trkpt>
      <trkpt lat="45.97265" lon="-1.36089">
        <ele>0.80000000000001</ele>
        <time>2022-03-26T13:55:03Z</time>
      </trkpt>
      <trkpt lat="45.97251" lon="-1.36107">
        <ele>0.80000000000001</ele>
        <time>2022-03-26T13:55:06Z</time>
      </trkpt>
      <trkpt lat="45.97235" lon="-1.3613">
        <ele>0.60000000000002</ele>
        <time>2022-03-26T13:55:10Z</time>
      </trkpt>
      <trkpt lat="45.97227" lon="-1.36142">
        <ele>0.60000000000002</ele>
        <time>2022-03-26T13:55:12Z</time>
      </trkpt>
      <trkpt lat="45.97194" lon="-1.36192">
        <ele>0.39999999999998</ele>
        <time>2022-03-26T13:55:20Z</time>
      </trkpt>
      <trkpt lat="45.97178" lon="-1.36216">
        <ele>0.39999999999998</ele>
        <time>2022-03-26T13:55:24Z</time>
      </trkpt>
      <trkpt lat="45.97171" lon="-1.36227">
        <ele>0.39999999999998</ele>
        <time>2022-03-26T13:55:26Z</time>
      </trkpt>
      <trkpt lat="45.97164" lon="-1.36238">
        <ele>0.39999999999998</ele>
        <time>2022-03-26T13:55:28Z</time>
      </trkpt>
      <trkpt lat="45.97157" lon="-1.36248">
        <ele>0.39999999999998</ele>
        <time>2022-03-26T13:55:30Z</time>
      </trkpt>
      <trkpt lat="45.97153" lon="-1.36254">
        <ele>0.39999999999998</ele>
        <time>2022-03-26T13:55:31Z</time>
      </trkpt>
      <trkpt lat="45.97134" lon="-1.36283">
        <ele>0.39999999999998</ele>
        <time>2022-03-26T13:55:37Z</time>
      </trkpt>
      <trkpt lat="45.97131" lon="-1.36287">
        <ele>0.39999999999998</ele>
        <time>2022-03-26T13:55:38Z</time>
      </trkpt>
      <trkpt lat="45.9711" lon="-1.36319">
        <ele>0.39999999999998</ele>
        <time>2022-03-26T13:55:44Z</time>
      </trkpt>
      <trkpt lat="45.9709" lon="-1.36349">
        <ele>0.19999999999999</ele>
        <time>2022-03-26T13:55:49Z</time>
      </trkpt>
      <trkpt lat="45.97087" lon="-1.36354">
        <ele>0.19999999999999</ele>
        <time>2022-03-26T13:55:50Z</time>
      </trkpt>
      <trkpt lat="45.9707" lon="-1.36378">
        <ele>0.19999999999999</ele>
        <time>2022-03-26T13:55:55Z</time>
      </trkpt>
      <trkpt lat="45.97067" lon="-1.36382">
        <ele>0.19999999999999</ele>
        <time>2022-03-26T13:55:56Z</time>
      </trkpt>
      <trkpt lat="45.97063" lon="-1.36385">
        <ele>0.19999999999999</ele>
        <time>2022-03-26T13:55:57Z</time>
      </trkpt>
      <trkpt lat="45.97057" lon="-1.36378">
        <ele>0.19999999999999</ele>
        <time>2022-03-26T13:55:59Z</time>
      </trkpt>
      <trkpt lat="45.97051" lon="-1.36371">
        <ele>0.19999999999999</ele>
        <time>2022-03-26T13:56:01Z</time>
      </trkpt>
      <trkpt lat="45.9704" lon="-1.36358">
        <ele>0.19999999999999</ele>
        <time>2022-03-26T13:56:04Z</time>
      </trkpt>
      <trkpt lat="45.97021" lon="-1.36335">
        <ele>-0.19999999999999</ele>
        <time>2022-03-26T13:56:09Z</time>
      </trkpt>
      <trkpt lat="45.97005" lon="-1.36317">
        <ele>-0.39999999999998</ele>
        <time>2022-03-26T13:56:15Z</time>
      </trkpt>
      <trkpt lat="45.9698" lon="-1.36286">
        <ele>-0.39999999999998</ele>
        <time>2022-03-26T13:56:22Z</time>
      </trkpt>
      <trkpt lat="45.96968" lon="-1.36271">
        <ele>-0.39999999999998</ele>
        <time>2022-03-26T13:56:26Z</time>
      </trkpt>
      <trkpt lat="45.96965" lon="-1.36267">
        <ele>-0.39999999999998</ele>
        <time>2022-03-26T13:56:27Z</time>
      </trkpt>
      <trkpt lat="45.96959" lon="-1.36258">
        <ele>-0.39999999999998</ele>
        <time>2022-03-26T13:56:29Z</time>
      </trkpt>
      <trkpt lat="45.96946" lon="-1.36241">
        <ele>-0.39999999999998</ele>
        <time>2022-03-26T13:56:33Z</time>
      </trkpt>
      <trkpt lat="45.96937" lon="-1.36227">
        <ele>-0.60000000000002</ele>
        <time>2022-03-26T13:56:36Z</time>
      </trkpt>
      <trkpt lat="45.96931" lon="-1.36219">
        <ele>-0.60000000000002</ele>
        <time>2022-03-26T13:56:38Z</time>
      </trkpt>
      <trkpt lat="45.96916" lon="-1.36198">
        <ele>-0.80000000000001</ele>
        <time>2022-03-26T13:56:43Z</time>
      </trkpt>
      <trkpt lat="45.96902" lon="-1.36178">
        <ele>-1</ele>
        <time>2022-03-26T13:56:48Z</time>
      </trkpt>
      <trkpt lat="45.96885" lon="-1.36155">
        <ele>-1</ele>
        <time>2022-03-26T13:56:53Z</time>
      </trkpt>
      <trkpt lat="45.96871" lon="-1.36136">
        <ele>-0.80000000000001</ele>
        <time>2022-03-26T13:56:58Z</time>
      </trkpt>
      <trkpt lat="45.96864" lon="-1.36127">
        <ele>-0.80000000000001</ele>
        <time>2022-03-26T13:57:00Z</time>
      </trkpt>
      <trkpt lat="45.96855" lon="-1.36115">
        <ele>-0.60000000000002</ele>
        <time>2022-03-26T13:57:03Z</time>
      </trkpt>
      <trkpt lat="45.96837" lon="-1.3609">
        <ele>-0.60000000000002</ele>
        <time>2022-03-26T13:57:09Z</time>
      </trkpt>
      <trkpt lat="45.9682" lon="-1.36067">
        <ele>-0.60000000000002</ele>
        <time>2022-03-26T13:57:14Z</time>
      </trkpt>
      <trkpt lat="45.96807" lon="-1.36049">
        <ele>-0.39999999999998</ele>
        <time>2022-03-26T13:57:19Z</time>
      </trkpt>
      <trkpt lat="45.96805" lon="-1.36047">
        <ele>-0.39999999999998</ele>
        <time>2022-03-26T13:57:21Z</time>
      </trkpt>
      <trkpt lat="45.96807" lon="-1.36043">
        <ele>-0.39999999999998</ele>
        <time>2022-03-26T13:57:22Z</time>
      </trkpt>
      <trkpt lat="45.96817" lon="-1.36028">
        <ele>-0.19999999999999</ele>
        <time>2022-03-26T13:57:27Z</time>
      </trkpt>
      <trkpt lat="45.96832" lon="-1.36004">
        <ele>-0.19999999999999</ele>
        <time>2022-03-26T13:57:33Z</time>
      </trkpt>
      <trkpt lat="45.96829" lon="-1.35993">
        <ele>-0.19999999999999</ele>
        <time>2022-03-26T13:57:35Z</time>
      </trkpt>
      <trkpt lat="45.96826" lon="-1.35989">
        <ele>-0.19999999999999</ele>
        <time>2022-03-26T13:57:36Z</time>
      </trkpt>
      <trkpt lat="45.96819" lon="-1.35981">
        <ele>-0.19999999999999</ele>
        <time>2022-03-26T13:57:38Z</time>
      </trkpt>
      <trkpt lat="45.96815" lon="-1.35976">
        <ele>-0.19999999999999</ele>
        <time>2022-03-26T13:57:39Z</time>
      </trkpt>
      <trkpt lat="45.96811" lon="-1.35971">
        <ele>-0.19999999999999</ele>
        <time>2022-03-26T13:57:40Z</time>
      </trkpt>
      <trkpt lat="45.968" lon="-1.35957">
        <ele>-0.19999999999999</ele>
        <time>2022-03-26T13:57:43Z</time>
      </trkpt>
      <trkpt lat="45.96779" lon="-1.35931">
        <ele>-0.19999999999999</ele>
        <time>2022-03-26T13:57:49Z</time>
      </trkpt>
      <trkpt lat="45.96756" lon="-1.35903">
        <ele>-0.19999999999999</ele>
        <time>2022-03-26T13:57:56Z</time>
      </trkpt>
      <trkpt lat="45.96753" lon="-1.35899">
        <ele>-0.19999999999999</ele>
        <time>2022-03-26T13:57:57Z</time>
      </trkpt>
      <trkpt lat="45.96747" lon="-1.35892">
        <ele>-0.19999999999999</ele>
        <time>2022-03-26T13:57:59Z</time>
      </trkpt>
      <trkpt lat="45.96744" lon="-1.35888">
        <ele>-0.19999999999999</ele>
        <time>2022-03-26T13:58:00Z</time>
      </trkpt>
      <trkpt lat="45.9672" lon="-1.35852">
        <ele>-0.19999999999999</ele>
        <time>2022-03-26T13:58:08Z</time>
      </trkpt>
      <trkpt lat="45.96709" lon="-1.35834">
        <ele>-0.39999999999998</ele>
        <time>2022-03-26T13:58:13Z</time>
      </trkpt>
      <trkpt lat="45.96706" lon="-1.35829">
        <ele>-0.39999999999998</ele>
        <time>2022-03-26T13:58:15Z</time>
      </trkpt>
      <trkpt lat="45.96706" lon="-1.35827">
        <ele>-0.60000000000002</ele>
        <time>2022-03-26T13:58:16Z</time>
      </trkpt>
      <trkpt lat="45.96704" lon="-1.35825">
        <ele>-0.60000000000002</ele>
        <time>2022-03-26T13:58:17Z</time>
      </trkpt>
      <trkpt lat="45.96701" lon="-1.35819">
        <ele>-0.60000000000002</ele>
        <time>2022-03-26T13:58:19Z</time>
      </trkpt>
      <trkpt lat="45.96696" lon="-1.35812">
        <ele>-0.60000000000002</ele>
        <time>2022-03-26T13:58:21Z</time>
      </trkpt>
      <trkpt lat="45.9669" lon="-1.35802">
        <ele>-0.60000000000002</ele>
        <time>2022-03-26T13:58:23Z</time>
      </trkpt>
      <trkpt lat="45.9667" lon="-1.35767">
        <ele>-0.80000000000001</ele>
        <time>2022-03-26T13:58:30Z</time>
      </trkpt>
      <trkpt lat="45.9665" lon="-1.35743">
        <ele>-0.80000000000001</ele>
        <time>2022-03-26T13:58:37Z</time>
      </trkpt>
      <trkpt lat="45.9664" lon="-1.3573">
        <ele>-0.80000000000001</ele>
        <time>2022-03-26T13:58:39Z</time>
      </trkpt>
      <trkpt lat="45.96633" lon="-1.35716">
        <ele>-0.80000000000001</ele>
        <time>2022-03-26T13:58:42Z</time>
      </trkpt>
      <trkpt lat="45.96633" lon="-1.35705">
        <ele>-0.80000000000001</ele>
        <time>2022-03-26T13:58:44Z</time>
      </trkpt>
      <trkpt lat="45.96635" lon="-1.357">
        <ele>-1</ele>
        <time>2022-03-26T13:58:45Z</time>
      </trkpt>
      <trkpt lat="45.96637" lon="-1.35679">
        <ele>-0.60000000000002</ele>
        <time>2022-03-26T13:58:49Z</time>
      </trkpt>
      <trkpt lat="45.96637" lon="-1.35679">
        <ele>-0.60000000000002</ele>
        <time>2022-03-26T13:58:50Z</time>
      </trkpt>
      <trkpt lat="45.96634" lon="-1.35668">
        <ele>-0.60000000000002</ele>
        <time>2022-03-26T13:58:51Z</time>
      </trkpt>
      <trkpt lat="45.96627" lon="-1.35655">
        <ele>-0.60000000000002</ele>
        <time>2022-03-26T13:58:54Z</time>
      </trkpt>
      <trkpt lat="45.96619" lon="-1.35639">
        <ele>-0.60000000000002</ele>
        <time>2022-03-26T13:58:57Z</time>
      </trkpt>
      <trkpt lat="45.96614" lon="-1.35628">
        <ele>-0.60000000000002</ele>
        <time>2022-03-26T13:58:59Z</time>
      </trkpt>
      <trkpt lat="45.96599" lon="-1.356">
        <ele>-0.60000000000002</ele>
        <time>2022-03-26T13:59:05Z</time>
      </trkpt>
      <trkpt lat="45.96582" lon="-1.35571">
        <ele>-0.60000000000002</ele>
        <time>2022-03-26T13:59:11Z</time>
      </trkpt>
      <trkpt lat="45.96572" lon="-1.35553">
        <ele>-0.60000000000002</ele>
        <time>2022-03-26T13:59:15Z</time>
      </trkpt>
      <trkpt lat="45.96567" lon="-1.35543">
        <ele>-0.39999999999998</ele>
        <time>2022-03-26T13:59:17Z</time>
      </trkpt>
      <trkpt lat="45.96551" lon="-1.35515">
        <ele>-0.39999999999998</ele>
        <time>2022-03-26T13:59:23Z</time>
      </trkpt>
      <trkpt lat="45.96541" lon="-1.35499">
        <ele>-0.39999999999998</ele>
        <time>2022-03-26T13:59:27Z</time>
      </trkpt>
      <trkpt lat="45.96539" lon="-1.35494">
        <ele>-0.39999999999998</ele>
        <time>2022-03-26T13:59:28Z</time>
      </trkpt>
      <trkpt lat="45.96539" lon="-1.35494">
        <ele>-0.39999999999998</ele>
        <time>2022-03-26T13:59:29Z</time>
      </trkpt>
      <trkpt lat="45.96525" lon="-1.35493">
        <ele>-0.39999999999998</ele>
        <time>2022-03-26T13:59:31Z</time>
      </trkpt>
      <trkpt lat="45.96505" lon="-1.35494">
        <ele>-0.19999999999999</ele>
        <time>2022-03-26T13:59:37Z</time>
      </trkpt>
      <trkpt lat="45.96488" lon="-1.35489">
        <ele>-0.19999999999999</ele>
        <time>2022-03-26T13:59:44Z</time>
      </trkpt>
      <trkpt lat="45.96462" lon="-1.35483">
        <ele>-0.19999999999999</ele>
        <time>2022-03-26T13:59:49Z</time>
      </trkpt>
      <trkpt lat="45.96445" lon="-1.35473">
        <ele>-0.19999999999999</ele>
        <time>2022-03-26T13:59:54Z</time>
      </trkpt>
      <trkpt lat="45.96441" lon="-1.35458">
        <ele>-0.19999999999999</ele>
        <time>2022-03-26T13:59:57Z</time>
      </trkpt>
      <trkpt lat="45.96442" lon="-1.35452">
        <ele>-0.19999999999999</ele>
        <time>2022-03-26T13:59:58Z</time>
      </trkpt>
      <trkpt lat="45.96445" lon="-1.35433">
        <ele>-0.19999999999999</ele>
        <time>2022-03-26T14:00:01Z</time>
      </trkpt>
      <trkpt lat="45.96447" lon="-1.35427">
        <ele>-0.19999999999999</ele>
        <time>2022-03-26T14:00:02Z</time>
      </trkpt>
      <trkpt lat="45.96454" lon="-1.35396">
        <ele>0.19999999999999</ele>
        <time>2022-03-26T14:00:08Z</time>
      </trkpt>
      <trkpt lat="45.96461" lon="-1.35372">
        <ele>0.19999999999999</ele>
        <time>2022-03-26T14:00:12Z</time>
      </trkpt>
      <trkpt lat="45.96463" lon="-1.35366">
        <ele>0.39999999999998</ele>
        <time>2022-03-26T14:00:13Z</time>
      </trkpt>
      <trkpt lat="45.96465" lon="-1.3535">
        <ele>0.39999999999998</ele>
        <time>2022-03-26T14:00:16Z</time>
      </trkpt>
      <trkpt lat="45.96462" lon="-1.35346">
        <ele>0.39999999999998</ele>
        <time>2022-03-26T14:00:17Z</time>
      </trkpt>
      <trkpt lat="45.96452" lon="-1.35331">
        <ele>0.39999999999998</ele>
        <time>2022-03-26T14:00:21Z</time>
      </trkpt>
      <trkpt lat="45.96448" lon="-1.35327">
        <ele>0.39999999999998</ele>
        <time>2022-03-26T14:00:22Z</time>
      </trkpt>
      <trkpt lat="45.96442" lon="-1.35317">
        <ele>0.39999999999998</ele>
        <time>2022-03-26T14:00:24Z</time>
      </trkpt>
      <trkpt lat="45.96432" lon="-1.35304">
        <ele>0.39999999999998</ele>
        <time>2022-03-26T14:00:27Z</time>
      </trkpt>
      <trkpt lat="45.96414" lon="-1.35278">
        <ele>0.39999999999998</ele>
        <time>2022-03-26T14:00:33Z</time>
      </trkpt>
      <trkpt lat="45.96395" lon="-1.35252">
        <ele>0.19999999999999</ele>
        <time>2022-03-26T14:00:39Z</time>
      </trkpt>
      <trkpt lat="45.9638" lon="-1.35231">
        <ele>0.19999999999999</ele>
        <time>2022-03-26T14:00:43Z</time>
      </trkpt>
      <trkpt lat="45.96368" lon="-1.35215">
        <ele>0.39999999999998</ele>
        <time>2022-03-26T14:00:46Z</time>
      </trkpt>
      <trkpt lat="45.96348" lon="-1.35186">
        <ele>0.19999999999999</ele>
        <time>2022-03-26T14:00:52Z</time>
      </trkpt>
      <trkpt lat="45.96335" lon="-1.35167">
        <ele>0.19999999999999</ele>
        <time>2022-03-26T14:00:56Z</time>
      </trkpt>
      <trkpt lat="45.9633" lon="-1.35158">
        <ele>0.19999999999999</ele>
        <time>2022-03-26T14:00:58Z</time>
      </trkpt>
      <trkpt lat="45.96318" lon="-1.35142">
        <ele>0.19999999999999</ele>
        <time>2022-03-26T14:01:02Z</time>
      </trkpt>
      <trkpt lat="45.96312" lon="-1.35132">
        <ele>0.19999999999999</ele>
        <time>2022-03-26T14:01:04Z</time>
      </trkpt>
      <trkpt lat="45.96284" lon="-1.35092">
        <ele>0.19999999999999</ele>
        <time>2022-03-26T14:01:11Z</time>
      </trkpt>
      <trkpt lat="45.96245" lon="-1.35033">
        <ele>0.19999999999999</ele>
        <time>2022-03-26T14:01:20Z</time>
      </trkpt>
      <trkpt lat="45.96241" lon="-1.35026">
        <ele>0.19999999999999</ele>
        <time>2022-03-26T14:01:21Z</time>
      </trkpt>
      <trkpt lat="45.96216" lon="-1.34988">
        <ele>0.19999999999999</ele>
        <time>2022-03-26T14:01:27Z</time>
      </trkpt>
      <trkpt lat="45.96209" lon="-1.34975">
        <ele>0.19999999999999</ele>
        <time>2022-03-26T14:01:29Z</time>
      </trkpt>
      <trkpt lat="45.96202" lon="-1.34953">
        <ele>0.19999999999999</ele>
        <time>2022-03-26T14:01:32Z</time>
      </trkpt>
      <trkpt lat="45.96194" lon="-1.34913">
        <ele>0.39999999999998</ele>
        <time>2022-03-26T14:01:38Z</time>
      </trkpt>
      <trkpt lat="45.96188" lon="-1.34885">
        <ele>0.60000000000002</ele>
        <time>2022-03-26T14:01:43Z</time>
      </trkpt>
      <trkpt lat="45.96184" lon="-1.34881">
        <ele>0.80000000000001</ele>
        <time>2022-03-26T14:01:44Z</time>
      </trkpt>
      <trkpt lat="45.9618" lon="-1.34881">
        <ele>0.80000000000001</ele>
        <time>2022-03-26T14:01:45Z</time>
      </trkpt>
      <trkpt lat="45.9617" lon="-1.34883">
        <ele>0.80000000000001</ele>
        <time>2022-03-26T14:01:47Z</time>
      </trkpt>
      <trkpt lat="45.9615" lon="-1.34888">
        <ele>0.80000000000001</ele>
        <time>2022-03-26T14:01:51Z</time>
      </trkpt>
      <trkpt lat="45.96139" lon="-1.3489">
        <ele>0.80000000000001</ele>
        <time>2022-03-26T14:01:53Z</time>
      </trkpt>
      <trkpt lat="45.96124" lon="-1.34893">
        <ele>0.60000000000002</ele>
        <time>2022-03-26T14:01:56Z</time>
      </trkpt>
      <trkpt lat="45.96115" lon="-1.34895">
        <ele>0.60000000000002</ele>
        <time>2022-03-26T14:01:58Z</time>
      </trkpt>
      <trkpt lat="45.96083" lon="-1.34902">
        <ele>0.39999999999998</ele>
        <time>2022-03-26T14:02:04Z</time>
      </trkpt>
      <trkpt lat="45.96047" lon="-1.34905">
        <ele>0.39999999999998</ele>
        <time>2022-03-26T14:02:11Z</time>
      </trkpt>
      <trkpt lat="45.96031" lon="-1.34905">
        <ele>-0.19999999999999</ele>
        <time>2022-03-26T14:02:14Z</time>
      </trkpt>
      <trkpt lat="45.96015" lon="-1.34905">
        <ele>-0.39999999999998</ele>
        <time>2022-03-26T14:02:17Z</time>
      </trkpt>
      <trkpt lat="45.95975" lon="-1.34907">
        <ele>-0.80000000000001</ele>
        <time>2022-03-26T14:02:24Z</time>
      </trkpt>
      <trkpt lat="45.95942" lon="-1.3491">
        <ele>-1.4</ele>
        <time>2022-03-26T14:02:30Z</time>
      </trkpt>
      <trkpt lat="45.95908" lon="-1.34913">
        <ele>-2</ele>
        <time>2022-03-26T14:02:36Z</time>
      </trkpt>
      <trkpt lat="45.95882" lon="-1.34917">
        <ele>-2.8</ele>
        <time>2022-03-26T14:02:41Z</time>
      </trkpt>
      <trkpt lat="45.95876" lon="-1.34918">
        <ele>-3</ele>
        <time>2022-03-26T14:02:42Z</time>
      </trkpt>
      <trkpt lat="45.9587" lon="-1.34918">
        <ele>-3.2</ele>
        <time>2022-03-26T14:02:43Z</time>
      </trkpt>
      <trkpt lat="45.95848" lon="-1.34917">
        <ele>-4.2</ele>
        <time>2022-03-26T14:02:47Z</time>
      </trkpt>
      <trkpt lat="45.95839" lon="-1.34916">
        <ele>-4.8</ele>
        <time>2022-03-26T14:02:49Z</time>
      </trkpt>
      <trkpt lat="45.95824" lon="-1.34916">
        <ele>-5.6</ele>
        <time>2022-03-26T14:02:52Z</time>
      </trkpt>
      <trkpt lat="45.95819" lon="-1.34916">
        <ele>-6</ele>
        <time>2022-03-26T14:02:53Z</time>
      </trkpt>
      <trkpt lat="45.95809" lon="-1.34917">
        <ele>-6.4</ele>
        <time>2022-03-26T14:02:55Z</time>
      </trkpt>
      <trkpt lat="45.95803" lon="-1.34917">
        <ele>-6.6</ele>
        <time>2022-03-26T14:02:56Z</time>
      </trkpt>
      <trkpt lat="45.95764" lon="-1.34924">
        <ele>-5</ele>
        <time>2022-03-26T14:03:02Z</time>
      </trkpt>
      <trkpt lat="45.95728" lon="-1.3493">
        <ele>-2.4</ele>
        <time>2022-03-26T14:03:08Z</time>
      </trkpt>
      <trkpt lat="45.95722" lon="-1.34932">
        <ele>-1.8</ele>
        <time>2022-03-26T14:03:09Z</time>
      </trkpt>
      <trkpt lat="45.95688" lon="-1.34938">
        <ele>-3.4</ele>
        <time>2022-03-26T14:03:15Z</time>
      </trkpt>
      <trkpt lat="45.95647" lon="-1.34947">
        <ele>-3.4</ele>
        <time>2022-03-26T14:03:22Z</time>
      </trkpt>
      <trkpt lat="45.95608" lon="-1.34955">
        <ele>-3</ele>
        <time>2022-03-26T14:03:29Z</time>
      </trkpt>
      <trkpt lat="45.95574" lon="-1.34963">
        <ele>-2.2</ele>
        <time>2022-03-26T14:03:35Z</time>
      </trkpt>
      <trkpt lat="45.95568" lon="-1.34964">
        <ele>-2.2</ele>
        <time>2022-03-26T14:03:36Z</time>
      </trkpt>
      <trkpt lat="45.95556" lon="-1.34967">
        <ele>-2</ele>
        <time>2022-03-26T14:03:38Z</time>
      </trkpt>
      <trkpt lat="45.95545" lon="-1.34969">
        <ele>-2</ele>
        <time>2022-03-26T14:03:40Z</time>
      </trkpt>
      <trkpt lat="45.95516" lon="-1.34971">
        <ele>-2</ele>
        <time>2022-03-26T14:03:45Z</time>
      </trkpt>
      <trkpt lat="45.9549" lon="-1.34981">
        <ele>-2.4</ele>
        <time>2022-03-26T14:03:50Z</time>
      </trkpt>
      <trkpt lat="45.95453" lon="-1.34996">
        <ele>-2.2</ele>
        <time>2022-03-26T14:03:57Z</time>
      </trkpt>
      <trkpt lat="45.95414" lon="-1.35006">
        <ele>-1.6</ele>
        <time>2022-03-26T14:04:05Z</time>
      </trkpt>
      <trkpt lat="45.95395" lon="-1.35008">
        <ele>-1.4</ele>
        <time>2022-03-26T14:04:10Z</time>
      </trkpt>
      <trkpt lat="45.95379" lon="-1.35007">
        <ele>-1.4</ele>
        <time>2022-03-26T14:04:15Z</time>
      </trkpt>
      <trkpt lat="45.95358" lon="-1.35015">
        <ele>-1.2</ele>
        <time>2022-03-26T14:04:21Z</time>
      </trkpt>
      <trkpt lat="45.95335" lon="-1.35024">
        <ele>-1.2</ele>
        <time>2022-03-26T14:04:27Z</time>
      </trkpt>
      <trkpt lat="45.95311" lon="-1.35033">
        <ele>-1</ele>
        <time>2022-03-26T14:04:34Z</time>
      </trkpt>
      <trkpt lat="45.95307" lon="-1.35034">
        <ele>-1</ele>
        <time>2022-03-26T14:04:35Z</time>
      </trkpt>
      <trkpt lat="45.95298" lon="-1.35038">
        <ele>-1</ele>
        <time>2022-03-26T14:04:37Z</time>
      </trkpt>
      <trkpt lat="45.95288" lon="-1.35041">
        <ele>-1</ele>
        <time>2022-03-26T14:04:39Z</time>
      </trkpt>
      <trkpt lat="45.95283" lon="-1.35043">
        <ele>-1</ele>
        <time>2022-03-26T14:04:40Z</time>
      </trkpt>
      <trkpt lat="45.9527" lon="-1.35047">
        <ele>-1</ele>
        <time>2022-03-26T14:04:43Z</time>
      </trkpt>
      <trkpt lat="45.95256" lon="-1.35052">
        <ele>-1</ele>
        <time>2022-03-26T14:04:46Z</time>
      </trkpt>
      <trkpt lat="45.95251" lon="-1.3505">
        <ele>-1</ele>
        <time>2022-03-26T14:04:47Z</time>
      </trkpt>
      <trkpt lat="45.95235" lon="-1.35034">
        <ele>-1.4</ele>
        <time>2022-03-26T14:04:52Z</time>
      </trkpt>
      <trkpt lat="45.95227" lon="-1.35018">
        <ele>-1.4</ele>
        <time>2022-03-26T14:04:55Z</time>
      </trkpt>
      <trkpt lat="45.95221" lon="-1.35009">
        <ele>-1.6</ele>
        <time>2022-03-26T14:04:57Z</time>
      </trkpt>
      <trkpt lat="45.95215" lon="-1.34999">
        <ele>-1.6</ele>
        <time>2022-03-26T14:04:59Z</time>
      </trkpt>
      <trkpt lat="45.952" lon="-1.34978">
        <ele>-2</ele>
        <time>2022-03-26T14:05:03Z</time>
      </trkpt>
      <trkpt lat="45.95176" lon="-1.34949">
        <ele>-2.4</ele>
        <time>2022-03-26T14:05:09Z</time>
      </trkpt>
      <trkpt lat="45.95145" lon="-1.34916">
        <ele>-2.8</ele>
        <time>2022-03-26T14:05:17Z</time>
      </trkpt>
      <trkpt lat="45.95125" lon="-1.34894">
        <ele>-3.6</ele>
        <time>2022-03-26T14:05:23Z</time>
      </trkpt>
      <trkpt lat="45.95099" lon="-1.34866">
        <ele>-4.4</ele>
        <time>2022-03-26T14:05:29Z</time>
      </trkpt>
      <trkpt lat="45.95081" lon="-1.34847">
        <ele>-4.6</ele>
        <time>2022-03-26T14:05:33Z</time>
      </trkpt>
      <trkpt lat="45.95076" lon="-1.34842">
        <ele>-4.6</ele>
        <time>2022-03-26T14:05:34Z</time>
      </trkpt>
      <trkpt lat="45.95063" lon="-1.34829">
        <ele>-4.8</ele>
        <time>2022-03-26T14:05:37Z</time>
      </trkpt>
      <trkpt lat="45.95047" lon="-1.34812">
        <ele>-5</ele>
        <time>2022-03-26T14:05:41Z</time>
      </trkpt>
      <trkpt lat="45.95043" lon="-1.34808">
        <ele>-5</ele>
        <time>2022-03-26T14:05:42Z</time>
      </trkpt>
      <trkpt lat="45.95023" lon="-1.3479">
        <ele>-5.4</ele>
        <time>2022-03-26T14:05:47Z</time>
      </trkpt>
      <trkpt lat="45.95019" lon="-1.34787">
        <ele>-5.4</ele>
        <time>2022-03-26T14:05:48Z</time>
      </trkpt>
      <trkpt lat="45.95008" lon="-1.3478">
        <ele>-5.8</ele>
        <time>2022-03-26T14:05:51Z</time>
      </trkpt>
      <trkpt lat="45.94991" lon="-1.34776">
        <ele>-6</ele>
        <time>2022-03-26T14:05:55Z</time>
      </trkpt>
      <trkpt lat="45.94962" lon="-1.34777">
        <ele>-6.4</ele>
        <time>2022-03-26T14:06:00Z</time>
      </trkpt>
      <trkpt lat="45.94943" lon="-1.34778">
        <ele>-6.8</ele>
        <time>2022-03-26T14:06:03Z</time>
      </trkpt>
      <trkpt lat="45.9493" lon="-1.34772">
        <ele>-7</ele>
        <time>2022-03-26T14:06:05Z</time>
      </trkpt>
      <trkpt lat="45.94909" lon="-1.34756">
        <ele>-7.4</ele>
        <time>2022-03-26T14:06:09Z</time>
      </trkpt>
      <trkpt lat="45.94861" lon="-1.3471">
        <ele>-7.8</ele>
        <time>2022-03-26T14:06:18Z</time>
      </trkpt>
      <trkpt lat="45.94856" lon="-1.34705">
        <ele>-7.8</ele>
        <time>2022-03-26T14:06:19Z</time>
      </trkpt>
      <trkpt lat="45.94827" lon="-1.34675">
        <ele>-8.6</ele>
        <time>2022-03-26T14:06:25Z</time>
      </trkpt>
      <trkpt lat="45.94789" lon="-1.34636">
        <ele>-9</ele>
        <time>2022-03-26T14:06:32Z</time>
      </trkpt>
      <trkpt lat="45.94745" lon="-1.34603">
        <ele>-9</ele>
        <time>2022-03-26T14:06:39Z</time>
      </trkpt>
      <trkpt lat="45.94732" lon="-1.34599">
        <ele>-9.2</ele>
        <time>2022-03-26T14:06:41Z</time>
      </trkpt>
      <trkpt lat="45.94725" lon="-1.346">
        <ele>-9.2</ele>
        <time>2022-03-26T14:06:42Z</time>
      </trkpt>
      <trkpt lat="45.947" lon="-1.34599">
        <ele>-9.6</ele>
        <time>2022-03-26T14:06:46Z</time>
      </trkpt>
      <trkpt lat="45.94693" lon="-1.34605">
        <ele>-9.6</ele>
        <time>2022-03-26T14:06:47Z</time>
      </trkpt>
      <trkpt lat="45.94691" lon="-1.34611">
        <ele>-9.8</ele>
        <time>2022-03-26T14:06:48Z</time>
      </trkpt>
      <trkpt lat="45.94688" lon="-1.34625">
        <ele>-10</ele>
        <time>2022-03-26T14:06:50Z</time>
      </trkpt>
      <trkpt lat="45.94682" lon="-1.34637">
        <ele>-10</ele>
        <time>2022-03-26T14:06:52Z</time>
      </trkpt>
      <trkpt lat="45.94673" lon="-1.3465">
        <ele>-10.4</ele>
        <time>2022-03-26T14:06:54Z</time>
      </trkpt>
      <trkpt lat="45.94664" lon="-1.34662">
        <ele>-10.4</ele>
        <time>2022-03-26T14:06:57Z</time>
      </trkpt>
      <trkpt lat="45.94655" lon="-1.34668">
        <ele>-10.6</ele>
        <time>2022-03-26T14:06:58Z</time>
      </trkpt>
      <trkpt lat="45.9465" lon="-1.3467">
        <ele>-10.6</ele>
        <time>2022-03-26T14:06:59Z</time>
      </trkpt>
      <trkpt lat="45.94642" lon="-1.34668">
        <ele>-10.6</ele>
        <time>2022-03-26T14:07:01Z</time>
      </trkpt>
      <trkpt lat="45.94637" lon="-1.34666">
        <ele>-10.4</ele>
        <time>2022-03-26T14:07:02Z</time>
      </trkpt>
      <trkpt lat="45.94632" lon="-1.34664">
        <ele>-10.4</ele>
        <time>2022-03-26T14:07:03Z</time>
      </trkpt>
      <trkpt lat="45.9462" lon="-1.34652">
        <ele>-10.4</ele>
        <time>2022-03-26T14:07:06Z</time>
      </trkpt>
      <trkpt lat="45.94599" lon="-1.34629">
        <ele>-10.2</ele>
        <time>2022-03-26T14:07:11Z</time>
      </trkpt>
      <trkpt lat="45.94595" lon="-1.34625">
        <ele>-10.4</ele>
        <time>2022-03-26T14:07:12Z</time>
      </trkpt>
      <trkpt lat="45.94584" lon="-1.34612">
        <ele>-10.4</ele>
        <time>2022-03-26T14:07:15Z</time>
      </trkpt>
      <trkpt lat="45.94573" lon="-1.34599">
        <ele>-10.4</ele>
        <time>2022-03-26T14:07:18Z</time>
      </trkpt>
      <trkpt lat="45.94557" lon="-1.3458">
        <ele>-10</ele>
        <time>2022-03-26T14:07:22Z</time>
      </trkpt>
      <trkpt lat="45.94542" lon="-1.3456">
        <ele>-9.6</ele>
        <time>2022-03-26T14:07:26Z</time>
      </trkpt>
      <trkpt lat="45.94536" lon="-1.34552">
        <ele>-9.6</ele>
        <time>2022-03-26T14:07:28Z</time>
      </trkpt>
      <trkpt lat="45.94514" lon="-1.34537">
        <ele>-9.6</ele>
        <time>2022-03-26T14:07:30Z</time>
      </trkpt>
      <trkpt lat="45.94507" lon="-1.34547">
        <ele>-9.4</ele>
        <time>2022-03-26T14:07:33Z</time>
      </trkpt>
      <trkpt lat="45.94503" lon="-1.34553">
        <ele>-9.4</ele>
        <time>2022-03-26T14:07:34Z</time>
      </trkpt>
      <trkpt lat="45.94485" lon="-1.34579">
        <ele>-9.6</ele>
        <time>2022-03-26T14:07:39Z</time>
      </trkpt>
      <trkpt lat="45.94482" lon="-1.34584">
        <ele>-9.6</ele>
        <time>2022-03-26T14:07:40Z</time>
      </trkpt>
      <trkpt lat="45.94466" lon="-1.3461">
        <ele>-10</ele>
        <time>2022-03-26T14:07:46Z</time>
      </trkpt>
      <trkpt lat="45.94451" lon="-1.34632">
        <ele>-10.2</ele>
        <time>2022-03-26T14:07:51Z</time>
      </trkpt>
      <trkpt lat="45.94437" lon="-1.34652">
        <ele>-11</ele>
        <time>2022-03-26T14:07:56Z</time>
      </trkpt>
      <trkpt lat="45.94434" lon="-1.34656">
        <ele>-11.2</ele>
        <time>2022-03-26T14:07:57Z</time>
      </trkpt>
      <trkpt lat="45.94426" lon="-1.34668">
        <ele>-11.6</ele>
        <time>2022-03-26T14:08:00Z</time>
      </trkpt>
      <trkpt lat="45.94415" lon="-1.34687">
        <ele>-12</ele>
        <time>2022-03-26T14:08:04Z</time>
      </trkpt>
      <trkpt lat="45.94401" lon="-1.34703">
        <ele>-12.4</ele>
        <time>2022-03-26T14:08:06Z</time>
      </trkpt>
      <trkpt lat="45.94398" lon="-1.347">
        <ele>-12.6</ele>
        <time>2022-03-26T14:08:07Z</time>
      </trkpt>
      <trkpt lat="45.94379" lon="-1.34682">
        <ele>-12.4</ele>
        <time>2022-03-26T14:08:13Z</time>
      </trkpt>
      <trkpt lat="45.94373" lon="-1.34676">
        <ele>-12</ele>
        <time>2022-03-26T14:08:15Z</time>
      </trkpt>
      <trkpt lat="45.94366" lon="-1.34669">
        <ele>-12.8</ele>
        <time>2022-03-26T14:08:17Z</time>
      </trkpt>
      <trkpt lat="45.94362" lon="-1.34666">
        <ele>-12</ele>
        <time>2022-03-26T14:08:18Z</time>
      </trkpt>
      <trkpt lat="45.94344" lon="-1.34651">
        <ele>-11</ele>
        <time>2022-03-26T14:08:23Z</time>
      </trkpt>
      <trkpt lat="45.94318" lon="-1.34629">
        <ele>-10.6</ele>
        <time>2022-03-26T14:08:29Z</time>
      </trkpt>
      <trkpt lat="45.94293" lon="-1.34605">
        <ele>-10.6</ele>
        <time>2022-03-26T14:08:35Z</time>
      </trkpt>
      <trkpt lat="45.94274" lon="-1.34596">
        <ele>-10.2</ele>
        <time>2022-03-26T14:08:41Z</time>
      </trkpt>
      <trkpt lat="45.94274" lon="-1.34596">
        <ele>-10</ele>
        <time>2022-03-26T14:08:42Z</time>
      </trkpt>
      <trkpt lat="45.94266" lon="-1.34606">
        <ele>-9.6</ele>
        <time>2022-03-26T14:08:45Z</time>
      </trkpt>
      <trkpt lat="45.94262" lon="-1.34612">
        <ele>-9.4</ele>
        <time>2022-03-26T14:08:47Z</time>
      </trkpt>
      <trkpt lat="45.94256" lon="-1.34622">
        <ele>-9</ele>
        <time>2022-03-26T14:08:49Z</time>
      </trkpt>
      <trkpt lat="45.94236" lon="-1.34645">
        <ele>-8.4</ele>
        <time>2022-03-26T14:08:55Z</time>
      </trkpt>
      <trkpt lat="45.94216" lon="-1.34655">
        <ele>-7.8</ele>
        <time>2022-03-26T14:09:01Z</time>
      </trkpt>
      <trkpt lat="45.94212" lon="-1.34657">
        <ele>-7.6</ele>
        <time>2022-03-26T14:09:03Z</time>
      </trkpt>
      <trkpt lat="45.94196" lon="-1.34665">
        <ele>-7.4</ele>
        <time>2022-03-26T14:09:06Z</time>
      </trkpt>
      <trkpt lat="45.94179" lon="-1.3467">
        <ele>-6.8</ele>
        <time>2022-03-26T14:09:11Z</time>
      </trkpt>
      <trkpt lat="45.94168" lon="-1.34659">
        <ele>-6.6</ele>
        <time>2022-03-26T14:09:15Z</time>
      </trkpt>
      <trkpt lat="45.94154" lon="-1.34635">
        <ele>-6</ele>
        <time>2022-03-26T14:09:21Z</time>
      </trkpt>
      <trkpt lat="45.94141" lon="-1.34613">
        <ele>-5.6</ele>
        <time>2022-03-26T14:09:26Z</time>
      </trkpt>
      <trkpt lat="45.94126" lon="-1.34592">
        <ele>-5.2</ele>
        <time>2022-03-26T14:09:32Z</time>
      </trkpt>
      <trkpt lat="45.94111" lon="-1.34566">
        <ele>-4.8</ele>
        <time>2022-03-26T14:09:38Z</time>
      </trkpt>
      <trkpt lat="45.94106" lon="-1.34556">
        <ele>-4.6</ele>
        <time>2022-03-26T14:09:42Z</time>
      </trkpt>
      <trkpt lat="45.94097" lon="-1.34541">
        <ele>-4.4</ele>
        <time>2022-03-26T14:09:46Z</time>
      </trkpt>
      <trkpt lat="45.94092" lon="-1.34553">
        <ele>-4.2</ele>
        <time>2022-03-26T14:09:49Z</time>
      </trkpt>
      <trkpt lat="45.9408" lon="-1.34566">
        <ele>-4</ele>
        <time>2022-03-26T14:09:53Z</time>
      </trkpt>
      <trkpt lat="45.94059" lon="-1.3459">
        <ele>-4</ele>
        <time>2022-03-26T14:09:59Z</time>
      </trkpt>
      <trkpt lat="45.94034" lon="-1.34612">
        <ele>-3.6</ele>
        <time>2022-03-26T14:10:04Z</time>
      </trkpt>
      <trkpt lat="45.94029" lon="-1.34616">
        <ele>-3.6</ele>
        <time>2022-03-26T14:10:05Z</time>
      </trkpt>
      <trkpt lat="45.9401" lon="-1.3463">
        <ele>-3.6</ele>
        <time>2022-03-26T14:10:09Z</time>
      </trkpt>
      <trkpt lat="45.94002" lon="-1.34638">
        <ele>-3.4</ele>
        <time>2022-03-26T14:10:11Z</time>
      </trkpt>
      <trkpt lat="45.93993" lon="-1.3465">
        <ele>-3.4</ele>
        <time>2022-03-26T14:10:14Z</time>
      </trkpt>
      <trkpt lat="45.93987" lon="-1.34658">
        <ele>-3.4</ele>
        <time>2022-03-26T14:10:16Z</time>
      </trkpt>
      <trkpt lat="45.93966" lon="-1.34691">
        <ele>-3.4</ele>
        <time>2022-03-26T14:10:22Z</time>
      </trkpt>
      <trkpt lat="45.93959" lon="-1.34704">
        <ele>-3.4</ele>
        <time>2022-03-26T14:10:24Z</time>
      </trkpt>
      <trkpt lat="45.9395" lon="-1.34721">
        <ele>-3.2</ele>
        <time>2022-03-26T14:10:27Z</time>
      </trkpt>
      <trkpt lat="45.93935" lon="-1.34746">
        <ele>-3.2</ele>
        <time>2022-03-26T14:10:32Z</time>
      </trkpt>
      <trkpt lat="45.93932" lon="-1.34751">
        <ele>-3.2</ele>
        <time>2022-03-26T14:10:33Z</time>
      </trkpt>
      <trkpt lat="45.93932" lon="-1.34751">
        <ele>-3.2</ele>
        <time>2022-03-26T14:10:34Z</time>
      </trkpt>
      <trkpt lat="45.93919" lon="-1.34769">
        <ele>-3.2</ele>
        <time>2022-03-26T14:10:37Z</time>
      </trkpt>
      <trkpt lat="45.93898" lon="-1.34796">
        <ele>-3</ele>
        <time>2022-03-26T14:10:42Z</time>
      </trkpt>
      <trkpt lat="45.93893" lon="-1.34801">
        <ele>-3.2</ele>
        <time>2022-03-26T14:10:43Z</time>
      </trkpt>
      <trkpt lat="45.93866" lon="-1.34835">
        <ele>-3</ele>
        <time>2022-03-26T14:10:49Z</time>
      </trkpt>
      <trkpt lat="45.93857" lon="-1.34857">
        <ele>-3</ele>
        <time>2022-03-26T14:10:52Z</time>
      </trkpt>
      <trkpt lat="45.93853" lon="-1.34872">
        <ele>-2.8</ele>
        <time>2022-03-26T14:10:54Z</time>
      </trkpt>
      <trkpt lat="45.93848" lon="-1.34909">
        <ele>-2.6</ele>
        <time>2022-03-26T14:11:00Z</time>
      </trkpt>
      <trkpt lat="45.93846" lon="-1.34928">
        <ele>-2.6</ele>
        <time>2022-03-26T14:11:02Z</time>
      </trkpt>
      <trkpt lat="45.93843" lon="-1.34948">
        <ele>-2.6</ele>
        <time>2022-03-26T14:11:05Z</time>
      </trkpt>
      <trkpt lat="45.9384" lon="-1.34953">
        <ele>-2.6</ele>
        <time>2022-03-26T14:11:06Z</time>
      </trkpt>
      <trkpt lat="45.93832" lon="-1.34957">
        <ele>-2.6</ele>
        <time>2022-03-26T14:11:08Z</time>
      </trkpt>
      <trkpt lat="45.93828" lon="-1.3496">
        <ele>-2.6</ele>
        <time>2022-03-26T14:11:09Z</time>
      </trkpt>
      <trkpt lat="45.93816" lon="-1.34966">
        <ele>-2.6</ele>
        <time>2022-03-26T14:11:13Z</time>
      </trkpt>
      <trkpt lat="45.93795" lon="-1.34973">
        <ele>-2.4</ele>
        <time>2022-03-26T14:11:18Z</time>
      </trkpt>
      <trkpt lat="45.93781" lon="-1.34975">
        <ele>-2.4</ele>
        <time>2022-03-26T14:11:22Z</time>
      </trkpt>
      <trkpt lat="45.93761" lon="-1.34979">
        <ele>-2.2</ele>
        <time>2022-03-26T14:11:28Z</time>
      </trkpt>
      <trkpt lat="45.93756" lon="-1.3498">
        <ele>-2.2</ele>
        <time>2022-03-26T14:11:29Z</time>
      </trkpt>
      <trkpt lat="45.93742" lon="-1.34984">
        <ele>-2</ele>
        <time>2022-03-26T14:11:33Z</time>
      </trkpt>
      <trkpt lat="45.93727" lon="-1.3499">
        <ele>-1.8</ele>
        <time>2022-03-26T14:11:39Z</time>
      </trkpt>
      <trkpt lat="45.93725" lon="-1.34991">
        <ele>-1.8</ele>
        <time>2022-03-26T14:11:42Z</time>
      </trkpt>
      <trkpt lat="45.93725" lon="-1.34991">
        <ele>-1.4</ele>
        <time>2022-03-26T14:11:58Z</time>
      </trkpt>
      <trkpt lat="45.93725" lon="-1.34991">
        <ele>-1.2</ele>
        <time>2022-03-26T14:12:09Z</time>
      </trkpt>
      <trkpt lat="45.93722" lon="-1.34992">
        <ele>-1.2</ele>
        <time>2022-03-26T14:12:21Z</time>
      </trkpt>
      <trkpt lat="45.93717" lon="-1.34978">
        <ele>-1</ele>
        <time>2022-03-26T14:12:25Z</time>
      </trkpt>
      <trkpt lat="45.93709" lon="-1.34957">
        <ele>-0.80000000000001</ele>
        <time>2022-03-26T14:12:30Z</time>
      </trkpt>
      <trkpt lat="45.93699" lon="-1.34928">
        <ele>-0.80000000000001</ele>
        <time>2022-03-26T14:12:35Z</time>
      </trkpt>
      <trkpt lat="45.93689" lon="-1.34916">
        <ele>-0.80000000000001</ele>
        <time>2022-03-26T14:12:37Z</time>
      </trkpt>
      <trkpt lat="45.93691" lon="-1.34904">
        <ele>-0.80000000000001</ele>
        <time>2022-03-26T14:12:40Z</time>
      </trkpt>
      <trkpt lat="45.93685" lon="-1.34857">
        <ele>-0.60000000000002</ele>
        <time>2022-03-26T14:12:45Z</time>
      </trkpt>
      <trkpt lat="45.9368" lon="-1.34813">
        <ele>-0.60000000000002</ele>
        <time>2022-03-26T14:12:51Z</time>
      </trkpt>
      <trkpt lat="45.9368" lon="-1.34771">
        <ele>-0.60000000000002</ele>
        <time>2022-03-26T14:12:56Z</time>
      </trkpt>
      <trkpt lat="45.9368" lon="-1.34749">
        <ele>-0.39999999999998</ele>
        <time>2022-03-26T14:12:59Z</time>
      </trkpt>
      <trkpt lat="45.9368" lon="-1.34729">
        <ele>-0.39999999999998</ele>
        <time>2022-03-26T14:13:02Z</time>
      </trkpt>
      <trkpt lat="45.93681" lon="-1.34687">
        <ele>-0.19999999999999</ele>
        <time>2022-03-26T14:13:08Z</time>
      </trkpt>
      <trkpt lat="45.93683" lon="-1.34659">
        <ele>-0.19999999999999</ele>
        <time>2022-03-26T14:13:13Z</time>
      </trkpt>
      <trkpt lat="45.93683" lon="-1.34647">
        <ele>-0.19999999999999</ele>
        <time>2022-03-26T14:13:15Z</time>
      </trkpt>
      <trkpt lat="45.93678" lon="-1.34644">
        <ele>-0.19999999999999</ele>
        <time>2022-03-26T14:13:17Z</time>
      </trkpt>
      <trkpt lat="45.93667" lon="-1.34627">
        <ele>-0.19999999999999</ele>
        <time>2022-03-26T14:13:22Z</time>
      </trkpt>
      <trkpt lat="45.93661" lon="-1.34615">
        <ele>-0.19999999999999</ele>
        <time>2022-03-26T14:13:25Z</time>
      </trkpt>
      <trkpt lat="45.93655" lon="-1.34605">
        <ele>-0.19999999999999</ele>
        <time>2022-03-26T14:13:27Z</time>
      </trkpt>
      <trkpt lat="45.93635" lon="-1.34574">
        <ele>-0.19999999999999</ele>
        <time>2022-03-26T14:13:34Z</time>
      </trkpt>
      <trkpt lat="45.93631" lon="-1.34564">
        <ele>-0.19999999999999</ele>
        <time>2022-03-26T14:13:36Z</time>
      </trkpt>
      <trkpt lat="45.93623" lon="-1.34547">
        <ele>-0.19999999999999</ele>
        <time>2022-03-26T14:13:39Z</time>
      </trkpt>
      <trkpt lat="45.9361" lon="-1.34523">
        <ele>-0.19999999999999</ele>
        <time>2022-03-26T14:13:44Z</time>
      </trkpt>
      <trkpt lat="45.93603" lon="-1.34513">
        <ele>-0.19999999999999</ele>
        <time>2022-03-26T14:13:46Z</time>
      </trkpt>
      <trkpt lat="45.936" lon="-1.34508">
        <ele>-0.19999999999999</ele>
        <time>2022-03-26T14:13:47Z</time>
      </trkpt>
      <trkpt lat="45.93576" lon="-1.34469">
        <ele>0.19999999999999</ele>
        <time>2022-03-26T14:13:54Z</time>
      </trkpt>
      <trkpt lat="45.93559" lon="-1.34441">
        <ele>0.19999999999999</ele>
        <time>2022-03-26T14:14:00Z</time>
      </trkpt>
      <trkpt lat="45.93543" lon="-1.34415">
        <ele>0.19999999999999</ele>
        <time>2022-03-26T14:14:05Z</time>
      </trkpt>
      <trkpt lat="45.9354" lon="-1.34411">
        <ele>0.19999999999999</ele>
        <time>2022-03-26T14:14:06Z</time>
      </trkpt>
      <trkpt lat="45.93538" lon="-1.34418">
        <ele>0.19999999999999</ele>
        <time>2022-03-26T14:14:07Z</time>
      </trkpt>
      <trkpt lat="45.93533" lon="-1.34426">
        <ele>0.19999999999999</ele>
        <time>2022-03-26T14:14:09Z</time>
      </trkpt>
      <trkpt lat="45.9353" lon="-1.3443">
        <ele>0.19999999999999</ele>
        <time>2022-03-26T14:14:10Z</time>
      </trkpt>
      <trkpt lat="45.93516" lon="-1.34449">
        <ele>0.19999999999999</ele>
        <time>2022-03-26T14:14:15Z</time>
      </trkpt>
      <trkpt lat="45.93491" lon="-1.34485">
        <ele>0.19999999999999</ele>
        <time>2022-03-26T14:14:22Z</time>
      </trkpt>
      <trkpt lat="45.93467" lon="-1.34518">
        <ele>0.19999999999999</ele>
        <time>2022-03-26T14:14:29Z</time>
      </trkpt>
      <trkpt lat="45.93443" lon="-1.34551">
        <ele>0.39999999999998</ele>
        <time>2022-03-26T14:14:35Z</time>
      </trkpt>
      <trkpt lat="45.93418" lon="-1.34587">
        <ele>0.39999999999998</ele>
        <time>2022-03-26T14:14:42Z</time>
      </trkpt>
      <trkpt lat="45.93407" lon="-1.346">
        <ele>0.39999999999998</ele>
        <time>2022-03-26T14:14:45Z</time>
      </trkpt>
      <trkpt lat="45.93399" lon="-1.34609">
        <ele>0.39999999999998</ele>
        <time>2022-03-26T14:14:47Z</time>
      </trkpt>
      <trkpt lat="45.93375" lon="-1.34638">
        <ele>0.19999999999999</ele>
        <time>2022-03-26T14:14:53Z</time>
      </trkpt>
      <trkpt lat="45.9335" lon="-1.3467">
        <ele>0.19999999999999</ele>
        <time>2022-03-26T14:15:00Z</time>
      </trkpt>
      <trkpt lat="45.93327" lon="-1.34698">
        <ele>-0.19999999999999</ele>
        <time>2022-03-26T14:15:06Z</time>
      </trkpt>
      <trkpt lat="45.93318" lon="-1.347">
        <ele>-0.19999999999999</ele>
        <time>2022-03-26T14:15:08Z</time>
      </trkpt>
      <trkpt lat="45.93314" lon="-1.34699">
        <ele>-0.19999999999999</ele>
        <time>2022-03-26T14:15:09Z</time>
      </trkpt>
      <trkpt lat="45.93311" lon="-1.34694">
        <ele>-0.19999999999999</ele>
        <time>2022-03-26T14:15:10Z</time>
      </trkpt>
      <trkpt lat="45.93301" lon="-1.3468">
        <ele>-0.19999999999999</ele>
        <time>2022-03-26T14:15:13Z</time>
      </trkpt>
      <trkpt lat="45.93284" lon="-1.34658">
        <ele>-0.39999999999998</ele>
        <time>2022-03-26T14:15:19Z</time>
      </trkpt>
      <trkpt lat="45.93274" lon="-1.34651">
        <ele>-0.39999999999998</ele>
        <time>2022-03-26T14:15:22Z</time>
      </trkpt>
      <trkpt lat="45.9327" lon="-1.34638">
        <ele>-0.19999999999999</ele>
        <time>2022-03-26T14:15:24Z</time>
      </trkpt>
      <trkpt lat="45.9327" lon="-1.34626">
        <ele>-0.39999999999998</ele>
        <time>2022-03-26T14:15:26Z</time>
      </trkpt>
      <trkpt lat="45.93271" lon="-1.34609">
        <ele>-0.39999999999998</ele>
        <time>2022-03-26T14:15:29Z</time>
      </trkpt>
      <trkpt lat="45.93272" lon="-1.34581">
        <ele>-0.39999999999998</ele>
        <time>2022-03-26T14:15:34Z</time>
      </trkpt>
      <trkpt lat="45.93272" lon="-1.34575">
        <ele>-0.39999999999998</ele>
        <time>2022-03-26T14:15:35Z</time>
      </trkpt>
      <trkpt lat="45.93275" lon="-1.34541">
        <ele>-0.39999999999998</ele>
        <time>2022-03-26T14:15:41Z</time>
      </trkpt>
      <trkpt lat="45.93274" lon="-1.34521">
        <ele>-0.60000000000002</ele>
        <time>2022-03-26T14:15:46Z</time>
      </trkpt>
      <trkpt lat="45.93266" lon="-1.34502">
        <ele>-0.60000000000002</ele>
        <time>2022-03-26T14:15:51Z</time>
      </trkpt>
      <trkpt lat="45.93261" lon="-1.34468">
        <ele>-0.60000000000002</ele>
        <time>2022-03-26T14:15:57Z</time>
      </trkpt>
      <trkpt lat="45.93256" lon="-1.34442">
        <ele>-0.80000000000001</ele>
        <time>2022-03-26T14:16:03Z</time>
      </trkpt>
      <trkpt lat="45.93252" lon="-1.34425">
        <ele>-0.80000000000001</ele>
        <time>2022-03-26T14:16:06Z</time>
      </trkpt>
      <trkpt lat="45.93245" lon="-1.34404">
        <ele>-0.80000000000001</ele>
        <time>2022-03-26T14:16:09Z</time>
      </trkpt>
      <trkpt lat="45.93232" lon="-1.34381">
        <ele>-0.80000000000001</ele>
        <time>2022-03-26T14:16:14Z</time>
      </trkpt>
      <trkpt lat="45.93229" lon="-1.34376">
        <ele>-0.80000000000001</ele>
        <time>2022-03-26T14:16:15Z</time>
      </trkpt>
      <trkpt lat="45.93219" lon="-1.34354">
        <ele>-0.80000000000001</ele>
        <time>2022-03-26T14:16:19Z</time>
      </trkpt>
      <trkpt lat="45.93214" lon="-1.34344">
        <ele>-0.80000000000001</ele>
        <time>2022-03-26T14:16:21Z</time>
      </trkpt>
      <trkpt lat="45.93206" lon="-1.34325">
        <ele>-1.2</ele>
        <time>2022-03-26T14:16:26Z</time>
      </trkpt>
      <trkpt lat="45.932" lon="-1.34312">
        <ele>-1.6</ele>
        <time>2022-03-26T14:16:29Z</time>
      </trkpt>
      <trkpt lat="45.93195" lon="-1.34302">
        <ele>-1.8</ele>
        <time>2022-03-26T14:16:31Z</time>
      </trkpt>
      <trkpt lat="45.93176" lon="-1.34263">
        <ele>-2.2</ele>
        <time>2022-03-26T14:16:38Z</time>
      </trkpt>
      <trkpt lat="45.93169" lon="-1.34254">
        <ele>-2.2</ele>
        <time>2022-03-26T14:16:40Z</time>
      </trkpt>
      <trkpt lat="45.9316" lon="-1.34246">
        <ele>-2.4</ele>
        <time>2022-03-26T14:16:42Z</time>
      </trkpt>
      <trkpt lat="45.93146" lon="-1.34235">
        <ele>-2.6</ele>
        <time>2022-03-26T14:16:45Z</time>
      </trkpt>
      <trkpt lat="45.93132" lon="-1.34227">
        <ele>-2.4</ele>
        <time>2022-03-26T14:16:48Z</time>
      </trkpt>
      <trkpt lat="45.93128" lon="-1.34224">
        <ele>-2.6</ele>
        <time>2022-03-26T14:16:49Z</time>
      </trkpt>
      <trkpt lat="45.93114" lon="-1.34215">
        <ele>-2.6</ele>
        <time>2022-03-26T14:16:52Z</time>
      </trkpt>
      <trkpt lat="45.93114" lon="-1.34215">
        <ele>-2.6</ele>
        <time>2022-03-26T14:16:53Z</time>
      </trkpt>
      <trkpt lat="45.93106" lon="-1.34206">
        <ele>-2.6</ele>
        <time>2022-03-26T14:16:54Z</time>
      </trkpt>
      <trkpt lat="45.93097" lon="-1.34196">
        <ele>-2.6</ele>
        <time>2022-03-26T14:16:56Z</time>
      </trkpt>
      <trkpt lat="45.93093" lon="-1.3419">
        <ele>-2.6</ele>
        <time>2022-03-26T14:16:57Z</time>
      </trkpt>
      <trkpt lat="45.93087" lon="-1.34179">
        <ele>-2.8</ele>
        <time>2022-03-26T14:16:59Z</time>
      </trkpt>
      <trkpt lat="45.93079" lon="-1.34163">
        <ele>-2.8</ele>
        <time>2022-03-26T14:17:02Z</time>
      </trkpt>
      <trkpt lat="45.93064" lon="-1.34135">
        <ele>-2.8</ele>
        <time>2022-03-26T14:17:07Z</time>
      </trkpt>
      <trkpt lat="45.93061" lon="-1.3413">
        <ele>-2.8</ele>
        <time>2022-03-26T14:17:08Z</time>
      </trkpt>
      <trkpt lat="45.93033" lon="-1.34089">
        <ele>-2.8</ele>
        <time>2022-03-26T14:17:16Z</time>
      </trkpt>
      <trkpt lat="45.93012" lon="-1.34056">
        <ele>-2.8</ele>
        <time>2022-03-26T14:17:22Z</time>
      </trkpt>
      <trkpt lat="45.93009" lon="-1.34051">
        <ele>-2.8</ele>
        <time>2022-03-26T14:17:23Z</time>
      </trkpt>
      <trkpt lat="45.93002" lon="-1.34033">
        <ele>-2.8</ele>
        <time>2022-03-26T14:17:26Z</time>
      </trkpt>
      <trkpt lat="45.92999" lon="-1.34018">
        <ele>-2.8</ele>
        <time>2022-03-26T14:17:28Z</time>
      </trkpt>
      <trkpt lat="45.92997" lon="-1.34011">
        <ele>-3</ele>
        <time>2022-03-26T14:17:29Z</time>
      </trkpt>
      <trkpt lat="45.92991" lon="-1.33999">
        <ele>-3</ele>
        <time>2022-03-26T14:17:31Z</time>
      </trkpt>
      <trkpt lat="45.92973" lon="-1.33977">
        <ele>-3</ele>
        <time>2022-03-26T14:17:36Z</time>
      </trkpt>
      <trkpt lat="45.9297" lon="-1.33973">
        <ele>-3.2</ele>
        <time>2022-03-26T14:17:37Z</time>
      </trkpt>
      <trkpt lat="45.92963" lon="-1.33965">
        <ele>-3.2</ele>
        <time>2022-03-26T14:17:39Z</time>
      </trkpt>
      <trkpt lat="45.92958" lon="-1.33959">
        <ele>-3.4</ele>
        <time>2022-03-26T14:17:41Z</time>
      </trkpt>
      <trkpt lat="45.92953" lon="-1.33953">
        <ele>-3.6</ele>
        <time>2022-03-26T14:17:43Z</time>
      </trkpt>
      <trkpt lat="45.92951" lon="-1.3395">
        <ele>-3.6</ele>
        <time>2022-03-26T14:17:45Z</time>
      </trkpt>
      <trkpt lat="45.92941" lon="-1.33938">
        <ele>-3.8</ele>
        <time>2022-03-26T14:17:47Z</time>
      </trkpt>
      <trkpt lat="45.92933" lon="-1.33928">
        <ele>-3.8</ele>
        <time>2022-03-26T14:17:50Z</time>
      </trkpt>
      <trkpt lat="45.92926" lon="-1.33922">
        <ele>-3.8</ele>
        <time>2022-03-26T14:17:52Z</time>
      </trkpt>
      <trkpt lat="45.92926" lon="-1.33922">
        <ele>-3.8</ele>
        <time>2022-03-26T14:17:53Z</time>
      </trkpt>
      <trkpt lat="45.9291" lon="-1.33944">
        <ele>-4</ele>
        <time>2022-03-26T14:17:58Z</time>
      </trkpt>
      <trkpt lat="45.92898" lon="-1.33962">
        <ele>-4.2</ele>
        <time>2022-03-26T14:18:04Z</time>
      </trkpt>
      <trkpt lat="45.92881" lon="-1.33977">
        <ele>-4.4</ele>
        <time>2022-03-26T14:18:08Z</time>
      </trkpt>
      <trkpt lat="45.92876" lon="-1.33971">
        <ele>-4.4</ele>
        <time>2022-03-26T14:18:10Z</time>
      </trkpt>
      <trkpt lat="45.92869" lon="-1.33962">
        <ele>-4.6</ele>
        <time>2022-03-26T14:18:12Z</time>
      </trkpt>
      <trkpt lat="45.92851" lon="-1.3394">
        <ele>-4.8</ele>
        <time>2022-03-26T14:18:18Z</time>
      </trkpt>
      <trkpt lat="45.92837" lon="-1.33923">
        <ele>-4.8</ele>
        <time>2022-03-26T14:18:23Z</time>
      </trkpt>
      <trkpt lat="45.9283" lon="-1.33915">
        <ele>-4.8</ele>
        <time>2022-03-26T14:18:25Z</time>
      </trkpt>
      <trkpt lat="45.92824" lon="-1.33907">
        <ele>-5</ele>
        <time>2022-03-26T14:18:27Z</time>
      </trkpt>
      <trkpt lat="45.92821" lon="-1.33904">
        <ele>-5</ele>
        <time>2022-03-26T14:18:28Z</time>
      </trkpt>
      <trkpt lat="45.92821" lon="-1.33904">
        <ele>-5</ele>
        <time>2022-03-26T14:18:29Z</time>
      </trkpt>
      <trkpt lat="45.9281" lon="-1.33903">
        <ele>-5</ele>
        <time>2022-03-26T14:18:31Z</time>
      </trkpt>
      <trkpt lat="45.92803" lon="-1.33913">
        <ele>-5</ele>
        <time>2022-03-26T14:18:33Z</time>
      </trkpt>
      <trkpt lat="45.928" lon="-1.33918">
        <ele>-4.8</ele>
        <time>2022-03-26T14:18:34Z</time>
      </trkpt>
      <trkpt lat="45.92774" lon="-1.33952">
        <ele>-4.2</ele>
        <time>2022-03-26T14:18:41Z</time>
      </trkpt>
      <trkpt lat="45.92755" lon="-1.33969">
        <ele>-4.8</ele>
        <time>2022-03-26T14:18:46Z</time>
      </trkpt>
      <trkpt lat="45.92751" lon="-1.33973">
        <ele>-5</ele>
        <time>2022-03-26T14:18:47Z</time>
      </trkpt>
      <trkpt lat="45.92734" lon="-1.33983">
        <ele>-5.2</ele>
        <time>2022-03-26T14:18:51Z</time>
      </trkpt>
      <trkpt lat="45.92716" lon="-1.33994">
        <ele>-5.8</ele>
        <time>2022-03-26T14:18:57Z</time>
      </trkpt>
      <trkpt lat="45.92704" lon="-1.34003">
        <ele>-5.8</ele>
        <time>2022-03-26T14:18:59Z</time>
      </trkpt>
      <trkpt lat="45.92689" lon="-1.34021">
        <ele>-6</ele>
        <time>2022-03-26T14:19:03Z</time>
      </trkpt>
      <trkpt lat="45.92672" lon="-1.3404">
        <ele>-6</ele>
        <time>2022-03-26T14:19:08Z</time>
      </trkpt>
      <trkpt lat="45.92646" lon="-1.34064">
        <ele>-6</ele>
        <time>2022-03-26T14:19:15Z</time>
      </trkpt>
      <trkpt lat="45.92634" lon="-1.34076">
        <ele>-6.2</ele>
        <time>2022-03-26T14:19:19Z</time>
      </trkpt>
      <trkpt lat="45.92628" lon="-1.34083">
        <ele>-6.2</ele>
        <time>2022-03-26T14:19:21Z</time>
      </trkpt>
      <trkpt lat="45.92618" lon="-1.34094">
        <ele>-6.2</ele>
        <time>2022-03-26T14:19:24Z</time>
      </trkpt>
      <trkpt lat="45.92598" lon="-1.34112">
        <ele>-6.2</ele>
        <time>2022-03-26T14:19:30Z</time>
      </trkpt>
      <trkpt lat="45.92584" lon="-1.34128">
        <ele>-6</ele>
        <time>2022-03-26T14:19:34Z</time>
      </trkpt>
      <trkpt lat="45.92581" lon="-1.34134">
        <ele>-6</ele>
        <time>2022-03-26T14:19:35Z</time>
      </trkpt>
      <trkpt lat="45.92565" lon="-1.34166">
        <ele>-5.8</ele>
        <time>2022-03-26T14:19:41Z</time>
      </trkpt>
      <trkpt lat="45.92556" lon="-1.34178">
        <ele>-5.6</ele>
        <time>2022-03-26T14:19:44Z</time>
      </trkpt>
      <trkpt lat="45.92553" lon="-1.34183">
        <ele>-5.6</ele>
        <time>2022-03-26T14:19:46Z</time>
      </trkpt>
      <trkpt lat="45.92533" lon="-1.34208">
        <ele>-5.4</ele>
        <time>2022-03-26T14:19:51Z</time>
      </trkpt>
      <trkpt lat="45.92517" lon="-1.34228">
        <ele>-5.2</ele>
        <time>2022-03-26T14:19:57Z</time>
      </trkpt>
      <trkpt lat="45.92511" lon="-1.34236">
        <ele>-5</ele>
        <time>2022-03-26T14:19:59Z</time>
      </trkpt>
      <trkpt lat="45.92501" lon="-1.34248">
        <ele>-5</ele>
        <time>2022-03-26T14:20:02Z</time>
      </trkpt>
      <trkpt lat="45.92498" lon="-1.34252">
        <ele>-5</ele>
        <time>2022-03-26T14:20:03Z</time>
      </trkpt>
      <trkpt lat="45.92481" lon="-1.34274">
        <ele>-5</ele>
        <time>2022-03-26T14:20:09Z</time>
      </trkpt>
      <trkpt lat="45.92465" lon="-1.34293">
        <ele>-5.6</ele>
        <time>2022-03-26T14:20:15Z</time>
      </trkpt>
      <trkpt lat="45.92453" lon="-1.34307">
        <ele>-6.4</ele>
        <time>2022-03-26T14:20:20Z</time>
      </trkpt>
      <trkpt lat="45.92439" lon="-1.34321">
        <ele>-7.4</ele>
        <time>2022-03-26T14:20:25Z</time>
      </trkpt>
      <trkpt lat="45.92423" lon="-1.34321">
        <ele>-7.8</ele>
        <time>2022-03-26T14:20:29Z</time>
      </trkpt>
      <trkpt lat="45.92418" lon="-1.34312">
        <ele>-7.8</ele>
        <time>2022-03-26T14:20:33Z</time>
      </trkpt>
      <trkpt lat="45.92409" lon="-1.34298">
        <ele>-7.8</ele>
        <time>2022-03-26T14:20:37Z</time>
      </trkpt>
      <trkpt lat="45.92404" lon="-1.34288">
        <ele>-8</ele>
        <time>2022-03-26T14:20:39Z</time>
      </trkpt>
      <trkpt lat="45.92399" lon="-1.34279">
        <ele>-8.2</ele>
        <time>2022-03-26T14:20:41Z</time>
      </trkpt>
      <trkpt lat="45.92385" lon="-1.34253">
        <ele>-8.6</ele>
        <time>2022-03-26T14:20:46Z</time>
      </trkpt>
      <trkpt lat="45.92376" lon="-1.34247">
        <ele>-8.8</ele>
        <time>2022-03-26T14:20:48Z</time>
      </trkpt>
      <trkpt lat="45.9237" lon="-1.34234">
        <ele>-9</ele>
        <time>2022-03-26T14:20:50Z</time>
      </trkpt>
      <trkpt lat="45.92366" lon="-1.34227">
        <ele>-9.2</ele>
        <time>2022-03-26T14:20:51Z</time>
      </trkpt>
      <trkpt lat="45.9236" lon="-1.34214">
        <ele>-9.4</ele>
        <time>2022-03-26T14:20:53Z</time>
      </trkpt>
      <trkpt lat="45.92352" lon="-1.34202">
        <ele>-9.6</ele>
        <time>2022-03-26T14:20:55Z</time>
      </trkpt>
      <trkpt lat="45.92337" lon="-1.34182">
        <ele>-9.8</ele>
        <time>2022-03-26T14:20:59Z</time>
      </trkpt>
      <trkpt lat="45.92325" lon="-1.34166">
        <ele>-9.4</ele>
        <time>2022-03-26T14:21:02Z</time>
      </trkpt>
      <trkpt lat="45.92299" lon="-1.34132">
        <ele>-9.8</ele>
        <time>2022-03-26T14:21:09Z</time>
      </trkpt>
      <trkpt lat="45.9228" lon="-1.34108">
        <ele>-9.2</ele>
        <time>2022-03-26T14:21:14Z</time>
      </trkpt>
      <trkpt lat="45.92277" lon="-1.34103">
        <ele>-9</ele>
        <time>2022-03-26T14:21:15Z</time>
      </trkpt>
      <trkpt lat="45.92258" lon="-1.34069">
        <ele>-8.8</ele>
        <time>2022-03-26T14:21:21Z</time>
      </trkpt>
      <trkpt lat="45.92255" lon="-1.34065">
        <ele>-9.2</ele>
        <time>2022-03-26T14:21:22Z</time>
      </trkpt>
      <trkpt lat="45.92242" lon="-1.34047">
        <ele>-9</ele>
        <time>2022-03-26T14:21:26Z</time>
      </trkpt>
      <trkpt lat="45.92234" lon="-1.34038">
        <ele>-9.2</ele>
        <time>2022-03-26T14:21:28Z</time>
      </trkpt>
      <trkpt lat="45.92219" lon="-1.34029">
        <ele>-9.2</ele>
        <time>2022-03-26T14:21:31Z</time>
      </trkpt>
      <trkpt lat="45.9219" lon="-1.34017">
        <ele>-8.8</ele>
        <time>2022-03-26T14:21:37Z</time>
      </trkpt>
      <trkpt lat="45.92185" lon="-1.34015">
        <ele>-8.8</ele>
        <time>2022-03-26T14:21:38Z</time>
      </trkpt>
      <trkpt lat="45.92179" lon="-1.34014">
        <ele>-8.8</ele>
        <time>2022-03-26T14:21:39Z</time>
      </trkpt>
      <trkpt lat="45.92166" lon="-1.3401">
        <ele>-8.6</ele>
        <time>2022-03-26T14:21:42Z</time>
      </trkpt>
      <trkpt lat="45.92163" lon="-1.34009">
        <ele>-8.6</ele>
        <time>2022-03-26T14:21:43Z</time>
      </trkpt>
      <trkpt lat="45.92155" lon="-1.34007">
        <ele>-8.2</ele>
        <time>2022-03-26T14:21:45Z</time>
      </trkpt>
      <trkpt lat="45.92145" lon="-1.34004">
        <ele>-8</ele>
        <time>2022-03-26T14:21:47Z</time>
      </trkpt>
      <trkpt lat="45.92131" lon="-1.34">
        <ele>-7.8</ele>
        <time>2022-03-26T14:21:50Z</time>
      </trkpt>
      <trkpt lat="45.92106" lon="-1.3399">
        <ele>-7.4</ele>
        <time>2022-03-26T14:21:55Z</time>
      </trkpt>
      <trkpt lat="45.92101" lon="-1.33987">
        <ele>-7.4</ele>
        <time>2022-03-26T14:21:56Z</time>
      </trkpt>
      <trkpt lat="45.92089" lon="-1.33974">
        <ele>-7.2</ele>
        <time>2022-03-26T14:21:59Z</time>
      </trkpt>
      <trkpt lat="45.9207" lon="-1.3394">
        <ele>-6.8</ele>
        <time>2022-03-26T14:22:06Z</time>
      </trkpt>
      <trkpt lat="45.92064" lon="-1.33929">
        <ele>-6.8</ele>
        <time>2022-03-26T14:22:08Z</time>
      </trkpt>
      <trkpt lat="45.92056" lon="-1.33913">
        <ele>-6.6</ele>
        <time>2022-03-26T14:22:11Z</time>
      </trkpt>
      <trkpt lat="45.9204" lon="-1.33876">
        <ele>-6.2</ele>
        <time>2022-03-26T14:22:17Z</time>
      </trkpt>
      <trkpt lat="45.92029" lon="-1.33835">
        <ele>-5.8</ele>
        <time>2022-03-26T14:22:23Z</time>
      </trkpt>
      <trkpt lat="45.92028" lon="-1.33829">
        <ele>-5.8</ele>
        <time>2022-03-26T14:22:24Z</time>
      </trkpt>
      <trkpt lat="45.92022" lon="-1.33809">
        <ele>-5.6</ele>
        <time>2022-03-26T14:22:28Z</time>
      </trkpt>
      <trkpt lat="45.92016" lon="-1.33791">
        <ele>-5.4</ele>
        <time>2022-03-26T14:22:31Z</time>
      </trkpt>
      <trkpt lat="45.92012" lon="-1.33779">
        <ele>-5.4</ele>
        <time>2022-03-26T14:22:33Z</time>
      </trkpt>
      <trkpt lat="45.91996" lon="-1.33744">
        <ele>-5.2</ele>
        <time>2022-03-26T14:22:39Z</time>
      </trkpt>
      <trkpt lat="45.91984" lon="-1.33717">
        <ele>-5</ele>
        <time>2022-03-26T14:22:44Z</time>
      </trkpt>
      <trkpt lat="45.91975" lon="-1.33717">
        <ele>-4.8</ele>
        <time>2022-03-26T14:22:46Z</time>
      </trkpt>
      <trkpt lat="45.91969" lon="-1.33724">
        <ele>-4.8</ele>
        <time>2022-03-26T14:22:48Z</time>
      </trkpt>
      <trkpt lat="45.91966" lon="-1.33727">
        <ele>-4.6</ele>
        <time>2022-03-26T14:22:49Z</time>
      </trkpt>
      <trkpt lat="45.91947" lon="-1.33745">
        <ele>-4.4</ele>
        <time>2022-03-26T14:22:54Z</time>
      </trkpt>
      <trkpt lat="45.91943" lon="-1.33749">
        <ele>-4.2</ele>
        <time>2022-03-26T14:22:55Z</time>
      </trkpt>
      <trkpt lat="45.91921" lon="-1.33769">
        <ele>-4.2</ele>
        <time>2022-03-26T14:23:00Z</time>
      </trkpt>
      <trkpt lat="45.91911" lon="-1.33772">
        <ele>-4.2</ele>
        <time>2022-03-26T14:23:02Z</time>
      </trkpt>
      <trkpt lat="45.91902" lon="-1.3377">
        <ele>-4.2</ele>
        <time>2022-03-26T14:23:04Z</time>
      </trkpt>
      <trkpt lat="45.91893" lon="-1.33766">
        <ele>-4</ele>
        <time>2022-03-26T14:23:06Z</time>
      </trkpt>
      <trkpt lat="45.91874" lon="-1.33754">
        <ele>-4</ele>
        <time>2022-03-26T14:23:10Z</time>
      </trkpt>
      <trkpt lat="45.91855" lon="-1.33738">
        <ele>-4</ele>
        <time>2022-03-26T14:23:14Z</time>
      </trkpt>
      <trkpt lat="45.91845" lon="-1.33728">
        <ele>-3.8</ele>
        <time>2022-03-26T14:23:16Z</time>
      </trkpt>
      <trkpt lat="45.91823" lon="-1.33692">
        <ele>-3.6</ele>
        <time>2022-03-26T14:23:22Z</time>
      </trkpt>
      <trkpt lat="45.91801" lon="-1.33649">
        <ele>-3.6</ele>
        <time>2022-03-26T14:23:28Z</time>
      </trkpt>
      <trkpt lat="45.91782" lon="-1.33609">
        <ele>-3.2</ele>
        <time>2022-03-26T14:23:34Z</time>
      </trkpt>
      <trkpt lat="45.91767" lon="-1.33581">
        <ele>-3</ele>
        <time>2022-03-26T14:23:39Z</time>
      </trkpt>
      <trkpt lat="45.91748" lon="-1.33547">
        <ele>-2.8</ele>
        <time>2022-03-26T14:23:45Z</time>
      </trkpt>
      <trkpt lat="45.91732" lon="-1.33518">
        <ele>-2.8</ele>
        <time>2022-03-26T14:23:50Z</time>
      </trkpt>
      <trkpt lat="45.91714" lon="-1.33481">
        <ele>-2.8</ele>
        <time>2022-03-26T14:23:56Z</time>
      </trkpt>
      <trkpt lat="45.91691" lon="-1.33439">
        <ele>-2.8</ele>
        <time>2022-03-26T14:24:03Z</time>
      </trkpt>
      <trkpt lat="45.91671" lon="-1.33404">
        <ele>-2.6</ele>
        <time>2022-03-26T14:24:09Z</time>
      </trkpt>
      <trkpt lat="45.91652" lon="-1.33372">
        <ele>-2.4</ele>
        <time>2022-03-26T14:24:15Z</time>
      </trkpt>
      <trkpt lat="45.91633" lon="-1.33336">
        <ele>-2.2</ele>
        <time>2022-03-26T14:24:21Z</time>
      </trkpt>
      <trkpt lat="45.91629" lon="-1.33329">
        <ele>-2.2</ele>
        <time>2022-03-26T14:24:22Z</time>
      </trkpt>
      <trkpt lat="45.91617" lon="-1.33297">
        <ele>-2.2</ele>
        <time>2022-03-26T14:24:26Z</time>
      </trkpt>
      <trkpt lat="45.91606" lon="-1.33267">
        <ele>-2.2</ele>
        <time>2022-03-26T14:24:30Z</time>
      </trkpt>
      <trkpt lat="45.916" lon="-1.33252">
        <ele>-2.2</ele>
        <time>2022-03-26T14:24:32Z</time>
      </trkpt>
      <trkpt lat="45.91582" lon="-1.33206">
        <ele>-2</ele>
        <time>2022-03-26T14:24:39Z</time>
      </trkpt>
      <trkpt lat="45.91562" lon="-1.33152">
        <ele>-1.6</ele>
        <time>2022-03-26T14:24:47Z</time>
      </trkpt>
      <trkpt lat="45.91558" lon="-1.33141">
        <ele>-1.6</ele>
        <time>2022-03-26T14:24:49Z</time>
      </trkpt>
      <trkpt lat="45.91555" lon="-1.33121">
        <ele>-1.6</ele>
        <time>2022-03-26T14:24:52Z</time>
      </trkpt>
      <trkpt lat="45.91551" lon="-1.33095">
        <ele>-1.6</ele>
        <time>2022-03-26T14:24:56Z</time>
      </trkpt>
      <trkpt lat="45.91549" lon="-1.33077">
        <ele>-1.6</ele>
        <time>2022-03-26T14:24:59Z</time>
      </trkpt>
      <trkpt lat="45.91547" lon="-1.33065">
        <ele>-1.6</ele>
        <time>2022-03-26T14:25:01Z</time>
      </trkpt>
      <trkpt lat="45.91547" lon="-1.33041">
        <ele>-1.6</ele>
        <time>2022-03-26T14:25:05Z</time>
      </trkpt>
      <trkpt lat="45.91547" lon="-1.33028">
        <ele>-1.4</ele>
        <time>2022-03-26T14:25:07Z</time>
      </trkpt>
      <trkpt lat="45.91549" lon="-1.33017">
        <ele>-1.8</ele>
        <time>2022-03-26T14:25:09Z</time>
      </trkpt>
      <trkpt lat="45.9155" lon="-1.3301">
        <ele>-1.8</ele>
        <time>2022-03-26T14:25:10Z</time>
      </trkpt>
      <trkpt lat="45.91551" lon="-1.32966">
        <ele>-2</ele>
        <time>2022-03-26T14:25:17Z</time>
      </trkpt>
      <trkpt lat="45.91551" lon="-1.32963">
        <ele>-1.8</ele>
        <time>2022-03-26T14:25:18Z</time>
      </trkpt>
      <trkpt lat="45.91559" lon="-1.32958">
        <ele>-1.8</ele>
        <time>2022-03-26T14:25:20Z</time>
      </trkpt>
      <trkpt lat="45.91561" lon="-1.32947">
        <ele>-1.8</ele>
        <time>2022-03-26T14:25:22Z</time>
      </trkpt>
      <trkpt lat="45.91563" lon="-1.32933">
        <ele>-1.8</ele>
        <time>2022-03-26T14:25:24Z</time>
      </trkpt>
      <trkpt lat="45.91564" lon="-1.32927">
        <ele>-2</ele>
        <time>2022-03-26T14:25:25Z</time>
      </trkpt>
      <trkpt lat="45.91565" lon="-1.32901">
        <ele>-2</ele>
        <time>2022-03-26T14:25:29Z</time>
      </trkpt>
      <trkpt lat="45.91565" lon="-1.32876">
        <ele>-2.2</ele>
        <time>2022-03-26T14:25:34Z</time>
      </trkpt>
      <trkpt lat="45.91565" lon="-1.32863">
        <ele>-2.4</ele>
        <time>2022-03-26T14:25:40Z</time>
      </trkpt>
      <trkpt lat="45.91566" lon="-1.32852">
        <ele>-3</ele>
        <time>2022-03-26T14:25:46Z</time>
      </trkpt>
      <trkpt lat="45.91567" lon="-1.32851">
        <ele>-3</ele>
        <time>2022-03-26T14:25:47Z</time>
      </trkpt>
      <trkpt lat="45.91568" lon="-1.32847">
        <ele>-3</ele>
        <time>2022-03-26T14:25:49Z</time>
      </trkpt>
      <trkpt lat="45.91568" lon="-1.32846">
        <ele>-3.2</ele>
        <time>2022-03-26T14:25:50Z</time>
      </trkpt>
      <trkpt lat="45.91568" lon="-1.32846">
        <ele>-3.2</ele>
        <time>2022-03-26T14:25:54Z</time>
      </trkpt>
      <trkpt lat="45.91568" lon="-1.32846">
        <ele>-3.4</ele>
        <time>2022-03-26T14:26:03Z</time>
      </trkpt>
      <trkpt lat="45.9157" lon="-1.32842">
        <ele>-3.4</ele>
        <time>2022-03-26T14:26:11Z</time>
      </trkpt>
      <trkpt lat="45.91571" lon="-1.3284">
        <ele>-3.6</ele>
        <time>2022-03-26T14:26:17Z</time>
      </trkpt>
      <trkpt lat="45.9157" lon="-1.3284">
        <ele>-3.6</ele>
        <time>2022-03-26T14:26:24Z</time>
      </trkpt>
      <trkpt lat="45.9157" lon="-1.3284">
        <ele>-3.8</ele>
        <time>2022-03-26T14:26:28Z</time>
      </trkpt>
      <trkpt lat="45.9157" lon="-1.3284">
        <ele>-3.8</ele>
        <time>2022-03-26T14:26:38Z</time>
      </trkpt>
      <trkpt lat="45.9157" lon="-1.3284">
        <ele>-4</ele>
        <time>2022-03-26T14:26:53Z</time>
      </trkpt>
      <trkpt lat="45.9157" lon="-1.3284">
        <ele>-4.2</ele>
        <time>2022-03-26T14:27:13Z</time>
      </trkpt>
      <trkpt lat="45.9157" lon="-1.3284">
        <ele>-4.2</ele>
        <time>2022-03-26T14:27:36Z</time>
      </trkpt>
      <trkpt lat="45.9157" lon="-1.3284">
        <ele>-4.4</ele>
        <time>2022-03-26T14:27:55Z</time>
      </trkpt>
      <trkpt lat="45.9157" lon="-1.3284">
        <ele>-4.4</ele>
        <time>2022-03-26T14:28:22Z</time>
      </trkpt>
      <trkpt lat="45.9157" lon="-1.3284">
        <ele>-4.4</ele>
        <time>2022-03-26T14:28:41Z</time>
      </trkpt>
      <trkpt lat="45.9157" lon="-1.3284">
        <ele>-4.4</ele>
        <time>2022-03-26T14:28:58Z</time>
      </trkpt>
      <trkpt lat="45.9157" lon="-1.3284">
        <ele>-4.4</ele>
        <time>2022-03-26T14:29:16Z</time>
      </trkpt>
      <trkpt lat="45.9157" lon="-1.3284">
        <ele>-4.2</ele>
        <time>2022-03-26T14:29:36Z</time>
      </trkpt>
      <trkpt lat="45.9157" lon="-1.3284">
        <ele>-4.2</ele>
        <time>2022-03-26T14:29:57Z</time>
      </trkpt>
      <trkpt lat="45.9157" lon="-1.3284">
        <ele>-4.2</ele>
        <time>2022-03-26T14:30:21Z</time>
      </trkpt>
      <trkpt lat="45.9157" lon="-1.3284">
        <ele>-4.2</ele>
        <time>2022-03-26T14:30:44Z</time>
      </trkpt>
      <trkpt lat="45.9157" lon="-1.3284">
        <ele>-4</ele>
        <time>2022-03-26T14:31:00Z</time>
      </trkpt>
      <trkpt lat="45.9157" lon="-1.3284">
        <ele>-4</ele>
        <time>2022-03-26T14:31:21Z</time>
      </trkpt>
      <trkpt lat="45.9157" lon="-1.3284">
        <ele>-4</ele>
        <time>2022-03-26T14:31:39Z</time>
      </trkpt>
      <trkpt lat="45.9157" lon="-1.3284">
        <ele>-4</ele>
        <time>2022-03-26T14:31:59Z</time>
      </trkpt>
      <trkpt lat="45.9157" lon="-1.3284">
        <ele>-4</ele>
        <time>2022-03-26T14:32:22Z</time>
      </trkpt>
      <trkpt lat="45.9157" lon="-1.3284">
        <ele>-4</ele>
        <time>2022-03-26T14:32:42Z</time>
      </trkpt>
      <trkpt lat="45.9157" lon="-1.3284">
        <ele>-3.8</ele>
        <time>2022-03-26T14:33:00Z</time>
      </trkpt>
      <trkpt lat="45.9157" lon="-1.3284">
        <ele>-3.6</ele>
        <time>2022-03-26T14:33:27Z</time>
      </trkpt>
      <trkpt lat="45.9157" lon="-1.3284">
        <ele>-3.4</ele>
        <time>2022-03-26T14:33:50Z</time>
      </trkpt>
      <trkpt lat="45.9157" lon="-1.3284">
        <ele>-3.4</ele>
        <time>2022-03-26T14:34:10Z</time>
      </trkpt>
      <trkpt lat="45.9157" lon="-1.3284">
        <ele>-3.4</ele>
        <time>2022-03-26T14:34:30Z</time>
      </trkpt>
      <trkpt lat="45.9157" lon="-1.3284">
        <ele>-3.4</ele>
        <time>2022-03-26T14:34:51Z</time>
      </trkpt>
      <trkpt lat="45.9157" lon="-1.3284">
        <ele>-3.4</ele>
        <time>2022-03-26T14:35:15Z</time>
      </trkpt>
      <trkpt lat="45.9157" lon="-1.3284">
        <ele>-3.4</ele>
        <time>2022-03-26T14:35:34Z</time>
      </trkpt>
      <trkpt lat="45.9157" lon="-1.3284">
        <ele>-3.4</ele>
        <time>2022-03-26T14:35:55Z</time>
      </trkpt>
      <trkpt lat="45.9157" lon="-1.3284">
        <ele>-3.4</ele>
        <time>2022-03-26T14:36:12Z</time>
      </trkpt>
      <trkpt lat="45.9157" lon="-1.3284">
        <ele>-3.4</ele>
        <time>2022-03-26T14:36:31Z</time>
      </trkpt>
      <trkpt lat="45.9157" lon="-1.3284">
        <ele>-3.2</ele>
        <time>2022-03-26T14:36:52Z</time>
      </trkpt>
      <trkpt lat="45.9157" lon="-1.3284">
        <ele>-3.2</ele>
        <time>2022-03-26T14:37:14Z</time>
      </trkpt>
      <trkpt lat="45.9157" lon="-1.3284">
        <ele>-3.2</ele>
        <time>2022-03-26T14:37:37Z</time>
      </trkpt>
      <trkpt lat="45.9157" lon="-1.3284">
        <ele>-3</ele>
        <time>2022-03-26T14:38:02Z</time>
      </trkpt>
      <trkpt lat="45.9157" lon="-1.3284">
        <ele>-3</ele>
        <time>2022-03-26T14:38:19Z</time>
      </trkpt>
      <trkpt lat="45.9157" lon="-1.3284">
        <ele>-2.8</ele>
        <time>2022-03-26T14:38:41Z</time>
      </trkpt>
      <trkpt lat="45.9157" lon="-1.3284">
        <ele>-2.8</ele>
        <time>2022-03-26T14:39:05Z</time>
      </trkpt>
      <trkpt lat="45.9157" lon="-1.3284">
        <ele>-2.8</ele>
        <time>2022-03-26T14:39:24Z</time>
      </trkpt>
      <trkpt lat="45.9157" lon="-1.3284">
        <ele>-2.6</ele>
        <time>2022-03-26T14:39:39Z</time>
      </trkpt>
      <trkpt lat="45.9157" lon="-1.3284">
        <ele>-2.6</ele>
        <time>2022-03-26T14:39:58Z</time>
      </trkpt>
      <trkpt lat="45.9157" lon="-1.3284">
        <ele>-2.6</ele>
        <time>2022-03-26T14:40:20Z</time>
      </trkpt>
      <trkpt lat="45.9157" lon="-1.3284">
        <ele>-2.6</ele>
        <time>2022-03-26T14:40:42Z</time>
      </trkpt>
      <trkpt lat="45.9157" lon="-1.3284">
        <ele>-2.6</ele>
        <time>2022-03-26T14:40:59Z</time>
      </trkpt>
      <trkpt lat="45.9157" lon="-1.3284">
        <ele>-2.6</ele>
        <time>2022-03-26T14:41:20Z</time>
      </trkpt>
      <trkpt lat="45.9157" lon="-1.3284">
        <ele>-2.4</ele>
        <time>2022-03-26T14:41:40Z</time>
      </trkpt>
      <trkpt lat="45.9157" lon="-1.3284">
        <ele>-2.4</ele>
        <time>2022-03-26T14:42:03Z</time>
      </trkpt>
      <trkpt lat="45.9157" lon="-1.3284">
        <ele>-2.2</ele>
        <time>2022-03-26T14:42:23Z</time>
      </trkpt>
      <trkpt lat="45.9157" lon="-1.3284">
        <ele>-2</ele>
        <time>2022-03-26T14:42:42Z</time>
      </trkpt>
      <trkpt lat="45.9157" lon="-1.3284">
        <ele>-2</ele>
        <time>2022-03-26T14:43:01Z</time>
      </trkpt>
      <trkpt lat="45.9157" lon="-1.3284">
        <ele>-1.8</ele>
        <time>2022-03-26T14:43:22Z</time>
      </trkpt>
      <trkpt lat="45.9157" lon="-1.3284">
        <ele>-1.8</ele>
        <time>2022-03-26T14:43:40Z</time>
      </trkpt>
      <trkpt lat="45.9157" lon="-1.3284">
        <ele>-1.8</ele>
        <time>2022-03-26T14:43:54Z</time>
      </trkpt>
      <trkpt lat="45.9157" lon="-1.3284">
        <ele>-1.6</ele>
        <time>2022-03-26T14:44:16Z</time>
      </trkpt>
      <trkpt lat="45.9157" lon="-1.3284">
        <ele>-1.6</ele>
        <time>2022-03-26T14:44:36Z</time>
      </trkpt>
      <trkpt lat="45.9157" lon="-1.3284">
        <ele>-1.4</ele>
        <time>2022-03-26T14:44:54Z</time>
      </trkpt>
      <trkpt lat="45.9157" lon="-1.3284">
        <ele>-1.2</ele>
        <time>2022-03-26T14:45:19Z</time>
      </trkpt>
      <trkpt lat="45.9157" lon="-1.3284">
        <ele>-1</ele>
        <time>2022-03-26T14:45:39Z</time>
      </trkpt>
      <trkpt lat="45.9157" lon="-1.3284">
        <ele>-0.80000000000001</ele>
        <time>2022-03-26T14:45:57Z</time>
      </trkpt>
      <trkpt lat="45.9157" lon="-1.3284">
        <ele>-0.60000000000002</ele>
        <time>2022-03-26T14:46:22Z</time>
      </trkpt>
      <trkpt lat="45.9157" lon="-1.3284">
        <ele>-0.60000000000002</ele>
        <time>2022-03-26T14:46:50Z</time>
      </trkpt>
      <trkpt lat="45.9157" lon="-1.3284">
        <ele>-0.39999999999998</ele>
        <time>2022-03-26T14:47:07Z</time>
      </trkpt>
      <trkpt lat="45.9157" lon="-1.3284">
        <ele>-0.39999999999998</ele>
        <time>2022-03-26T14:47:33Z</time>
      </trkpt>
      <trkpt lat="45.9157" lon="-1.3284">
        <ele>-0.39999999999998</ele>
        <time>2022-03-26T14:47:55Z</time>
      </trkpt>
      <trkpt lat="45.9157" lon="-1.3284">
        <ele>-0.39999999999998</ele>
        <time>2022-03-26T14:48:16Z</time>
      </trkpt>
      <trkpt lat="45.9157" lon="-1.3284">
        <ele>-0.39999999999998</ele>
        <time>2022-03-26T14:48:42Z</time>
      </trkpt>
      <trkpt lat="45.9157" lon="-1.3284">
        <ele>-0.39999999999998</ele>
        <time>2022-03-26T14:49:05Z</time>
      </trkpt>
      <trkpt lat="45.9157" lon="-1.3284">
        <ele>-0.39999999999998</ele>
        <time>2022-03-26T14:49:25Z</time>
      </trkpt>
      <trkpt lat="45.9157" lon="-1.3284">
        <ele>-0.39999999999998</ele>
        <time>2022-03-26T14:49:50Z</time>
      </trkpt>
      <trkpt lat="45.9157" lon="-1.3284">
        <ele>-0.39999999999998</ele>
        <time>2022-03-26T14:50:09Z</time>
      </trkpt>
      <trkpt lat="45.9157" lon="-1.3284">
        <ele>-0.60000000000002</ele>
        <time>2022-03-26T14:50:26Z</time>
      </trkpt>
      <trkpt lat="45.9157" lon="-1.3284">
        <ele>-0.60000000000002</ele>
        <time>2022-03-26T14:50:41Z</time>
      </trkpt>
      <trkpt lat="45.9157" lon="-1.3284">
        <ele>-0.39999999999998</ele>
        <time>2022-03-26T14:50:57Z</time>
      </trkpt>
      <trkpt lat="45.91573" lon="-1.32836">
        <ele>-0.39999999999998</ele>
        <time>2022-03-26T14:51:12Z</time>
      </trkpt>
      <trkpt lat="45.91575" lon="-1.32833">
        <ele>-0.39999999999998</ele>
        <time>2022-03-26T14:51:17Z</time>
      </trkpt>
      <trkpt lat="45.91575" lon="-1.32833">
        <ele>-0.39999999999998</ele>
        <time>2022-03-26T14:51:19Z</time>
      </trkpt>
      <trkpt lat="45.91576" lon="-1.32831">
        <ele>-0.39999999999998</ele>
        <time>2022-03-26T14:51:21Z</time>
      </trkpt>
      <trkpt lat="45.91573" lon="-1.32814">
        <ele>-0.39999999999998</ele>
        <time>2022-03-26T14:51:26Z</time>
      </trkpt>
      <trkpt lat="45.91565" lon="-1.32793">
        <ele>-0.39999999999998</ele>
        <time>2022-03-26T14:51:31Z</time>
      </trkpt>
      <trkpt lat="45.91557" lon="-1.32772">
        <ele>-0.19999999999999</ele>
        <time>2022-03-26T14:51:36Z</time>
      </trkpt>
      <trkpt lat="45.91552" lon="-1.32757">
        <ele>-0.19999999999999</ele>
        <time>2022-03-26T14:51:39Z</time>
      </trkpt>
      <trkpt lat="45.91549" lon="-1.32748">
        <ele>-0.19999999999999</ele>
        <time>2022-03-26T14:51:41Z</time>
      </trkpt>
      <trkpt lat="45.91541" lon="-1.32728">
        <ele>-0.19999999999999</ele>
        <time>2022-03-26T14:51:47Z</time>
      </trkpt>
      <trkpt lat="45.91538" lon="-1.32719">
        <ele>0.19999999999999</ele>
        <time>2022-03-26T14:51:52Z</time>
      </trkpt>
      <trkpt lat="45.91536" lon="-1.32714">
        <ele>0.39999999999998</ele>
        <time>2022-03-26T14:51:55Z</time>
      </trkpt>
      <trkpt lat="45.91535" lon="-1.32711">
        <ele>0.39999999999998</ele>
        <time>2022-03-26T14:51:56Z</time>
      </trkpt>
      <trkpt lat="45.91533" lon="-1.32699">
        <ele>1</ele>
        <time>2022-03-26T14:52:01Z</time>
      </trkpt>
      <trkpt lat="45.91532" lon="-1.32694">
        <ele>1</ele>
        <time>2022-03-26T14:52:03Z</time>
      </trkpt>
      <trkpt lat="45.9153" lon="-1.32684">
        <ele>1</ele>
        <time>2022-03-26T14:52:06Z</time>
      </trkpt>
      <trkpt lat="45.91525" lon="-1.3266">
        <ele>1</ele>
        <time>2022-03-26T14:52:11Z</time>
      </trkpt>
      <trkpt lat="45.91518" lon="-1.32634">
        <ele>1</ele>
        <time>2022-03-26T14:52:17Z</time>
      </trkpt>
      <trkpt lat="45.91511" lon="-1.32605">
        <ele>1.2</ele>
        <time>2022-03-26T14:52:23Z</time>
      </trkpt>
      <trkpt lat="45.9151" lon="-1.32599">
        <ele>1.2</ele>
        <time>2022-03-26T14:52:24Z</time>
      </trkpt>
      <trkpt lat="45.91505" lon="-1.32579">
        <ele>1.2</ele>
        <time>2022-03-26T14:52:28Z</time>
      </trkpt>
      <trkpt lat="45.915" lon="-1.32558">
        <ele>1.4</ele>
        <time>2022-03-26T14:52:34Z</time>
      </trkpt>
      <trkpt lat="45.91494" lon="-1.3253">
        <ele>1.4</ele>
        <time>2022-03-26T14:52:41Z</time>
      </trkpt>
      <trkpt lat="45.91493" lon="-1.32526">
        <ele>1.4</ele>
        <time>2022-03-26T14:52:42Z</time>
      </trkpt>
      <trkpt lat="45.9149" lon="-1.32514">
        <ele>1.4</ele>
        <time>2022-03-26T14:52:44Z</time>
      </trkpt>
      <trkpt lat="45.91488" lon="-1.32508">
        <ele>1.4</ele>
        <time>2022-03-26T14:52:45Z</time>
      </trkpt>
      <trkpt lat="45.91476" lon="-1.32475">
        <ele>1.6</ele>
        <time>2022-03-26T14:52:51Z</time>
      </trkpt>
      <trkpt lat="45.91464" lon="-1.32445">
        <ele>1.6</ele>
        <time>2022-03-26T14:52:57Z</time>
      </trkpt>
      <trkpt lat="45.91459" lon="-1.32433">
        <ele>1.6</ele>
        <time>2022-03-26T14:53:00Z</time>
      </trkpt>
      <trkpt lat="45.91455" lon="-1.32423">
        <ele>1.6</ele>
        <time>2022-03-26T14:53:02Z</time>
      </trkpt>
      <trkpt lat="45.91453" lon="-1.32417">
        <ele>1.6</ele>
        <time>2022-03-26T14:53:03Z</time>
      </trkpt>
      <trkpt lat="45.91439" lon="-1.32396">
        <ele>1.6</ele>
        <time>2022-03-26T14:53:07Z</time>
      </trkpt>
      <trkpt lat="45.91423" lon="-1.32356">
        <ele>1.8</ele>
        <time>2022-03-26T14:53:14Z</time>
      </trkpt>
      <trkpt lat="45.91418" lon="-1.32344">
        <ele>1.8</ele>
        <time>2022-03-26T14:53:16Z</time>
      </trkpt>
      <trkpt lat="45.9141" lon="-1.3233">
        <ele>1.8</ele>
        <time>2022-03-26T14:53:19Z</time>
      </trkpt>
      <trkpt lat="45.91404" lon="-1.3232">
        <ele>1.8</ele>
        <time>2022-03-26T14:53:21Z</time>
      </trkpt>
      <trkpt lat="45.91398" lon="-1.32311">
        <ele>1.6</ele>
        <time>2022-03-26T14:53:23Z</time>
      </trkpt>
      <trkpt lat="45.91395" lon="-1.32306">
        <ele>1.6</ele>
        <time>2022-03-26T14:53:24Z</time>
      </trkpt>
      <trkpt lat="45.91392" lon="-1.32301">
        <ele>1.6</ele>
        <time>2022-03-26T14:53:25Z</time>
      </trkpt>
      <trkpt lat="45.91382" lon="-1.32284">
        <ele>1.4</ele>
        <time>2022-03-26T14:53:28Z</time>
      </trkpt>
      <trkpt lat="45.91365" lon="-1.32255">
        <ele>1</ele>
        <time>2022-03-26T14:53:33Z</time>
      </trkpt>
      <trkpt lat="45.91338" lon="-1.32208">
        <ele>0.60000000000002</ele>
        <time>2022-03-26T14:53:41Z</time>
      </trkpt>
      <trkpt lat="45.91331" lon="-1.32194">
        <ele>0.60000000000002</ele>
        <time>2022-03-26T14:53:43Z</time>
      </trkpt>
      <trkpt lat="45.91322" lon="-1.32175">
        <ele>0.39999999999998</ele>
        <time>2022-03-26T14:53:46Z</time>
      </trkpt>
      <trkpt lat="45.91319" lon="-1.32169">
        <ele>0.39999999999998</ele>
        <time>2022-03-26T14:53:47Z</time>
      </trkpt>
      <trkpt lat="45.91312" lon="-1.32156">
        <ele>0.19999999999999</ele>
        <time>2022-03-26T14:53:49Z</time>
      </trkpt>
      <trkpt lat="45.91307" lon="-1.32145">
        <ele>0.19999999999999</ele>
        <time>2022-03-26T14:53:51Z</time>
      </trkpt>
      <trkpt lat="45.91298" lon="-1.32127">
        <ele>0.19999999999999</ele>
        <time>2022-03-26T14:53:54Z</time>
      </trkpt>
      <trkpt lat="45.91293" lon="-1.32115">
        <ele>0.19999999999999</ele>
        <time>2022-03-26T14:53:56Z</time>
      </trkpt>
      <trkpt lat="45.91283" lon="-1.32096">
        <ele>-0.19999999999999</ele>
        <time>2022-03-26T14:54:00Z</time>
      </trkpt>
      <trkpt lat="45.91277" lon="-1.32085">
        <ele>-0.19999999999999</ele>
        <time>2022-03-26T14:54:02Z</time>
      </trkpt>
      <trkpt lat="45.91273" lon="-1.32079">
        <ele>-0.19999999999999</ele>
        <time>2022-03-26T14:54:03Z</time>
      </trkpt>
      <trkpt lat="45.91262" lon="-1.32058">
        <ele>-0.39999999999998</ele>
        <time>2022-03-26T14:54:06Z</time>
      </trkpt>
      <trkpt lat="45.91256" lon="-1.32047">
        <ele>-0.39999999999998</ele>
        <time>2022-03-26T14:54:08Z</time>
      </trkpt>
      <trkpt lat="45.91247" lon="-1.32029">
        <ele>-0.60000000000002</ele>
        <time>2022-03-26T14:54:12Z</time>
      </trkpt>
      <trkpt lat="45.91244" lon="-1.32024">
        <ele>-0.80000000000001</ele>
        <time>2022-03-26T14:54:13Z</time>
      </trkpt>
      <trkpt lat="45.91239" lon="-1.32013">
        <ele>-1.2</ele>
        <time>2022-03-26T14:54:15Z</time>
      </trkpt>
      <trkpt lat="45.91231" lon="-1.31997">
        <ele>-1.4</ele>
        <time>2022-03-26T14:54:18Z</time>
      </trkpt>
      <trkpt lat="45.91225" lon="-1.31985">
        <ele>-1.6</ele>
        <time>2022-03-26T14:54:20Z</time>
      </trkpt>
      <trkpt lat="45.91219" lon="-1.31972">
        <ele>-1.8</ele>
        <time>2022-03-26T14:54:22Z</time>
      </trkpt>
      <trkpt lat="45.9121" lon="-1.31953">
        <ele>-2</ele>
        <time>2022-03-26T14:54:25Z</time>
      </trkpt>
      <trkpt lat="45.91198" lon="-1.31925">
        <ele>-2</ele>
        <time>2022-03-26T14:54:29Z</time>
      </trkpt>
      <trkpt lat="45.91194" lon="-1.31912">
        <ele>-2</ele>
        <time>2022-03-26T14:54:31Z</time>
      </trkpt>
      <trkpt lat="45.91184" lon="-1.31881">
        <ele>-2.2</ele>
        <time>2022-03-26T14:54:36Z</time>
      </trkpt>
      <trkpt lat="45.91182" lon="-1.31875">
        <ele>-2.2</ele>
        <time>2022-03-26T14:54:37Z</time>
      </trkpt>
      <trkpt lat="45.91179" lon="-1.31868">
        <ele>-2.4</ele>
        <time>2022-03-26T14:54:38Z</time>
      </trkpt>
      <trkpt lat="45.91173" lon="-1.3185">
        <ele>-2.6</ele>
        <time>2022-03-26T14:54:41Z</time>
      </trkpt>
      <trkpt lat="45.91164" lon="-1.31833">
        <ele>-2.6</ele>
        <time>2022-03-26T14:54:44Z</time>
      </trkpt>
      <trkpt lat="45.91161" lon="-1.31828">
        <ele>-2.6</ele>
        <time>2022-03-26T14:54:45Z</time>
      </trkpt>
      <trkpt lat="45.91158" lon="-1.31824">
        <ele>-2.8</ele>
        <time>2022-03-26T14:54:46Z</time>
      </trkpt>
      <trkpt lat="45.9115" lon="-1.31798">
        <ele>-3</ele>
        <time>2022-03-26T14:54:50Z</time>
      </trkpt>
      <trkpt lat="45.91134" lon="-1.3175">
        <ele>-3.2</ele>
        <time>2022-03-26T14:54:58Z</time>
      </trkpt>
      <trkpt lat="45.91135" lon="-1.31733">
        <ele>-3.2</ele>
        <time>2022-03-26T14:55:00Z</time>
      </trkpt>
      <trkpt lat="45.91131" lon="-1.31722">
        <ele>-3.4</ele>
        <time>2022-03-26T14:55:02Z</time>
      </trkpt>
      <trkpt lat="45.91128" lon="-1.31711">
        <ele>-3.4</ele>
        <time>2022-03-26T14:55:04Z</time>
      </trkpt>
      <trkpt lat="45.91117" lon="-1.31688">
        <ele>-3.4</ele>
        <time>2022-03-26T14:55:09Z</time>
      </trkpt>
      <trkpt lat="45.91107" lon="-1.31668">
        <ele>-3.4</ele>
        <time>2022-03-26T14:55:13Z</time>
      </trkpt>
      <trkpt lat="45.91105" lon="-1.31663">
        <ele>-3.6</ele>
        <time>2022-03-26T14:55:14Z</time>
      </trkpt>
      <trkpt lat="45.91092" lon="-1.3163">
        <ele>-3.4</ele>
        <time>2022-03-26T14:55:20Z</time>
      </trkpt>
      <trkpt lat="45.91091" lon="-1.31628">
        <ele>-3</ele>
        <time>2022-03-26T14:55:24Z</time>
      </trkpt>
      <trkpt lat="45.91091" lon="-1.31628">
        <ele>-3</ele>
        <time>2022-03-26T14:55:37Z</time>
      </trkpt>
      <trkpt lat="45.9109" lon="-1.31625">
        <ele>-3.4</ele>
        <time>2022-03-26T14:55:42Z</time>
      </trkpt>
      <trkpt lat="45.9109" lon="-1.31621">
        <ele>-3.2</ele>
        <time>2022-03-26T14:55:43Z</time>
      </trkpt>
      <trkpt lat="45.91088" lon="-1.31612">
        <ele>-3.4</ele>
        <time>2022-03-26T14:55:45Z</time>
      </trkpt>
      <trkpt lat="45.91085" lon="-1.31603">
        <ele>-3.6</ele>
        <time>2022-03-26T14:55:47Z</time>
      </trkpt>
      <trkpt lat="45.91083" lon="-1.316">
        <ele>-3.2</ele>
        <time>2022-03-26T14:55:48Z</time>
      </trkpt>
      <trkpt lat="45.91073" lon="-1.31585">
        <ele>-3.6</ele>
        <time>2022-03-26T14:55:52Z</time>
      </trkpt>
      <trkpt lat="45.91057" lon="-1.31563">
        <ele>-3.4</ele>
        <time>2022-03-26T14:55:58Z</time>
      </trkpt>
      <trkpt lat="45.91048" lon="-1.31551">
        <ele>-3.4</ele>
        <time>2022-03-26T14:56:01Z</time>
      </trkpt>
      <trkpt lat="45.91046" lon="-1.31548">
        <ele>-3.4</ele>
        <time>2022-03-26T14:56:02Z</time>
      </trkpt>
      <trkpt lat="45.91034" lon="-1.31532">
        <ele>-3.8</ele>
        <time>2022-03-26T14:56:07Z</time>
      </trkpt>
      <trkpt lat="45.91019" lon="-1.31511">
        <ele>-3.6</ele>
        <time>2022-03-26T14:56:12Z</time>
      </trkpt>
      <trkpt lat="45.90997" lon="-1.31481">
        <ele>-3.4</ele>
        <time>2022-03-26T14:56:19Z</time>
      </trkpt>
      <trkpt lat="45.90981" lon="-1.3146">
        <ele>-3.4</ele>
        <time>2022-03-26T14:56:25Z</time>
      </trkpt>
      <trkpt lat="45.90965" lon="-1.31437">
        <ele>-3.4</ele>
        <time>2022-03-26T14:56:31Z</time>
      </trkpt>
      <trkpt lat="45.90958" lon="-1.31429">
        <ele>-3.2</ele>
        <time>2022-03-26T14:56:36Z</time>
      </trkpt>
      <trkpt lat="45.90958" lon="-1.31429">
        <ele>-3</ele>
        <time>2022-03-26T14:56:49Z</time>
      </trkpt>
      <trkpt lat="45.90958" lon="-1.31429">
        <ele>-2.8</ele>
        <time>2022-03-26T14:57:03Z</time>
      </trkpt>
      <trkpt lat="45.90958" lon="-1.31429">
        <ele>-2.6</ele>
        <time>2022-03-26T14:57:08Z</time>
      </trkpt>
      <trkpt lat="45.90954" lon="-1.31423">
        <ele>-2.6</ele>
        <time>2022-03-26T14:57:13Z</time>
      </trkpt>
      <trkpt lat="45.90952" lon="-1.3142">
        <ele>-2.6</ele>
        <time>2022-03-26T14:57:19Z</time>
      </trkpt>
      <trkpt lat="45.90952" lon="-1.3142">
        <ele>-2.4</ele>
        <time>2022-03-26T14:57:32Z</time>
      </trkpt>
      <trkpt lat="45.90952" lon="-1.3142">
        <ele>-2.2</ele>
        <time>2022-03-26T14:57:50Z</time>
      </trkpt>
      <trkpt lat="45.90952" lon="-1.3142">
        <ele>-2.2</ele>
        <time>2022-03-26T14:58:07Z</time>
      </trkpt>
      <trkpt lat="45.90952" lon="-1.3142">
        <ele>-2</ele>
        <time>2022-03-26T14:58:24Z</time>
      </trkpt>
      <trkpt lat="45.90952" lon="-1.3142">
        <ele>-2</ele>
        <time>2022-03-26T14:58:42Z</time>
      </trkpt>
      <trkpt lat="45.90952" lon="-1.3142">
        <ele>-1.8</ele>
        <time>2022-03-26T14:59:03Z</time>
      </trkpt>
      <trkpt lat="45.90952" lon="-1.3142">
        <ele>-1.6</ele>
        <time>2022-03-26T14:59:23Z</time>
      </trkpt>
      <trkpt lat="45.90952" lon="-1.3142">
        <ele>-1.6</ele>
        <time>2022-03-26T14:59:40Z</time>
      </trkpt>
      <trkpt lat="45.90952" lon="-1.3142">
        <ele>-1.4</ele>
        <time>2022-03-26T14:59:57Z</time>
      </trkpt>
      <trkpt lat="45.90952" lon="-1.3142">
        <ele>-1.2</ele>
        <time>2022-03-26T15:00:17Z</time>
      </trkpt>
      <trkpt lat="45.90952" lon="-1.3142">
        <ele>-1.2</ele>
        <time>2022-03-26T15:00:34Z</time>
      </trkpt>
      <trkpt lat="45.90952" lon="-1.3142">
        <ele>-1</ele>
        <time>2022-03-26T15:00:51Z</time>
      </trkpt>
      <trkpt lat="45.90952" lon="-1.3142">
        <ele>-1</ele>
        <time>2022-03-26T15:01:11Z</time>
      </trkpt>
      <trkpt lat="45.90952" lon="-1.3142">
        <ele>-0.80000000000001</ele>
        <time>2022-03-26T15:01:31Z</time>
      </trkpt>
      <trkpt lat="45.90952" lon="-1.3142">
        <ele>-0.60000000000002</ele>
        <time>2022-03-26T15:01:50Z</time>
      </trkpt>
      <trkpt lat="45.9095" lon="-1.31418">
        <ele>-0.60000000000002</ele>
        <time>2022-03-26T15:01:59Z</time>
      </trkpt>
      <trkpt lat="45.9095" lon="-1.31418">
        <ele>-0.60000000000002</ele>
        <time>2022-03-26T15:02:01Z</time>
      </trkpt>
      <trkpt lat="45.90948" lon="-1.31414">
        <ele>-0.60000000000002</ele>
        <time>2022-03-26T15:02:03Z</time>
      </trkpt>
      <trkpt lat="45.90937" lon="-1.31396">
        <ele>-0.80000000000001</ele>
        <time>2022-03-26T15:02:07Z</time>
      </trkpt>
      <trkpt lat="45.90926" lon="-1.31376">
        <ele>-0.80000000000001</ele>
        <time>2022-03-26T15:02:10Z</time>
      </trkpt>
      <trkpt lat="45.90918" lon="-1.31357">
        <ele>-0.80000000000001</ele>
        <time>2022-03-26T15:02:13Z</time>
      </trkpt>
      <trkpt lat="45.90911" lon="-1.3134">
        <ele>-0.80000000000001</ele>
        <time>2022-03-26T15:02:16Z</time>
      </trkpt>
      <trkpt lat="45.90906" lon="-1.31326">
        <ele>-0.80000000000001</ele>
        <time>2022-03-26T15:02:18Z</time>
      </trkpt>
      <trkpt lat="45.90896" lon="-1.31293">
        <ele>-1</ele>
        <time>2022-03-26T15:02:22Z</time>
      </trkpt>
      <trkpt lat="45.90877" lon="-1.31237">
        <ele>-1</ele>
        <time>2022-03-26T15:02:29Z</time>
      </trkpt>
      <trkpt lat="45.90861" lon="-1.31192">
        <ele>-0.60000000000002</ele>
        <time>2022-03-26T15:02:35Z</time>
      </trkpt>
      <trkpt lat="45.90856" lon="-1.31176">
        <ele>-0.80000000000001</ele>
        <time>2022-03-26T15:02:37Z</time>
      </trkpt>
      <trkpt lat="45.9085" lon="-1.31162">
        <ele>-0.80000000000001</ele>
        <time>2022-03-26T15:02:39Z</time>
      </trkpt>
      <trkpt lat="45.90832" lon="-1.31112">
        <ele>-0.80000000000001</ele>
        <time>2022-03-26T15:02:46Z</time>
      </trkpt>
      <trkpt lat="45.90829" lon="-1.31105">
        <ele>-0.80000000000001</ele>
        <time>2022-03-26T15:02:47Z</time>
      </trkpt>
      <trkpt lat="45.90824" lon="-1.3109">
        <ele>-0.80000000000001</ele>
        <time>2022-03-26T15:02:49Z</time>
      </trkpt>
      <trkpt lat="45.90807" lon="-1.31048">
        <ele>-0.80000000000001</ele>
        <time>2022-03-26T15:02:55Z</time>
      </trkpt>
      <trkpt lat="45.90789" lon="-1.31009">
        <ele>-0.80000000000001</ele>
        <time>2022-03-26T15:03:01Z</time>
      </trkpt>
      <trkpt lat="45.90782" lon="-1.30992">
        <ele>-0.80000000000001</ele>
        <time>2022-03-26T15:03:04Z</time>
      </trkpt>
      <trkpt lat="45.9078" lon="-1.30987">
        <ele>-0.80000000000001</ele>
        <time>2022-03-26T15:03:05Z</time>
      </trkpt>
      <trkpt lat="45.9077" lon="-1.30967">
        <ele>-0.80000000000001</ele>
        <time>2022-03-26T15:03:09Z</time>
      </trkpt>
      <trkpt lat="45.90764" lon="-1.30956">
        <ele>-0.80000000000001</ele>
        <time>2022-03-26T15:03:11Z</time>
      </trkpt>
      <trkpt lat="45.90757" lon="-1.30942">
        <ele>-0.80000000000001</ele>
        <time>2022-03-26T15:03:13Z</time>
      </trkpt>
      <trkpt lat="45.90746" lon="-1.30919">
        <ele>-1</ele>
        <time>2022-03-26T15:03:17Z</time>
      </trkpt>
      <trkpt lat="45.90743" lon="-1.30913">
        <ele>-1</ele>
        <time>2022-03-26T15:03:18Z</time>
      </trkpt>
      <trkpt lat="45.90733" lon="-1.30889">
        <ele>-1</ele>
        <time>2022-03-26T15:03:22Z</time>
      </trkpt>
      <trkpt lat="45.9073" lon="-1.30883">
        <ele>-1</ele>
        <time>2022-03-26T15:03:23Z</time>
      </trkpt>
      <trkpt lat="45.90725" lon="-1.30871">
        <ele>-1</ele>
        <time>2022-03-26T15:03:25Z</time>
      </trkpt>
      <trkpt lat="45.90718" lon="-1.30853">
        <ele>-1</ele>
        <time>2022-03-26T15:03:28Z</time>
      </trkpt>
      <trkpt lat="45.90713" lon="-1.30842">
        <ele>-1.2</ele>
        <time>2022-03-26T15:03:30Z</time>
      </trkpt>
      <trkpt lat="45.90711" lon="-1.30835">
        <ele>-1.2</ele>
        <time>2022-03-26T15:03:31Z</time>
      </trkpt>
      <trkpt lat="45.90704" lon="-1.30813">
        <ele>-1.4</ele>
        <time>2022-03-26T15:03:34Z</time>
      </trkpt>
      <trkpt lat="45.9069" lon="-1.30775">
        <ele>-1.4</ele>
        <time>2022-03-26T15:03:39Z</time>
      </trkpt>
      <trkpt lat="45.90688" lon="-1.30767">
        <ele>-1.4</ele>
        <time>2022-03-26T15:03:40Z</time>
      </trkpt>
      <trkpt lat="45.90683" lon="-1.30752">
        <ele>-1.4</ele>
        <time>2022-03-26T15:03:42Z</time>
      </trkpt>
      <trkpt lat="45.90679" lon="-1.30746">
        <ele>-1.4</ele>
        <time>2022-03-26T15:03:43Z</time>
      </trkpt>
      <trkpt lat="45.9067" lon="-1.30729">
        <ele>-1.4</ele>
        <time>2022-03-26T15:03:46Z</time>
      </trkpt>
      <trkpt lat="45.90664" lon="-1.30717">
        <ele>-1.4</ele>
        <time>2022-03-26T15:03:48Z</time>
      </trkpt>
      <trkpt lat="45.90658" lon="-1.30706">
        <ele>-1.4</ele>
        <time>2022-03-26T15:03:50Z</time>
      </trkpt>
      <trkpt lat="45.90652" lon="-1.30695">
        <ele>-1.6</ele>
        <time>2022-03-26T15:03:52Z</time>
      </trkpt>
      <trkpt lat="45.90635" lon="-1.30657">
        <ele>-1.6</ele>
        <time>2022-03-26T15:03:58Z</time>
      </trkpt>
      <trkpt lat="45.90618" lon="-1.3062">
        <ele>-1.6</ele>
        <time>2022-03-26T15:04:04Z</time>
      </trkpt>
      <trkpt lat="45.90607" lon="-1.30593">
        <ele>-1.4</ele>
        <time>2022-03-26T15:04:09Z</time>
      </trkpt>
      <trkpt lat="45.90604" lon="-1.30587">
        <ele>-1.4</ele>
        <time>2022-03-26T15:04:10Z</time>
      </trkpt>
      <trkpt lat="45.90599" lon="-1.30575">
        <ele>-1.4</ele>
        <time>2022-03-26T15:04:12Z</time>
      </trkpt>
      <trkpt lat="45.90596" lon="-1.30569">
        <ele>-1.4</ele>
        <time>2022-03-26T15:04:13Z</time>
      </trkpt>
      <trkpt lat="45.90571" lon="-1.30534">
        <ele>-1.4</ele>
        <time>2022-03-26T15:04:19Z</time>
      </trkpt>
      <trkpt lat="45.90564" lon="-1.30524">
        <ele>-1.6</ele>
        <time>2022-03-26T15:04:21Z</time>
      </trkpt>
      <trkpt lat="45.90557" lon="-1.30515">
        <ele>-1.4</ele>
        <time>2022-03-26T15:04:23Z</time>
      </trkpt>
      <trkpt lat="45.90537" lon="-1.30488">
        <ele>-1.6</ele>
        <time>2022-03-26T15:04:28Z</time>
      </trkpt>
      <trkpt lat="45.9051" lon="-1.30449">
        <ele>-1.8</ele>
        <time>2022-03-26T15:04:35Z</time>
      </trkpt>
      <trkpt lat="45.90487" lon="-1.30416">
        <ele>-1.6</ele>
        <time>2022-03-26T15:04:41Z</time>
      </trkpt>
      <trkpt lat="45.9047" lon="-1.30392">
        <ele>-1.8</ele>
        <time>2022-03-26T15:04:45Z</time>
      </trkpt>
      <trkpt lat="45.90467" lon="-1.30387">
        <ele>-1.8</ele>
        <time>2022-03-26T15:04:46Z</time>
      </trkpt>
      <trkpt lat="45.9046" lon="-1.30377">
        <ele>-1.8</ele>
        <time>2022-03-26T15:04:48Z</time>
      </trkpt>
      <trkpt lat="45.90453" lon="-1.30366">
        <ele>-1.8</ele>
        <time>2022-03-26T15:04:50Z</time>
      </trkpt>
      <trkpt lat="45.90436" lon="-1.30342">
        <ele>-2.2</ele>
        <time>2022-03-26T15:04:55Z</time>
      </trkpt>
      <trkpt lat="45.90416" lon="-1.30312">
        <ele>-2.6</ele>
        <time>2022-03-26T15:05:00Z</time>
      </trkpt>
      <trkpt lat="45.9039" lon="-1.30273">
        <ele>-2.8</ele>
        <time>2022-03-26T15:05:06Z</time>
      </trkpt>
      <trkpt lat="45.90385" lon="-1.30267">
        <ele>-2.8</ele>
        <time>2022-03-26T15:05:07Z</time>
      </trkpt>
      <trkpt lat="45.90356" lon="-1.30222">
        <ele>-2.8</ele>
        <time>2022-03-26T15:05:14Z</time>
      </trkpt>
      <trkpt lat="45.90334" lon="-1.30188">
        <ele>-2.8</ele>
        <time>2022-03-26T15:05:20Z</time>
      </trkpt>
      <trkpt lat="45.90313" lon="-1.30155">
        <ele>-2.8</ele>
        <time>2022-03-26T15:05:25Z</time>
      </trkpt>
      <trkpt lat="45.90309" lon="-1.3015">
        <ele>-2.8</ele>
        <time>2022-03-26T15:05:26Z</time>
      </trkpt>
      <trkpt lat="45.90295" lon="-1.30139">
        <ele>-3</ele>
        <time>2022-03-26T15:05:29Z</time>
      </trkpt>
      <trkpt lat="45.90289" lon="-1.30131">
        <ele>-3</ele>
        <time>2022-03-26T15:05:31Z</time>
      </trkpt>
      <trkpt lat="45.90288" lon="-1.30124">
        <ele>-3</ele>
        <time>2022-03-26T15:05:32Z</time>
      </trkpt>
      <trkpt lat="45.90288" lon="-1.30117">
        <ele>-3.2</ele>
        <time>2022-03-26T15:05:33Z</time>
      </trkpt>
      <trkpt lat="45.90287" lon="-1.30104">
        <ele>-3.2</ele>
        <time>2022-03-26T15:05:35Z</time>
      </trkpt>
      <trkpt lat="45.90285" lon="-1.30099">
        <ele>-3.2</ele>
        <time>2022-03-26T15:05:36Z</time>
      </trkpt>
      <trkpt lat="45.90279" lon="-1.3008">
        <ele>-3.6</ele>
        <time>2022-03-26T15:05:39Z</time>
      </trkpt>
      <trkpt lat="45.90268" lon="-1.30046">
        <ele>-3.6</ele>
        <time>2022-03-26T15:05:44Z</time>
      </trkpt>
      <trkpt lat="45.9026" lon="-1.30011">
        <ele>-3.6</ele>
        <time>2022-03-26T15:05:49Z</time>
      </trkpt>
      <trkpt lat="45.9025" lon="-1.29967">
        <ele>-3.8</ele>
        <time>2022-03-26T15:05:55Z</time>
      </trkpt>
      <trkpt lat="45.90238" lon="-1.29916">
        <ele>-3.8</ele>
        <time>2022-03-26T15:06:02Z</time>
      </trkpt>
      <trkpt lat="45.90228" lon="-1.29874">
        <ele>-3.8</ele>
        <time>2022-03-26T15:06:08Z</time>
      </trkpt>
      <trkpt lat="45.90217" lon="-1.29839">
        <ele>-3.6</ele>
        <time>2022-03-26T15:06:14Z</time>
      </trkpt>
      <trkpt lat="45.902" lon="-1.29795">
        <ele>-3.6</ele>
        <time>2022-03-26T15:06:20Z</time>
      </trkpt>
      <trkpt lat="45.90185" lon="-1.29756">
        <ele>-3.6</ele>
        <time>2022-03-26T15:06:26Z</time>
      </trkpt>
      <trkpt lat="45.90175" lon="-1.29729">
        <ele>-3.6</ele>
        <time>2022-03-26T15:06:31Z</time>
      </trkpt>
      <trkpt lat="45.90173" lon="-1.29724">
        <ele>-3.6</ele>
        <time>2022-03-26T15:06:32Z</time>
      </trkpt>
      <trkpt lat="45.90157" lon="-1.29683">
        <ele>-3.6</ele>
        <time>2022-03-26T15:06:38Z</time>
      </trkpt>
      <trkpt lat="45.90141" lon="-1.29639">
        <ele>-3.6</ele>
        <time>2022-03-26T15:06:44Z</time>
      </trkpt>
      <trkpt lat="45.90139" lon="-1.29632">
        <ele>-3.6</ele>
        <time>2022-03-26T15:06:45Z</time>
      </trkpt>
      <trkpt lat="45.90134" lon="-1.29612">
        <ele>-3.6</ele>
        <time>2022-03-26T15:06:48Z</time>
      </trkpt>
      <trkpt lat="45.90132" lon="-1.29605">
        <ele>-3.4</ele>
        <time>2022-03-26T15:06:49Z</time>
      </trkpt>
      <trkpt lat="45.90127" lon="-1.29573">
        <ele>-3.4</ele>
        <time>2022-03-26T15:06:53Z</time>
      </trkpt>
      <trkpt lat="45.90123" lon="-1.29529">
        <ele>-3.4</ele>
        <time>2022-03-26T15:06:59Z</time>
      </trkpt>
      <trkpt lat="45.90121" lon="-1.29474">
        <ele>-3.2</ele>
        <time>2022-03-26T15:07:06Z</time>
      </trkpt>
      <trkpt lat="45.90119" lon="-1.29435">
        <ele>-3.4</ele>
        <time>2022-03-26T15:07:11Z</time>
      </trkpt>
      <trkpt lat="45.90118" lon="-1.29428">
        <ele>-3.4</ele>
        <time>2022-03-26T15:07:12Z</time>
      </trkpt>
      <trkpt lat="45.90109" lon="-1.29387">
        <ele>-3.4</ele>
        <time>2022-03-26T15:07:18Z</time>
      </trkpt>
      <trkpt lat="45.90097" lon="-1.29334">
        <ele>-3.2</ele>
        <time>2022-03-26T15:07:25Z</time>
      </trkpt>
      <trkpt lat="45.90093" lon="-1.29314">
        <ele>-3.2</ele>
        <time>2022-03-26T15:07:28Z</time>
      </trkpt>
      <trkpt lat="45.90088" lon="-1.29295">
        <ele>-3.2</ele>
        <time>2022-03-26T15:07:31Z</time>
      </trkpt>
      <trkpt lat="45.9008" lon="-1.29257">
        <ele>-3.2</ele>
        <time>2022-03-26T15:07:36Z</time>
      </trkpt>
      <trkpt lat="45.90078" lon="-1.2925">
        <ele>-3.2</ele>
        <time>2022-03-26T15:07:37Z</time>
      </trkpt>
      <trkpt lat="45.90069" lon="-1.29212">
        <ele>-3.2</ele>
        <time>2022-03-26T15:07:43Z</time>
      </trkpt>
      <trkpt lat="45.90068" lon="-1.29205">
        <ele>-3.2</ele>
        <time>2022-03-26T15:07:44Z</time>
      </trkpt>
      <trkpt lat="45.90058" lon="-1.29163">
        <ele>-3.2</ele>
        <time>2022-03-26T15:07:50Z</time>
      </trkpt>
      <trkpt lat="45.90048" lon="-1.29126">
        <ele>-3</ele>
        <time>2022-03-26T15:07:56Z</time>
      </trkpt>
      <trkpt lat="45.90039" lon="-1.29094">
        <ele>-3.2</ele>
        <time>2022-03-26T15:08:01Z</time>
      </trkpt>
      <trkpt lat="45.90037" lon="-1.29088">
        <ele>-3.2</ele>
        <time>2022-03-26T15:08:02Z</time>
      </trkpt>
      <trkpt lat="45.90035" lon="-1.29082">
        <ele>-3.2</ele>
        <time>2022-03-26T15:08:03Z</time>
      </trkpt>
      <trkpt lat="45.9003" lon="-1.29066">
        <ele>-3.2</ele>
        <time>2022-03-26T15:08:06Z</time>
      </trkpt>
      <trkpt lat="45.90027" lon="-1.29056">
        <ele>-3.2</ele>
        <time>2022-03-26T15:08:08Z</time>
      </trkpt>
      <trkpt lat="45.90022" lon="-1.2904">
        <ele>-3</ele>
        <time>2022-03-26T15:08:11Z</time>
      </trkpt>
      <trkpt lat="45.90016" lon="-1.29024">
        <ele>-3.2</ele>
        <time>2022-03-26T15:08:14Z</time>
      </trkpt>
      <trkpt lat="45.9001" lon="-1.29012">
        <ele>-3.2</ele>
        <time>2022-03-26T15:08:16Z</time>
      </trkpt>
      <trkpt lat="45.90007" lon="-1.29006">
        <ele>-3.2</ele>
        <time>2022-03-26T15:08:17Z</time>
      </trkpt>
      <trkpt lat="45.89991" lon="-1.28977">
        <ele>-3.2</ele>
        <time>2022-03-26T15:08:22Z</time>
      </trkpt>
      <trkpt lat="45.89971" lon="-1.28939">
        <ele>-3.2</ele>
        <time>2022-03-26T15:08:29Z</time>
      </trkpt>
      <trkpt lat="45.89949" lon="-1.28899">
        <ele>-3.2</ele>
        <time>2022-03-26T15:08:36Z</time>
      </trkpt>
      <trkpt lat="45.89944" lon="-1.28889">
        <ele>-3.2</ele>
        <time>2022-03-26T15:08:38Z</time>
      </trkpt>
      <trkpt lat="45.89935" lon="-1.28873">
        <ele>-3.2</ele>
        <time>2022-03-26T15:08:41Z</time>
      </trkpt>
      <trkpt lat="45.89913" lon="-1.28832">
        <ele>-3</ele>
        <time>2022-03-26T15:08:48Z</time>
      </trkpt>
      <trkpt lat="45.89893" lon="-1.28794">
        <ele>-3.4</ele>
        <time>2022-03-26T15:08:55Z</time>
      </trkpt>
      <trkpt lat="45.89876" lon="-1.28762">
        <ele>-3.2</ele>
        <time>2022-03-26T15:09:01Z</time>
      </trkpt>
      <trkpt lat="45.89867" lon="-1.28745">
        <ele>-3.2</ele>
        <time>2022-03-26T15:09:05Z</time>
      </trkpt>
      <trkpt lat="45.89856" lon="-1.28731">
        <ele>-3.2</ele>
        <time>2022-03-26T15:09:09Z</time>
      </trkpt>
      <trkpt lat="45.89838" lon="-1.28729">
        <ele>-3.2</ele>
        <time>2022-03-26T15:09:13Z</time>
      </trkpt>
      <trkpt lat="45.89816" lon="-1.28742">
        <ele>-3.6</ele>
        <time>2022-03-26T15:09:18Z</time>
      </trkpt>
      <trkpt lat="45.89802" lon="-1.2875">
        <ele>-3.6</ele>
        <time>2022-03-26T15:09:21Z</time>
      </trkpt>
      <trkpt lat="45.89789" lon="-1.28757">
        <ele>-3.6</ele>
        <time>2022-03-26T15:09:24Z</time>
      </trkpt>
      <trkpt lat="45.89784" lon="-1.2876">
        <ele>-3.6</ele>
        <time>2022-03-26T15:09:25Z</time>
      </trkpt>
      <trkpt lat="45.89774" lon="-1.28765">
        <ele>-3.6</ele>
        <time>2022-03-26T15:09:27Z</time>
      </trkpt>
      <trkpt lat="45.89757" lon="-1.28773">
        <ele>-3.6</ele>
        <time>2022-03-26T15:09:30Z</time>
      </trkpt>
      <trkpt lat="45.89735" lon="-1.28784">
        <ele>-3.8</ele>
        <time>2022-03-26T15:09:34Z</time>
      </trkpt>
      <trkpt lat="45.8973" lon="-1.28787">
        <ele>-3.8</ele>
        <time>2022-03-26T15:09:35Z</time>
      </trkpt>
      <trkpt lat="45.89725" lon="-1.28789">
        <ele>-3.6</ele>
        <time>2022-03-26T15:09:36Z</time>
      </trkpt>
      <trkpt lat="45.89717" lon="-1.28794">
        <ele>-3.6</ele>
        <time>2022-03-26T15:09:38Z</time>
      </trkpt>
      <trkpt lat="45.89713" lon="-1.28796">
        <ele>-3.8</ele>
        <time>2022-03-26T15:09:39Z</time>
      </trkpt>
      <trkpt lat="45.89709" lon="-1.28798">
        <ele>-3.6</ele>
        <time>2022-03-26T15:09:40Z</time>
      </trkpt>
      <trkpt lat="45.897" lon="-1.28801">
        <ele>-4</ele>
        <time>2022-03-26T15:09:42Z</time>
      </trkpt>
      <trkpt lat="45.89695" lon="-1.28801">
        <ele>-3.6</ele>
        <time>2022-03-26T15:09:43Z</time>
      </trkpt>
      <trkpt lat="45.89691" lon="-1.28802">
        <ele>-3.8</ele>
        <time>2022-03-26T15:09:44Z</time>
      </trkpt>
      <trkpt lat="45.89682" lon="-1.28802">
        <ele>-4</ele>
        <time>2022-03-26T15:09:46Z</time>
      </trkpt>
      <trkpt lat="45.89665" lon="-1.288">
        <ele>-3.8</ele>
        <time>2022-03-26T15:09:50Z</time>
      </trkpt>
      <trkpt lat="45.89661" lon="-1.28793">
        <ele>-4</ele>
        <time>2022-03-26T15:09:51Z</time>
      </trkpt>
      <trkpt lat="45.89656" lon="-1.28792">
        <ele>-3.8</ele>
        <time>2022-03-26T15:09:52Z</time>
      </trkpt>
      <trkpt lat="45.8964" lon="-1.2879">
        <ele>-3.8</ele>
        <time>2022-03-26T15:09:55Z</time>
      </trkpt>
      <trkpt lat="45.8961" lon="-1.2877">
        <ele>-3.6</ele>
        <time>2022-03-26T15:10:01Z</time>
      </trkpt>
      <trkpt lat="45.89585" lon="-1.28743">
        <ele>-3.6</ele>
        <time>2022-03-26T15:10:07Z</time>
      </trkpt>
      <trkpt lat="45.89578" lon="-1.28733">
        <ele>-3.6</ele>
        <time>2022-03-26T15:10:09Z</time>
      </trkpt>
      <trkpt lat="45.8957" lon="-1.28717">
        <ele>-3.4</ele>
        <time>2022-03-26T15:10:12Z</time>
      </trkpt>
      <trkpt lat="45.89554" lon="-1.28688">
        <ele>-3.2</ele>
        <time>2022-03-26T15:10:17Z</time>
      </trkpt>
      <trkpt lat="45.89543" lon="-1.28669">
        <ele>-3.4</ele>
        <time>2022-03-26T15:10:21Z</time>
      </trkpt>
      <trkpt lat="45.89535" lon="-1.28653">
        <ele>-3.4</ele>
        <time>2022-03-26T15:10:25Z</time>
      </trkpt>
      <trkpt lat="45.89532" lon="-1.28649">
        <ele>-3.4</ele>
        <time>2022-03-26T15:10:26Z</time>
      </trkpt>
      <trkpt lat="45.89528" lon="-1.2864">
        <ele>-3.2</ele>
        <time>2022-03-26T15:10:28Z</time>
      </trkpt>
      <trkpt lat="45.89525" lon="-1.28636">
        <ele>-3.2</ele>
        <time>2022-03-26T15:10:29Z</time>
      </trkpt>
      <trkpt lat="45.89516" lon="-1.28616">
        <ele>-3</ele>
        <time>2022-03-26T15:10:32Z</time>
      </trkpt>
      <trkpt lat="45.89508" lon="-1.28597">
        <ele>-3</ele>
        <time>2022-03-26T15:10:35Z</time>
      </trkpt>
      <trkpt lat="45.89506" lon="-1.28591">
        <ele>-3</ele>
        <time>2022-03-26T15:10:36Z</time>
      </trkpt>
      <trkpt lat="45.89501" lon="-1.2858">
        <ele>-3</ele>
        <time>2022-03-26T15:10:38Z</time>
      </trkpt>
      <trkpt lat="45.89499" lon="-1.28574">
        <ele>-3</ele>
        <time>2022-03-26T15:10:39Z</time>
      </trkpt>
      <trkpt lat="45.89484" lon="-1.28535">
        <ele>-2.8</ele>
        <time>2022-03-26T15:10:45Z</time>
      </trkpt>
      <trkpt lat="45.89466" lon="-1.28489">
        <ele>-2.8</ele>
        <time>2022-03-26T15:10:53Z</time>
      </trkpt>
      <trkpt lat="45.89452" lon="-1.28452">
        <ele>-2.6</ele>
        <time>2022-03-26T15:10:59Z</time>
      </trkpt>
      <trkpt lat="45.89446" lon="-1.28433">
        <ele>-2.6</ele>
        <time>2022-03-26T15:11:02Z</time>
      </trkpt>
      <trkpt lat="45.89443" lon="-1.28421">
        <ele>-2.6</ele>
        <time>2022-03-26T15:11:04Z</time>
      </trkpt>
      <trkpt lat="45.89441" lon="-1.28411">
        <ele>-2.8</ele>
        <time>2022-03-26T15:11:06Z</time>
      </trkpt>
      <trkpt lat="45.89441" lon="-1.28395">
        <ele>-3</ele>
        <time>2022-03-26T15:11:08Z</time>
      </trkpt>
      <trkpt lat="45.8943" lon="-1.28366">
        <ele>-3.2</ele>
        <time>2022-03-26T15:11:13Z</time>
      </trkpt>
      <trkpt lat="45.89432" lon="-1.2835">
        <ele>-3.4</ele>
        <time>2022-03-26T15:11:16Z</time>
      </trkpt>
      <trkpt lat="45.89431" lon="-1.28343">
        <ele>-3.4</ele>
        <time>2022-03-26T15:11:17Z</time>
      </trkpt>
      <trkpt lat="45.89422" lon="-1.28301">
        <ele>-3.2</ele>
        <time>2022-03-26T15:11:23Z</time>
      </trkpt>
      <trkpt lat="45.89421" lon="-1.28295">
        <ele>-3.2</ele>
        <time>2022-03-26T15:11:24Z</time>
      </trkpt>
      <trkpt lat="45.89416" lon="-1.28291">
        <ele>-3</ele>
        <time>2022-03-26T15:11:25Z</time>
      </trkpt>
      <trkpt lat="45.89413" lon="-1.28278">
        <ele>-3.4</ele>
        <time>2022-03-26T15:11:27Z</time>
      </trkpt>
      <trkpt lat="45.89411" lon="-1.28265">
        <ele>-3</ele>
        <time>2022-03-26T15:11:29Z</time>
      </trkpt>
      <trkpt lat="45.89407" lon="-1.28235">
        <ele>-3.2</ele>
        <time>2022-03-26T15:11:34Z</time>
      </trkpt>
      <trkpt lat="45.89404" lon="-1.28216">
        <ele>-2.6</ele>
        <time>2022-03-26T15:11:37Z</time>
      </trkpt>
      <trkpt lat="45.89402" lon="-1.28202">
        <ele>-3</ele>
        <time>2022-03-26T15:11:39Z</time>
      </trkpt>
      <trkpt lat="45.89397" lon="-1.28172">
        <ele>-3</ele>
        <time>2022-03-26T15:11:44Z</time>
      </trkpt>
      <trkpt lat="45.89395" lon="-1.28154">
        <ele>-3</ele>
        <time>2022-03-26T15:11:47Z</time>
      </trkpt>
      <trkpt lat="45.89394" lon="-1.28148">
        <ele>-3</ele>
        <time>2022-03-26T15:11:48Z</time>
      </trkpt>
      <trkpt lat="45.8939" lon="-1.28109">
        <ele>-3</ele>
        <time>2022-03-26T15:11:55Z</time>
      </trkpt>
      <trkpt lat="45.89385" lon="-1.281">
        <ele>-3</ele>
        <time>2022-03-26T15:11:57Z</time>
      </trkpt>
      <trkpt lat="45.89382" lon="-1.281">
        <ele>-3</ele>
        <time>2022-03-26T15:11:58Z</time>
      </trkpt>
      <trkpt lat="45.89367" lon="-1.28104">
        <ele>-2.8</ele>
        <time>2022-03-26T15:12:03Z</time>
      </trkpt>
      <trkpt lat="45.89361" lon="-1.28105">
        <ele>-2.6</ele>
        <time>2022-03-26T15:12:07Z</time>
      </trkpt>
      <trkpt lat="45.89361" lon="-1.28105">
        <ele>-2.6</ele>
        <time>2022-03-26T15:12:14Z</time>
      </trkpt>
      <trkpt lat="45.89361" lon="-1.28105">
        <ele>-2.2</ele>
        <time>2022-03-26T15:12:40Z</time>
      </trkpt>
      <trkpt lat="45.89361" lon="-1.28105">
        <ele>-2</ele>
        <time>2022-03-26T15:13:04Z</time>
      </trkpt>
      <trkpt lat="45.89361" lon="-1.28105">
        <ele>-1.8</ele>
        <time>2022-03-26T15:13:32Z</time>
      </trkpt>
      <trkpt lat="45.89361" lon="-1.28105">
        <ele>-1.6</ele>
        <time>2022-03-26T15:13:54Z</time>
      </trkpt>
      <trkpt lat="45.89361" lon="-1.28105">
        <ele>-1.6</ele>
        <time>2022-03-26T15:14:15Z</time>
      </trkpt>
      <trkpt lat="45.89361" lon="-1.28105">
        <ele>-1.6</ele>
        <time>2022-03-26T15:14:36Z</time>
      </trkpt>
      <trkpt lat="45.89361" lon="-1.28105">
        <ele>-1.4</ele>
        <time>2022-03-26T15:15:05Z</time>
      </trkpt>
      <trkpt lat="45.89361" lon="-1.28105">
        <ele>-1.4</ele>
        <time>2022-03-26T15:15:29Z</time>
      </trkpt>
      <trkpt lat="45.89361" lon="-1.28105">
        <ele>-1.4</ele>
        <time>2022-03-26T15:15:55Z</time>
      </trkpt>
      <trkpt lat="45.89361" lon="-1.28105">
        <ele>-1.2</ele>
        <time>2022-03-26T15:16:18Z</time>
      </trkpt>
      <trkpt lat="45.89361" lon="-1.28105">
        <ele>-1.2</ele>
        <time>2022-03-26T15:16:38Z</time>
      </trkpt>
      <trkpt lat="45.89361" lon="-1.28105">
        <ele>-1</ele>
        <time>2022-03-26T15:17:03Z</time>
      </trkpt>
      <trkpt lat="45.89361" lon="-1.28105">
        <ele>-1</ele>
        <time>2022-03-26T15:17:25Z</time>
      </trkpt>
      <trkpt lat="45.8936" lon="-1.28105">
        <ele>-1</ele>
        <time>2022-03-26T15:17:31Z</time>
      </trkpt>
      <trkpt lat="45.8936" lon="-1.28105">
        <ele>-1</ele>
        <time>2022-03-26T15:17:39Z</time>
      </trkpt>
      <trkpt lat="45.8936" lon="-1.28105">
        <ele>-0.80000000000001</ele>
        <time>2022-03-26T15:17:58Z</time>
      </trkpt>
      <trkpt lat="45.8936" lon="-1.28105">
        <ele>-0.80000000000001</ele>
        <time>2022-03-26T15:18:20Z</time>
      </trkpt>
      <trkpt lat="45.8936" lon="-1.28105">
        <ele>-0.80000000000001</ele>
        <time>2022-03-26T15:18:41Z</time>
      </trkpt>
      <trkpt lat="45.8936" lon="-1.28105">
        <ele>-0.80000000000001</ele>
        <time>2022-03-26T15:19:06Z</time>
      </trkpt>
      <trkpt lat="45.8936" lon="-1.28105">
        <ele>-0.80000000000001</ele>
        <time>2022-03-26T15:19:27Z</time>
      </trkpt>
      <trkpt lat="45.8936" lon="-1.28105">
        <ele>-0.80000000000001</ele>
        <time>2022-03-26T15:19:50Z</time>
      </trkpt>
      <trkpt lat="45.8936" lon="-1.28105">
        <ele>-0.60000000000002</ele>
        <time>2022-03-26T15:20:15Z</time>
      </trkpt>
      <trkpt lat="45.8936" lon="-1.28105">
        <ele>-0.60000000000002</ele>
        <time>2022-03-26T15:20:41Z</time>
      </trkpt>
      <trkpt lat="45.8936" lon="-1.28105">
        <ele>-0.60000000000002</ele>
        <time>2022-03-26T15:21:05Z</time>
      </trkpt>
      <trkpt lat="45.8936" lon="-1.28105">
        <ele>-0.60000000000002</ele>
        <time>2022-03-26T15:21:26Z</time>
      </trkpt>
      <trkpt lat="45.8936" lon="-1.28105">
        <ele>-0.39999999999998</ele>
        <time>2022-03-26T15:21:49Z</time>
      </trkpt>
      <trkpt lat="45.8936" lon="-1.28105">
        <ele>-0.39999999999998</ele>
        <time>2022-03-26T15:22:10Z</time>
      </trkpt>
      <trkpt lat="45.8936" lon="-1.28105">
        <ele>-0.19999999999999</ele>
        <time>2022-03-26T15:22:37Z</time>
      </trkpt>
      <trkpt lat="45.8936" lon="-1.28105">
        <ele>-0.19999999999999</ele>
        <time>2022-03-26T15:23:00Z</time>
      </trkpt>
      <trkpt lat="45.8936" lon="-1.28105">
        <ele>-0.19999999999999</ele>
        <time>2022-03-26T15:23:25Z</time>
      </trkpt>
      <trkpt lat="45.8936" lon="-1.28105">
        <ele>-0.19999999999999</ele>
        <time>2022-03-26T15:23:48Z</time>
      </trkpt>
      <trkpt lat="45.8936" lon="-1.28105">
        <ele>0.19999999999999</ele>
        <time>2022-03-26T15:24:12Z</time>
      </trkpt>
      <trkpt lat="45.8936" lon="-1.28105">
        <ele>0.39999999999998</ele>
        <time>2022-03-26T15:24:39Z</time>
      </trkpt>
      <trkpt lat="45.8936" lon="-1.28105">
        <ele>0.39999999999998</ele>
        <time>2022-03-26T15:25:04Z</time>
      </trkpt>
      <trkpt lat="45.8936" lon="-1.28105">
        <ele>0.39999999999998</ele>
        <time>2022-03-26T15:25:29Z</time>
      </trkpt>
      <trkpt lat="45.8936" lon="-1.28105">
        <ele>0.39999999999998</ele>
        <time>2022-03-26T15:25:48Z</time>
      </trkpt>
      <trkpt lat="45.8936" lon="-1.28105">
        <ele>0.39999999999998</ele>
        <time>2022-03-26T15:26:08Z</time>
      </trkpt>
      <trkpt lat="45.8936" lon="-1.28105">
        <ele>0.60000000000002</ele>
        <time>2022-03-26T15:26:31Z</time>
      </trkpt>
      <trkpt lat="45.8936" lon="-1.28105">
        <ele>0.80000000000001</ele>
        <time>2022-03-26T15:26:47Z</time>
      </trkpt>
      <trkpt lat="45.8936" lon="-1.28105">
        <ele>0.80000000000001</ele>
        <time>2022-03-26T15:27:09Z</time>
      </trkpt>
      <trkpt lat="45.8936" lon="-1.28105">
        <ele>0.80000000000001</ele>
        <time>2022-03-26T15:27:31Z</time>
      </trkpt>
      <trkpt lat="45.8936" lon="-1.28105">
        <ele>1</ele>
        <time>2022-03-26T15:27:56Z</time>
      </trkpt>
      <trkpt lat="45.8936" lon="-1.28105">
        <ele>1.2</ele>
        <time>2022-03-26T15:28:20Z</time>
      </trkpt>
      <trkpt lat="45.8936" lon="-1.28105">
        <ele>1.2</ele>
        <time>2022-03-26T15:28:40Z</time>
      </trkpt>
      <trkpt lat="45.8936" lon="-1.28105">
        <ele>1.4</ele>
        <time>2022-03-26T15:29:03Z</time>
      </trkpt>
      <trkpt lat="45.8936" lon="-1.28105">
        <ele>1.4</ele>
        <time>2022-03-26T15:29:24Z</time>
      </trkpt>
      <trkpt lat="45.8936" lon="-1.28105">
        <ele>1.6</ele>
        <time>2022-03-26T15:29:46Z</time>
      </trkpt>
      <trkpt lat="45.8936" lon="-1.28105">
        <ele>1.6</ele>
        <time>2022-03-26T15:30:08Z</time>
      </trkpt>
      <trkpt lat="45.8936" lon="-1.28105">
        <ele>1.8</ele>
        <time>2022-03-26T15:30:29Z</time>
      </trkpt>
      <trkpt lat="45.8936" lon="-1.28105">
        <ele>2</ele>
        <time>2022-03-26T15:30:51Z</time>
      </trkpt>
      <trkpt lat="45.8936" lon="-1.28105">
        <ele>2</ele>
        <time>2022-03-26T15:31:14Z</time>
      </trkpt>
      <trkpt lat="45.8936" lon="-1.28105">
        <ele>2.2</ele>
        <time>2022-03-26T15:31:33Z</time>
      </trkpt>
      <trkpt lat="45.8936" lon="-1.28105">
        <ele>2.2</ele>
        <time>2022-03-26T15:31:53Z</time>
      </trkpt>
      <trkpt lat="45.8936" lon="-1.28105">
        <ele>2.4</ele>
        <time>2022-03-26T15:32:21Z</time>
      </trkpt>
      <trkpt lat="45.8936" lon="-1.28105">
        <ele>2.4</ele>
        <time>2022-03-26T15:32:47Z</time>
      </trkpt>
      <trkpt lat="45.8936" lon="-1.28105">
        <ele>2.4</ele>
        <time>2022-03-26T15:33:08Z</time>
      </trkpt>
      <trkpt lat="45.8936" lon="-1.28105">
        <ele>2.4</ele>
        <time>2022-03-26T15:33:27Z</time>
      </trkpt>
      <trkpt lat="45.8936" lon="-1.28105">
        <ele>2.2</ele>
        <time>2022-03-26T15:33:51Z</time>
      </trkpt>
      <trkpt lat="45.8936" lon="-1.28105">
        <ele>2.2</ele>
        <time>2022-03-26T15:34:17Z</time>
      </trkpt>
      <trkpt lat="45.8936" lon="-1.28105">
        <ele>2.2</ele>
        <time>2022-03-26T15:34:41Z</time>
      </trkpt>
      <trkpt lat="45.8936" lon="-1.28105">
        <ele>2.2</ele>
        <time>2022-03-26T15:35:06Z</time>
      </trkpt>
      <trkpt lat="45.8936" lon="-1.28105">
        <ele>2.2</ele>
        <time>2022-03-26T15:35:24Z</time>
      </trkpt>
      <trkpt lat="45.8936" lon="-1.28105">
        <ele>2</ele>
        <time>2022-03-26T15:35:48Z</time>
      </trkpt>
      <trkpt lat="45.8936" lon="-1.28105">
        <ele>2</ele>
        <time>2022-03-26T15:36:08Z</time>
      </trkpt>
      <trkpt lat="45.8936" lon="-1.28105">
        <ele>2</ele>
        <time>2022-03-26T15:36:31Z</time>
      </trkpt>
      <trkpt lat="45.8936" lon="-1.28105">
        <ele>2</ele>
        <time>2022-03-26T15:36:55Z</time>
      </trkpt>
      <trkpt lat="45.8936" lon="-1.28105">
        <ele>1.8</ele>
        <time>2022-03-26T15:37:14Z</time>
      </trkpt>
      <trkpt lat="45.8936" lon="-1.28105">
        <ele>1.8</ele>
        <time>2022-03-26T15:37:40Z</time>
      </trkpt>
      <trkpt lat="45.8936" lon="-1.28105">
        <ele>1.8</ele>
        <time>2022-03-26T15:38:01Z</time>
      </trkpt>
      <trkpt lat="45.8936" lon="-1.28105">
        <ele>2</ele>
        <time>2022-03-26T15:38:24Z</time>
      </trkpt>
      <trkpt lat="45.8936" lon="-1.28105">
        <ele>2</ele>
        <time>2022-03-26T15:38:56Z</time>
      </trkpt>
      <trkpt lat="45.8936" lon="-1.28105">
        <ele>2</ele>
        <time>2022-03-26T15:39:07Z</time>
      </trkpt>
      <trkpt lat="45.8936" lon="-1.28105">
        <ele>2</ele>
        <time>2022-03-26T15:39:27Z</time>
      </trkpt>
      <trkpt lat="45.8936" lon="-1.28105">
        <ele>2</ele>
        <time>2022-03-26T15:39:50Z</time>
      </trkpt>
      <trkpt lat="45.8936" lon="-1.28105">
        <ele>2.2</ele>
        <time>2022-03-26T15:40:11Z</time>
      </trkpt>
      <trkpt lat="45.8936" lon="-1.28105">
        <ele>2.2</ele>
        <time>2022-03-26T15:40:29Z</time>
      </trkpt>
      <trkpt lat="45.8936" lon="-1.28105">
        <ele>2.2</ele>
        <time>2022-03-26T15:40:45Z</time>
      </trkpt>
      <trkpt lat="45.8936" lon="-1.28105">
        <ele>2.4</ele>
        <time>2022-03-26T15:40:46Z</time>
      </trkpt>
      <trkpt lat="45.89356" lon="-1.28106">
        <ele>2.4</ele>
        <time>2022-03-26T15:40:50Z</time>
      </trkpt>
      <trkpt lat="45.89356" lon="-1.28106">
        <ele>2.4</ele>
        <time>2022-03-26T15:41:00Z</time>
      </trkpt>
      <trkpt lat="45.89355" lon="-1.28107">
        <ele>2.4</ele>
        <time>2022-03-26T15:41:07Z</time>
      </trkpt>
      <trkpt lat="45.89354" lon="-1.28107">
        <ele>2.2</ele>
        <time>2022-03-26T15:41:09Z</time>
      </trkpt>
      <trkpt lat="45.89349" lon="-1.28108">
        <ele>2</ele>
        <time>2022-03-26T15:41:13Z</time>
      </trkpt>
      <trkpt lat="45.89344" lon="-1.28109">
        <ele>2</ele>
        <time>2022-03-26T15:41:16Z</time>
      </trkpt>
      <trkpt lat="45.89336" lon="-1.28111">
        <ele>1.8</ele>
        <time>2022-03-26T15:41:20Z</time>
      </trkpt>
      <trkpt lat="45.89312" lon="-1.28116">
        <ele>1.6</ele>
        <time>2022-03-26T15:41:26Z</time>
      </trkpt>
      <trkpt lat="45.89294" lon="-1.2812">
        <ele>1.4</ele>
        <time>2022-03-26T15:41:31Z</time>
      </trkpt>
      <trkpt lat="45.89279" lon="-1.28124">
        <ele>1.2</ele>
        <time>2022-03-26T15:41:35Z</time>
      </trkpt>
      <trkpt lat="45.89275" lon="-1.28125">
        <ele>1.2</ele>
        <time>2022-03-26T15:41:36Z</time>
      </trkpt>
      <trkpt lat="45.89252" lon="-1.2813">
        <ele>1</ele>
        <time>2022-03-26T15:41:42Z</time>
      </trkpt>
      <trkpt lat="45.89245" lon="-1.28133">
        <ele>0.60000000000002</ele>
        <time>2022-03-26T15:41:45Z</time>
      </trkpt>
      <trkpt lat="45.89236" lon="-1.28136">
        <ele>0.19999999999999</ele>
        <time>2022-03-26T15:41:48Z</time>
      </trkpt>
      <trkpt lat="45.89232" lon="-1.28138">
        <ele>0.19999999999999</ele>
        <time>2022-03-26T15:41:49Z</time>
      </trkpt>
      <trkpt lat="45.89228" lon="-1.28139">
        <ele>-0.19999999999999</ele>
        <time>2022-03-26T15:41:50Z</time>
      </trkpt>
      <trkpt lat="45.89223" lon="-1.28141">
        <ele>-0.60000000000002</ele>
        <time>2022-03-26T15:41:51Z</time>
      </trkpt>
      <trkpt lat="45.89217" lon="-1.28143">
        <ele>-0.80000000000001</ele>
        <time>2022-03-26T15:41:52Z</time>
      </trkpt>
      <trkpt lat="45.89213" lon="-1.28145">
        <ele>-1</ele>
        <time>2022-03-26T15:41:53Z</time>
      </trkpt>
      <trkpt lat="45.89205" lon="-1.28148">
        <ele>-2.2</ele>
        <time>2022-03-26T15:41:57Z</time>
      </trkpt>
      <trkpt lat="45.89203" lon="-1.28149">
        <ele>-3</ele>
        <time>2022-03-26T15:42:02Z</time>
      </trkpt>
      <trkpt lat="45.89202" lon="-1.2815">
        <ele>-4</ele>
        <time>2022-03-26T15:42:05Z</time>
      </trkpt>
      <trkpt lat="45.892" lon="-1.28151">
        <ele>-4.4</ele>
        <time>2022-03-26T15:42:07Z</time>
      </trkpt>
      <trkpt lat="45.89195" lon="-1.28154">
        <ele>-6.2</ele>
        <time>2022-03-26T15:42:12Z</time>
      </trkpt>
      <trkpt lat="45.89195" lon="-1.28154">
        <ele>-7.6</ele>
        <time>2022-03-26T15:42:20Z</time>
      </trkpt>
      <trkpt lat="45.89195" lon="-1.28154">
        <ele>-11.2</ele>
        <time>2022-03-26T15:42:42Z</time>
      </trkpt>
      <trkpt lat="45.89195" lon="-1.28154">
        <ele>-14</ele>
        <time>2022-03-26T15:43:03Z</time>
      </trkpt>
      <trkpt lat="45.89195" lon="-1.28154">
        <ele>-15.4</ele>
        <time>2022-03-26T15:43:18Z</time>
      </trkpt>
      <trkpt lat="45.89195" lon="-1.28154">
        <ele>-16.6</ele>
        <time>2022-03-26T15:43:23Z</time>
      </trkpt>
      <trkpt lat="45.89194" lon="-1.28154">
        <ele>-16.8</ele>
        <time>2022-03-26T15:43:25Z</time>
      </trkpt>
      <trkpt lat="45.89197" lon="-1.28152">
        <ele>-17.2</ele>
        <time>2022-03-26T15:43:28Z</time>
      </trkpt>
      <trkpt lat="45.89201" lon="-1.2815">
        <ele>-17.4</ele>
        <time>2022-03-26T15:43:34Z</time>
      </trkpt>
      <trkpt lat="45.89198" lon="-1.28146">
        <ele>-17.6</ele>
        <time>2022-03-26T15:43:37Z</time>
      </trkpt>
      <trkpt lat="45.89197" lon="-1.28144">
        <ele>-17.6</ele>
        <time>2022-03-26T15:43:39Z</time>
      </trkpt>
      <trkpt lat="45.89193" lon="-1.2814">
        <ele>-18</ele>
        <time>2022-03-26T15:43:42Z</time>
      </trkpt>
      <trkpt lat="45.89192" lon="-1.28138">
        <ele>-18.4</ele>
        <time>2022-03-26T15:43:43Z</time>
      </trkpt>
      <trkpt lat="45.8919" lon="-1.28133">
        <ele>-18.8</ele>
        <time>2022-03-26T15:43:45Z</time>
      </trkpt>
      <trkpt lat="45.89187" lon="-1.28128">
        <ele>-19.2</ele>
        <time>2022-03-26T15:43:47Z</time>
      </trkpt>
      <trkpt lat="45.89179" lon="-1.28121">
        <ele>-20.2</ele>
        <time>2022-03-26T15:43:52Z</time>
      </trkpt>
      <trkpt lat="45.89173" lon="-1.28112">
        <ele>-21.4</ele>
        <time>2022-03-26T15:43:56Z</time>
      </trkpt>
      <trkpt lat="45.8917" lon="-1.28106">
        <ele>-22.4</ele>
        <time>2022-03-26T15:43:59Z</time>
      </trkpt>
      <trkpt lat="45.89168" lon="-1.28104">
        <ele>-22.8</ele>
        <time>2022-03-26T15:44:00Z</time>
      </trkpt>
      <trkpt lat="45.89163" lon="-1.28098">
        <ele>-23.6</ele>
        <time>2022-03-26T15:44:02Z</time>
      </trkpt>
      <trkpt lat="45.89161" lon="-1.28093">
        <ele>-24.4</ele>
        <time>2022-03-26T15:44:04Z</time>
      </trkpt>
      <trkpt lat="45.89142" lon="-1.28101">
        <ele>-26.4</ele>
        <time>2022-03-26T15:44:08Z</time>
      </trkpt>
      <trkpt lat="45.89139" lon="-1.28096">
        <ele>-27.8</ele>
        <time>2022-03-26T15:44:12Z</time>
      </trkpt>
      <trkpt lat="45.89137" lon="-1.28093">
        <ele>-27.8</ele>
        <time>2022-03-26T15:44:13Z</time>
      </trkpt>
      <trkpt lat="45.89133" lon="-1.28088">
        <ele>-28.4</ele>
        <time>2022-03-26T15:44:15Z</time>
      </trkpt>
      <trkpt lat="45.89132" lon="-1.28088">
        <ele>-28.8</ele>
        <time>2022-03-26T15:44:17Z</time>
      </trkpt>
      <trkpt lat="45.89133" lon="-1.28088">
        <ele>-29.2</ele>
        <time>2022-03-26T15:44:19Z</time>
      </trkpt>
      <trkpt lat="45.89133" lon="-1.28088">
        <ele>-30.2</ele>
        <time>2022-03-26T15:44:23Z</time>
      </trkpt>
      <trkpt lat="45.89129" lon="-1.28011">
        <ele>-31.8</ele>
        <time>2022-03-26T15:44:28Z</time>
      </trkpt>
      <trkpt lat="45.89129" lon="-1.28008">
        <ele>-32.2</ele>
        <time>2022-03-26T15:44:29Z</time>
      </trkpt>
      <trkpt lat="45.89125" lon="-1.28001">
        <ele>-33.4</ele>
        <time>2022-03-26T15:44:31Z</time>
      </trkpt>
      <trkpt lat="45.89116" lon="-1.27991">
        <ele>-36</ele>
        <time>2022-03-26T15:44:35Z</time>
      </trkpt>
      <trkpt lat="45.89115" lon="-1.2799">
        <ele>-36.6</ele>
        <time>2022-03-26T15:44:36Z</time>
      </trkpt>
      <trkpt lat="45.89109" lon="-1.27985">
        <ele>-39.2</ele>
        <time>2022-03-26T15:44:40Z</time>
      </trkpt>
      <trkpt lat="45.89109" lon="-1.27985">
        <ele>-39.4</ele>
        <time>2022-03-26T15:44:41Z</time>
      </trkpt>
      <trkpt lat="45.89102" lon="-1.27991">
        <ele>-40.6</ele>
        <time>2022-03-26T15:44:44Z</time>
      </trkpt>
      <trkpt lat="45.8909" lon="-1.27994">
        <ele>-42</ele>
        <time>2022-03-26T15:44:49Z</time>
      </trkpt>
      <trkpt lat="45.89078" lon="-1.27998">
        <ele>-42.8</ele>
        <time>2022-03-26T15:44:54Z</time>
      </trkpt>
      <trkpt lat="45.89076" lon="-1.27999">
        <ele>-42.4</ele>
        <time>2022-03-26T15:44:56Z</time>
      </trkpt>
      <trkpt lat="45.89072" lon="-1.27995">
        <ele>-41.8</ele>
        <time>2022-03-26T15:44:58Z</time>
      </trkpt>
      <trkpt lat="45.89066" lon="-1.27988">
        <ele>-41.4</ele>
        <time>2022-03-26T15:45:02Z</time>
      </trkpt>
      <trkpt lat="45.89064" lon="-1.27986">
        <ele>-41.6</ele>
        <time>2022-03-26T15:45:03Z</time>
      </trkpt>
      <trkpt lat="45.89061" lon="-1.27982">
        <ele>-42</ele>
        <time>2022-03-26T15:45:06Z</time>
      </trkpt>
      <trkpt lat="45.89058" lon="-1.27981">
        <ele>-42.2</ele>
        <time>2022-03-26T15:45:07Z</time>
      </trkpt>
      <trkpt lat="45.89054" lon="-1.27975">
        <ele>-42.6</ele>
        <time>2022-03-26T15:45:10Z</time>
      </trkpt>
      <trkpt lat="45.89043" lon="-1.27971">
        <ele>-43</ele>
        <time>2022-03-26T15:45:14Z</time>
      </trkpt>
      <trkpt lat="45.89038" lon="-1.27969">
        <ele>-42.8</ele>
        <time>2022-03-26T15:45:16Z</time>
      </trkpt>
      <trkpt lat="45.89034" lon="-1.27966">
        <ele>-42.8</ele>
        <time>2022-03-26T15:45:18Z</time>
      </trkpt>
      <trkpt lat="45.89031" lon="-1.27963">
        <ele>-42.6</ele>
        <time>2022-03-26T15:45:19Z</time>
      </trkpt>
      <trkpt lat="45.89024" lon="-1.2795">
        <ele>-42.6</ele>
        <time>2022-03-26T15:45:21Z</time>
      </trkpt>
      <trkpt lat="45.89006" lon="-1.2792">
        <ele>-43.2</ele>
        <time>2022-03-26T15:45:26Z</time>
      </trkpt>
      <trkpt lat="45.88998" lon="-1.27908">
        <ele>-43.4</ele>
        <time>2022-03-26T15:45:28Z</time>
      </trkpt>
      <trkpt lat="45.8899" lon="-1.27903">
        <ele>-43.6</ele>
        <time>2022-03-26T15:45:30Z</time>
      </trkpt>
      <trkpt lat="45.88984" lon="-1.279">
        <ele>-44</ele>
        <time>2022-03-26T15:45:32Z</time>
      </trkpt>
      <trkpt lat="45.88977" lon="-1.27891">
        <ele>-43.4</ele>
        <time>2022-03-26T15:45:34Z</time>
      </trkpt>
      <trkpt lat="45.88972" lon="-1.27883">
        <ele>-43.2</ele>
        <time>2022-03-26T15:45:38Z</time>
      </trkpt>
      <trkpt lat="45.88971" lon="-1.2788">
        <ele>-43.4</ele>
        <time>2022-03-26T15:45:39Z</time>
      </trkpt>
      <trkpt lat="45.8897" lon="-1.27874">
        <ele>-42.4</ele>
        <time>2022-03-26T15:45:40Z</time>
      </trkpt>
      <trkpt lat="45.88973" lon="-1.27867">
        <ele>-42.6</ele>
        <time>2022-03-26T15:45:42Z</time>
      </trkpt>
      <trkpt lat="45.88972" lon="-1.27864">
        <ele>-42.6</ele>
        <time>2022-03-26T15:45:43Z</time>
      </trkpt>
      <trkpt lat="45.88972" lon="-1.27858">
        <ele>-42.4</ele>
        <time>2022-03-26T15:45:45Z</time>
      </trkpt>
      <trkpt lat="45.88968" lon="-1.27854">
        <ele>-42.4</ele>
        <time>2022-03-26T15:45:47Z</time>
      </trkpt>
      <trkpt lat="45.88963" lon="-1.27847">
        <ele>-42.6</ele>
        <time>2022-03-26T15:45:49Z</time>
      </trkpt>
      <trkpt lat="45.88956" lon="-1.27828">
        <ele>-43.6</ele>
        <time>2022-03-26T15:45:54Z</time>
      </trkpt>
      <trkpt lat="45.88946" lon="-1.27812">
        <ele>-44.4</ele>
        <time>2022-03-26T15:45:58Z</time>
      </trkpt>
      <trkpt lat="45.88934" lon="-1.27801">
        <ele>-45.8</ele>
        <time>2022-03-26T15:46:02Z</time>
      </trkpt>
      <trkpt lat="45.88921" lon="-1.27791">
        <ele>-47.8</ele>
        <time>2022-03-26T15:46:06Z</time>
      </trkpt>
      <trkpt lat="45.88902" lon="-1.27787">
        <ele>-50.6</ele>
        <time>2022-03-26T15:46:11Z</time>
      </trkpt>
      <trkpt lat="45.88886" lon="-1.2779">
        <ele>-52.4</ele>
        <time>2022-03-26T15:46:14Z</time>
      </trkpt>
      <trkpt lat="45.88878" lon="-1.27791">
        <ele>-53.8</ele>
        <time>2022-03-26T15:46:16Z</time>
      </trkpt>
      <trkpt lat="45.88864" lon="-1.2779">
        <ele>-55.8</ele>
        <time>2022-03-26T15:46:19Z</time>
      </trkpt>
      <trkpt lat="45.8886" lon="-1.27788">
        <ele>-56.6</ele>
        <time>2022-03-26T15:46:20Z</time>
      </trkpt>
      <trkpt lat="45.88854" lon="-1.27777">
        <ele>-58.8</ele>
        <time>2022-03-26T15:46:23Z</time>
      </trkpt>
      <trkpt lat="45.88851" lon="-1.27774">
        <ele>-59.4</ele>
        <time>2022-03-26T15:46:24Z</time>
      </trkpt>
      <trkpt lat="45.88845" lon="-1.27766">
        <ele>-60.8</ele>
        <time>2022-03-26T15:46:26Z</time>
      </trkpt>
      <trkpt lat="45.8884" lon="-1.2776">
        <ele>-62.2</ele>
        <time>2022-03-26T15:46:28Z</time>
      </trkpt>
      <trkpt lat="45.88838" lon="-1.27756">
        <ele>-62.8</ele>
        <time>2022-03-26T15:46:29Z</time>
      </trkpt>
      <trkpt lat="45.88835" lon="-1.27742">
        <ele>-64</ele>
        <time>2022-03-26T15:46:31Z</time>
      </trkpt>
      <trkpt lat="45.88835" lon="-1.27735">
        <ele>-64.8</ele>
        <time>2022-03-26T15:46:32Z</time>
      </trkpt>
      <trkpt lat="45.88834" lon="-1.27722">
        <ele>-66.2</ele>
        <time>2022-03-26T15:46:34Z</time>
      </trkpt>
      <trkpt lat="45.88831" lon="-1.27707">
        <ele>-67</ele>
        <time>2022-03-26T15:46:36Z</time>
      </trkpt>
      <trkpt lat="45.88824" lon="-1.27686">
        <ele>-68.8</ele>
        <time>2022-03-26T15:46:39Z</time>
      </trkpt>
      <trkpt lat="45.88818" lon="-1.27674">
        <ele>-70</ele>
        <time>2022-03-26T15:46:41Z</time>
      </trkpt>
      <trkpt lat="45.88814" lon="-1.27669">
        <ele>-70.6</ele>
        <time>2022-03-26T15:46:42Z</time>
      </trkpt>
      <trkpt lat="45.88805" lon="-1.27661">
        <ele>-72</ele>
        <time>2022-03-26T15:46:44Z</time>
      </trkpt>
      <trkpt lat="45.88801" lon="-1.27657">
        <ele>-72.6</ele>
        <time>2022-03-26T15:46:45Z</time>
      </trkpt>
      <trkpt lat="45.88797" lon="-1.27652">
        <ele>-73.2</ele>
        <time>2022-03-26T15:46:46Z</time>
      </trkpt>
      <trkpt lat="45.88795" lon="-1.27638">
        <ele>-74.4</ele>
        <time>2022-03-26T15:46:48Z</time>
      </trkpt>
      <trkpt lat="45.88792" lon="-1.27622">
        <ele>-75.2</ele>
        <time>2022-03-26T15:46:50Z</time>
      </trkpt>
      <trkpt lat="45.8879" lon="-1.27609">
        <ele>-76.2</ele>
        <time>2022-03-26T15:46:52Z</time>
      </trkpt>
      <trkpt lat="45.88785" lon="-1.27596">
        <ele>-77.2</ele>
        <time>2022-03-26T15:46:55Z</time>
      </trkpt>
      <trkpt lat="45.88783" lon="-1.27595">
        <ele>-77.2</ele>
        <time>2022-03-26T15:46:56Z</time>
      </trkpt>
      <trkpt lat="45.88766" lon="-1.27588">
        <ele>-76.8</ele>
        <time>2022-03-26T15:47:01Z</time>
      </trkpt>
      <trkpt lat="45.88762" lon="-1.27589">
        <ele>-76.4</ele>
        <time>2022-03-26T15:47:02Z</time>
      </trkpt>
      <trkpt lat="45.88754" lon="-1.2759">
        <ele>-76.6</ele>
        <time>2022-03-26T15:47:04Z</time>
      </trkpt>
      <trkpt lat="45.88738" lon="-1.27591">
        <ele>-78.6</ele>
        <time>2022-03-26T15:47:09Z</time>
      </trkpt>
      <trkpt lat="45.88735" lon="-1.27592">
        <ele>-77.6</ele>
        <time>2022-03-26T15:47:10Z</time>
      </trkpt>
      <trkpt lat="45.88714" lon="-1.27572">
        <ele>-72.4</ele>
        <time>2022-03-26T15:47:15Z</time>
      </trkpt>
      <trkpt lat="45.88707" lon="-1.27578">
        <ele>-74.2</ele>
        <time>2022-03-26T15:47:17Z</time>
      </trkpt>
      <trkpt lat="45.887" lon="-1.27583">
        <ele>-73.8</ele>
        <time>2022-03-26T15:47:19Z</time>
      </trkpt>
      <trkpt lat="45.88696" lon="-1.27585">
        <ele>-73.6</ele>
        <time>2022-03-26T15:47:20Z</time>
      </trkpt>
      <trkpt lat="45.88691" lon="-1.27589">
        <ele>-73</ele>
        <time>2022-03-26T15:47:22Z</time>
      </trkpt>
      <trkpt lat="45.88691" lon="-1.27589">
        <ele>-72.8</ele>
        <time>2022-03-26T15:47:24Z</time>
      </trkpt>
      <trkpt lat="45.88685" lon="-1.27598">
        <ele>-72.8</ele>
        <time>2022-03-26T15:47:26Z</time>
      </trkpt>
      <trkpt lat="45.88689" lon="-1.27587">
        <ele>-72.6</ele>
        <time>2022-03-26T15:47:29Z</time>
      </trkpt>
      <trkpt lat="45.88686" lon="-1.27583">
        <ele>-72.6</ele>
        <time>2022-03-26T15:47:30Z</time>
      </trkpt>
      <trkpt lat="45.88674" lon="-1.27569">
        <ele>-72</ele>
        <time>2022-03-26T15:47:34Z</time>
      </trkpt>
      <trkpt lat="45.88672" lon="-1.27566">
        <ele>-71.6</ele>
        <time>2022-03-26T15:47:35Z</time>
      </trkpt>
      <trkpt lat="45.88667" lon="-1.27559">
        <ele>-70.6</ele>
        <time>2022-03-26T15:47:37Z</time>
      </trkpt>
      <trkpt lat="45.88655" lon="-1.27545">
        <ele>-70</ele>
        <time>2022-03-26T15:47:40Z</time>
      </trkpt>
      <trkpt lat="45.88632" lon="-1.27516">
        <ele>-68.4</ele>
        <time>2022-03-26T15:47:46Z</time>
      </trkpt>
      <trkpt lat="45.88617" lon="-1.27497">
        <ele>-67.4</ele>
        <time>2022-03-26T15:47:51Z</time>
      </trkpt>
      <trkpt lat="45.88602" lon="-1.27479">
        <ele>-65.6</ele>
        <time>2022-03-26T15:47:56Z</time>
      </trkpt>
      <trkpt lat="45.88585" lon="-1.27457">
        <ele>-63.6</ele>
        <time>2022-03-26T15:48:01Z</time>
      </trkpt>
      <trkpt lat="45.8857" lon="-1.27438">
        <ele>-62</ele>
        <time>2022-03-26T15:48:05Z</time>
      </trkpt>
      <trkpt lat="45.88558" lon="-1.27424">
        <ele>-60.6</ele>
        <time>2022-03-26T15:48:08Z</time>
      </trkpt>
      <trkpt lat="45.8855" lon="-1.27414">
        <ele>-59.6</ele>
        <time>2022-03-26T15:48:10Z</time>
      </trkpt>
      <trkpt lat="45.88547" lon="-1.27411">
        <ele>-59.2</ele>
        <time>2022-03-26T15:48:11Z</time>
      </trkpt>
      <trkpt lat="45.88541" lon="-1.27403">
        <ele>-58.2</ele>
        <time>2022-03-26T15:48:13Z</time>
      </trkpt>
      <trkpt lat="45.88537" lon="-1.27397">
        <ele>-57.8</ele>
        <time>2022-03-26T15:48:14Z</time>
      </trkpt>
      <trkpt lat="45.88533" lon="-1.27392">
        <ele>-57.2</ele>
        <time>2022-03-26T15:48:15Z</time>
      </trkpt>
      <trkpt lat="45.88522" lon="-1.27379">
        <ele>-56</ele>
        <time>2022-03-26T15:48:18Z</time>
      </trkpt>
      <trkpt lat="45.88518" lon="-1.27374">
        <ele>-55.6</ele>
        <time>2022-03-26T15:48:19Z</time>
      </trkpt>
      <trkpt lat="45.88512" lon="-1.27366">
        <ele>-54.8</ele>
        <time>2022-03-26T15:48:21Z</time>
      </trkpt>
      <trkpt lat="45.88498" lon="-1.2735">
        <ele>-53.4</ele>
        <time>2022-03-26T15:48:25Z</time>
      </trkpt>
      <trkpt lat="45.88486" lon="-1.27335">
        <ele>-51.6</ele>
        <time>2022-03-26T15:48:29Z</time>
      </trkpt>
      <trkpt lat="45.88472" lon="-1.27317">
        <ele>-49.4</ele>
        <time>2022-03-26T15:48:34Z</time>
      </trkpt>
      <trkpt lat="45.88463" lon="-1.27298">
        <ele>-47.4</ele>
        <time>2022-03-26T15:48:39Z</time>
      </trkpt>
      <trkpt lat="45.88462" lon="-1.27289">
        <ele>-46.8</ele>
        <time>2022-03-26T15:48:41Z</time>
      </trkpt>
      <trkpt lat="45.8846" lon="-1.27282">
        <ele>-46.4</ele>
        <time>2022-03-26T15:48:42Z</time>
      </trkpt>
      <trkpt lat="45.88456" lon="-1.27261">
        <ele>-45.6</ele>
        <time>2022-03-26T15:48:46Z</time>
      </trkpt>
      <trkpt lat="45.8845" lon="-1.27234">
        <ele>-45</ele>
        <time>2022-03-26T15:48:51Z</time>
      </trkpt>
      <trkpt lat="45.88446" lon="-1.27214">
        <ele>-44.8</ele>
        <time>2022-03-26T15:48:54Z</time>
      </trkpt>
      <trkpt lat="45.88445" lon="-1.27207">
        <ele>-44.8</ele>
        <time>2022-03-26T15:48:55Z</time>
      </trkpt>
      <trkpt lat="45.88438" lon="-1.27176">
        <ele>-45.4</ele>
        <time>2022-03-26T15:49:00Z</time>
      </trkpt>
      <trkpt lat="45.88434" lon="-1.27153">
        <ele>-45.8</ele>
        <time>2022-03-26T15:49:04Z</time>
      </trkpt>
      <trkpt lat="45.8843" lon="-1.27133">
        <ele>-44</ele>
        <time>2022-03-26T15:49:08Z</time>
      </trkpt>
      <trkpt lat="45.88427" lon="-1.27119">
        <ele>-46.4</ele>
        <time>2022-03-26T15:49:11Z</time>
      </trkpt>
      <trkpt lat="45.88425" lon="-1.27111">
        <ele>-46.6</ele>
        <time>2022-03-26T15:49:12Z</time>
      </trkpt>
      <trkpt lat="45.88422" lon="-1.27098">
        <ele>-47.2</ele>
        <time>2022-03-26T15:49:14Z</time>
      </trkpt>
      <trkpt lat="45.8842" lon="-1.27086">
        <ele>-48.2</ele>
        <time>2022-03-26T15:49:16Z</time>
      </trkpt>
      <trkpt lat="45.88416" lon="-1.27063">
        <ele>-49</ele>
        <time>2022-03-26T15:49:20Z</time>
      </trkpt>
      <trkpt lat="45.88416" lon="-1.2704">
        <ele>-50.4</ele>
        <time>2022-03-26T15:49:24Z</time>
      </trkpt>
      <trkpt lat="45.88416" lon="-1.27007">
        <ele>-51.4</ele>
        <time>2022-03-26T15:49:29Z</time>
      </trkpt>
      <trkpt lat="45.88416" lon="-1.2699">
        <ele>-50.4</ele>
        <time>2022-03-26T15:49:32Z</time>
      </trkpt>
      <trkpt lat="45.88416" lon="-1.26985">
        <ele>-50</ele>
        <time>2022-03-26T15:49:33Z</time>
      </trkpt>
      <trkpt lat="45.88416" lon="-1.26977">
        <ele>-49.8</ele>
        <time>2022-03-26T15:49:34Z</time>
      </trkpt>
      <trkpt lat="45.88416" lon="-1.26955">
        <ele>-50</ele>
        <time>2022-03-26T15:49:37Z</time>
      </trkpt>
      <trkpt lat="45.88416" lon="-1.26927">
        <ele>-47.6</ele>
        <time>2022-03-26T15:49:42Z</time>
      </trkpt>
      <trkpt lat="45.88416" lon="-1.26913">
        <ele>-47</ele>
        <time>2022-03-26T15:49:44Z</time>
      </trkpt>
      <trkpt lat="45.88416" lon="-1.26897">
        <ele>-46.6</ele>
        <time>2022-03-26T15:49:46Z</time>
      </trkpt>
      <trkpt lat="45.88416" lon="-1.26864">
        <ele>-45.2</ele>
        <time>2022-03-26T15:49:51Z</time>
      </trkpt>
      <trkpt lat="45.88416" lon="-1.26848">
        <ele>-44.8</ele>
        <time>2022-03-26T15:49:53Z</time>
      </trkpt>
      <trkpt lat="45.88416" lon="-1.26841">
        <ele>-44.6</ele>
        <time>2022-03-26T15:49:54Z</time>
      </trkpt>
      <trkpt lat="45.88416" lon="-1.26833">
        <ele>-44.4</ele>
        <time>2022-03-26T15:49:55Z</time>
      </trkpt>
      <trkpt lat="45.88416" lon="-1.26818">
        <ele>-44</ele>
        <time>2022-03-26T15:49:57Z</time>
      </trkpt>
      <trkpt lat="45.88414" lon="-1.26807">
        <ele>-43.8</ele>
        <time>2022-03-26T15:49:58Z</time>
      </trkpt>
      <trkpt lat="45.88409" lon="-1.26785">
        <ele>-43</ele>
        <time>2022-03-26T15:50:02Z</time>
      </trkpt>
      <trkpt lat="45.88406" lon="-1.26773">
        <ele>-42.6</ele>
        <time>2022-03-26T15:50:04Z</time>
      </trkpt>
      <trkpt lat="45.88403" lon="-1.2676">
        <ele>-42.2</ele>
        <time>2022-03-26T15:50:06Z</time>
      </trkpt>
      <trkpt lat="45.88399" lon="-1.26747">
        <ele>-42</ele>
        <time>2022-03-26T15:50:08Z</time>
      </trkpt>
      <trkpt lat="45.88394" lon="-1.26725">
        <ele>-41.4</ele>
        <time>2022-03-26T15:50:11Z</time>
      </trkpt>
      <trkpt lat="45.88393" lon="-1.26719">
        <ele>-41.2</ele>
        <time>2022-03-26T15:50:12Z</time>
      </trkpt>
      <trkpt lat="45.8839" lon="-1.26707">
        <ele>-40.8</ele>
        <time>2022-03-26T15:50:14Z</time>
      </trkpt>
      <trkpt lat="45.88387" lon="-1.26695">
        <ele>-40.6</ele>
        <time>2022-03-26T15:50:16Z</time>
      </trkpt>
      <trkpt lat="45.88384" lon="-1.26683">
        <ele>-40.6</ele>
        <time>2022-03-26T15:50:18Z</time>
      </trkpt>
      <trkpt lat="45.88381" lon="-1.26671">
        <ele>-40.6</ele>
        <time>2022-03-26T15:50:20Z</time>
      </trkpt>
      <trkpt lat="45.88379" lon="-1.26647">
        <ele>-40.4</ele>
        <time>2022-03-26T15:50:24Z</time>
      </trkpt>
      <trkpt lat="45.88376" lon="-1.26619">
        <ele>-40.4</ele>
        <time>2022-03-26T15:50:29Z</time>
      </trkpt>
      <trkpt lat="45.88375" lon="-1.26605">
        <ele>-40.4</ele>
        <time>2022-03-26T15:50:32Z</time>
      </trkpt>
      <trkpt lat="45.88374" lon="-1.266">
        <ele>-40.4</ele>
        <time>2022-03-26T15:50:33Z</time>
      </trkpt>
      <trkpt lat="45.88373" lon="-1.26593">
        <ele>-40.2</ele>
        <time>2022-03-26T15:50:34Z</time>
      </trkpt>
      <trkpt lat="45.8837" lon="-1.26581">
        <ele>-40.2</ele>
        <time>2022-03-26T15:50:36Z</time>
      </trkpt>
      <trkpt lat="45.88369" lon="-1.26574">
        <ele>-40.2</ele>
        <time>2022-03-26T15:50:37Z</time>
      </trkpt>
      <trkpt lat="45.88366" lon="-1.26558">
        <ele>-40.4</ele>
        <time>2022-03-26T15:50:39Z</time>
      </trkpt>
      <trkpt lat="45.88363" lon="-1.26544">
        <ele>-40.4</ele>
        <time>2022-03-26T15:50:41Z</time>
      </trkpt>
      <trkpt lat="45.88362" lon="-1.26537">
        <ele>-40.2</ele>
        <time>2022-03-26T15:50:42Z</time>
      </trkpt>
      <trkpt lat="45.88358" lon="-1.26516">
        <ele>-40.2</ele>
        <time>2022-03-26T15:50:45Z</time>
      </trkpt>
      <trkpt lat="45.88357" lon="-1.2651">
        <ele>-40.2</ele>
        <time>2022-03-26T15:50:46Z</time>
      </trkpt>
      <trkpt lat="45.88353" lon="-1.26488">
        <ele>-40</ele>
        <time>2022-03-26T15:50:49Z</time>
      </trkpt>
      <trkpt lat="45.8835" lon="-1.26473">
        <ele>-40</ele>
        <time>2022-03-26T15:50:51Z</time>
      </trkpt>
      <trkpt lat="45.88346" lon="-1.26451">
        <ele>-40</ele>
        <time>2022-03-26T15:50:54Z</time>
      </trkpt>
      <trkpt lat="45.88342" lon="-1.2643">
        <ele>-40</ele>
        <time>2022-03-26T15:50:57Z</time>
      </trkpt>
      <trkpt lat="45.88341" lon="-1.26424">
        <ele>-40</ele>
        <time>2022-03-26T15:50:58Z</time>
      </trkpt>
      <trkpt lat="45.8833" lon="-1.26395">
        <ele>-39.8</ele>
        <time>2022-03-26T15:51:02Z</time>
      </trkpt>
      <trkpt lat="45.88328" lon="-1.26389">
        <ele>-40</ele>
        <time>2022-03-26T15:51:03Z</time>
      </trkpt>
      <trkpt lat="45.88321" lon="-1.26372">
        <ele>-40.4</ele>
        <time>2022-03-26T15:51:06Z</time>
      </trkpt>
      <trkpt lat="45.88313" lon="-1.26353">
        <ele>-41.2</ele>
        <time>2022-03-26T15:51:09Z</time>
      </trkpt>
      <trkpt lat="45.88311" lon="-1.26347">
        <ele>-41</ele>
        <time>2022-03-26T15:51:10Z</time>
      </trkpt>
      <trkpt lat="45.88306" lon="-1.26336">
        <ele>-40.8</ele>
        <time>2022-03-26T15:51:12Z</time>
      </trkpt>
      <trkpt lat="45.88303" lon="-1.26329">
        <ele>-40.6</ele>
        <time>2022-03-26T15:51:13Z</time>
      </trkpt>
      <trkpt lat="45.883" lon="-1.26322">
        <ele>-40.4</ele>
        <time>2022-03-26T15:51:14Z</time>
      </trkpt>
      <trkpt lat="45.88293" lon="-1.26303">
        <ele>-40</ele>
        <time>2022-03-26T15:51:17Z</time>
      </trkpt>
      <trkpt lat="45.88286" lon="-1.26287">
        <ele>-39.8</ele>
        <time>2022-03-26T15:51:20Z</time>
      </trkpt>
      <trkpt lat="45.88283" lon="-1.2628">
        <ele>-39.6</ele>
        <time>2022-03-26T15:51:21Z</time>
      </trkpt>
      <trkpt lat="45.88278" lon="-1.26268">
        <ele>-39</ele>
        <time>2022-03-26T15:51:23Z</time>
      </trkpt>
      <trkpt lat="45.88275" lon="-1.26261">
        <ele>-38.8</ele>
        <time>2022-03-26T15:51:24Z</time>
      </trkpt>
      <trkpt lat="45.88272" lon="-1.26253">
        <ele>-38.6</ele>
        <time>2022-03-26T15:51:25Z</time>
      </trkpt>
      <trkpt lat="45.88265" lon="-1.26236">
        <ele>-38.4</ele>
        <time>2022-03-26T15:51:28Z</time>
      </trkpt>
      <trkpt lat="45.88256" lon="-1.26222">
        <ele>-38</ele>
        <time>2022-03-26T15:51:32Z</time>
      </trkpt>
      <trkpt lat="45.88247" lon="-1.2621">
        <ele>-37.4</ele>
        <time>2022-03-26T15:51:35Z</time>
      </trkpt>
      <trkpt lat="45.88246" lon="-1.26207">
        <ele>-37</ele>
        <time>2022-03-26T15:51:36Z</time>
      </trkpt>
      <trkpt lat="45.8824" lon="-1.26199">
        <ele>-36.6</ele>
        <time>2022-03-26T15:51:38Z</time>
      </trkpt>
      <trkpt lat="45.88236" lon="-1.26194">
        <ele>-36.6</ele>
        <time>2022-03-26T15:51:39Z</time>
      </trkpt>
      <trkpt lat="45.88225" lon="-1.26179">
        <ele>-35.6</ele>
        <time>2022-03-26T15:51:44Z</time>
      </trkpt>
      <trkpt lat="45.88216" lon="-1.26165">
        <ele>-35.2</ele>
        <time>2022-03-26T15:51:47Z</time>
      </trkpt>
      <trkpt lat="45.88202" lon="-1.26146">
        <ele>-34.4</ele>
        <time>2022-03-26T15:51:51Z</time>
      </trkpt>
      <trkpt lat="45.8819" lon="-1.26126">
        <ele>-33.4</ele>
        <time>2022-03-26T15:51:54Z</time>
      </trkpt>
      <trkpt lat="45.88184" lon="-1.26115">
        <ele>-33</ele>
        <time>2022-03-26T15:51:56Z</time>
      </trkpt>
      <trkpt lat="45.88174" lon="-1.26105">
        <ele>-32.4</ele>
        <time>2022-03-26T15:51:59Z</time>
      </trkpt>
      <trkpt lat="45.88165" lon="-1.26096">
        <ele>-32.4</ele>
        <time>2022-03-26T15:52:02Z</time>
      </trkpt>
      <trkpt lat="45.88162" lon="-1.26093">
        <ele>-32.4</ele>
        <time>2022-03-26T15:52:03Z</time>
      </trkpt>
      <trkpt lat="45.88152" lon="-1.26085">
        <ele>-32.4</ele>
        <time>2022-03-26T15:52:06Z</time>
      </trkpt>
      <trkpt lat="45.88149" lon="-1.26082">
        <ele>-32.2</ele>
        <time>2022-03-26T15:52:07Z</time>
      </trkpt>
      <trkpt lat="45.88141" lon="-1.26063">
        <ele>-31.8</ele>
        <time>2022-03-26T15:52:10Z</time>
      </trkpt>
      <trkpt lat="45.8814" lon="-1.26057">
        <ele>-31.6</ele>
        <time>2022-03-26T15:52:11Z</time>
      </trkpt>
      <trkpt lat="45.88136" lon="-1.2604">
        <ele>-31.2</ele>
        <time>2022-03-26T15:52:14Z</time>
      </trkpt>
      <trkpt lat="45.88129" lon="-1.26014">
        <ele>-30.6</ele>
        <time>2022-03-26T15:52:18Z</time>
      </trkpt>
      <trkpt lat="45.88127" lon="-1.26007">
        <ele>-30.6</ele>
        <time>2022-03-26T15:52:19Z</time>
      </trkpt>
      <trkpt lat="45.88122" lon="-1.25987">
        <ele>-30.2</ele>
        <time>2022-03-26T15:52:23Z</time>
      </trkpt>
      <trkpt lat="45.8812" lon="-1.25982">
        <ele>-30.2</ele>
        <time>2022-03-26T15:52:24Z</time>
      </trkpt>
      <trkpt lat="45.88116" lon="-1.25941">
        <ele>-29.6</ele>
        <time>2022-03-26T15:52:29Z</time>
      </trkpt>
      <trkpt lat="45.88116" lon="-1.25933">
        <ele>-29.4</ele>
        <time>2022-03-26T15:52:30Z</time>
      </trkpt>
      <trkpt lat="45.88115" lon="-1.25925">
        <ele>-29.2</ele>
        <time>2022-03-26T15:52:31Z</time>
      </trkpt>
      <trkpt lat="45.88112" lon="-1.25894">
        <ele>-29</ele>
        <time>2022-03-26T15:52:35Z</time>
      </trkpt>
      <trkpt lat="45.88111" lon="-1.25878">
        <ele>-28.8</ele>
        <time>2022-03-26T15:52:37Z</time>
      </trkpt>
      <trkpt lat="45.88111" lon="-1.2586">
        <ele>-28.6</ele>
        <time>2022-03-26T15:52:39Z</time>
      </trkpt>
      <trkpt lat="45.88113" lon="-1.25843">
        <ele>-28.6</ele>
        <time>2022-03-26T15:52:41Z</time>
      </trkpt>
      <trkpt lat="45.88115" lon="-1.25817">
        <ele>-28.4</ele>
        <time>2022-03-26T15:52:44Z</time>
      </trkpt>
      <trkpt lat="45.88112" lon="-1.25784">
        <ele>-28</ele>
        <time>2022-03-26T15:52:48Z</time>
      </trkpt>
      <trkpt lat="45.88104" lon="-1.25742">
        <ele>-27.6</ele>
        <time>2022-03-26T15:52:54Z</time>
      </trkpt>
      <trkpt lat="45.881" lon="-1.2573">
        <ele>-27.4</ele>
        <time>2022-03-26T15:52:56Z</time>
      </trkpt>
      <trkpt lat="45.88097" lon="-1.25717">
        <ele>-27.2</ele>
        <time>2022-03-26T15:52:58Z</time>
      </trkpt>
      <trkpt lat="45.88088" lon="-1.25685">
        <ele>-26.8</ele>
        <time>2022-03-26T15:53:04Z</time>
      </trkpt>
      <trkpt lat="45.88083" lon="-1.25669">
        <ele>-26.2</ele>
        <time>2022-03-26T15:53:08Z</time>
      </trkpt>
      <trkpt lat="45.88079" lon="-1.25653">
        <ele>-25.2</ele>
        <time>2022-03-26T15:53:13Z</time>
      </trkpt>
      <trkpt lat="45.88076" lon="-1.25643">
        <ele>-24.6</ele>
        <time>2022-03-26T15:53:16Z</time>
      </trkpt>
      <trkpt lat="45.88071" lon="-1.25635">
        <ele>-24</ele>
        <time>2022-03-26T15:53:18Z</time>
      </trkpt>
      <trkpt lat="45.88062" lon="-1.25634">
        <ele>-23.8</ele>
        <time>2022-03-26T15:53:21Z</time>
      </trkpt>
      <trkpt lat="45.88048" lon="-1.25633">
        <ele>-24.2</ele>
        <time>2022-03-26T15:53:25Z</time>
      </trkpt>
      <trkpt lat="45.88041" lon="-1.25632">
        <ele>-24.2</ele>
        <time>2022-03-26T15:53:27Z</time>
      </trkpt>
      <trkpt lat="45.88039" lon="-1.25631">
        <ele>-24.2</ele>
        <time>2022-03-26T15:53:28Z</time>
      </trkpt>
      <trkpt lat="45.88039" lon="-1.25631">
        <ele>-24.2</ele>
        <time>2022-03-26T15:53:29Z</time>
      </trkpt>
      <trkpt lat="45.88031" lon="-1.25627">
        <ele>-24.4</ele>
        <time>2022-03-26T15:53:31Z</time>
      </trkpt>
      <trkpt lat="45.88015" lon="-1.25617">
        <ele>-23.4</ele>
        <time>2022-03-26T15:53:35Z</time>
      </trkpt>
      <trkpt lat="45.88005" lon="-1.25611">
        <ele>-25.6</ele>
        <time>2022-03-26T15:53:39Z</time>
      </trkpt>
      <trkpt lat="45.87995" lon="-1.25604">
        <ele>-25.2</ele>
        <time>2022-03-26T15:53:43Z</time>
      </trkpt>
      <trkpt lat="45.87983" lon="-1.25595">
        <ele>-26</ele>
        <time>2022-03-26T15:53:47Z</time>
      </trkpt>
      <trkpt lat="45.8798" lon="-1.25592">
        <ele>-26</ele>
        <time>2022-03-26T15:53:48Z</time>
      </trkpt>
      <trkpt lat="45.87977" lon="-1.25589">
        <ele>-26.2</ele>
        <time>2022-03-26T15:53:49Z</time>
      </trkpt>
      <trkpt lat="45.8797" lon="-1.25582">
        <ele>-26.6</ele>
        <time>2022-03-26T15:53:51Z</time>
      </trkpt>
      <trkpt lat="45.8796" lon="-1.25572">
        <ele>-27.8</ele>
        <time>2022-03-26T15:53:55Z</time>
      </trkpt>
      <trkpt lat="45.87949" lon="-1.25558">
        <ele>-29.4</ele>
        <time>2022-03-26T15:53:59Z</time>
      </trkpt>
      <trkpt lat="45.8794" lon="-1.25547">
        <ele>-31</ele>
        <time>2022-03-26T15:54:03Z</time>
      </trkpt>
      <trkpt lat="45.87935" lon="-1.2554">
        <ele>-31.8</ele>
        <time>2022-03-26T15:54:05Z</time>
      </trkpt>
      <trkpt lat="45.87927" lon="-1.25531">
        <ele>-32</ele>
        <time>2022-03-26T15:54:07Z</time>
      </trkpt>
      <trkpt lat="45.87906" lon="-1.25504">
        <ele>-30.2</ele>
        <time>2022-03-26T15:54:12Z</time>
      </trkpt>
      <trkpt lat="45.87893" lon="-1.25488">
        <ele>-32.6</ele>
        <time>2022-03-26T15:54:17Z</time>
      </trkpt>
      <trkpt lat="45.87879" lon="-1.25471">
        <ele>-30.4</ele>
        <time>2022-03-26T15:54:21Z</time>
      </trkpt>
      <trkpt lat="45.87876" lon="-1.25466">
        <ele>-30.4</ele>
        <time>2022-03-26T15:54:22Z</time>
      </trkpt>
      <trkpt lat="45.87868" lon="-1.25455">
        <ele>-30.2</ele>
        <time>2022-03-26T15:54:24Z</time>
      </trkpt>
      <trkpt lat="45.87863" lon="-1.2545">
        <ele>-30</ele>
        <time>2022-03-26T15:54:25Z</time>
      </trkpt>
      <trkpt lat="45.8785" lon="-1.25436">
        <ele>-30.2</ele>
        <time>2022-03-26T15:54:28Z</time>
      </trkpt>
      <trkpt lat="45.87845" lon="-1.25434">
        <ele>-30</ele>
        <time>2022-03-26T15:54:29Z</time>
      </trkpt>
      <trkpt lat="45.87837" lon="-1.25428">
        <ele>-29</ele>
        <time>2022-03-26T15:54:31Z</time>
      </trkpt>
      <trkpt lat="45.8783" lon="-1.2542">
        <ele>-29</ele>
        <time>2022-03-26T15:54:33Z</time>
      </trkpt>
      <trkpt lat="45.87814" lon="-1.25394">
        <ele>-30</ele>
        <time>2022-03-26T15:54:37Z</time>
      </trkpt>
      <trkpt lat="45.87802" lon="-1.25375">
        <ele>-29.4</ele>
        <time>2022-03-26T15:54:40Z</time>
      </trkpt>
      <trkpt lat="45.87798" lon="-1.25368">
        <ele>-29.4</ele>
        <time>2022-03-26T15:54:41Z</time>
      </trkpt>
      <trkpt lat="45.87795" lon="-1.25362">
        <ele>-29.4</ele>
        <time>2022-03-26T15:54:42Z</time>
      </trkpt>
      <trkpt lat="45.87787" lon="-1.25349">
        <ele>-29.2</ele>
        <time>2022-03-26T15:54:44Z</time>
      </trkpt>
      <trkpt lat="45.87759" lon="-1.25302">
        <ele>-28.8</ele>
        <time>2022-03-26T15:54:51Z</time>
      </trkpt>
      <trkpt lat="45.87756" lon="-1.25297">
        <ele>-28.6</ele>
        <time>2022-03-26T15:54:52Z</time>
      </trkpt>
      <trkpt lat="45.87749" lon="-1.25285">
        <ele>-28.2</ele>
        <time>2022-03-26T15:54:54Z</time>
      </trkpt>
      <trkpt lat="45.87742" lon="-1.25275">
        <ele>-28</ele>
        <time>2022-03-26T15:54:56Z</time>
      </trkpt>
      <trkpt lat="45.87732" lon="-1.25258">
        <ele>-27.8</ele>
        <time>2022-03-26T15:54:59Z</time>
      </trkpt>
      <trkpt lat="45.87726" lon="-1.25247">
        <ele>-27.8</ele>
        <time>2022-03-26T15:55:01Z</time>
      </trkpt>
      <trkpt lat="45.87711" lon="-1.25224">
        <ele>-27.8</ele>
        <time>2022-03-26T15:55:06Z</time>
      </trkpt>
      <trkpt lat="45.87708" lon="-1.2522">
        <ele>-27.8</ele>
        <time>2022-03-26T15:55:07Z</time>
      </trkpt>
      <trkpt lat="45.87699" lon="-1.25208">
        <ele>-27.8</ele>
        <time>2022-03-26T15:55:09Z</time>
      </trkpt>
      <trkpt lat="45.87689" lon="-1.25202">
        <ele>-27.8</ele>
        <time>2022-03-26T15:55:11Z</time>
      </trkpt>
      <trkpt lat="45.87678" lon="-1.25186">
        <ele>-27.6</ele>
        <time>2022-03-26T15:55:14Z</time>
      </trkpt>
      <trkpt lat="45.87672" lon="-1.25178">
        <ele>-27.4</ele>
        <time>2022-03-26T15:55:16Z</time>
      </trkpt>
      <trkpt lat="45.87653" lon="-1.25184">
        <ele>-27.2</ele>
        <time>2022-03-26T15:55:18Z</time>
      </trkpt>
      <trkpt lat="45.8765" lon="-1.25178">
        <ele>-27.2</ele>
        <time>2022-03-26T15:55:19Z</time>
      </trkpt>
      <trkpt lat="45.87647" lon="-1.25171">
        <ele>-27.2</ele>
        <time>2022-03-26T15:55:20Z</time>
      </trkpt>
      <trkpt lat="45.87641" lon="-1.25158">
        <ele>-27.2</ele>
        <time>2022-03-26T15:55:22Z</time>
      </trkpt>
      <trkpt lat="45.87635" lon="-1.25144">
        <ele>-27.2</ele>
        <time>2022-03-26T15:55:25Z</time>
      </trkpt>
      <trkpt lat="45.87633" lon="-1.25139">
        <ele>-27.2</ele>
        <time>2022-03-26T15:55:26Z</time>
      </trkpt>
      <trkpt lat="45.87627" lon="-1.25126">
        <ele>-27.2</ele>
        <time>2022-03-26T15:55:28Z</time>
      </trkpt>
      <trkpt lat="45.8762" lon="-1.25111">
        <ele>-27.2</ele>
        <time>2022-03-26T15:55:30Z</time>
      </trkpt>
      <trkpt lat="45.87611" lon="-1.25092">
        <ele>-27.2</ele>
        <time>2022-03-26T15:55:33Z</time>
      </trkpt>
      <trkpt lat="45.87601" lon="-1.25069">
        <ele>-26.8</ele>
        <time>2022-03-26T15:55:36Z</time>
      </trkpt>
      <trkpt lat="45.87595" lon="-1.25053">
        <ele>-26.8</ele>
        <time>2022-03-26T15:55:38Z</time>
      </trkpt>
      <trkpt lat="45.8759" lon="-1.25035">
        <ele>-26.8</ele>
        <time>2022-03-26T15:55:40Z</time>
      </trkpt>
      <trkpt lat="45.87579" lon="-1.25023">
        <ele>-26.4</ele>
        <time>2022-03-26T15:55:42Z</time>
      </trkpt>
      <trkpt lat="45.87548" lon="-1.25009">
        <ele>-25</ele>
        <time>2022-03-26T15:55:47Z</time>
      </trkpt>
      <trkpt lat="45.87542" lon="-1.25007">
        <ele>-24.6</ele>
        <time>2022-03-26T15:55:48Z</time>
      </trkpt>
      <trkpt lat="45.87537" lon="-1.25005">
        <ele>-24.2</ele>
        <time>2022-03-26T15:55:49Z</time>
      </trkpt>
      <trkpt lat="45.87515" lon="-1.24996">
        <ele>-23.2</ele>
        <time>2022-03-26T15:55:53Z</time>
      </trkpt>
      <trkpt lat="45.87487" lon="-1.24984">
        <ele>-22.2</ele>
        <time>2022-03-26T15:55:58Z</time>
      </trkpt>
      <trkpt lat="45.87482" lon="-1.24982">
        <ele>-22</ele>
        <time>2022-03-26T15:55:59Z</time>
      </trkpt>
      <trkpt lat="45.87478" lon="-1.24981">
        <ele>-21.8</ele>
        <time>2022-03-26T15:56:00Z</time>
      </trkpt>
      <trkpt lat="45.87467" lon="-1.24976">
        <ele>-21.6</ele>
        <time>2022-03-26T15:56:02Z</time>
      </trkpt>
      <trkpt lat="45.87455" lon="-1.24971">
        <ele>-21.2</ele>
        <time>2022-03-26T15:56:04Z</time>
      </trkpt>
      <trkpt lat="45.87444" lon="-1.24962">
        <ele>-20.8</ele>
        <time>2022-03-26T15:56:06Z</time>
      </trkpt>
      <trkpt lat="45.87424" lon="-1.24941">
        <ele>-20</ele>
        <time>2022-03-26T15:56:11Z</time>
      </trkpt>
      <trkpt lat="45.87406" lon="-1.24927">
        <ele>-19.4</ele>
        <time>2022-03-26T15:56:15Z</time>
      </trkpt>
      <trkpt lat="45.874" lon="-1.24925">
        <ele>-19.4</ele>
        <time>2022-03-26T15:56:16Z</time>
      </trkpt>
      <trkpt lat="45.87394" lon="-1.24922">
        <ele>-19.2</ele>
        <time>2022-03-26T15:56:17Z</time>
      </trkpt>
      <trkpt lat="45.87381" lon="-1.24917">
        <ele>-19</ele>
        <time>2022-03-26T15:56:19Z</time>
      </trkpt>
      <trkpt lat="45.87357" lon="-1.24907">
        <ele>-18.8</ele>
        <time>2022-03-26T15:56:23Z</time>
      </trkpt>
      <trkpt lat="45.87342" lon="-1.24895">
        <ele>-18.6</ele>
        <time>2022-03-26T15:56:26Z</time>
      </trkpt>
      <trkpt lat="45.87335" lon="-1.24886">
        <ele>-18.6</ele>
        <time>2022-03-26T15:56:28Z</time>
      </trkpt>
      <trkpt lat="45.87324" lon="-1.24874">
        <ele>-18.8</ele>
        <time>2022-03-26T15:56:31Z</time>
      </trkpt>
      <trkpt lat="45.87317" lon="-1.24867">
        <ele>-18.8</ele>
        <time>2022-03-26T15:56:33Z</time>
      </trkpt>
      <trkpt lat="45.87299" lon="-1.24848">
        <ele>-18.8</ele>
        <time>2022-03-26T15:56:37Z</time>
      </trkpt>
      <trkpt lat="45.87295" lon="-1.24843">
        <ele>-19</ele>
        <time>2022-03-26T15:56:38Z</time>
      </trkpt>
      <trkpt lat="45.87282" lon="-1.24829">
        <ele>-19</ele>
        <time>2022-03-26T15:56:41Z</time>
      </trkpt>
      <trkpt lat="45.87273" lon="-1.24819">
        <ele>-19</ele>
        <time>2022-03-26T15:56:43Z</time>
      </trkpt>
      <trkpt lat="45.87262" lon="-1.24805">
        <ele>-19.6</ele>
        <time>2022-03-26T15:56:46Z</time>
      </trkpt>
      <trkpt lat="45.87259" lon="-1.248">
        <ele>-19.8</ele>
        <time>2022-03-26T15:56:47Z</time>
      </trkpt>
      <trkpt lat="45.87249" lon="-1.24784">
        <ele>-20.2</ele>
        <time>2022-03-26T15:56:49Z</time>
      </trkpt>
      <trkpt lat="45.87246" lon="-1.24779">
        <ele>-20.6</ele>
        <time>2022-03-26T15:56:51Z</time>
      </trkpt>
      <trkpt lat="45.87243" lon="-1.24774">
        <ele>-21</ele>
        <time>2022-03-26T15:56:52Z</time>
      </trkpt>
      <trkpt lat="45.87236" lon="-1.24764">
        <ele>-21.2</ele>
        <time>2022-03-26T15:56:54Z</time>
      </trkpt>
      <trkpt lat="45.8723" lon="-1.24754">
        <ele>-21.4</ele>
        <time>2022-03-26T15:56:56Z</time>
      </trkpt>
      <trkpt lat="45.87215" lon="-1.24731">
        <ele>-21</ele>
        <time>2022-03-26T15:57:00Z</time>
      </trkpt>
      <trkpt lat="45.87208" lon="-1.24719">
        <ele>-21</ele>
        <time>2022-03-26T15:57:01Z</time>
      </trkpt>
      <trkpt lat="45.87208" lon="-1.24719">
        <ele>-21.2</ele>
        <time>2022-03-26T15:57:02Z</time>
      </trkpt>
      <trkpt lat="45.87198" lon="-1.24704">
        <ele>-21.2</ele>
        <time>2022-03-26T15:57:05Z</time>
      </trkpt>
      <trkpt lat="45.87183" lon="-1.24685">
        <ele>-21.2</ele>
        <time>2022-03-26T15:57:09Z</time>
      </trkpt>
      <trkpt lat="45.87179" lon="-1.2468">
        <ele>-21.2</ele>
        <time>2022-03-26T15:57:10Z</time>
      </trkpt>
      <trkpt lat="45.8717" lon="-1.2467">
        <ele>-21.2</ele>
        <time>2022-03-26T15:57:13Z</time>
      </trkpt>
      <trkpt lat="45.87167" lon="-1.24666">
        <ele>-21.2</ele>
        <time>2022-03-26T15:57:14Z</time>
      </trkpt>
      <trkpt lat="45.87164" lon="-1.24663">
        <ele>-21.2</ele>
        <time>2022-03-26T15:57:15Z</time>
      </trkpt>
      <trkpt lat="45.87158" lon="-1.24656">
        <ele>-21.8</ele>
        <time>2022-03-26T15:57:17Z</time>
      </trkpt>
      <trkpt lat="45.8712" lon="-1.24646">
        <ele>-20.2</ele>
        <time>2022-03-26T15:57:23Z</time>
      </trkpt>
      <trkpt lat="45.87109" lon="-1.24645">
        <ele>-19.6</ele>
        <time>2022-03-26T15:57:25Z</time>
      </trkpt>
      <trkpt lat="45.87093" lon="-1.24644">
        <ele>-19</ele>
        <time>2022-03-26T15:57:28Z</time>
      </trkpt>
      <trkpt lat="45.87089" lon="-1.24644">
        <ele>-18.8</ele>
        <time>2022-03-26T15:57:29Z</time>
      </trkpt>
      <trkpt lat="45.87074" lon="-1.24644">
        <ele>-18.6</ele>
        <time>2022-03-26T15:57:32Z</time>
      </trkpt>
      <trkpt lat="45.87039" lon="-1.24644">
        <ele>-18.2</ele>
        <time>2022-03-26T15:57:38Z</time>
      </trkpt>
      <trkpt lat="45.87014" lon="-1.24644">
        <ele>-18.2</ele>
        <time>2022-03-26T15:57:43Z</time>
      </trkpt>
      <trkpt lat="45.86997" lon="-1.24644">
        <ele>-18.2</ele>
        <time>2022-03-26T15:57:46Z</time>
      </trkpt>
      <trkpt lat="45.86985" lon="-1.24643">
        <ele>-18.2</ele>
        <time>2022-03-26T15:57:48Z</time>
      </trkpt>
      <trkpt lat="45.8696" lon="-1.24632">
        <ele>-18</ele>
        <time>2022-03-26T15:57:53Z</time>
      </trkpt>
      <trkpt lat="45.86956" lon="-1.2463">
        <ele>-18</ele>
        <time>2022-03-26T15:57:54Z</time>
      </trkpt>
      <trkpt lat="45.8694" lon="-1.2462">
        <ele>-18</ele>
        <time>2022-03-26T15:57:58Z</time>
      </trkpt>
      <trkpt lat="45.86914" lon="-1.24604">
        <ele>-17.8</ele>
        <time>2022-03-26T15:58:04Z</time>
      </trkpt>
      <trkpt lat="45.8689" lon="-1.24589">
        <ele>-17.8</ele>
        <time>2022-03-26T15:58:10Z</time>
      </trkpt>
      <trkpt lat="45.86877" lon="-1.24581">
        <ele>-18</ele>
        <time>2022-03-26T15:58:14Z</time>
      </trkpt>
      <trkpt lat="45.86869" lon="-1.24576">
        <ele>-18</ele>
        <time>2022-03-26T15:58:16Z</time>
      </trkpt>
      <trkpt lat="45.86859" lon="-1.2457">
        <ele>-18.2</ele>
        <time>2022-03-26T15:58:18Z</time>
      </trkpt>
      <trkpt lat="45.86833" lon="-1.24554">
        <ele>-19</ele>
        <time>2022-03-26T15:58:23Z</time>
      </trkpt>
      <trkpt lat="45.86808" lon="-1.24538">
        <ele>-19.8</ele>
        <time>2022-03-26T15:58:28Z</time>
      </trkpt>
      <trkpt lat="45.86804" lon="-1.24536">
        <ele>-20</ele>
        <time>2022-03-26T15:58:29Z</time>
      </trkpt>
      <trkpt lat="45.868" lon="-1.24533">
        <ele>-20.2</ele>
        <time>2022-03-26T15:58:30Z</time>
      </trkpt>
      <trkpt lat="45.86784" lon="-1.24523">
        <ele>-21</ele>
        <time>2022-03-26T15:58:33Z</time>
      </trkpt>
      <trkpt lat="45.86752" lon="-1.24503">
        <ele>-22.4</ele>
        <time>2022-03-26T15:58:39Z</time>
      </trkpt>
      <trkpt lat="45.86739" lon="-1.24495">
        <ele>-23</ele>
        <time>2022-03-26T15:58:42Z</time>
      </trkpt>
      <trkpt lat="45.86731" lon="-1.2449">
        <ele>-23.4</ele>
        <time>2022-03-26T15:58:44Z</time>
      </trkpt>
      <trkpt lat="45.86711" lon="-1.24477">
        <ele>-24.6</ele>
        <time>2022-03-26T15:58:49Z</time>
      </trkpt>
      <trkpt lat="45.86689" lon="-1.24463">
        <ele>-25.6</ele>
        <time>2022-03-26T15:58:53Z</time>
      </trkpt>
      <trkpt lat="45.86665" lon="-1.24448">
        <ele>-27.4</ele>
        <time>2022-03-26T15:58:58Z</time>
      </trkpt>
      <trkpt lat="45.86642" lon="-1.24433">
        <ele>-28.2</ele>
        <time>2022-03-26T15:59:03Z</time>
      </trkpt>
      <trkpt lat="45.86607" lon="-1.24411">
        <ele>-27.2</ele>
        <time>2022-03-26T15:59:09Z</time>
      </trkpt>
      <trkpt lat="45.86589" lon="-1.244">
        <ele>-27.4</ele>
        <time>2022-03-26T15:59:13Z</time>
      </trkpt>
      <trkpt lat="45.86585" lon="-1.24398">
        <ele>-27.4</ele>
        <time>2022-03-26T15:59:14Z</time>
      </trkpt>
      <trkpt lat="45.86582" lon="-1.24396">
        <ele>-27.4</ele>
        <time>2022-03-26T15:59:15Z</time>
      </trkpt>
      <trkpt lat="45.86564" lon="-1.24399">
        <ele>-29.2</ele>
        <time>2022-03-26T15:59:18Z</time>
      </trkpt>
      <trkpt lat="45.86555" lon="-1.24403">
        <ele>-28.4</ele>
        <time>2022-03-26T15:59:20Z</time>
      </trkpt>
      <trkpt lat="45.86543" lon="-1.24407">
        <ele>-26.4</ele>
        <time>2022-03-26T15:59:23Z</time>
      </trkpt>
      <trkpt lat="45.86533" lon="-1.24407">
        <ele>-25.4</ele>
        <time>2022-03-26T15:59:25Z</time>
      </trkpt>
      <trkpt lat="45.86522" lon="-1.24406">
        <ele>-26.6</ele>
        <time>2022-03-26T15:59:27Z</time>
      </trkpt>
      <trkpt lat="45.86503" lon="-1.24403">
        <ele>-26.8</ele>
        <time>2022-03-26T15:59:30Z</time>
      </trkpt>
      <trkpt lat="45.86492" lon="-1.24398">
        <ele>-26.8</ele>
        <time>2022-03-26T15:59:32Z</time>
      </trkpt>
      <trkpt lat="45.8648" lon="-1.24393">
        <ele>-27</ele>
        <time>2022-03-26T15:59:34Z</time>
      </trkpt>
      <trkpt lat="45.86468" lon="-1.24388">
        <ele>-27</ele>
        <time>2022-03-26T15:59:36Z</time>
      </trkpt>
      <trkpt lat="45.86443" lon="-1.24378">
        <ele>-27</ele>
        <time>2022-03-26T15:59:40Z</time>
      </trkpt>
      <trkpt lat="45.86431" lon="-1.24375">
        <ele>-27.8</ele>
        <time>2022-03-26T15:59:42Z</time>
      </trkpt>
      <trkpt lat="45.86409" lon="-1.24365">
        <ele>-27.6</ele>
        <time>2022-03-26T15:59:46Z</time>
      </trkpt>
      <trkpt lat="45.86399" lon="-1.24359">
        <ele>-27.8</ele>
        <time>2022-03-26T15:59:48Z</time>
      </trkpt>
      <trkpt lat="45.86388" lon="-1.24355">
        <ele>-28.4</ele>
        <time>2022-03-26T15:59:50Z</time>
      </trkpt>
      <trkpt lat="45.86374" lon="-1.24355">
        <ele>-26.8</ele>
        <time>2022-03-26T15:59:53Z</time>
      </trkpt>
      <trkpt lat="45.86363" lon="-1.24354">
        <ele>-26.4</ele>
        <time>2022-03-26T15:59:55Z</time>
      </trkpt>
      <trkpt lat="45.86345" lon="-1.24355">
        <ele>-25.8</ele>
        <time>2022-03-26T15:59:58Z</time>
      </trkpt>
      <trkpt lat="45.86339" lon="-1.24357">
        <ele>-25.6</ele>
        <time>2022-03-26T15:59:59Z</time>
      </trkpt>
      <trkpt lat="45.86333" lon="-1.24359">
        <ele>-25.6</ele>
        <time>2022-03-26T16:00:00Z</time>
      </trkpt>
      <trkpt lat="45.86324" lon="-1.24367">
        <ele>-25.2</ele>
        <time>2022-03-26T16:00:02Z</time>
      </trkpt>
      <trkpt lat="45.8632" lon="-1.24371">
        <ele>-25.2</ele>
        <time>2022-03-26T16:00:03Z</time>
      </trkpt>
      <trkpt lat="45.86311" lon="-1.24378">
        <ele>-25</ele>
        <time>2022-03-26T16:00:05Z</time>
      </trkpt>
      <trkpt lat="45.86304" lon="-1.24384">
        <ele>-24.8</ele>
        <time>2022-03-26T16:00:07Z</time>
      </trkpt>
      <trkpt lat="45.86281" lon="-1.24381">
        <ele>-24.8</ele>
        <time>2022-03-26T16:00:11Z</time>
      </trkpt>
      <trkpt lat="45.86273" lon="-1.24375">
        <ele>-24.8</ele>
        <time>2022-03-26T16:00:13Z</time>
      </trkpt>
      <trkpt lat="45.86262" lon="-1.24372">
        <ele>-24.8</ele>
        <time>2022-03-26T16:00:15Z</time>
      </trkpt>
      <trkpt lat="45.86245" lon="-1.24375">
        <ele>-24.8</ele>
        <time>2022-03-26T16:00:18Z</time>
      </trkpt>
      <trkpt lat="45.8624" lon="-1.24376">
        <ele>-24.6</ele>
        <time>2022-03-26T16:00:19Z</time>
      </trkpt>
      <trkpt lat="45.86224" lon="-1.24381">
        <ele>-24.4</ele>
        <time>2022-03-26T16:00:22Z</time>
      </trkpt>
      <trkpt lat="45.86213" lon="-1.24384">
        <ele>-24</ele>
        <time>2022-03-26T16:00:24Z</time>
      </trkpt>
      <trkpt lat="45.86191" lon="-1.24393">
        <ele>-23.6</ele>
        <time>2022-03-26T16:00:28Z</time>
      </trkpt>
      <trkpt lat="45.86177" lon="-1.24396">
        <ele>-23.4</ele>
        <time>2022-03-26T16:00:30Z</time>
      </trkpt>
      <trkpt lat="45.8617" lon="-1.24397">
        <ele>-23.2</ele>
        <time>2022-03-26T16:00:31Z</time>
      </trkpt>
      <trkpt lat="45.86163" lon="-1.24398">
        <ele>-23.2</ele>
        <time>2022-03-26T16:00:32Z</time>
      </trkpt>
      <trkpt lat="45.86149" lon="-1.24386">
        <ele>-23.2</ele>
        <time>2022-03-26T16:00:34Z</time>
      </trkpt>
      <trkpt lat="45.86145" lon="-1.2438">
        <ele>-23.2</ele>
        <time>2022-03-26T16:00:35Z</time>
      </trkpt>
      <trkpt lat="45.86138" lon="-1.24368">
        <ele>-23.2</ele>
        <time>2022-03-26T16:00:37Z</time>
      </trkpt>
      <trkpt lat="45.86132" lon="-1.24352">
        <ele>-23.2</ele>
        <time>2022-03-26T16:00:39Z</time>
      </trkpt>
      <trkpt lat="45.86128" lon="-1.24329">
        <ele>-23.4</ele>
        <time>2022-03-26T16:00:41Z</time>
      </trkpt>
      <trkpt lat="45.86128" lon="-1.24329">
        <ele>-23.6</ele>
        <time>2022-03-26T16:00:42Z</time>
      </trkpt>
      <trkpt lat="45.8612" lon="-1.24325">
        <ele>-23</ele>
        <time>2022-03-26T16:00:44Z</time>
      </trkpt>
      <trkpt lat="45.86111" lon="-1.24321">
        <ele>-24.6</ele>
        <time>2022-03-26T16:00:46Z</time>
      </trkpt>
      <trkpt lat="45.86103" lon="-1.24317">
        <ele>-24.6</ele>
        <time>2022-03-26T16:00:48Z</time>
      </trkpt>
      <trkpt lat="45.86096" lon="-1.24313">
        <ele>-25.6</ele>
        <time>2022-03-26T16:00:51Z</time>
      </trkpt>
      <trkpt lat="45.86102" lon="-1.24274">
        <ele>-26.6</ele>
        <time>2022-03-26T16:00:54Z</time>
      </trkpt>
      <trkpt lat="45.86102" lon="-1.24269">
        <ele>-27</ele>
        <time>2022-03-26T16:00:55Z</time>
      </trkpt>
      <trkpt lat="45.86104" lon="-1.24263">
        <ele>-28</ele>
        <time>2022-03-26T16:00:57Z</time>
      </trkpt>
      <trkpt lat="45.86105" lon="-1.2426">
        <ele>-28.4</ele>
        <time>2022-03-26T16:00:58Z</time>
      </trkpt>
      <trkpt lat="45.86112" lon="-1.24241">
        <ele>-29.8</ele>
        <time>2022-03-26T16:01:02Z</time>
      </trkpt>
      <trkpt lat="45.86123" lon="-1.24221">
        <ele>-30.8</ele>
        <time>2022-03-26T16:01:06Z</time>
      </trkpt>
      <trkpt lat="45.86131" lon="-1.24201">
        <ele>-30.8</ele>
        <time>2022-03-26T16:01:09Z</time>
      </trkpt>
      <trkpt lat="45.86134" lon="-1.24195">
        <ele>-30.8</ele>
        <time>2022-03-26T16:01:10Z</time>
      </trkpt>
      <trkpt lat="45.86143" lon="-1.24164">
        <ele>-31.2</ele>
        <time>2022-03-26T16:01:15Z</time>
      </trkpt>
      <trkpt lat="45.86143" lon="-1.24146">
        <ele>-31.6</ele>
        <time>2022-03-26T16:01:18Z</time>
      </trkpt>
      <trkpt lat="45.86144" lon="-1.2414">
        <ele>-31.6</ele>
        <time>2022-03-26T16:01:19Z</time>
      </trkpt>
      <trkpt lat="45.86146" lon="-1.24127">
        <ele>-31.6</ele>
        <time>2022-03-26T16:01:21Z</time>
      </trkpt>
      <trkpt lat="45.86152" lon="-1.24112">
        <ele>-31.4</ele>
        <time>2022-03-26T16:01:23Z</time>
      </trkpt>
      <trkpt lat="45.86161" lon="-1.24097">
        <ele>-33</ele>
        <time>2022-03-26T16:01:26Z</time>
      </trkpt>
      <trkpt lat="45.86172" lon="-1.24082">
        <ele>-31.2</ele>
        <time>2022-03-26T16:01:30Z</time>
      </trkpt>
      <trkpt lat="45.86185" lon="-1.24066">
        <ele>-30</ele>
        <time>2022-03-26T16:01:34Z</time>
      </trkpt>
      <trkpt lat="45.862" lon="-1.24058">
        <ele>-29</ele>
        <time>2022-03-26T16:01:39Z</time>
      </trkpt>
      <trkpt lat="45.86203" lon="-1.24032">
        <ele>-28</ele>
        <time>2022-03-26T16:01:43Z</time>
      </trkpt>
      <trkpt lat="45.86206" lon="-1.24031">
        <ele>-28</ele>
        <time>2022-03-26T16:01:44Z</time>
      </trkpt>
      <trkpt lat="45.86211" lon="-1.24031">
        <ele>-27.4</ele>
        <time>2022-03-26T16:01:46Z</time>
      </trkpt>
      <trkpt lat="45.86213" lon="-1.2403">
        <ele>-27.2</ele>
        <time>2022-03-26T16:01:47Z</time>
      </trkpt>
      <trkpt lat="45.86222" lon="-1.24038">
        <ele>-27</ele>
        <time>2022-03-26T16:01:49Z</time>
      </trkpt>
      <trkpt lat="45.86223" lon="-1.2404">
        <ele>-26.6</ele>
        <time>2022-03-26T16:01:51Z</time>
      </trkpt>
      <trkpt lat="45.86224" lon="-1.24041">
        <ele>-26.4</ele>
        <time>2022-03-26T16:01:52Z</time>
      </trkpt>
      <trkpt lat="45.8621" lon="-1.24045">
        <ele>-26.2</ele>
        <time>2022-03-26T16:01:55Z</time>
      </trkpt>
      <trkpt lat="45.86197" lon="-1.24033">
        <ele>-25.4</ele>
        <time>2022-03-26T16:02:01Z</time>
      </trkpt>
      <trkpt lat="45.86189" lon="-1.24027">
        <ele>-25</ele>
        <time>2022-03-26T16:02:05Z</time>
      </trkpt>
      <trkpt lat="45.86175" lon="-1.24014">
        <ele>-25.2</ele>
        <time>2022-03-26T16:02:10Z</time>
      </trkpt>
      <trkpt lat="45.86167" lon="-1.24003">
        <ele>-25.6</ele>
        <time>2022-03-26T16:02:13Z</time>
      </trkpt>
      <trkpt lat="45.86156" lon="-1.2399">
        <ele>-25.4</ele>
        <time>2022-03-26T16:02:16Z</time>
      </trkpt>
      <trkpt lat="45.8615" lon="-1.23982">
        <ele>-27.2</ele>
        <time>2022-03-26T16:02:18Z</time>
      </trkpt>
      <trkpt lat="45.86147" lon="-1.23979">
        <ele>-26.6</ele>
        <time>2022-03-26T16:02:19Z</time>
      </trkpt>
      <trkpt lat="45.86135" lon="-1.23966">
        <ele>-27.2</ele>
        <time>2022-03-26T16:02:23Z</time>
      </trkpt>
      <trkpt lat="45.86129" lon="-1.23959">
        <ele>-27.4</ele>
        <time>2022-03-26T16:02:25Z</time>
      </trkpt>
      <trkpt lat="45.86116" lon="-1.23976">
        <ele>-27.4</ele>
        <time>2022-03-26T16:02:26Z</time>
      </trkpt>
      <trkpt lat="45.86107" lon="-1.23986">
        <ele>-27.2</ele>
        <time>2022-03-26T16:02:30Z</time>
      </trkpt>
      <trkpt lat="45.86105" lon="-1.23987">
        <ele>-26.8</ele>
        <time>2022-03-26T16:02:31Z</time>
      </trkpt>
      <trkpt lat="45.86106" lon="-1.23988">
        <ele>-26.2</ele>
        <time>2022-03-26T16:02:34Z</time>
      </trkpt>
      <trkpt lat="45.86106" lon="-1.23989">
        <ele>-26.2</ele>
        <time>2022-03-26T16:02:41Z</time>
      </trkpt>
      <trkpt lat="45.86107" lon="-1.23991">
        <ele>-25.8</ele>
        <time>2022-03-26T16:02:50Z</time>
      </trkpt>
      <trkpt lat="45.86107" lon="-1.23991">
        <ele>-25.2</ele>
        <time>2022-03-26T16:03:11Z</time>
      </trkpt>
      <trkpt lat="45.86106" lon="-1.23993">
        <ele>-24.6</ele>
        <time>2022-03-26T16:03:36Z</time>
      </trkpt>
      <trkpt lat="45.86106" lon="-1.23993">
        <ele>-24.2</ele>
        <time>2022-03-26T16:04:02Z</time>
      </trkpt>
      <trkpt lat="45.86106" lon="-1.23993">
        <ele>-23.8</ele>
        <time>2022-03-26T16:04:28Z</time>
      </trkpt>
      <trkpt lat="45.86106" lon="-1.23991">
        <ele>-23.4</ele>
        <time>2022-03-26T16:04:55Z</time>
      </trkpt>
      <trkpt lat="45.86107" lon="-1.23991">
        <ele>-22.6</ele>
        <time>2022-03-26T16:05:23Z</time>
      </trkpt>
      <trkpt lat="45.86107" lon="-1.23991">
        <ele>-22.2</ele>
        <time>2022-03-26T16:05:48Z</time>
      </trkpt>
      <trkpt lat="45.86107" lon="-1.23991">
        <ele>-21.6</ele>
        <time>2022-03-26T16:06:14Z</time>
      </trkpt>
      <trkpt lat="45.86107" lon="-1.2399">
        <ele>-21</ele>
        <time>2022-03-26T16:06:42Z</time>
      </trkpt>
      <trkpt lat="45.86107" lon="-1.2399">
        <ele>-20.8</ele>
        <time>2022-03-26T16:07:07Z</time>
      </trkpt>
      <trkpt lat="45.86106" lon="-1.23991">
        <ele>-20.2</ele>
        <time>2022-03-26T16:07:27Z</time>
      </trkpt>
      <trkpt lat="45.86106" lon="-1.23991">
        <ele>-19.8</ele>
        <time>2022-03-26T16:07:45Z</time>
      </trkpt>
      <trkpt lat="45.86106" lon="-1.2399">
        <ele>-19.4</ele>
        <time>2022-03-26T16:08:12Z</time>
      </trkpt>
      <trkpt lat="45.86107" lon="-1.23989">
        <ele>-18.6</ele>
        <time>2022-03-26T16:08:43Z</time>
      </trkpt>
      <trkpt lat="45.86107" lon="-1.23989">
        <ele>-18.2</ele>
        <time>2022-03-26T16:09:01Z</time>
      </trkpt>
      <trkpt lat="45.86107" lon="-1.23989">
        <ele>-17.8</ele>
        <time>2022-03-26T16:09:23Z</time>
      </trkpt>
      <trkpt lat="45.86107" lon="-1.23989">
        <ele>-17.4</ele>
        <time>2022-03-26T16:09:46Z</time>
      </trkpt>
      <trkpt lat="45.86106" lon="-1.23989">
        <ele>-17</ele>
        <time>2022-03-26T16:10:13Z</time>
      </trkpt>
      <trkpt lat="45.86105" lon="-1.23988">
        <ele>-16.8</ele>
        <time>2022-03-26T16:10:30Z</time>
      </trkpt>
      <trkpt lat="45.86105" lon="-1.23988">
        <ele>-16.6</ele>
        <time>2022-03-26T16:10:37Z</time>
      </trkpt>
      <trkpt lat="45.86107" lon="-1.23972">
        <ele>-16.6</ele>
        <time>2022-03-26T16:10:41Z</time>
      </trkpt>
      <trkpt lat="45.8612" lon="-1.23956">
        <ele>-16.4</ele>
        <time>2022-03-26T16:10:46Z</time>
      </trkpt>
      <trkpt lat="45.86127" lon="-1.23956">
        <ele>-16</ele>
        <time>2022-03-26T16:10:50Z</time>
      </trkpt>
      <trkpt lat="45.86139" lon="-1.2397">
        <ele>-15.8</ele>
        <time>2022-03-26T16:10:55Z</time>
      </trkpt>
      <trkpt lat="45.86141" lon="-1.23973">
        <ele>-15.6</ele>
        <time>2022-03-26T16:10:56Z</time>
      </trkpt>
      <trkpt lat="45.86147" lon="-1.23979">
        <ele>-15.6</ele>
        <time>2022-03-26T16:10:58Z</time>
      </trkpt>
      <trkpt lat="45.86158" lon="-1.23993">
        <ele>-15.6</ele>
        <time>2022-03-26T16:11:01Z</time>
      </trkpt>
      <trkpt lat="45.86171" lon="-1.24009">
        <ele>-15.2</ele>
        <time>2022-03-26T16:11:06Z</time>
      </trkpt>
      <trkpt lat="45.86181" lon="-1.24021">
        <ele>-15.4</ele>
        <time>2022-03-26T16:11:10Z</time>
      </trkpt>
      <trkpt lat="45.86192" lon="-1.24029">
        <ele>-15.2</ele>
        <time>2022-03-26T16:11:14Z</time>
      </trkpt>
      <trkpt lat="45.86208" lon="-1.24031">
        <ele>-14.8</ele>
        <time>2022-03-26T16:11:20Z</time>
      </trkpt>
      <trkpt lat="45.86217" lon="-1.2403">
        <ele>-15.8</ele>
        <time>2022-03-26T16:11:23Z</time>
      </trkpt>
      <trkpt lat="45.86224" lon="-1.24041">
        <ele>-15.6</ele>
        <time>2022-03-26T16:11:24Z</time>
      </trkpt>
      <trkpt lat="45.8623" lon="-1.2405">
        <ele>-16.2</ele>
        <time>2022-03-26T16:11:27Z</time>
      </trkpt>
      <trkpt lat="45.86239" lon="-1.24064">
        <ele>-16.4</ele>
        <time>2022-03-26T16:11:30Z</time>
      </trkpt>
      <trkpt lat="45.86243" lon="-1.2407">
        <ele>-16.6</ele>
        <time>2022-03-26T16:11:31Z</time>
      </trkpt>
      <trkpt lat="45.86259" lon="-1.24096">
        <ele>-16.8</ele>
        <time>2022-03-26T16:11:36Z</time>
      </trkpt>
      <trkpt lat="45.86267" lon="-1.24108">
        <ele>-17.2</ele>
        <time>2022-03-26T16:11:38Z</time>
      </trkpt>
      <trkpt lat="45.86274" lon="-1.24119">
        <ele>-17.2</ele>
        <time>2022-03-26T16:11:40Z</time>
      </trkpt>
      <trkpt lat="45.8628" lon="-1.2413">
        <ele>-17.6</ele>
        <time>2022-03-26T16:11:42Z</time>
      </trkpt>
      <trkpt lat="45.86286" lon="-1.24139">
        <ele>-17.6</ele>
        <time>2022-03-26T16:11:44Z</time>
      </trkpt>
      <trkpt lat="45.86289" lon="-1.24144">
        <ele>-17.6</ele>
        <time>2022-03-26T16:11:45Z</time>
      </trkpt>
      <trkpt lat="45.86295" lon="-1.24153">
        <ele>-17.8</ele>
        <time>2022-03-26T16:11:47Z</time>
      </trkpt>
      <trkpt lat="45.863" lon="-1.24161">
        <ele>-17.8</ele>
        <time>2022-03-26T16:11:49Z</time>
      </trkpt>
      <trkpt lat="45.86306" lon="-1.2417">
        <ele>-17.8</ele>
        <time>2022-03-26T16:11:51Z</time>
      </trkpt>
      <trkpt lat="45.86314" lon="-1.24183">
        <ele>-17.8</ele>
        <time>2022-03-26T16:11:55Z</time>
      </trkpt>
      <trkpt lat="45.86319" lon="-1.24191">
        <ele>-17.8</ele>
        <time>2022-03-26T16:11:58Z</time>
      </trkpt>
      <trkpt lat="45.86321" lon="-1.24194">
        <ele>-17.8</ele>
        <time>2022-03-26T16:11:59Z</time>
      </trkpt>
      <trkpt lat="45.86321" lon="-1.242">
        <ele>-17.8</ele>
        <time>2022-03-26T16:12:00Z</time>
      </trkpt>
      <trkpt lat="45.86323" lon="-1.24201">
        <ele>-17.8</ele>
        <time>2022-03-26T16:12:03Z</time>
      </trkpt>
      <trkpt lat="45.86323" lon="-1.24201">
        <ele>-18.2</ele>
        <time>2022-03-26T16:12:12Z</time>
      </trkpt>
      <trkpt lat="45.86324" lon="-1.24201">
        <ele>-18</ele>
        <time>2022-03-26T16:12:19Z</time>
      </trkpt>
      <trkpt lat="45.86327" lon="-1.24203">
        <ele>-17.6</ele>
        <time>2022-03-26T16:12:26Z</time>
      </trkpt>
      <trkpt lat="45.86327" lon="-1.24203">
        <ele>-17.4</ele>
        <time>2022-03-26T16:12:49Z</time>
      </trkpt>
      <trkpt lat="45.86327" lon="-1.24203">
        <ele>-17.2</ele>
        <time>2022-03-26T16:13:01Z</time>
      </trkpt>
    </trkseg>
  </trk>
</gpx>